<?xml version='1.0' encoding='UTF-8'?><gpx version="1.1" creator="JPX - https://github.com/jenetics/jpx" xmlns="http://www.topografix.com/GPX/1/1"><trk><trkseg><trkpt lat="42.4444003" lon="-8.6250422"><ele>59.0</ele><time>2026-05-02T08:04:36.155Z</time></trkpt><trkpt lat="42.4443942" lon="-8.6249515"><ele>59.0</ele><time>2026-05-02T08:04:57.149Z</time></trkpt><trkpt lat="42.4444061" lon="-8.6248515"><ele>59.0</ele><time>2026-05-02T08:05:03.852Z</time></trkpt><trkpt lat="42.4443442" lon="-8.6247993"><ele>59.0</ele><time>2026-05-02T08:05:07.855Z</time></trkpt><trkpt lat="42.4442738" lon="-8.6248168"><ele>59.0</ele><time>2026-05-02T08:05:16.758Z</time></trkpt><trkpt lat="42.4443252" lon="-8.6248782"><ele>59.0</ele><time>2026-05-02T08:05:37.562Z</time></trkpt><trkpt lat="42.444379" lon="-8.6249389"><ele>59.0</ele><time>2026-05-02T08:05:42.562Z</time></trkpt><trkpt lat="42.4443811" lon="-8.6250343"><ele>59.00000000000001</ele><time>2026-05-02T08:05:55.563Z</time></trkpt><trkpt lat="42.4444053" lon="-8.6251133"><ele>59.0</ele><time>2026-05-02T08:05:57.572Z</time></trkpt><trkpt lat="42.4444267" lon="-8.6252127"><ele>59.0</ele><time>2026-05-02T08:06:00.565Z</time></trkpt><trkpt lat="42.44437" lon="-8.6253107"><ele>59.0</ele><time>2026-05-02T08:06:03.558Z</time></trkpt><trkpt lat="42.4443329" lon="-8.6254036"><ele>59.00000000000001</ele><time>2026-05-02T08:06:05.566Z</time></trkpt><trkpt lat="42.4443281" lon="-8.6255149"><ele>59.0</ele><time>2026-05-02T08:06:08.567Z</time></trkpt><trkpt lat="42.4442919" lon="-8.6256348"><ele>58.50000000000001</ele><time>2026-05-02T08:06:11.569Z</time></trkpt><trkpt lat="42.4442455" lon="-8.6256969"><ele>58.0</ele><time>2026-05-02T08:06:13.565Z</time></trkpt><trkpt lat="42.4441821" lon="-8.6256364"><ele>57.5</ele><time>2026-05-02T08:06:16.559Z</time></trkpt><trkpt lat="42.4441139" lon="-8.6256103"><ele>57.0</ele><time>2026-05-02T08:06:19.559Z</time></trkpt><trkpt lat="42.4440644" lon="-8.6257129"><ele>56.50000000000001</ele><time>2026-05-02T08:06:21.561Z</time></trkpt><trkpt lat="42.4440324" lon="-8.6258088"><ele>56.0</ele><time>2026-05-02T08:06:22.56Z</time></trkpt><trkpt lat="42.4439926" lon="-8.6259265"><ele>56.0</ele><time>2026-05-02T08:06:23.564Z</time></trkpt><trkpt lat="42.4439507" lon="-8.6260592"><ele>55.99999999999999</ele><time>2026-05-02T08:06:24.565Z</time></trkpt><trkpt lat="42.4439102" lon="-8.6262006"><ele>55.99999999999999</ele><time>2026-05-02T08:06:25.561Z</time></trkpt><trkpt lat="42.4438728" lon="-8.6263428"><ele>56.0</ele><time>2026-05-02T08:06:26.562Z</time></trkpt><trkpt lat="42.4438347" lon="-8.6264834"><ele>56.0</ele><time>2026-05-02T08:06:27.555Z</time></trkpt><trkpt lat="42.4437876" lon="-8.6266156"><ele>58.199999999999996</ele><time>2026-05-02T08:06:28.556Z</time></trkpt><trkpt lat="42.443744" lon="-8.6267413"><ele>60.39999999999999</ele><time>2026-05-02T08:06:29.569Z</time></trkpt><trkpt lat="42.4437074" lon="-8.6268512"><ele>62.6</ele><time>2026-05-02T08:06:30.568Z</time></trkpt><trkpt lat="42.4436633" lon="-8.6269521"><ele>64.8</ele><time>2026-05-02T08:06:32.558Z</time></trkpt><trkpt lat="42.4436213" lon="-8.6270475"><ele>67.0</ele><time>2026-05-02T08:06:39.567Z</time></trkpt><trkpt lat="42.4435278" lon="-8.6270639"><ele>67.0</ele><time>2026-05-02T08:06:42.561Z</time></trkpt><trkpt lat="42.4434568" lon="-8.6269981"><ele>67.0</ele><time>2026-05-02T08:06:43.56Z</time></trkpt><trkpt lat="42.443377" lon="-8.626927"><ele>67.0</ele><time>2026-05-02T08:06:44.56Z</time></trkpt><trkpt lat="42.4432815" lon="-8.6268313"><ele>67.0</ele><time>2026-05-02T08:06:45.56Z</time></trkpt><trkpt lat="42.4431767" lon="-8.6267286"><ele>67.0</ele><time>2026-05-02T08:06:46.556Z</time></trkpt><trkpt lat="42.4430781" lon="-8.6266323"><ele>67.4</ele><time>2026-05-02T08:06:47.562Z</time></trkpt><trkpt lat="42.4429861" lon="-8.6265474"><ele>67.80000000000001</ele><time>2026-05-02T08:06:48.559Z</time></trkpt><trkpt lat="42.4428973" lon="-8.6264632"><ele>68.2</ele><time>2026-05-02T08:06:49.562Z</time></trkpt><trkpt lat="42.4428101" lon="-8.6263763"><ele>68.60000000000001</ele><time>2026-05-02T08:06:50.563Z</time></trkpt><trkpt lat="42.4427256" lon="-8.6262958"><ele>69.0</ele><time>2026-05-02T08:06:51.558Z</time></trkpt><trkpt lat="42.4426409" lon="-8.6262188"><ele>68.2</ele><time>2026-05-02T08:06:52.564Z</time></trkpt><trkpt lat="42.4425617" lon="-8.6261465"><ele>67.4</ele><time>2026-05-02T08:06:53.557Z</time></trkpt><trkpt lat="42.4424926" lon="-8.6260847"><ele>66.6</ele><time>2026-05-02T08:06:54.559Z</time></trkpt><trkpt lat="42.442426" lon="-8.6260336"><ele>65.8</ele><time>2026-05-02T08:06:55.563Z</time></trkpt><trkpt lat="42.4422861" lon="-8.6258946"><ele>65.0</ele><time>2026-05-02T08:06:58.26Z</time></trkpt><trkpt lat="42.4422326" lon="-8.6258476"><ele>65.2</ele><time>2026-05-02T08:06:59.162Z</time></trkpt><trkpt lat="42.442113" lon="-8.6257823"><ele>65.4</ele><time>2026-05-02T08:07:00.962Z</time></trkpt><trkpt lat="42.4420419" lon="-8.6257586"><ele>65.6</ele><time>2026-05-02T08:07:01.956Z</time></trkpt><trkpt lat="42.4419374" lon="-8.6256833"><ele>65.8</ele><time>2026-05-02T08:07:03.96Z</time></trkpt><trkpt lat="42.4419274" lon="-8.6255677"><ele>66.0</ele><time>2026-05-02T08:07:05.957Z</time></trkpt><trkpt lat="42.4420068" lon="-8.6254798"><ele>67.75</ele><time>2026-05-02T08:07:07.854Z</time></trkpt><trkpt lat="42.4421723" lon="-8.6253579"><ele>69.5</ele><time>2026-05-02T08:07:10.565Z</time></trkpt><trkpt lat="42.4422361" lon="-8.6252941"><ele>71.25</ele><time>2026-05-02T08:07:11.564Z</time></trkpt><trkpt lat="42.4423125" lon="-8.6252208"><ele>73.0</ele><time>2026-05-02T08:07:12.563Z</time></trkpt><trkpt lat="42.4423922" lon="-8.6251261"><ele>73.0</ele><time>2026-05-02T08:07:13.564Z</time></trkpt><trkpt lat="42.4424722" lon="-8.6250362"><ele>73.0</ele><time>2026-05-02T08:07:14.57Z</time></trkpt><trkpt lat="42.4425428" lon="-8.6249501"><ele>73.0</ele><time>2026-05-02T08:07:15.56Z</time></trkpt><trkpt lat="42.4426081" lon="-8.6248641"><ele>73.0</ele><time>2026-05-02T08:07:16.561Z</time></trkpt><trkpt lat="42.4426587" lon="-8.6247666"><ele>73.0</ele><time>2026-05-02T08:07:17.563Z</time></trkpt><trkpt lat="42.4426768" lon="-8.6246559"><ele>73.0</ele><time>2026-05-02T08:07:18.562Z</time></trkpt><trkpt lat="42.4426826" lon="-8.6245535"><ele>73.0</ele><time>2026-05-02T08:07:19.559Z</time></trkpt><trkpt lat="42.4426753" lon="-8.6244458"><ele>73.0</ele><time>2026-05-02T08:07:20.564Z</time></trkpt><trkpt lat="42.4426597" lon="-8.6243224"><ele>73.0</ele><time>2026-05-02T08:07:21.561Z</time></trkpt><trkpt lat="42.4426354" lon="-8.624196"><ele>73.0</ele><time>2026-05-02T08:07:22.563Z</time></trkpt><trkpt lat="42.4426121" lon="-8.6240693"><ele>73.0</ele><time>2026-05-02T08:07:23.564Z</time></trkpt><trkpt lat="42.4425903" lon="-8.6239457"><ele>72.2</ele><time>2026-05-02T08:07:24.562Z</time></trkpt><trkpt lat="42.44257" lon="-8.6238228"><ele>71.4</ele><time>2026-05-02T08:07:25.573Z</time></trkpt><trkpt lat="42.4425458" lon="-8.6237077"><ele>70.60000000000001</ele><time>2026-05-02T08:07:26.561Z</time></trkpt><trkpt lat="42.4425235" lon="-8.6235915"><ele>69.8</ele><time>2026-05-02T08:07:27.566Z</time></trkpt><trkpt lat="42.4425092" lon="-8.6234747"><ele>69.0</ele><time>2026-05-02T08:07:28.571Z</time></trkpt><trkpt lat="42.4425062" lon="-8.6233449"><ele>68.75</ele><time>2026-05-02T08:07:29.566Z</time></trkpt><trkpt lat="42.4425242" lon="-8.6231837"><ele>68.5</ele><time>2026-05-02T08:07:30.574Z</time></trkpt><trkpt lat="42.4425508" lon="-8.6230049"><ele>68.25</ele><time>2026-05-02T08:07:31.562Z</time></trkpt><trkpt lat="42.4425771" lon="-8.6228192"><ele>68.0</ele><time>2026-05-02T08:07:32.562Z</time></trkpt><trkpt lat="42.442597" lon="-8.6226376"><ele>68.75</ele><time>2026-05-02T08:07:33.565Z</time></trkpt><trkpt lat="42.4426088" lon="-8.6224589"><ele>69.5</ele><time>2026-05-02T08:07:34.564Z</time></trkpt><trkpt lat="42.4426022" lon="-8.6222794"><ele>70.25</ele><time>2026-05-02T08:07:35.565Z</time></trkpt><trkpt lat="42.4425817" lon="-8.6221041"><ele>71.0</ele><time>2026-05-02T08:07:36.556Z</time></trkpt><trkpt lat="42.442553" lon="-8.621928"><ele>71.5</ele><time>2026-05-02T08:07:37.571Z</time></trkpt><trkpt lat="42.4425231" lon="-8.621757"><ele>72.0</ele><time>2026-05-02T08:07:38.566Z</time></trkpt><trkpt lat="42.442486" lon="-8.6215881"><ele>72.5</ele><time>2026-05-02T08:07:39.565Z</time></trkpt><trkpt lat="42.4424519" lon="-8.6214296"><ele>73.0</ele><time>2026-05-02T08:07:40.556Z</time></trkpt><trkpt lat="42.4424201" lon="-8.6212834"><ele>73.0</ele><time>2026-05-02T08:07:41.562Z</time></trkpt><trkpt lat="42.4423876" lon="-8.6211517"><ele>73.0</ele><time>2026-05-02T08:07:42.565Z</time></trkpt><trkpt lat="42.4423479" lon="-8.6210352"><ele>73.0</ele><time>2026-05-02T08:07:43.572Z</time></trkpt><trkpt lat="42.4422879" lon="-8.6209381"><ele>73.0</ele><time>2026-05-02T08:07:44.576Z</time></trkpt><trkpt lat="42.4422106" lon="-8.6208501"><ele>73.0</ele><time>2026-05-02T08:07:45.563Z</time></trkpt><trkpt lat="42.4421347" lon="-8.6207545"><ele>74.0</ele><time>2026-05-02T08:07:46.565Z</time></trkpt><trkpt lat="42.4420697" lon="-8.6206583"><ele>75.0</ele><time>2026-05-02T08:07:47.568Z</time></trkpt><trkpt lat="42.4420232" lon="-8.6205599"><ele>76.0</ele><time>2026-05-02T08:07:48.563Z</time></trkpt><trkpt lat="42.441977" lon="-8.6204524"><ele>77.0</ele><time>2026-05-02T08:07:49.567Z</time></trkpt><trkpt lat="42.4419182" lon="-8.6203294"><ele>78.0</ele><time>2026-05-02T08:07:50.57Z</time></trkpt><trkpt lat="42.4418541" lon="-8.6201989"><ele>78.0</ele><time>2026-05-02T08:07:51.563Z</time></trkpt><trkpt lat="42.4417886" lon="-8.6200632"><ele>78.0</ele><time>2026-05-02T08:07:52.565Z</time></trkpt><trkpt lat="42.4417305" lon="-8.6199206"><ele>78.0</ele><time>2026-05-02T08:07:53.57Z</time></trkpt><trkpt lat="42.4416734" lon="-8.6197724"><ele>78.0</ele><time>2026-05-02T08:07:54.56Z</time></trkpt><trkpt lat="42.4416152" lon="-8.6196199"><ele>78.0</ele><time>2026-05-02T08:07:55.557Z</time></trkpt><trkpt lat="42.4415638" lon="-8.6194733"><ele>78.0</ele><time>2026-05-02T08:07:56.564Z</time></trkpt><trkpt lat="42.4415217" lon="-8.6193316"><ele>78.0</ele><time>2026-05-02T08:07:57.56Z</time></trkpt><trkpt lat="42.4414871" lon="-8.6191991"><ele>78.0</ele><time>2026-05-02T08:07:58.571Z</time></trkpt><trkpt lat="42.4414464" lon="-8.6190807"><ele>78.0</ele><time>2026-05-02T08:07:59.57Z</time></trkpt><trkpt lat="42.4413765" lon="-8.6189828"><ele>79.0</ele><time>2026-05-02T08:08:00.565Z</time></trkpt><trkpt lat="42.441298" lon="-8.618904"><ele>80.0</ele><time>2026-05-02T08:08:01.564Z</time></trkpt><trkpt lat="42.4412186" lon="-8.6188264"><ele>81.0</ele><time>2026-05-02T08:08:02.575Z</time></trkpt><trkpt lat="42.4411531" lon="-8.618738"><ele>82.0</ele><time>2026-05-02T08:08:03.565Z</time></trkpt><trkpt lat="42.4411073" lon="-8.618622"><ele>83.0</ele><time>2026-05-02T08:08:04.563Z</time></trkpt><trkpt lat="42.4410895" lon="-8.6184881"><ele>83.80000000000001</ele><time>2026-05-02T08:08:05.565Z</time></trkpt><trkpt lat="42.4410782" lon="-8.6183381"><ele>84.6</ele><time>2026-05-02T08:08:06.57Z</time></trkpt><trkpt lat="42.4410665" lon="-8.6181908"><ele>85.4</ele><time>2026-05-02T08:08:07.568Z</time></trkpt><trkpt lat="42.441049" lon="-8.6180489"><ele>86.19999999999999</ele><time>2026-05-02T08:08:08.568Z</time></trkpt><trkpt lat="42.4410253" lon="-8.6179057"><ele>87.0</ele><time>2026-05-02T08:08:09.571Z</time></trkpt><trkpt lat="42.4410029" lon="-8.6177682"><ele>87.66666666666667</ele><time>2026-05-02T08:08:10.564Z</time></trkpt><trkpt lat="42.4409798" lon="-8.6176405"><ele>88.33333333333333</ele><time>2026-05-02T08:08:11.559Z</time></trkpt><trkpt lat="42.4409599" lon="-8.6175228"><ele>89.0</ele><time>2026-05-02T08:08:12.562Z</time></trkpt><trkpt lat="42.4409542" lon="-8.6174282"><ele>89.66666666666666</ele><time>2026-05-02T08:08:13.574Z</time></trkpt><trkpt lat="42.4409376" lon="-8.6173225"><ele>90.33333333333333</ele><time>2026-05-02T08:08:18.562Z</time></trkpt><trkpt lat="42.440909" lon="-8.6172224"><ele>91.0</ele><time>2026-05-02T08:08:20.558Z</time></trkpt><trkpt lat="42.4409758" lon="-8.6170795"><ele>91.0</ele><time>2026-05-02T08:08:22.559Z</time></trkpt><trkpt lat="42.4410462" lon="-8.6169896"><ele>91.0</ele><time>2026-05-02T08:08:23.569Z</time></trkpt><trkpt lat="42.441116" lon="-8.6168816"><ele>91.0</ele><time>2026-05-02T08:08:24.566Z</time></trkpt><trkpt lat="42.4411843" lon="-8.6167563"><ele>91.0</ele><time>2026-05-02T08:08:25.563Z</time></trkpt><trkpt lat="42.4412467" lon="-8.6166202"><ele>91.0</ele><time>2026-05-02T08:08:26.561Z</time></trkpt><trkpt lat="42.441307" lon="-8.616487"><ele>90.8</ele><time>2026-05-02T08:08:27.57Z</time></trkpt><trkpt lat="42.4413656" lon="-8.6163504"><ele>90.6</ele><time>2026-05-02T08:08:28.571Z</time></trkpt><trkpt lat="42.4414173" lon="-8.6162123"><ele>90.4</ele><time>2026-05-02T08:08:29.567Z</time></trkpt><trkpt lat="42.4414704" lon="-8.6160833"><ele>90.2</ele><time>2026-05-02T08:08:30.561Z</time></trkpt><trkpt lat="42.4415209" lon="-8.6159626"><ele>90.0</ele><time>2026-05-02T08:08:31.565Z</time></trkpt><trkpt lat="42.4415642" lon="-8.6158521"><ele>90.0</ele><time>2026-05-02T08:08:32.567Z</time></trkpt><trkpt lat="42.441591" lon="-8.6157537"><ele>90.0</ele><time>2026-05-02T08:08:33.564Z</time></trkpt><trkpt lat="42.441593" lon="-8.6156177"><ele>90.0</ele><time>2026-05-02T08:08:35.562Z</time></trkpt><trkpt lat="42.4415468" lon="-8.6155296"><ele>90.0</ele><time>2026-05-02T08:08:37.566Z</time></trkpt><trkpt lat="42.4415123" lon="-8.61541"><ele>90.0</ele><time>2026-05-02T08:08:39.572Z</time></trkpt><trkpt lat="42.4415042" lon="-8.615243"><ele>90.83333333333333</ele><time>2026-05-02T08:08:41.566Z</time></trkpt><trkpt lat="42.4415025" lon="-8.615139"><ele>91.66666666666667</ele><time>2026-05-02T08:08:42.572Z</time></trkpt><trkpt lat="42.4414966" lon="-8.6150365"><ele>92.5</ele><time>2026-05-02T08:08:43.556Z</time></trkpt><trkpt lat="42.4414887" lon="-8.6149416"><ele>93.33333333333334</ele><time>2026-05-02T08:08:44.561Z</time></trkpt><trkpt lat="42.4414745" lon="-8.6148515"><ele>94.16666666666667</ele><time>2026-05-02T08:08:45.559Z</time></trkpt><trkpt lat="42.4414489" lon="-8.6147575"><ele>95.0</ele><time>2026-05-02T08:08:46.559Z</time></trkpt><trkpt lat="42.4414002" lon="-8.6146588"><ele>95.0</ele><time>2026-05-02T08:08:47.568Z</time></trkpt><trkpt lat="42.4413421" lon="-8.6145483"><ele>95.0</ele><time>2026-05-02T08:08:48.569Z</time></trkpt><trkpt lat="42.4412787" lon="-8.6144337"><ele>95.0</ele><time>2026-05-02T08:08:49.566Z</time></trkpt><trkpt lat="42.4412189" lon="-8.6143183"><ele>95.0</ele><time>2026-05-02T08:08:50.56Z</time></trkpt><trkpt lat="42.4411472" lon="-8.6142093"><ele>95.0</ele><time>2026-05-02T08:08:51.565Z</time></trkpt><trkpt lat="42.4410708" lon="-8.6141153"><ele>96.16666666666667</ele><time>2026-05-02T08:08:52.573Z</time></trkpt><trkpt lat="42.4410061" lon="-8.6140359"><ele>97.33333333333334</ele><time>2026-05-02T08:08:53.561Z</time></trkpt><trkpt lat="42.4409597" lon="-8.6139493"><ele>98.5</ele><time>2026-05-02T08:08:54.562Z</time></trkpt><trkpt lat="42.4409326" lon="-8.613847"><ele>99.66666666666667</ele><time>2026-05-02T08:08:55.565Z</time></trkpt><trkpt lat="42.4409231" lon="-8.6137402"><ele>100.83333333333333</ele><time>2026-05-02T08:08:56.565Z</time></trkpt><trkpt lat="42.440926" lon="-8.6136278"><ele>102.0</ele><time>2026-05-02T08:08:57.56Z</time></trkpt><trkpt lat="42.4409459" lon="-8.6135105"><ele>102.33333333333333</ele><time>2026-05-02T08:08:58.561Z</time></trkpt><trkpt lat="42.4409746" lon="-8.6133957"><ele>102.66666666666666</ele><time>2026-05-02T08:08:59.565Z</time></trkpt><trkpt lat="42.4410095" lon="-8.6132792"><ele>103.0</ele><time>2026-05-02T08:09:00.563Z</time></trkpt><trkpt lat="42.4410441" lon="-8.6131664"><ele>103.33333333333333</ele><time>2026-05-02T08:09:01.556Z</time></trkpt><trkpt lat="42.4410685" lon="-8.6130552"><ele>103.66666666666666</ele><time>2026-05-02T08:09:02.56Z</time></trkpt><trkpt lat="42.4410779" lon="-8.6129469"><ele>104.0</ele><time>2026-05-02T08:09:03.563Z</time></trkpt><trkpt lat="42.44107" lon="-8.6128449"><ele>105.16666666666666</ele><time>2026-05-02T08:09:04.559Z</time></trkpt><trkpt lat="42.4410563" lon="-8.6127344"><ele>106.33333333333333</ele><time>2026-05-02T08:09:05.566Z</time></trkpt><trkpt lat="42.4410454" lon="-8.6126179"><ele>107.5</ele><time>2026-05-02T08:09:06.566Z</time></trkpt><trkpt lat="42.4410408" lon="-8.6124991"><ele>108.66666666666666</ele><time>2026-05-02T08:09:07.568Z</time></trkpt><trkpt lat="42.4410484" lon="-8.6123745"><ele>109.83333333333333</ele><time>2026-05-02T08:09:08.561Z</time></trkpt><trkpt lat="42.4410722" lon="-8.6122528"><ele>111.0</ele><time>2026-05-02T08:09:09.559Z</time></trkpt><trkpt lat="42.4411086" lon="-8.6121367"><ele>111.0</ele><time>2026-05-02T08:09:10.56Z</time></trkpt><trkpt lat="42.4411442" lon="-8.6120241"><ele>111.0</ele><time>2026-05-02T08:09:11.569Z</time></trkpt><trkpt lat="42.4411732" lon="-8.6119158"><ele>111.0</ele><time>2026-05-02T08:09:12.56Z</time></trkpt><trkpt lat="42.4411889" lon="-8.6118117"><ele>111.0</ele><time>2026-05-02T08:09:13.562Z</time></trkpt><trkpt lat="42.4411804" lon="-8.6116974"><ele>111.0</ele><time>2026-05-02T08:09:14.563Z</time></trkpt><trkpt lat="42.4411518" lon="-8.6115774"><ele>111.0</ele><time>2026-05-02T08:09:15.559Z</time></trkpt><trkpt lat="42.4411167" lon="-8.6114497"><ele>111.16666666666667</ele><time>2026-05-02T08:09:16.561Z</time></trkpt><trkpt lat="42.4410846" lon="-8.611317"><ele>111.33333333333334</ele><time>2026-05-02T08:09:17.564Z</time></trkpt><trkpt lat="42.4410567" lon="-8.6111934"><ele>111.5</ele><time>2026-05-02T08:09:18.558Z</time></trkpt><trkpt lat="42.4410335" lon="-8.6110852"><ele>111.66666666666667</ele><time>2026-05-02T08:09:19.568Z</time></trkpt><trkpt lat="42.4410171" lon="-8.6109856"><ele>111.83333333333334</ele><time>2026-05-02T08:09:20.561Z</time></trkpt><trkpt lat="42.4410036" lon="-8.610885"><ele>112.0</ele><time>2026-05-02T08:09:21.563Z</time></trkpt><trkpt lat="42.4409944" lon="-8.6107718"><ele>113.5</ele><time>2026-05-02T08:09:22.558Z</time></trkpt><trkpt lat="42.440972" lon="-8.6106289"><ele>115.0</ele><time>2026-05-02T08:09:23.568Z</time></trkpt><trkpt lat="42.4409439" lon="-8.610462"><ele>116.5</ele><time>2026-05-02T08:09:24.563Z</time></trkpt><trkpt lat="42.4409174" lon="-8.6102847"><ele>118.0</ele><time>2026-05-02T08:09:25.568Z</time></trkpt><trkpt lat="42.4408901" lon="-8.6101196"><ele>119.0</ele><time>2026-05-02T08:09:26.568Z</time></trkpt><trkpt lat="42.4408524" lon="-8.6099764"><ele>120.00000000000001</ele><time>2026-05-02T08:09:27.567Z</time></trkpt><trkpt lat="42.4407941" lon="-8.6098582"><ele>121.00000000000001</ele><time>2026-05-02T08:09:28.571Z</time></trkpt><trkpt lat="42.4407114" lon="-8.6097702"><ele>122.0</ele><time>2026-05-02T08:09:29.576Z</time></trkpt><trkpt lat="42.4406153" lon="-8.6097133"><ele>123.0</ele><time>2026-05-02T08:09:30.564Z</time></trkpt><trkpt lat="42.4405089" lon="-8.6096495"><ele>125.0</ele><time>2026-05-02T08:09:31.559Z</time></trkpt><trkpt lat="42.4404123" lon="-8.6095753"><ele>127.00000000000001</ele><time>2026-05-02T08:09:32.564Z</time></trkpt><trkpt lat="42.4403185" lon="-8.6094905"><ele>129.0</ele><time>2026-05-02T08:09:33.561Z</time></trkpt><trkpt lat="42.4402316" lon="-8.6093912"><ele>131.0</ele><time>2026-05-02T08:09:34.562Z</time></trkpt><trkpt lat="42.4401544" lon="-8.6092955"><ele>133.0</ele><time>2026-05-02T08:09:35.563Z</time></trkpt><trkpt lat="42.4400714" lon="-8.6092059"><ele>133.0</ele><time>2026-05-02T08:09:36.562Z</time></trkpt><trkpt lat="42.4399871" lon="-8.6091235"><ele>133.0</ele><time>2026-05-02T08:09:37.566Z</time></trkpt><trkpt lat="42.439908" lon="-8.6090678"><ele>133.0</ele><time>2026-05-02T08:09:38.567Z</time></trkpt><trkpt lat="42.4398371" lon="-8.6090368"><ele>133.0</ele><time>2026-05-02T08:09:39.571Z</time></trkpt><trkpt lat="42.4397626" lon="-8.6090295"><ele>133.0</ele><time>2026-05-02T08:09:40.563Z</time></trkpt><trkpt lat="42.4396807" lon="-8.6090659"><ele>133.0</ele><time>2026-05-02T08:09:41.558Z</time></trkpt><trkpt lat="42.4395973" lon="-8.6091575"><ele>134.25</ele><time>2026-05-02T08:09:42.56Z</time></trkpt><trkpt lat="42.4395074" lon="-8.6092659"><ele>135.5</ele><time>2026-05-02T08:09:43.575Z</time></trkpt><trkpt lat="42.4394151" lon="-8.6093643"><ele>136.75</ele><time>2026-05-02T08:09:44.565Z</time></trkpt><trkpt lat="42.4393148" lon="-8.6094407"><ele>138.0</ele><time>2026-05-02T08:09:45.562Z</time></trkpt><trkpt lat="42.4392112" lon="-8.6095118"><ele>139.5</ele><time>2026-05-02T08:09:46.56Z</time></trkpt><trkpt lat="42.439105" lon="-8.6095769"><ele>141.0</ele><time>2026-05-02T08:09:47.566Z</time></trkpt><trkpt lat="42.4389979" lon="-8.6096268"><ele>142.5</ele><time>2026-05-02T08:09:48.561Z</time></trkpt><trkpt lat="42.4388888" lon="-8.6096524"><ele>144.0</ele><time>2026-05-02T08:09:49.57Z</time></trkpt><trkpt lat="42.4387719" lon="-8.6096615"><ele>144.0</ele><time>2026-05-02T08:09:50.556Z</time></trkpt><trkpt lat="42.4386435" lon="-8.6096601"><ele>144.0</ele><time>2026-05-02T08:09:51.563Z</time></trkpt><trkpt lat="42.438525" lon="-8.6096657"><ele>144.0</ele><time>2026-05-02T08:09:52.557Z</time></trkpt><trkpt lat="42.4384176" lon="-8.6096764"><ele>144.0</ele><time>2026-05-02T08:09:53.57Z</time></trkpt><trkpt lat="42.4383169" lon="-8.6096808"><ele>144.0</ele><time>2026-05-02T08:09:54.561Z</time></trkpt><trkpt lat="42.4382226" lon="-8.6096828"><ele>144.0</ele><time>2026-05-02T08:09:55.559Z</time></trkpt><trkpt lat="42.4381412" lon="-8.6096827"><ele>144.0</ele><time>2026-05-02T08:09:56.567Z</time></trkpt><trkpt lat="42.4380489" lon="-8.6096639"><ele>144.0</ele><time>2026-05-02T08:09:58.56Z</time></trkpt><trkpt lat="42.4379934" lon="-8.6096115"><ele>144.0</ele><time>2026-05-02T08:10:00.554Z</time></trkpt><trkpt lat="42.4380199" lon="-8.609533"><ele>144.0</ele><time>2026-05-02T08:10:02.571Z</time></trkpt><trkpt lat="42.4380747" lon="-8.6093875"><ele>143.6</ele><time>2026-05-02T08:10:04.565Z</time></trkpt><trkpt lat="42.4380997" lon="-8.6093055"><ele>143.2</ele><time>2026-05-02T08:10:05.569Z</time></trkpt><trkpt lat="42.4381206" lon="-8.6091488"><ele>142.79999999999998</ele><time>2026-05-02T08:10:07.567Z</time></trkpt><trkpt lat="42.4381394" lon="-8.6090054"><ele>142.4</ele><time>2026-05-02T08:10:09.566Z</time></trkpt><trkpt lat="42.438183" lon="-8.6088683"><ele>142.0</ele><time>2026-05-02T08:10:11.564Z</time></trkpt><trkpt lat="42.4382435" lon="-8.6087501"><ele>140.5</ele><time>2026-05-02T08:10:13.566Z</time></trkpt><trkpt lat="42.4383101" lon="-8.6086356"><ele>139.0</ele><time>2026-05-02T08:10:15.562Z</time></trkpt><trkpt lat="42.438363" lon="-8.6085607"><ele>137.5</ele><time>2026-05-02T08:10:17.572Z</time></trkpt><trkpt lat="42.4384232" lon="-8.6085049"><ele>136.0</ele><time>2026-05-02T08:10:20.572Z</time></trkpt><trkpt lat="42.4384917" lon="-8.6084323"><ele>134.5</ele><time>2026-05-02T08:10:23.558Z</time></trkpt><trkpt lat="42.4385301" lon="-8.6083348"><ele>133.0</ele><time>2026-05-02T08:10:27.559Z</time></trkpt><trkpt lat="42.4385318" lon="-8.608212"><ele>133.0</ele><time>2026-05-02T08:10:30.567Z</time></trkpt><trkpt lat="42.4385421" lon="-8.6080911"><ele>133.0</ele><time>2026-05-02T08:10:32.567Z</time></trkpt><trkpt lat="42.4385482" lon="-8.6079751"><ele>133.0</ele><time>2026-05-02T08:10:34.562Z</time></trkpt><trkpt lat="42.4385841" lon="-8.607894"><ele>133.0</ele><time>2026-05-02T08:10:36.559Z</time></trkpt><trkpt lat="42.438626" lon="-8.6078135"><ele>133.0</ele><time>2026-05-02T08:10:38.561Z</time></trkpt><trkpt lat="42.4386857" lon="-8.6077087"><ele>133.0</ele><time>2026-05-02T08:10:40.558Z</time></trkpt><trkpt lat="42.4387532" lon="-8.6075979"><ele>132.0</ele><time>2026-05-02T08:10:42.568Z</time></trkpt><trkpt lat="42.4388018" lon="-8.6075128"><ele>131.0</ele><time>2026-05-02T08:10:44.562Z</time></trkpt><trkpt lat="42.4388393" lon="-8.607426"><ele>130.0</ele><time>2026-05-02T08:10:46.564Z</time></trkpt><trkpt lat="42.4388604" lon="-8.6073308"><ele>129.0</ele><time>2026-05-02T08:10:48.566Z</time></trkpt><trkpt lat="42.4388422" lon="-8.6072355"><ele>128.0</ele><time>2026-05-02T08:10:50.562Z</time></trkpt><trkpt lat="42.4387928" lon="-8.6071582"><ele>127.0</ele><time>2026-05-02T08:10:52.559Z</time></trkpt><trkpt lat="42.4387282" lon="-8.6070601"><ele>130.6</ele><time>2026-05-02T08:10:54.559Z</time></trkpt><trkpt lat="42.4386694" lon="-8.6069525"><ele>134.2</ele><time>2026-05-02T08:10:56.563Z</time></trkpt><trkpt lat="42.4385915" lon="-8.6068505"><ele>137.8</ele><time>2026-05-02T08:10:58.561Z</time></trkpt><trkpt lat="42.438506" lon="-8.6067572"><ele>141.4</ele><time>2026-05-02T08:11:00.562Z</time></trkpt><trkpt lat="42.4384465" lon="-8.6067011"><ele>145.0</ele><time>2026-05-02T08:11:01.561Z</time></trkpt><trkpt lat="42.4383841" lon="-8.6066383"><ele>145.0</ele><time>2026-05-02T08:11:02.56Z</time></trkpt><trkpt lat="42.4383306" lon="-8.6065805"><ele>145.0</ele><time>2026-05-02T08:11:03.567Z</time></trkpt><trkpt lat="42.4382233" lon="-8.6064973"><ele>145.0</ele><time>2026-05-02T08:11:05.558Z</time></trkpt><trkpt lat="42.4381611" lon="-8.6064593"><ele>145.0</ele><time>2026-05-02T08:11:06.571Z</time></trkpt><trkpt lat="42.4380919" lon="-8.6064326"><ele>145.0</ele><time>2026-05-02T08:11:07.556Z</time></trkpt><trkpt lat="42.4380163" lon="-8.6064224"><ele>145.0</ele><time>2026-05-02T08:11:08.558Z</time></trkpt><trkpt lat="42.4379364" lon="-8.6064248"><ele>147.0</ele><time>2026-05-02T08:11:09.558Z</time></trkpt><trkpt lat="42.4378546" lon="-8.6064378"><ele>149.0</ele><time>2026-05-02T08:11:10.555Z</time></trkpt><trkpt lat="42.4377763" lon="-8.606454"><ele>151.0</ele><time>2026-05-02T08:11:11.562Z</time></trkpt><trkpt lat="42.4377119" lon="-8.6064742"><ele>153.0</ele><time>2026-05-02T08:11:12.571Z</time></trkpt><trkpt lat="42.4376442" lon="-8.6064815"><ele>155.0</ele><time>2026-05-02T08:11:13.559Z</time></trkpt><trkpt lat="42.437578" lon="-8.6064756"><ele>157.0</ele><time>2026-05-02T08:11:14.566Z</time></trkpt><trkpt lat="42.4375124" lon="-8.6064612"><ele>159.0</ele><time>2026-05-02T08:11:15.559Z</time></trkpt><trkpt lat="42.4374489" lon="-8.6064342"><ele>159.0</ele><time>2026-05-02T08:11:16.561Z</time></trkpt><trkpt lat="42.4373816" lon="-8.6063935"><ele>159.0</ele><time>2026-05-02T08:11:17.568Z</time></trkpt><trkpt lat="42.4373183" lon="-8.6063316"><ele>159.0</ele><time>2026-05-02T08:11:18.561Z</time></trkpt><trkpt lat="42.4372577" lon="-8.6062556"><ele>159.0</ele><time>2026-05-02T08:11:19.559Z</time></trkpt><trkpt lat="42.4371954" lon="-8.606173"><ele>159.0</ele><time>2026-05-02T08:11:20.563Z</time></trkpt><trkpt lat="42.4371415" lon="-8.6060945"><ele>159.0</ele><time>2026-05-02T08:11:21.563Z</time></trkpt><trkpt lat="42.4370942" lon="-8.6060169"><ele>161.6</ele><time>2026-05-02T08:11:22.568Z</time></trkpt><trkpt lat="42.4370574" lon="-8.6059404"><ele>164.2</ele><time>2026-05-02T08:11:23.562Z</time></trkpt><trkpt lat="42.4369875" lon="-8.6058658"><ele>166.79999999999998</ele><time>2026-05-02T08:11:25.563Z</time></trkpt><trkpt lat="42.4369242" lon="-8.6059213"><ele>169.4</ele><time>2026-05-02T08:11:27.561Z</time></trkpt><trkpt lat="42.436831" lon="-8.6060582"><ele>172.0</ele><time>2026-05-02T08:11:29.56Z</time></trkpt><trkpt lat="42.4367701" lon="-8.6061303"><ele>170.66666666666669</ele><time>2026-05-02T08:11:30.562Z</time></trkpt><trkpt lat="42.4367099" lon="-8.6061907"><ele>169.33333333333334</ele><time>2026-05-02T08:11:31.562Z</time></trkpt><trkpt lat="42.4366518" lon="-8.6062441"><ele>168.0</ele><time>2026-05-02T08:11:32.561Z</time></trkpt><trkpt lat="42.4365881" lon="-8.6062939"><ele>166.66666666666666</ele><time>2026-05-02T08:11:33.57Z</time></trkpt><trkpt lat="42.4365208" lon="-8.6063461"><ele>165.33333333333331</ele><time>2026-05-02T08:11:34.569Z</time></trkpt><trkpt lat="42.4364622" lon="-8.6063883"><ele>164.0</ele><time>2026-05-02T08:11:35.566Z</time></trkpt><trkpt lat="42.4363571" lon="-8.606449"><ele>166.0</ele><time>2026-05-02T08:11:37.572Z</time></trkpt><trkpt lat="42.4362704" lon="-8.6064384"><ele>168.0</ele><time>2026-05-02T08:11:39.567Z</time></trkpt><trkpt lat="42.4361968" lon="-8.6063314"><ele>170.0</ele><time>2026-05-02T08:11:41.562Z</time></trkpt><trkpt lat="42.4361118" lon="-8.6062269"><ele>172.0</ele><time>2026-05-02T08:11:43.563Z</time></trkpt><trkpt lat="42.4360291" lon="-8.6061315"><ele>174.0</ele><time>2026-05-02T08:11:45.575Z</time></trkpt><trkpt lat="42.4359488" lon="-8.6060329"><ele>175.2</ele><time>2026-05-02T08:11:47.562Z</time></trkpt><trkpt lat="42.4358513" lon="-8.6059657"><ele>176.39999999999998</ele><time>2026-05-02T08:11:49.564Z</time></trkpt><trkpt lat="42.43575" lon="-8.6059142"><ele>177.6</ele><time>2026-05-02T08:11:51.563Z</time></trkpt><trkpt lat="42.4356322" lon="-8.6058803"><ele>178.8</ele><time>2026-05-02T08:11:53.57Z</time></trkpt><trkpt lat="42.4355679" lon="-8.605863"><ele>180.0</ele><time>2026-05-02T08:11:54.564Z</time></trkpt><trkpt lat="42.435453" lon="-8.6058233"><ele>181.5</ele><time>2026-05-02T08:11:56.56Z</time></trkpt><trkpt lat="42.4353293" lon="-8.6058049"><ele>183.0</ele><time>2026-05-02T08:11:58.56Z</time></trkpt><trkpt lat="42.4352054" lon="-8.6058105"><ele>184.5</ele><time>2026-05-02T08:12:00.571Z</time></trkpt><trkpt lat="42.4350859" lon="-8.6058502"><ele>186.0</ele><time>2026-05-02T08:12:02.56Z</time></trkpt><trkpt lat="42.4349697" lon="-8.605886"><ele>186.0</ele><time>2026-05-02T08:12:04.561Z</time></trkpt><trkpt lat="42.4348557" lon="-8.6058919"><ele>186.0</ele><time>2026-05-02T08:12:06.572Z</time></trkpt><trkpt lat="42.4347527" lon="-8.6058643"><ele>186.0</ele><time>2026-05-02T08:12:08.563Z</time></trkpt><trkpt lat="42.4347231" lon="-8.6057577"><ele>186.0</ele><time>2026-05-02T08:12:10.562Z</time></trkpt><trkpt lat="42.4346677" lon="-8.6056684"><ele>186.0</ele><time>2026-05-02T08:12:12.564Z</time></trkpt><trkpt lat="42.4345758" lon="-8.6055678"><ele>185.0</ele><time>2026-05-02T08:12:14.57Z</time></trkpt><trkpt lat="42.4344617" lon="-8.6054854"><ele>184.0</ele><time>2026-05-02T08:12:16.581Z</time></trkpt><trkpt lat="42.434395" lon="-8.6054449"><ele>183.0</ele><time>2026-05-02T08:12:17.561Z</time></trkpt><trkpt lat="42.4343179" lon="-8.6054058"><ele>182.0</ele><time>2026-05-02T08:12:18.558Z</time></trkpt><trkpt lat="42.4342384" lon="-8.6053778"><ele>181.0</ele><time>2026-05-02T08:12:19.555Z</time></trkpt><trkpt lat="42.434156" lon="-8.6053473"><ele>182.16666666666669</ele><time>2026-05-02T08:12:20.561Z</time></trkpt><trkpt lat="42.4340638" lon="-8.6053254"><ele>183.33333333333334</ele><time>2026-05-02T08:12:21.559Z</time></trkpt><trkpt lat="42.4339641" lon="-8.6053098"><ele>184.5</ele><time>2026-05-02T08:12:22.573Z</time></trkpt><trkpt lat="42.4338655" lon="-8.6053033"><ele>185.66666666666666</ele><time>2026-05-02T08:12:23.564Z</time></trkpt><trkpt lat="42.4337871" lon="-8.6053042"><ele>186.83333333333331</ele><time>2026-05-02T08:12:24.561Z</time></trkpt><trkpt lat="42.4337231" lon="-8.6052989"><ele>188.0</ele><time>2026-05-02T08:12:25.561Z</time></trkpt><trkpt lat="42.4336635" lon="-8.6052617"><ele>188.0</ele><time>2026-05-02T08:12:27.57Z</time></trkpt><trkpt lat="42.4336839" lon="-8.6051658"><ele>188.0</ele><time>2026-05-02T08:12:30.566Z</time></trkpt><trkpt lat="42.4336957" lon="-8.6050731"><ele>188.0</ele><time>2026-05-02T08:12:32.561Z</time></trkpt><trkpt lat="42.43365" lon="-8.6049829"><ele>188.0</ele><time>2026-05-02T08:12:35.563Z</time></trkpt><trkpt lat="42.4335864" lon="-8.6049274"><ele>188.0</ele><time>2026-05-02T08:12:37.562Z</time></trkpt><trkpt lat="42.4334901" lon="-8.6048875"><ele>188.0</ele><time>2026-05-02T08:12:39.562Z</time></trkpt><trkpt lat="42.4334243" lon="-8.6048492"><ele>188.0</ele><time>2026-05-02T08:12:40.562Z</time></trkpt><trkpt lat="42.4333487" lon="-8.6048045"><ele>188.0</ele><time>2026-05-02T08:12:41.568Z</time></trkpt><trkpt lat="42.4332577" lon="-8.6047453"><ele>188.0</ele><time>2026-05-02T08:12:42.565Z</time></trkpt><trkpt lat="42.4331617" lon="-8.6046717"><ele>188.0</ele><time>2026-05-02T08:12:43.562Z</time></trkpt><trkpt lat="42.4330605" lon="-8.6045994"><ele>188.0</ele><time>2026-05-02T08:12:44.557Z</time></trkpt><trkpt lat="42.4329693" lon="-8.6045344"><ele>189.83333333333331</ele><time>2026-05-02T08:12:45.563Z</time></trkpt><trkpt lat="42.4328876" lon="-8.6044816"><ele>191.66666666666666</ele><time>2026-05-02T08:12:46.56Z</time></trkpt><trkpt lat="42.4328055" lon="-8.6044288"><ele>193.5</ele><time>2026-05-02T08:12:47.567Z</time></trkpt><trkpt lat="42.4327211" lon="-8.6043793"><ele>195.33333333333331</ele><time>2026-05-02T08:12:48.562Z</time></trkpt><trkpt lat="42.4326499" lon="-8.6043383"><ele>197.16666666666666</ele><time>2026-05-02T08:12:49.562Z</time></trkpt><trkpt lat="42.4325788" lon="-8.6043099"><ele>199.0</ele><time>2026-05-02T08:12:50.559Z</time></trkpt><trkpt lat="42.4325026" lon="-8.6043052"><ele>198.99999999999997</ele><time>2026-05-02T08:12:51.557Z</time></trkpt><trkpt lat="42.4324107" lon="-8.6042971"><ele>199.0</ele><time>2026-05-02T08:12:52.565Z</time></trkpt><trkpt lat="42.4323139" lon="-8.6042909"><ele>199.0</ele><time>2026-05-02T08:12:53.568Z</time></trkpt><trkpt lat="42.432222" lon="-8.6042819"><ele>199.0</ele><time>2026-05-02T08:12:54.561Z</time></trkpt><trkpt lat="42.4321367" lon="-8.6042804"><ele>198.99999999999997</ele><time>2026-05-02T08:12:55.565Z</time></trkpt><trkpt lat="42.4320592" lon="-8.6042886"><ele>199.0</ele><time>2026-05-02T08:12:56.568Z</time></trkpt><trkpt lat="42.4319877" lon="-8.6042853"><ele>202.0</ele><time>2026-05-02T08:12:57.563Z</time></trkpt><trkpt lat="42.4318767" lon="-8.6042944"><ele>205.0</ele><time>2026-05-02T08:12:59.559Z</time></trkpt><trkpt lat="42.4318057" lon="-8.6042993"><ele>207.99999999999997</ele><time>2026-05-02T08:13:00.581Z</time></trkpt><trkpt lat="42.4317271" lon="-8.6043046"><ele>211.0</ele><time>2026-05-02T08:13:01.562Z</time></trkpt><trkpt lat="42.4316193" lon="-8.6043484"><ele>214.0</ele><time>2026-05-02T08:13:03.564Z</time></trkpt><trkpt lat="42.4315288" lon="-8.6044589"><ele>213.49999999999997</ele><time>2026-05-02T08:13:05.571Z</time></trkpt><trkpt lat="42.4314732" lon="-8.6045153"><ele>213.0</ele><time>2026-05-02T08:13:06.56Z</time></trkpt><trkpt lat="42.4314196" lon="-8.6045671"><ele>212.5</ele><time>2026-05-02T08:13:07.563Z</time></trkpt><trkpt lat="42.4313386" lon="-8.6046067"><ele>212.0</ele><time>2026-05-02T08:13:09.558Z</time></trkpt><trkpt lat="42.4312935" lon="-8.6045266"><ele>211.49999999999997</ele><time>2026-05-02T08:13:11.572Z</time></trkpt><trkpt lat="42.4312408" lon="-8.6044332"><ele>211.0</ele><time>2026-05-02T08:13:13.565Z</time></trkpt><trkpt lat="42.4311713" lon="-8.6043881"><ele>211.99999999999997</ele><time>2026-05-02T08:13:15.561Z</time></trkpt><trkpt lat="42.4310929" lon="-8.6044006"><ele>213.0</ele><time>2026-05-02T08:13:18.556Z</time></trkpt><trkpt lat="42.4310245" lon="-8.6044724"><ele>214.0</ele><time>2026-05-02T08:13:22.567Z</time></trkpt><trkpt lat="42.4309624" lon="-8.6045227"><ele>215.0</ele><time>2026-05-02T08:13:24.564Z</time></trkpt><trkpt lat="42.4309038" lon="-8.6045827"><ele>215.99999999999997</ele><time>2026-05-02T08:13:26.554Z</time></trkpt><trkpt lat="42.4308265" lon="-8.6046017"><ele>217.0</ele><time>2026-05-02T08:13:29.565Z</time></trkpt><trkpt lat="42.430769" lon="-8.6045416"><ele>216.99999999999997</ele><time>2026-05-02T08:13:32.568Z</time></trkpt><trkpt lat="42.4307486" lon="-8.6044514"><ele>217.0</ele><time>2026-05-02T08:13:37.572Z</time></trkpt><trkpt lat="42.4307909" lon="-8.6043653"><ele>217.0</ele><time>2026-05-02T08:13:41.561Z</time></trkpt><trkpt lat="42.4308401" lon="-8.6043068"><ele>217.0</ele><time>2026-05-02T08:13:44.56Z</time></trkpt><trkpt lat="42.4309151" lon="-8.6042709"><ele>216.99999999999997</ele><time>2026-05-02T08:13:47.56Z</time></trkpt><trkpt lat="42.4309426" lon="-8.6041484"><ele>217.0</ele><time>2026-05-02T08:13:53.561Z</time></trkpt><trkpt lat="42.4309204" lon="-8.6040187"><ele>216.99999999999997</ele><time>2026-05-02T08:13:55.566Z</time></trkpt><trkpt lat="42.4308982" lon="-8.6039211"><ele>217.0</ele><time>2026-05-02T08:13:56.563Z</time></trkpt><trkpt lat="42.4308659" lon="-8.6038166"><ele>217.0</ele><time>2026-05-02T08:13:57.569Z</time></trkpt><trkpt lat="42.4308364" lon="-8.603711"><ele>217.0</ele><time>2026-05-02T08:13:58.562Z</time></trkpt><trkpt lat="42.43081" lon="-8.6036091"><ele>216.99999999999997</ele><time>2026-05-02T08:13:59.555Z</time></trkpt><trkpt lat="42.4307841" lon="-8.603509"><ele>217.0</ele><time>2026-05-02T08:14:00.56Z</time></trkpt><trkpt lat="42.43077" lon="-8.603411"><ele>217.83333333333331</ele><time>2026-05-02T08:14:01.566Z</time></trkpt><trkpt lat="42.4307656" lon="-8.6033086"><ele>218.66666666666666</ele><time>2026-05-02T08:14:02.561Z</time></trkpt><trkpt lat="42.4307653" lon="-8.6032001"><ele>219.5</ele><time>2026-05-02T08:14:03.565Z</time></trkpt><trkpt lat="42.4307536" lon="-8.6031098"><ele>220.33333333333331</ele><time>2026-05-02T08:14:04.566Z</time></trkpt><trkpt lat="42.4307073" lon="-8.6029944"><ele>221.16666666666666</ele><time>2026-05-02T08:14:06.557Z</time></trkpt><trkpt lat="42.4306262" lon="-8.6029232"><ele>222.0</ele><time>2026-05-02T08:14:09.561Z</time></trkpt><trkpt lat="42.430583" lon="-8.6028589"><ele>221.83333333333334</ele><time>2026-05-02T08:14:11.569Z</time></trkpt><trkpt lat="42.4305354" lon="-8.6027819"><ele>221.66666666666669</ele><time>2026-05-02T08:14:14.566Z</time></trkpt><trkpt lat="42.4305395" lon="-8.6026778"><ele>221.5</ele><time>2026-05-02T08:14:18.56Z</time></trkpt><trkpt lat="42.4305797" lon="-8.6025606"><ele>221.33333333333334</ele><time>2026-05-02T08:14:22.569Z</time></trkpt><trkpt lat="42.4305686" lon="-8.6024216"><ele>221.16666666666669</ele><time>2026-05-02T08:14:24.557Z</time></trkpt><trkpt lat="42.4305177" lon="-8.6023477"><ele>221.0</ele><time>2026-05-02T08:14:25.572Z</time></trkpt><trkpt lat="42.4304456" lon="-8.6022746"><ele>221.0</ele><time>2026-05-02T08:14:26.568Z</time></trkpt><trkpt lat="42.4303452" lon="-8.6021897"><ele>221.0</ele><time>2026-05-02T08:14:27.559Z</time></trkpt><trkpt lat="42.430217" lon="-8.6021013"><ele>221.0</ele><time>2026-05-02T08:14:28.568Z</time></trkpt><trkpt lat="42.4300684" lon="-8.6020243"><ele>221.0</ele><time>2026-05-02T08:14:29.571Z</time></trkpt><trkpt lat="42.4299157" lon="-8.6019427"><ele>221.5</ele><time>2026-05-02T08:14:30.559Z</time></trkpt><trkpt lat="42.4297702" lon="-8.6018542"><ele>222.0</ele><time>2026-05-02T08:14:31.56Z</time></trkpt><trkpt lat="42.4296511" lon="-8.6017705"><ele>222.5</ele><time>2026-05-02T08:14:32.558Z</time></trkpt><trkpt lat="42.4295475" lon="-8.6016914"><ele>223.0</ele><time>2026-05-02T08:14:33.568Z</time></trkpt><trkpt lat="42.429452" lon="-8.601624"><ele>222.99999999999997</ele><time>2026-05-02T08:14:34.565Z</time></trkpt><trkpt lat="42.4293617" lon="-8.6015731"><ele>223.0</ele><time>2026-05-02T08:14:35.568Z</time></trkpt><trkpt lat="42.4292829" lon="-8.601517"><ele>223.0</ele><time>2026-05-02T08:14:36.564Z</time></trkpt><trkpt lat="42.4292354" lon="-8.6014596"><ele>223.0</ele><time>2026-05-02T08:14:37.566Z</time></trkpt><trkpt lat="42.4291189" lon="-8.6013952"><ele>222.99999999999997</ele><time>2026-05-02T08:14:39.563Z</time></trkpt><trkpt lat="42.4290559" lon="-8.6013777"><ele>223.0</ele><time>2026-05-02T08:14:40.564Z</time></trkpt><trkpt lat="42.4289397" lon="-8.6013453"><ele>223.0</ele><time>2026-05-02T08:14:42.561Z</time></trkpt><trkpt lat="42.4288277" lon="-8.6013097"><ele>223.0</ele><time>2026-05-02T08:14:44.568Z</time></trkpt><trkpt lat="42.4287328" lon="-8.6012484"><ele>223.0</ele><time>2026-05-02T08:14:46.558Z</time></trkpt><trkpt lat="42.4286359" lon="-8.6011398"><ele>223.0</ele><time>2026-05-02T08:14:48.566Z</time></trkpt><trkpt lat="42.4285765" lon="-8.6010879"><ele>223.0</ele><time>2026-05-02T08:14:49.574Z</time></trkpt><trkpt lat="42.4285176" lon="-8.6010354"><ele>223.66666666666666</ele><time>2026-05-02T08:14:50.562Z</time></trkpt><trkpt lat="42.4284538" lon="-8.6009765"><ele>224.33333333333331</ele><time>2026-05-02T08:14:51.563Z</time></trkpt><trkpt lat="42.4283904" lon="-8.6009308"><ele>225.0</ele><time>2026-05-02T08:14:52.561Z</time></trkpt><trkpt lat="42.4283145" lon="-8.6009058"><ele>225.66666666666669</ele><time>2026-05-02T08:14:53.56Z</time></trkpt><trkpt lat="42.4282193" lon="-8.6008925"><ele>226.33333333333334</ele><time>2026-05-02T08:14:54.567Z</time></trkpt><trkpt lat="42.4281022" lon="-8.6008813"><ele>227.0</ele><time>2026-05-02T08:14:55.571Z</time></trkpt><trkpt lat="42.427987" lon="-8.6008669"><ele>227.00000000000003</ele><time>2026-05-02T08:14:56.56Z</time></trkpt><trkpt lat="42.4278866" lon="-8.6008453"><ele>227.0</ele><time>2026-05-02T08:14:57.57Z</time></trkpt><trkpt lat="42.4278195" lon="-8.6008419"><ele>227.0</ele><time>2026-05-02T08:14:58.557Z</time></trkpt><trkpt lat="42.427804" lon="-8.6009686"><ele>227.0</ele><time>2026-05-02T08:15:02.562Z</time></trkpt><trkpt lat="42.4277527" lon="-8.6010851"><ele>227.00000000000003</ele><time>2026-05-02T08:15:04.56Z</time></trkpt><trkpt lat="42.4277003" lon="-8.6011572"><ele>227.0</ele><time>2026-05-02T08:15:05.572Z</time></trkpt><trkpt lat="42.4276409" lon="-8.6012278"><ele>227.00000000000003</ele><time>2026-05-02T08:15:06.562Z</time></trkpt><trkpt lat="42.4275664" lon="-8.601287"><ele>227.0</ele><time>2026-05-02T08:15:07.565Z</time></trkpt><trkpt lat="42.4274762" lon="-8.6013238"><ele>227.0</ele><time>2026-05-02T08:15:08.571Z</time></trkpt><trkpt lat="42.427394" lon="-8.6013631"><ele>227.0</ele><time>2026-05-02T08:15:09.562Z</time></trkpt><trkpt lat="42.4273257" lon="-8.6014141"><ele>227.00000000000003</ele><time>2026-05-02T08:15:10.561Z</time></trkpt><trkpt lat="42.4272625" lon="-8.6014797"><ele>227.0</ele><time>2026-05-02T08:15:11.561Z</time></trkpt><trkpt lat="42.4272081" lon="-8.6015521"><ele>227.00000000000003</ele><time>2026-05-02T08:15:12.558Z</time></trkpt><trkpt lat="42.4271531" lon="-8.6016296"><ele>227.0</ele><time>2026-05-02T08:15:13.56Z</time></trkpt><trkpt lat="42.4270965" lon="-8.6017076"><ele>227.0</ele><time>2026-05-02T08:15:14.566Z</time></trkpt><trkpt lat="42.4270457" lon="-8.601777"><ele>227.0</ele><time>2026-05-02T08:15:15.561Z</time></trkpt><trkpt lat="42.4269572" lon="-8.6018694"><ele>227.00000000000003</ele><time>2026-05-02T08:15:17.561Z</time></trkpt><trkpt lat="42.4268883" lon="-8.6018716"><ele>227.0</ele><time>2026-05-02T08:15:19.574Z</time></trkpt><trkpt lat="42.4267802" lon="-8.6018371"><ele>226.00000000000003</ele><time>2026-05-02T08:15:21.564Z</time></trkpt><trkpt lat="42.426712" lon="-8.6018206"><ele>225.0</ele><time>2026-05-02T08:15:22.561Z</time></trkpt><trkpt lat="42.4266368" lon="-8.6018019"><ele>224.0</ele><time>2026-05-02T08:15:23.556Z</time></trkpt><trkpt lat="42.4265547" lon="-8.6017885"><ele>223.0</ele><time>2026-05-02T08:15:24.553Z</time></trkpt><trkpt lat="42.4264697" lon="-8.6017768"><ele>222.00000000000003</ele><time>2026-05-02T08:15:25.559Z</time></trkpt><trkpt lat="42.426387" lon="-8.6017748"><ele>221.0</ele><time>2026-05-02T08:15:26.563Z</time></trkpt><trkpt lat="42.4263058" lon="-8.6017666"><ele>220.00000000000003</ele><time>2026-05-02T08:15:27.557Z</time></trkpt><trkpt lat="42.426231" lon="-8.6017502"><ele>219.0</ele><time>2026-05-02T08:15:28.569Z</time></trkpt><trkpt lat="42.4261585" lon="-8.6017348"><ele>218.0</ele><time>2026-05-02T08:15:29.557Z</time></trkpt><trkpt lat="42.4260824" lon="-8.6017208"><ele>217.0</ele><time>2026-05-02T08:15:30.56Z</time></trkpt><trkpt lat="42.4260038" lon="-8.6017181"><ele>216.00000000000003</ele><time>2026-05-02T08:15:31.56Z</time></trkpt><trkpt lat="42.4259266" lon="-8.6017128"><ele>215.0</ele><time>2026-05-02T08:15:32.561Z</time></trkpt><trkpt lat="42.4258548" lon="-8.6017141"><ele>215.00000000000003</ele><time>2026-05-02T08:15:33.56Z</time></trkpt><trkpt lat="42.4257884" lon="-8.601719"><ele>215.0</ele><time>2026-05-02T08:15:34.562Z</time></trkpt><trkpt lat="42.4256646" lon="-8.601751"><ele>215.0</ele><time>2026-05-02T08:15:36.561Z</time></trkpt><trkpt lat="42.4256006" lon="-8.6017773"><ele>215.0</ele><time>2026-05-02T08:15:37.564Z</time></trkpt><trkpt lat="42.4255378" lon="-8.6018043"><ele>215.00000000000003</ele><time>2026-05-02T08:15:38.559Z</time></trkpt><trkpt lat="42.4254766" lon="-8.6018346"><ele>215.0</ele><time>2026-05-02T08:15:39.561Z</time></trkpt><trkpt lat="42.4254065" lon="-8.6018655"><ele>212.42857142857142</ele><time>2026-05-02T08:15:40.564Z</time></trkpt><trkpt lat="42.4253301" lon="-8.6018948"><ele>209.85714285714286</ele><time>2026-05-02T08:15:41.558Z</time></trkpt><trkpt lat="42.425255" lon="-8.6019122"><ele>207.28571428571428</ele><time>2026-05-02T08:15:42.56Z</time></trkpt><trkpt lat="42.4251828" lon="-8.6019215"><ele>204.71428571428572</ele><time>2026-05-02T08:15:43.561Z</time></trkpt><trkpt lat="42.4251107" lon="-8.6019235"><ele>202.14285714285717</ele><time>2026-05-02T08:15:44.561Z</time></trkpt><trkpt lat="42.42504" lon="-8.6019226"><ele>199.57142857142858</ele><time>2026-05-02T08:15:45.559Z</time></trkpt><trkpt lat="42.4249692" lon="-8.6019266"><ele>197.0</ele><time>2026-05-02T08:15:46.57Z</time></trkpt><trkpt lat="42.4248946" lon="-8.6019409"><ele>197.00000000000003</ele><time>2026-05-02T08:15:47.567Z</time></trkpt><trkpt lat="42.4248238" lon="-8.601962"><ele>197.0</ele><time>2026-05-02T08:15:48.558Z</time></trkpt><trkpt lat="42.4247516" lon="-8.6019844"><ele>197.0</ele><time>2026-05-02T08:15:49.553Z</time></trkpt><trkpt lat="42.4246761" lon="-8.602013"><ele>197.0</ele><time>2026-05-02T08:15:50.559Z</time></trkpt><trkpt lat="42.4245965" lon="-8.6020483"><ele>197.00000000000003</ele><time>2026-05-02T08:15:51.576Z</time></trkpt><trkpt lat="42.4245157" lon="-8.6020982"><ele>197.0</ele><time>2026-05-02T08:15:52.561Z</time></trkpt><trkpt lat="42.4244366" lon="-8.6021551"><ele>196.83333333333334</ele><time>2026-05-02T08:15:53.564Z</time></trkpt><trkpt lat="42.4243572" lon="-8.6022164"><ele>196.66666666666669</ele><time>2026-05-02T08:15:54.558Z</time></trkpt><trkpt lat="42.4242754" lon="-8.6022802"><ele>196.5</ele><time>2026-05-02T08:15:55.562Z</time></trkpt><trkpt lat="42.4241981" lon="-8.6023513"><ele>196.33333333333331</ele><time>2026-05-02T08:15:56.567Z</time></trkpt><trkpt lat="42.4241339" lon="-8.6024296"><ele>196.16666666666666</ele><time>2026-05-02T08:15:57.555Z</time></trkpt><trkpt lat="42.4240785" lon="-8.6025118"><ele>196.0</ele><time>2026-05-02T08:15:58.555Z</time></trkpt><trkpt lat="42.4240268" lon="-8.602587"><ele>195.99999999999997</ele><time>2026-05-02T08:15:59.557Z</time></trkpt><trkpt lat="42.4239781" lon="-8.6026465"><ele>196.0</ele><time>2026-05-02T08:16:00.564Z</time></trkpt><trkpt lat="42.4238606" lon="-8.6026883"><ele>196.0</ele><time>2026-05-02T08:16:02.566Z</time></trkpt><trkpt lat="42.4237935" lon="-8.602714"><ele>196.0</ele><time>2026-05-02T08:16:03.557Z</time></trkpt><trkpt lat="42.423723" lon="-8.6027371"><ele>195.99999999999997</ele><time>2026-05-02T08:16:04.561Z</time></trkpt><trkpt lat="42.4236677" lon="-8.6027888"><ele>196.0</ele><time>2026-05-02T08:16:05.556Z</time></trkpt><trkpt lat="42.4236224" lon="-8.6028591"><ele>193.49999999999997</ele><time>2026-05-02T08:16:06.559Z</time></trkpt><trkpt lat="42.4235431" lon="-8.6029667"><ele>191.0</ele><time>2026-05-02T08:16:08.57Z</time></trkpt><trkpt lat="42.4234604" lon="-8.6029907"><ele>188.5</ele><time>2026-05-02T08:16:10.569Z</time></trkpt><trkpt lat="42.4233804" lon="-8.6029371"><ele>186.0</ele><time>2026-05-02T08:16:12.573Z</time></trkpt><trkpt lat="42.4233126" lon="-8.6028905"><ele>183.5</ele><time>2026-05-02T08:16:14.564Z</time></trkpt><trkpt lat="42.4232704" lon="-8.6028037"><ele>181.0</ele><time>2026-05-02T08:16:16.559Z</time></trkpt><trkpt lat="42.4232405" lon="-8.6026348"><ele>181.0</ele><time>2026-05-02T08:16:18.565Z</time></trkpt><trkpt lat="42.4232233" lon="-8.6025415"><ele>181.0</ele><time>2026-05-02T08:16:19.565Z</time></trkpt><trkpt lat="42.4231952" lon="-8.6024521"><ele>181.0</ele><time>2026-05-02T08:16:20.562Z</time></trkpt><trkpt lat="42.4231649" lon="-8.6023713"><ele>181.0</ele><time>2026-05-02T08:16:21.564Z</time></trkpt><trkpt lat="42.4231236" lon="-8.6022301"><ele>181.0</ele><time>2026-05-02T08:16:23.574Z</time></trkpt><trkpt lat="42.4231415" lon="-8.6020773"><ele>181.0</ele><time>2026-05-02T08:16:25.563Z</time></trkpt><trkpt lat="42.4231762" lon="-8.6019352"><ele>180.0</ele><time>2026-05-02T08:16:27.567Z</time></trkpt><trkpt lat="42.4232022" lon="-8.6018324"><ele>179.0</ele><time>2026-05-02T08:16:29.565Z</time></trkpt><trkpt lat="42.4232075" lon="-8.6017371"><ele>178.0</ele><time>2026-05-02T08:16:31.564Z</time></trkpt><trkpt lat="42.4231485" lon="-8.6016555"><ele>177.0</ele><time>2026-05-02T08:16:33.572Z</time></trkpt><trkpt lat="42.4230196" lon="-8.6016231"><ele>176.0</ele><time>2026-05-02T08:16:35.56Z</time></trkpt><trkpt lat="42.4229553" lon="-8.6015765"><ele>175.0</ele><time>2026-05-02T08:16:36.564Z</time></trkpt><trkpt lat="42.4228954" lon="-8.6015167"><ele>173.66666666666669</ele><time>2026-05-02T08:16:37.562Z</time></trkpt><trkpt lat="42.4228351" lon="-8.6014601"><ele>172.33333333333334</ele><time>2026-05-02T08:16:38.56Z</time></trkpt><trkpt lat="42.4227723" lon="-8.6014149"><ele>171.0</ele><time>2026-05-02T08:16:39.557Z</time></trkpt><trkpt lat="42.422709" lon="-8.6013974"><ele>169.66666666666666</ele><time>2026-05-02T08:16:40.555Z</time></trkpt><trkpt lat="42.4226215" lon="-8.6014369"><ele>168.33333333333331</ele><time>2026-05-02T08:16:42.559Z</time></trkpt><trkpt lat="42.422513" lon="-8.6014385"><ele>167.0</ele><time>2026-05-02T08:16:44.568Z</time></trkpt><trkpt lat="42.4224509" lon="-8.6013675"><ele>167.0</ele><time>2026-05-02T08:16:45.566Z</time></trkpt><trkpt lat="42.4223839" lon="-8.6012976"><ele>167.0</ele><time>2026-05-02T08:16:46.558Z</time></trkpt><trkpt lat="42.4223128" lon="-8.6012338"><ele>167.0</ele><time>2026-05-02T08:16:47.564Z</time></trkpt><trkpt lat="42.4222405" lon="-8.6011717"><ele>167.0</ele><time>2026-05-02T08:16:48.567Z</time></trkpt><trkpt lat="42.4221678" lon="-8.6011074"><ele>167.0</ele><time>2026-05-02T08:16:49.563Z</time></trkpt><trkpt lat="42.4220874" lon="-8.6010407"><ele>167.0</ele><time>2026-05-02T08:16:50.573Z</time></trkpt><trkpt lat="42.4220069" lon="-8.6009792"><ele>165.66666666666666</ele><time>2026-05-02T08:16:51.556Z</time></trkpt><trkpt lat="42.4219306" lon="-8.6009245"><ele>164.33333333333331</ele><time>2026-05-02T08:16:52.561Z</time></trkpt><trkpt lat="42.4218624" lon="-8.6008689"><ele>163.0</ele><time>2026-05-02T08:16:53.561Z</time></trkpt><trkpt lat="42.4218037" lon="-8.6008133"><ele>161.66666666666666</ele><time>2026-05-02T08:16:54.562Z</time></trkpt><trkpt lat="42.4217162" lon="-8.6007368"><ele>160.33333333333334</ele><time>2026-05-02T08:16:56.566Z</time></trkpt><trkpt lat="42.4216393" lon="-8.6006653"><ele>159.0</ele><time>2026-05-02T08:17:01.571Z</time></trkpt><trkpt lat="42.4215514" lon="-8.6005857"><ele>159.0</ele><time>2026-05-02T08:17:03.565Z</time></trkpt><trkpt lat="42.421502" lon="-8.6005068"><ele>159.0</ele><time>2026-05-02T08:17:04.566Z</time></trkpt><trkpt lat="42.4214357" lon="-8.6003973"><ele>159.0</ele><time>2026-05-02T08:17:05.566Z</time></trkpt><trkpt lat="42.4213632" lon="-8.6002808"><ele>159.0</ele><time>2026-05-02T08:17:06.569Z</time></trkpt><trkpt lat="42.4212921" lon="-8.6001471"><ele>159.0</ele><time>2026-05-02T08:17:07.57Z</time></trkpt><trkpt lat="42.4212321" lon="-8.6000175"><ele>159.4</ele><time>2026-05-02T08:17:08.559Z</time></trkpt><trkpt lat="42.4211755" lon="-8.5998915"><ele>159.8</ele><time>2026-05-02T08:17:09.562Z</time></trkpt><trkpt lat="42.421122" lon="-8.5997787"><ele>160.20000000000002</ele><time>2026-05-02T08:17:10.565Z</time></trkpt><trkpt lat="42.4210712" lon="-8.5996797"><ele>160.60000000000002</ele><time>2026-05-02T08:17:11.563Z</time></trkpt><trkpt lat="42.4210388" lon="-8.5995409"><ele>161.0</ele><time>2026-05-02T08:17:13.561Z</time></trkpt><trkpt lat="42.4210926" lon="-8.5993782"><ele>161.0</ele><time>2026-05-02T08:17:15.576Z</time></trkpt><trkpt lat="42.4211345" lon="-8.5992563"><ele>161.0</ele><time>2026-05-02T08:17:16.79Z</time></trkpt><trkpt lat="42.4211946" lon="-8.5990156"><ele>161.0</ele><time>2026-05-02T08:17:18.563Z</time></trkpt><trkpt lat="42.4212137" lon="-8.598888"><ele>161.0</ele><time>2026-05-02T08:17:19.562Z</time></trkpt><trkpt lat="42.4212241" lon="-8.5987656"><ele>161.16666666666666</ele><time>2026-05-02T08:17:20.56Z</time></trkpt><trkpt lat="42.4212267" lon="-8.5986551"><ele>161.33333333333331</ele><time>2026-05-02T08:17:21.565Z</time></trkpt><trkpt lat="42.4212181" lon="-8.5985489"><ele>161.5</ele><time>2026-05-02T08:17:22.571Z</time></trkpt><trkpt lat="42.4212025" lon="-8.5984442"><ele>161.66666666666666</ele><time>2026-05-02T08:17:23.559Z</time></trkpt><trkpt lat="42.42118" lon="-8.5983397"><ele>161.83333333333334</ele><time>2026-05-02T08:17:24.56Z</time></trkpt><trkpt lat="42.4211526" lon="-8.5982401"><ele>162.0</ele><time>2026-05-02T08:17:25.558Z</time></trkpt><trkpt lat="42.4211107" lon="-8.5981516"><ele>162.0</ele><time>2026-05-02T08:17:26.561Z</time></trkpt><trkpt lat="42.4210638" lon="-8.5980678"><ele>162.0</ele><time>2026-05-02T08:17:27.558Z</time></trkpt><trkpt lat="42.421022" lon="-8.5979799"><ele>162.0</ele><time>2026-05-02T08:17:28.571Z</time></trkpt><trkpt lat="42.4209898" lon="-8.5978837"><ele>162.0</ele><time>2026-05-02T08:17:29.567Z</time></trkpt><trkpt lat="42.4209627" lon="-8.5977838"><ele>162.0</ele><time>2026-05-02T08:17:30.568Z</time></trkpt><trkpt lat="42.4209429" lon="-8.5976662"><ele>162.0</ele><time>2026-05-02T08:17:31.558Z</time></trkpt><trkpt lat="42.4209264" lon="-8.5975312"><ele>161.6</ele><time>2026-05-02T08:17:32.56Z</time></trkpt><trkpt lat="42.4209146" lon="-8.5974017"><ele>161.2</ele><time>2026-05-02T08:17:33.562Z</time></trkpt><trkpt lat="42.4209035" lon="-8.5972625"><ele>160.8</ele><time>2026-05-02T08:17:34.563Z</time></trkpt><trkpt lat="42.4208922" lon="-8.5971226"><ele>160.4</ele><time>2026-05-02T08:17:35.573Z</time></trkpt><trkpt lat="42.4208737" lon="-8.5969834"><ele>160.0</ele><time>2026-05-02T08:17:36.566Z</time></trkpt><trkpt lat="42.4208425" lon="-8.5968389"><ele>159.75</ele><time>2026-05-02T08:17:37.562Z</time></trkpt><trkpt lat="42.4208058" lon="-8.5966932"><ele>159.5</ele><time>2026-05-02T08:17:38.575Z</time></trkpt><trkpt lat="42.420768" lon="-8.5965508"><ele>159.25</ele><time>2026-05-02T08:17:39.559Z</time></trkpt><trkpt lat="42.4207218" lon="-8.5964072"><ele>159.0</ele><time>2026-05-02T08:17:40.561Z</time></trkpt><trkpt lat="42.4206686" lon="-8.5962707"><ele>159.4</ele><time>2026-05-02T08:17:41.57Z</time></trkpt><trkpt lat="42.4206189" lon="-8.5961389"><ele>159.8</ele><time>2026-05-02T08:17:42.564Z</time></trkpt><trkpt lat="42.420568" lon="-8.5960124"><ele>160.20000000000002</ele><time>2026-05-02T08:17:43.563Z</time></trkpt><trkpt lat="42.420519" lon="-8.5958961"><ele>160.60000000000002</ele><time>2026-05-02T08:17:44.561Z</time></trkpt><trkpt lat="42.4204721" lon="-8.5958013"><ele>161.0</ele><time>2026-05-02T08:17:45.557Z</time></trkpt><trkpt lat="42.4204298" lon="-8.5957288"><ele>162.60000000000002</ele><time>2026-05-02T08:17:46.567Z</time></trkpt><trkpt lat="42.4203489" lon="-8.5956387"><ele>164.2</ele><time>2026-05-02T08:17:48.564Z</time></trkpt><trkpt lat="42.4202595" lon="-8.5956179"><ele>165.8</ele><time>2026-05-02T08:17:50.572Z</time></trkpt><trkpt lat="42.4201671" lon="-8.5955862"><ele>167.39999999999998</ele><time>2026-05-02T08:17:52.56Z</time></trkpt><trkpt lat="42.4200836" lon="-8.5955465"><ele>169.0</ele><time>2026-05-02T08:17:54.555Z</time></trkpt><trkpt lat="42.4199955" lon="-8.5955051"><ele>169.0</ele><time>2026-05-02T08:17:56.565Z</time></trkpt><trkpt lat="42.4199011" lon="-8.5954016"><ele>169.0</ele><time>2026-05-02T08:17:58.562Z</time></trkpt><trkpt lat="42.4198591" lon="-8.595328"><ele>169.0</ele><time>2026-05-02T08:17:59.563Z</time></trkpt><trkpt lat="42.419824" lon="-8.5952455"><ele>169.0</ele><time>2026-05-02T08:18:00.563Z</time></trkpt><trkpt lat="42.4198051" lon="-8.5951538"><ele>169.0</ele><time>2026-05-02T08:18:01.557Z</time></trkpt><trkpt lat="42.4197862" lon="-8.5950622"><ele>169.0</ele><time>2026-05-02T08:18:02.562Z</time></trkpt><trkpt lat="42.4197529" lon="-8.5949813"><ele>169.0</ele><time>2026-05-02T08:18:03.569Z</time></trkpt><trkpt lat="42.419719" lon="-8.5949019"><ele>169.0</ele><time>2026-05-02T08:18:04.562Z</time></trkpt><trkpt lat="42.4196908" lon="-8.5948134"><ele>169.0</ele><time>2026-05-02T08:18:05.563Z</time></trkpt><trkpt lat="42.4196711" lon="-8.5947118"><ele>169.0</ele><time>2026-05-02T08:18:06.564Z</time></trkpt><trkpt lat="42.419661" lon="-8.5946045"><ele>169.0</ele><time>2026-05-02T08:18:07.562Z</time></trkpt><trkpt lat="42.4196585" lon="-8.5944879"><ele>169.0</ele><time>2026-05-02T08:18:08.558Z</time></trkpt><trkpt lat="42.4196551" lon="-8.5943682"><ele>170.0</ele><time>2026-05-02T08:18:09.581Z</time></trkpt><trkpt lat="42.4196523" lon="-8.5942499"><ele>171.0</ele><time>2026-05-02T08:18:10.562Z</time></trkpt><trkpt lat="42.419658" lon="-8.5941068"><ele>172.0</ele><time>2026-05-02T08:18:11.559Z</time></trkpt><trkpt lat="42.4196728" lon="-8.5939501"><ele>173.0</ele><time>2026-05-02T08:18:12.562Z</time></trkpt><trkpt lat="42.4196856" lon="-8.5937931"><ele>174.0</ele><time>2026-05-02T08:18:13.56Z</time></trkpt><trkpt lat="42.4197133" lon="-8.5936489"><ele>174.6</ele><time>2026-05-02T08:18:14.567Z</time></trkpt><trkpt lat="42.4197553" lon="-8.593521"><ele>175.2</ele><time>2026-05-02T08:18:15.56Z</time></trkpt><trkpt lat="42.4198094" lon="-8.5933963"><ele>175.79999999999998</ele><time>2026-05-02T08:18:16.557Z</time></trkpt><trkpt lat="42.4198734" lon="-8.5932723"><ele>176.39999999999998</ele><time>2026-05-02T08:18:17.565Z</time></trkpt><trkpt lat="42.4199454" lon="-8.5931462"><ele>177.0</ele><time>2026-05-02T08:18:18.561Z</time></trkpt><trkpt lat="42.4200117" lon="-8.5930334"><ele>177.0</ele><time>2026-05-02T08:18:19.56Z</time></trkpt><trkpt lat="42.4200604" lon="-8.5929424"><ele>177.0</ele><time>2026-05-02T08:18:20.562Z</time></trkpt><trkpt lat="42.4201126" lon="-8.5928669"><ele>177.0</ele><time>2026-05-02T08:18:21.563Z</time></trkpt><trkpt lat="42.4201668" lon="-8.5927996"><ele>177.0</ele><time>2026-05-02T08:18:22.559Z</time></trkpt><trkpt lat="42.4202231" lon="-8.592712"><ele>177.0</ele><time>2026-05-02T08:18:23.568Z</time></trkpt><trkpt lat="42.4202832" lon="-8.5926189"><ele>177.0</ele><time>2026-05-02T08:18:24.569Z</time></trkpt><trkpt lat="42.4203364" lon="-8.5925283"><ele>177.66666666666666</ele><time>2026-05-02T08:18:25.561Z</time></trkpt><trkpt lat="42.4203846" lon="-8.5924485"><ele>178.33333333333334</ele><time>2026-05-02T08:18:26.559Z</time></trkpt><trkpt lat="42.4204315" lon="-8.5923806"><ele>179.0</ele><time>2026-05-02T08:18:27.57Z</time></trkpt><trkpt lat="42.4204819" lon="-8.5923157"><ele>179.66666666666669</ele><time>2026-05-02T08:18:29.559Z</time></trkpt><trkpt lat="42.4205629" lon="-8.5923344"><ele>180.33333333333334</ele><time>2026-05-02T08:18:33.569Z</time></trkpt><trkpt lat="42.42064" lon="-8.5923865"><ele>181.0</ele><time>2026-05-02T08:18:35.562Z</time></trkpt><trkpt lat="42.4207064" lon="-8.5924267"><ele>181.33333333333334</ele><time>2026-05-02T08:18:37.559Z</time></trkpt><trkpt lat="42.4207687" lon="-8.5924456"><ele>181.66666666666669</ele><time>2026-05-02T08:18:40.569Z</time></trkpt><trkpt lat="42.4208161" lon="-8.5923587"><ele>182.0</ele><time>2026-05-02T08:18:43.563Z</time></trkpt><trkpt lat="42.4208465" lon="-8.5922121"><ele>182.33333333333334</ele><time>2026-05-02T08:18:45.563Z</time></trkpt><trkpt lat="42.4208545" lon="-8.5921272"><ele>182.66666666666666</ele><time>2026-05-02T08:18:46.557Z</time></trkpt><trkpt lat="42.4208696" lon="-8.5920208"><ele>183.0</ele><time>2026-05-02T08:18:47.563Z</time></trkpt><trkpt lat="42.4208852" lon="-8.5919072"><ele>183.0</ele><time>2026-05-02T08:18:48.564Z</time></trkpt><trkpt lat="42.420913" lon="-8.5918059"><ele>183.0</ele><time>2026-05-02T08:18:49.565Z</time></trkpt><trkpt lat="42.4209424" lon="-8.5917177"><ele>183.0</ele><time>2026-05-02T08:18:50.563Z</time></trkpt><trkpt lat="42.420966" lon="-8.5916229"><ele>183.0</ele><time>2026-05-02T08:18:51.565Z</time></trkpt><trkpt lat="42.4210074" lon="-8.5914863"><ele>183.0</ele><time>2026-05-02T08:18:53.561Z</time></trkpt><trkpt lat="42.4210097" lon="-8.591396"><ele>183.0</ele><time>2026-05-02T08:19:11.566Z</time></trkpt><trkpt lat="42.4210223" lon="-8.5915214"><ele>183.0</ele><time>2026-05-02T08:19:29.563Z</time></trkpt><trkpt lat="42.4210083" lon="-8.5916046"><ele>183.0</ele><time>2026-05-02T08:19:32.564Z</time></trkpt><trkpt lat="42.4210117" lon="-8.5915015"><ele>183.0</ele><time>2026-05-02T08:19:39.56Z</time></trkpt><trkpt lat="42.4210071" lon="-8.5914127"><ele>183.0</ele><time>2026-05-02T08:19:42.562Z</time></trkpt><trkpt lat="42.4210091" lon="-8.5913225"><ele>183.0</ele><time>2026-05-02T08:20:21.567Z</time></trkpt><trkpt lat="42.4210111" lon="-8.5914289"><ele>183.0</ele><time>2026-05-02T08:20:32.562Z</time></trkpt><trkpt lat="42.4210102" lon="-8.5915329"><ele>183.0</ele><time>2026-05-02T08:20:36.567Z</time></trkpt><trkpt lat="42.4210328" lon="-8.5914167"><ele>183.0</ele><time>2026-05-02T08:20:44.56Z</time></trkpt><trkpt lat="42.4210058" lon="-8.5913334"><ele>183.0</ele><time>2026-05-02T08:20:50.562Z</time></trkpt><trkpt lat="42.4209445" lon="-8.5912973"><ele>183.0</ele><time>2026-05-02T08:21:06.56Z</time></trkpt><trkpt lat="42.4208819" lon="-8.5913215"><ele>183.0</ele><time>2026-05-02T08:21:24.56Z</time></trkpt><trkpt lat="42.4208113" lon="-8.591309"><ele>183.0</ele><time>2026-05-02T08:21:26.569Z</time></trkpt><trkpt lat="42.4207426" lon="-8.5912872"><ele>183.0</ele><time>2026-05-02T08:21:28.563Z</time></trkpt><trkpt lat="42.4206794" lon="-8.5912089"><ele>183.0</ele><time>2026-05-02T08:21:31.555Z</time></trkpt><trkpt lat="42.4206456" lon="-8.5911141"><ele>182.60000000000002</ele><time>2026-05-02T08:21:34.563Z</time></trkpt><trkpt lat="42.4206104" lon="-8.5910132"><ele>182.20000000000002</ele><time>2026-05-02T08:21:38.565Z</time></trkpt><trkpt lat="42.4205737" lon="-8.5909084"><ele>181.8</ele><time>2026-05-02T08:21:41.563Z</time></trkpt><trkpt lat="42.4205338" lon="-8.5908138"><ele>181.4</ele><time>2026-05-02T08:21:43.562Z</time></trkpt><trkpt lat="42.4204764" lon="-8.5906883"><ele>181.0</ele><time>2026-05-02T08:21:45.567Z</time></trkpt><trkpt lat="42.4204519" lon="-8.590548"><ele>181.0</ele><time>2026-05-02T08:21:47.56Z</time></trkpt><trkpt lat="42.420517" lon="-8.5904157"><ele>181.0</ele><time>2026-05-02T08:21:49.566Z</time></trkpt><trkpt lat="42.420604" lon="-8.5902788"><ele>181.0</ele><time>2026-05-02T08:21:51.565Z</time></trkpt><trkpt lat="42.4206388" lon="-8.5902008"><ele>181.0</ele><time>2026-05-02T08:21:52.56Z</time></trkpt><trkpt lat="42.4206786" lon="-8.5901268"><ele>181.0</ele><time>2026-05-02T08:21:53.565Z</time></trkpt><trkpt lat="42.4207223" lon="-8.590045"><ele>181.83333333333334</ele><time>2026-05-02T08:21:54.557Z</time></trkpt><trkpt lat="42.4207636" lon="-8.5899592"><ele>182.66666666666669</ele><time>2026-05-02T08:21:55.561Z</time></trkpt><trkpt lat="42.4208097" lon="-8.5898742"><ele>183.5</ele><time>2026-05-02T08:21:56.564Z</time></trkpt><trkpt lat="42.420856" lon="-8.5897858"><ele>184.33333333333334</ele><time>2026-05-02T08:21:57.562Z</time></trkpt><trkpt lat="42.4208915" lon="-8.589693"><ele>185.16666666666666</ele><time>2026-05-02T08:21:58.561Z</time></trkpt><trkpt lat="42.4209248" lon="-8.5895904"><ele>186.0</ele><time>2026-05-02T08:21:59.563Z</time></trkpt><trkpt lat="42.4209589" lon="-8.5895064"><ele>188.0</ele><time>2026-05-02T08:22:00.565Z</time></trkpt><trkpt lat="42.4210011" lon="-8.5894215"><ele>190.0</ele><time>2026-05-02T08:22:01.565Z</time></trkpt><trkpt lat="42.4210516" lon="-8.5893334"><ele>192.0</ele><time>2026-05-02T08:22:02.564Z</time></trkpt><trkpt lat="42.4211095" lon="-8.589239"><ele>194.0</ele><time>2026-05-02T08:22:03.562Z</time></trkpt><trkpt lat="42.4211744" lon="-8.5891365"><ele>196.0</ele><time>2026-05-02T08:22:04.556Z</time></trkpt><trkpt lat="42.4212422" lon="-8.5890269"><ele>195.99999999999997</ele><time>2026-05-02T08:22:05.561Z</time></trkpt><trkpt lat="42.4213049" lon="-8.5889186"><ele>196.0</ele><time>2026-05-02T08:22:06.568Z</time></trkpt><trkpt lat="42.4213635" lon="-8.5888111"><ele>196.0</ele><time>2026-05-02T08:22:07.563Z</time></trkpt><trkpt lat="42.4214118" lon="-8.5887039"><ele>196.0</ele><time>2026-05-02T08:22:08.558Z</time></trkpt><trkpt lat="42.421456" lon="-8.5886177"><ele>195.99999999999997</ele><time>2026-05-02T08:22:09.562Z</time></trkpt><trkpt lat="42.4215063" lon="-8.5885413"><ele>196.0</ele><time>2026-05-02T08:22:10.56Z</time></trkpt><trkpt lat="42.4215604" lon="-8.5884622"><ele>195.49999999999997</ele><time>2026-05-02T08:22:11.558Z</time></trkpt><trkpt lat="42.4216123" lon="-8.5883729"><ele>195.0</ele><time>2026-05-02T08:22:12.563Z</time></trkpt><trkpt lat="42.4216574" lon="-8.5882744"><ele>194.5</ele><time>2026-05-02T08:22:13.559Z</time></trkpt><trkpt lat="42.4217071" lon="-8.5881697"><ele>194.0</ele><time>2026-05-02T08:22:14.56Z</time></trkpt><trkpt lat="42.4217583" lon="-8.5880694"><ele>193.49999999999997</ele><time>2026-05-02T08:22:15.556Z</time></trkpt><trkpt lat="42.4218135" lon="-8.5879778"><ele>193.0</ele><time>2026-05-02T08:22:16.562Z</time></trkpt><trkpt lat="42.4218713" lon="-8.5878952"><ele>193.49999999999997</ele><time>2026-05-02T08:22:17.559Z</time></trkpt><trkpt lat="42.4219287" lon="-8.5878234"><ele>194.0</ele><time>2026-05-02T08:22:18.555Z</time></trkpt><trkpt lat="42.4219946" lon="-8.5877552"><ele>194.5</ele><time>2026-05-02T08:22:19.561Z</time></trkpt><trkpt lat="42.4220584" lon="-8.5876885"><ele>195.0</ele><time>2026-05-02T08:22:20.566Z</time></trkpt><trkpt lat="42.4221114" lon="-8.5876221"><ele>195.49999999999997</ele><time>2026-05-02T08:22:21.567Z</time></trkpt><trkpt lat="42.4221045" lon="-8.587476"><ele>196.0</ele><time>2026-05-02T08:22:23.562Z</time></trkpt><trkpt lat="42.422048" lon="-8.587411"><ele>195.99999999999997</ele><time>2026-05-02T08:22:24.569Z</time></trkpt><trkpt lat="42.4219637" lon="-8.5873646"><ele>196.0</ele><time>2026-05-02T08:22:25.558Z</time></trkpt><trkpt lat="42.421883" lon="-8.5873354"><ele>196.0</ele><time>2026-05-02T08:22:26.561Z</time></trkpt><trkpt lat="42.4218189" lon="-8.5872956"><ele>196.0</ele><time>2026-05-02T08:22:27.558Z</time></trkpt><trkpt lat="42.4217767" lon="-8.5872171"><ele>195.99999999999997</ele><time>2026-05-02T08:22:28.557Z</time></trkpt><trkpt lat="42.4217591" lon="-8.5871205"><ele>196.0</ele><time>2026-05-02T08:22:29.56Z</time></trkpt><trkpt lat="42.4217702" lon="-8.5870308"><ele>196.60000000000002</ele><time>2026-05-02T08:22:30.554Z</time></trkpt><trkpt lat="42.4218063" lon="-8.5869377"><ele>197.2</ele><time>2026-05-02T08:22:31.558Z</time></trkpt><trkpt lat="42.4218433" lon="-8.586856"><ele>197.8</ele><time>2026-05-02T08:22:32.559Z</time></trkpt><trkpt lat="42.4218606" lon="-8.5867018"><ele>198.39999999999998</ele><time>2026-05-02T08:22:34.56Z</time></trkpt><trkpt lat="42.4217686" lon="-8.5866384"><ele>199.0</ele><time>2026-05-02T08:22:36.565Z</time></trkpt><trkpt lat="42.4216631" lon="-8.5866267"><ele>199.0</ele><time>2026-05-02T08:22:37.555Z</time></trkpt><trkpt lat="42.4215599" lon="-8.5866004"><ele>199.0</ele><time>2026-05-02T08:22:38.564Z</time></trkpt><trkpt lat="42.421454" lon="-8.5865612"><ele>199.0</ele><time>2026-05-02T08:22:39.568Z</time></trkpt><trkpt lat="42.4213684" lon="-8.5865193"><ele>199.0</ele><time>2026-05-02T08:22:40.571Z</time></trkpt><trkpt lat="42.4212867" lon="-8.5864761"><ele>199.0</ele><time>2026-05-02T08:22:41.56Z</time></trkpt><trkpt lat="42.4211975" lon="-8.5864314"><ele>202.49999999999997</ele><time>2026-05-02T08:22:42.562Z</time></trkpt><trkpt lat="42.4211104" lon="-8.5863943"><ele>206.0</ele><time>2026-05-02T08:22:43.562Z</time></trkpt><trkpt lat="42.4210286" lon="-8.5863575"><ele>209.5</ele><time>2026-05-02T08:22:44.559Z</time></trkpt><trkpt lat="42.4209586" lon="-8.5863191"><ele>213.0</ele><time>2026-05-02T08:22:45.571Z</time></trkpt><trkpt lat="42.4208929" lon="-8.5862724"><ele>216.49999999999997</ele><time>2026-05-02T08:22:46.564Z</time></trkpt><trkpt lat="42.4207978" lon="-8.5862083"><ele>220.0</ele><time>2026-05-02T08:22:48.572Z</time></trkpt><trkpt lat="42.4207096" lon="-8.5861889"><ele>219.99999999999997</ele><time>2026-05-02T08:22:50.564Z</time></trkpt><trkpt lat="42.4206107" lon="-8.5862011"><ele>220.0</ele><time>2026-05-02T08:22:52.564Z</time></trkpt><trkpt lat="42.4205296" lon="-8.5862207"><ele>220.0</ele><time>2026-05-02T08:22:54.558Z</time></trkpt><trkpt lat="42.4205463" lon="-8.5863523"><ele>220.0</ele><time>2026-05-02T08:22:57.564Z</time></trkpt><trkpt lat="42.4205545" lon="-8.5864562"><ele>219.99999999999997</ele><time>2026-05-02T08:22:59.568Z</time></trkpt><trkpt lat="42.4205505" lon="-8.5865706"><ele>220.0</ele><time>2026-05-02T08:23:01.558Z</time></trkpt><trkpt lat="42.4205504" lon="-8.5866813"><ele>219.99999999999997</ele><time>2026-05-02T08:23:03.555Z</time></trkpt><trkpt lat="42.4205076" lon="-8.5867512"><ele>220.0</ele><time>2026-05-02T08:23:09.561Z</time></trkpt><trkpt lat="42.4204692" lon="-8.5866473"><ele>220.0</ele><time>2026-05-02T08:23:11.563Z</time></trkpt><trkpt lat="42.4204687" lon="-8.5865445"><ele>220.0</ele><time>2026-05-02T08:23:12.557Z</time></trkpt><trkpt lat="42.4204684" lon="-8.5864263"><ele>219.99999999999997</ele><time>2026-05-02T08:23:13.571Z</time></trkpt><trkpt lat="42.4204697" lon="-8.5862987"><ele>220.0</ele><time>2026-05-02T08:23:14.562Z</time></trkpt><trkpt lat="42.4204589" lon="-8.5861617"><ele>227.0</ele><time>2026-05-02T08:23:15.566Z</time></trkpt><trkpt lat="42.4204394" lon="-8.5860187"><ele>234.0</ele><time>2026-05-02T08:23:16.559Z</time></trkpt><trkpt lat="42.4204106" lon="-8.5858753"><ele>241.0</ele><time>2026-05-02T08:23:17.561Z</time></trkpt><trkpt lat="42.4203851" lon="-8.5857337"><ele>248.0</ele><time>2026-05-02T08:23:18.571Z</time></trkpt><trkpt lat="42.4203465" lon="-8.5855851"><ele>255.0</ele><time>2026-05-02T08:23:19.561Z</time></trkpt><trkpt lat="42.4202947" lon="-8.5854312"><ele>255.0</ele><time>2026-05-02T08:23:20.561Z</time></trkpt><trkpt lat="42.4202585" lon="-8.5852975"><ele>255.0</ele><time>2026-05-02T08:23:21.57Z</time></trkpt><trkpt lat="42.4202194" lon="-8.5852136"><ele>255.0</ele><time>2026-05-02T08:23:22.561Z</time></trkpt><trkpt lat="42.4201818" lon="-8.585301"><ele>255.0</ele><time>2026-05-02T08:23:26.569Z</time></trkpt><trkpt lat="42.4201931" lon="-8.5854148"><ele>255.0</ele><time>2026-05-02T08:23:28.555Z</time></trkpt><trkpt lat="42.4202129" lon="-8.5855167"><ele>255.0</ele><time>2026-05-02T08:23:30.567Z</time></trkpt><trkpt lat="42.4202172" lon="-8.585657"><ele>255.0</ele><time>2026-05-02T08:23:32.557Z</time></trkpt><trkpt lat="42.4202042" lon="-8.5858216"><ele>255.0</ele><time>2026-05-02T08:23:34.559Z</time></trkpt><trkpt lat="42.4201998" lon="-8.5859674"><ele>255.0</ele><time>2026-05-02T08:23:37.56Z</time></trkpt><trkpt lat="42.4202103" lon="-8.5860578"><ele>255.0</ele><time>2026-05-02T08:23:46.558Z</time></trkpt><trkpt lat="42.4201908" lon="-8.5861637"><ele>255.0</ele><time>2026-05-02T08:23:50.56Z</time></trkpt><trkpt lat="42.4201252" lon="-8.5862072"><ele>254.83333333333334</ele><time>2026-05-02T08:23:52.559Z</time></trkpt><trkpt lat="42.4200501" lon="-8.5862452"><ele>254.66666666666669</ele><time>2026-05-02T08:23:54.559Z</time></trkpt><trkpt lat="42.4199704" lon="-8.5862866"><ele>254.5</ele><time>2026-05-02T08:23:56.561Z</time></trkpt><trkpt lat="42.4198988" lon="-8.5862931"><ele>254.33333333333334</ele><time>2026-05-02T08:23:58.561Z</time></trkpt><trkpt lat="42.4198099" lon="-8.5862759"><ele>254.16666666666669</ele><time>2026-05-02T08:24:01.556Z</time></trkpt><trkpt lat="42.4197425" lon="-8.5863205"><ele>254.0</ele><time>2026-05-02T08:24:05.556Z</time></trkpt><trkpt lat="42.4196729" lon="-8.5863673"><ele>258.59999999999997</ele><time>2026-05-02T08:24:08.564Z</time></trkpt><trkpt lat="42.419574" lon="-8.5863918"><ele>263.2</ele><time>2026-05-02T08:24:11.564Z</time></trkpt><trkpt lat="42.4194731" lon="-8.5864062"><ele>267.79999999999995</ele><time>2026-05-02T08:24:13.569Z</time></trkpt><trkpt lat="42.4193632" lon="-8.5864026"><ele>272.4</ele><time>2026-05-02T08:24:15.559Z</time></trkpt><trkpt lat="42.4192419" lon="-8.5863988"><ele>277.0</ele><time>2026-05-02T08:24:17.557Z</time></trkpt><trkpt lat="42.419133" lon="-8.5864109"><ele>277.0</ele><time>2026-05-02T08:24:19.557Z</time></trkpt><trkpt lat="42.4190205" lon="-8.5864493"><ele>277.0</ele><time>2026-05-02T08:24:21.558Z</time></trkpt><trkpt lat="42.4189089" lon="-8.5864893"><ele>277.0</ele><time>2026-05-02T08:24:23.56Z</time></trkpt><trkpt lat="42.4187956" lon="-8.5865545"><ele>277.0</ele><time>2026-05-02T08:24:25.563Z</time></trkpt><trkpt lat="42.4187317" lon="-8.5866037"><ele>277.0</ele><time>2026-05-02T08:24:26.559Z</time></trkpt><trkpt lat="42.4186621" lon="-8.5866717"><ele>279.0</ele><time>2026-05-02T08:24:27.568Z</time></trkpt><trkpt lat="42.4185945" lon="-8.5867431"><ele>281.0</ele><time>2026-05-02T08:24:28.566Z</time></trkpt><trkpt lat="42.4185256" lon="-8.5868048"><ele>283.0</ele><time>2026-05-02T08:24:29.56Z</time></trkpt><trkpt lat="42.4184522" lon="-8.5868532"><ele>285.0</ele><time>2026-05-02T08:24:30.56Z</time></trkpt><trkpt lat="42.4183779" lon="-8.5868824"><ele>287.0</ele><time>2026-05-02T08:24:31.557Z</time></trkpt><trkpt lat="42.4183019" lon="-8.5869044"><ele>289.0</ele><time>2026-05-02T08:24:32.56Z</time></trkpt><trkpt lat="42.4182277" lon="-8.5869294"><ele>289.0</ele><time>2026-05-02T08:24:33.569Z</time></trkpt><trkpt lat="42.4181641" lon="-8.586959"><ele>289.0</ele><time>2026-05-02T08:24:34.562Z</time></trkpt><trkpt lat="42.4181043" lon="-8.5869875"><ele>289.0</ele><time>2026-05-02T08:24:35.564Z</time></trkpt><trkpt lat="42.4180394" lon="-8.5870094"><ele>289.0</ele><time>2026-05-02T08:24:36.564Z</time></trkpt><trkpt lat="42.4179146" lon="-8.5870388"><ele>289.0</ele><time>2026-05-02T08:24:38.56Z</time></trkpt><trkpt lat="42.4178319" lon="-8.5870258"><ele>289.0</ele><time>2026-05-02T08:24:39.559Z</time></trkpt><trkpt lat="42.4177377" lon="-8.5869913"><ele>288.4</ele><time>2026-05-02T08:24:40.564Z</time></trkpt><trkpt lat="42.4176393" lon="-8.58696"><ele>287.79999999999995</ele><time>2026-05-02T08:24:41.56Z</time></trkpt><trkpt lat="42.4175356" lon="-8.5869335"><ele>287.20000000000005</ele><time>2026-05-02T08:24:42.56Z</time></trkpt><trkpt lat="42.4174303" lon="-8.5869065"><ele>286.6</ele><time>2026-05-02T08:24:43.568Z</time></trkpt><trkpt lat="42.4173265" lon="-8.5868855"><ele>286.0</ele><time>2026-05-02T08:24:44.563Z</time></trkpt><trkpt lat="42.417223" lon="-8.5868664"><ele>285.40000000000003</ele><time>2026-05-02T08:24:45.559Z</time></trkpt><trkpt lat="42.4171182" lon="-8.5868431"><ele>284.8</ele><time>2026-05-02T08:24:46.565Z</time></trkpt><trkpt lat="42.4170177" lon="-8.586825"><ele>284.20000000000005</ele><time>2026-05-02T08:24:47.565Z</time></trkpt><trkpt lat="42.416923" lon="-8.5868097"><ele>283.6</ele><time>2026-05-02T08:24:48.558Z</time></trkpt><trkpt lat="42.4168277" lon="-8.5867931"><ele>283.0</ele><time>2026-05-02T08:24:49.559Z</time></trkpt><trkpt lat="42.4167427" lon="-8.5867786"><ele>283.0</ele><time>2026-05-02T08:24:50.567Z</time></trkpt><trkpt lat="42.4166593" lon="-8.5867618"><ele>283.0</ele><time>2026-05-02T08:24:51.565Z</time></trkpt><trkpt lat="42.4165817" lon="-8.5867499"><ele>283.0</ele><time>2026-05-02T08:24:52.563Z</time></trkpt><trkpt lat="42.4165064" lon="-8.5867397"><ele>283.0</ele><time>2026-05-02T08:24:53.556Z</time></trkpt><trkpt lat="42.4164341" lon="-8.5867334"><ele>283.0</ele><time>2026-05-02T08:24:54.559Z</time></trkpt><trkpt lat="42.4163591" lon="-8.5867299"><ele>283.0</ele><time>2026-05-02T08:24:55.562Z</time></trkpt><trkpt lat="42.4162803" lon="-8.5867241"><ele>283.3333333333333</ele><time>2026-05-02T08:24:56.57Z</time></trkpt><trkpt lat="42.4162035" lon="-8.586721"><ele>283.66666666666663</ele><time>2026-05-02T08:24:57.561Z</time></trkpt><trkpt lat="42.4161264" lon="-8.5867207"><ele>284.0</ele><time>2026-05-02T08:24:58.561Z</time></trkpt><trkpt lat="42.4160589" lon="-8.586721"><ele>284.3333333333333</ele><time>2026-05-02T08:24:59.56Z</time></trkpt><trkpt lat="42.4159395" lon="-8.586719"><ele>284.6666666666667</ele><time>2026-05-02T08:25:01.563Z</time></trkpt><trkpt lat="42.4158333" lon="-8.5867408"><ele>285.0</ele><time>2026-05-02T08:25:03.558Z</time></trkpt><trkpt lat="42.4157262" lon="-8.5867845"><ele>285.0</ele><time>2026-05-02T08:25:05.559Z</time></trkpt><trkpt lat="42.4156156" lon="-8.5868474"><ele>285.0</ele><time>2026-05-02T08:25:07.567Z</time></trkpt><trkpt lat="42.4155556" lon="-8.5868962"><ele>285.0</ele><time>2026-05-02T08:25:08.564Z</time></trkpt><trkpt lat="42.4154812" lon="-8.5869618"><ele>285.0</ele><time>2026-05-02T08:25:09.562Z</time></trkpt><trkpt lat="42.4153953" lon="-8.5870333"><ele>285.0</ele><time>2026-05-02T08:25:10.561Z</time></trkpt><trkpt lat="42.4153085" lon="-8.5871149"><ele>285.0</ele><time>2026-05-02T08:25:11.567Z</time></trkpt><trkpt lat="42.4152248" lon="-8.587199"><ele>285.0</ele><time>2026-05-02T08:25:12.561Z</time></trkpt><trkpt lat="42.4151376" lon="-8.5872896"><ele>285.0</ele><time>2026-05-02T08:25:13.554Z</time></trkpt><trkpt lat="42.4150518" lon="-8.5873827"><ele>285.0</ele><time>2026-05-02T08:25:14.559Z</time></trkpt><trkpt lat="42.4149609" lon="-8.5874679"><ele>285.0</ele><time>2026-05-02T08:25:15.558Z</time></trkpt><trkpt lat="42.4148708" lon="-8.587539"><ele>285.0</ele><time>2026-05-02T08:25:16.558Z</time></trkpt><trkpt lat="42.414786" lon="-8.5876024"><ele>285.0</ele><time>2026-05-02T08:25:17.56Z</time></trkpt><trkpt lat="42.4146991" lon="-8.5876748"><ele>285.0</ele><time>2026-05-02T08:25:18.557Z</time></trkpt><trkpt lat="42.4146164" lon="-8.5877476"><ele>285.0</ele><time>2026-05-02T08:25:19.557Z</time></trkpt><trkpt lat="42.4145399" lon="-8.5878123"><ele>285.0</ele><time>2026-05-02T08:25:20.558Z</time></trkpt><trkpt lat="42.4144652" lon="-8.587869"><ele>286.1428571428571</ele><time>2026-05-02T08:25:21.56Z</time></trkpt><trkpt lat="42.4143955" lon="-8.5879169"><ele>287.2857142857143</ele><time>2026-05-02T08:25:22.565Z</time></trkpt><trkpt lat="42.4143244" lon="-8.5879598"><ele>288.42857142857144</ele><time>2026-05-02T08:25:23.56Z</time></trkpt><trkpt lat="42.4142602" lon="-8.588011"><ele>289.57142857142856</ele><time>2026-05-02T08:25:24.568Z</time></trkpt><trkpt lat="42.4142019" lon="-8.588067"><ele>290.7142857142857</ele><time>2026-05-02T08:25:25.571Z</time></trkpt><trkpt lat="42.4141396" lon="-8.5881177"><ele>291.85714285714283</ele><time>2026-05-02T08:25:26.556Z</time></trkpt><trkpt lat="42.4140754" lon="-8.5881692"><ele>293.0</ele><time>2026-05-02T08:25:27.559Z</time></trkpt><trkpt lat="42.414011" lon="-8.5882308"><ele>293.0</ele><time>2026-05-02T08:25:28.576Z</time></trkpt><trkpt lat="42.4139471" lon="-8.5882872"><ele>293.0</ele><time>2026-05-02T08:25:29.559Z</time></trkpt><trkpt lat="42.4138843" lon="-8.588348"><ele>293.0</ele><time>2026-05-02T08:25:30.556Z</time></trkpt><trkpt lat="42.4138109" lon="-8.588386"><ele>293.0</ele><time>2026-05-02T08:25:31.559Z</time></trkpt><trkpt lat="42.4137279" lon="-8.5884136"><ele>293.0</ele><time>2026-05-02T08:25:32.564Z</time></trkpt><trkpt lat="42.4136441" lon="-8.5884427"><ele>293.0</ele><time>2026-05-02T08:25:33.563Z</time></trkpt><trkpt lat="42.4135616" lon="-8.5884691"><ele>293.83333333333337</ele><time>2026-05-02T08:25:34.564Z</time></trkpt><trkpt lat="42.4134794" lon="-8.5884887"><ele>294.6666666666667</ele><time>2026-05-02T08:25:35.561Z</time></trkpt><trkpt lat="42.4134031" lon="-8.5885175"><ele>295.5</ele><time>2026-05-02T08:25:36.566Z</time></trkpt><trkpt lat="42.4133276" lon="-8.5885567"><ele>296.3333333333333</ele><time>2026-05-02T08:25:37.561Z</time></trkpt><trkpt lat="42.4132573" lon="-8.5885997"><ele>297.16666666666663</ele><time>2026-05-02T08:25:38.562Z</time></trkpt><trkpt lat="42.4131915" lon="-8.5886357"><ele>298.0</ele><time>2026-05-02T08:25:39.564Z</time></trkpt><trkpt lat="42.4131214" lon="-8.5886739"><ele>298.8333333333333</ele><time>2026-05-02T08:25:40.56Z</time></trkpt><trkpt lat="42.4130517" lon="-8.5887149"><ele>299.66666666666663</ele><time>2026-05-02T08:25:41.561Z</time></trkpt><trkpt lat="42.4129825" lon="-8.5887632"><ele>300.5</ele><time>2026-05-02T08:25:42.566Z</time></trkpt><trkpt lat="42.4129226" lon="-8.5888139"><ele>301.3333333333333</ele><time>2026-05-02T08:25:43.559Z</time></trkpt><trkpt lat="42.4128624" lon="-8.5888678"><ele>302.1666666666667</ele><time>2026-05-02T08:25:44.558Z</time></trkpt><trkpt lat="42.4127932" lon="-8.5889205"><ele>303.0</ele><time>2026-05-02T08:25:45.557Z</time></trkpt><trkpt lat="42.4127246" lon="-8.5889775"><ele>304.6666666666667</ele><time>2026-05-02T08:25:46.56Z</time></trkpt><trkpt lat="42.4126578" lon="-8.5890378"><ele>306.3333333333333</ele><time>2026-05-02T08:25:47.565Z</time></trkpt><trkpt lat="42.4125888" lon="-8.5890946"><ele>308.0</ele><time>2026-05-02T08:25:48.559Z</time></trkpt><trkpt lat="42.4125168" lon="-8.5891501"><ele>309.66666666666663</ele><time>2026-05-02T08:25:49.561Z</time></trkpt><trkpt lat="42.4124475" lon="-8.5892079"><ele>311.3333333333333</ele><time>2026-05-02T08:25:50.558Z</time></trkpt><trkpt lat="42.4123838" lon="-8.5892687"><ele>313.0</ele><time>2026-05-02T08:25:51.56Z</time></trkpt><trkpt lat="42.4123162" lon="-8.5893222"><ele>313.0</ele><time>2026-05-02T08:25:52.564Z</time></trkpt><trkpt lat="42.4122509" lon="-8.589368"><ele>313.0</ele><time>2026-05-02T08:25:53.575Z</time></trkpt><trkpt lat="42.4121863" lon="-8.5894012"><ele>313.0</ele><time>2026-05-02T08:25:54.564Z</time></trkpt><trkpt lat="42.4121254" lon="-8.5894315"><ele>313.0</ele><time>2026-05-02T08:25:55.559Z</time></trkpt><trkpt lat="42.4120633" lon="-8.5894493"><ele>313.0</ele><time>2026-05-02T08:25:56.556Z</time></trkpt><trkpt lat="42.4119935" lon="-8.5894537"><ele>313.0</ele><time>2026-05-02T08:25:57.557Z</time></trkpt><trkpt lat="42.4119243" lon="-8.589458"><ele>313.0</ele><time>2026-05-02T08:25:58.557Z</time></trkpt><trkpt lat="42.4118607" lon="-8.5894566"><ele>314.16666666666663</ele><time>2026-05-02T08:25:59.561Z</time></trkpt><trkpt lat="42.4117478" lon="-8.5894509"><ele>315.3333333333333</ele><time>2026-05-02T08:26:01.559Z</time></trkpt><trkpt lat="42.4116456" lon="-8.5894642"><ele>316.5</ele><time>2026-05-02T08:26:03.553Z</time></trkpt><trkpt lat="42.4115599" lon="-8.5894807"><ele>317.6666666666667</ele><time>2026-05-02T08:26:05.559Z</time></trkpt><trkpt lat="42.411487" lon="-8.5894879"><ele>318.83333333333337</ele><time>2026-05-02T08:26:07.561Z</time></trkpt><trkpt lat="42.4114229" lon="-8.5895003"><ele>320.0</ele><time>2026-05-02T08:26:09.563Z</time></trkpt><trkpt lat="42.4113268" lon="-8.5895202"><ele>320.0</ele><time>2026-05-02T08:26:12.561Z</time></trkpt><trkpt lat="42.4112543" lon="-8.5895433"><ele>320.0</ele><time>2026-05-02T08:26:14.566Z</time></trkpt><trkpt lat="42.4111877" lon="-8.5895598"><ele>320.0</ele><time>2026-05-02T08:26:16.558Z</time></trkpt><trkpt lat="42.4111244" lon="-8.5895968"><ele>320.0</ele><time>2026-05-02T08:26:19.559Z</time></trkpt><trkpt lat="42.41106" lon="-8.5896131"><ele>320.0</ele><time>2026-05-02T08:26:22.572Z</time></trkpt><trkpt lat="42.4109777" lon="-8.5896031"><ele>320.0</ele><time>2026-05-02T08:26:25.553Z</time></trkpt><trkpt lat="42.4109285" lon="-8.5896633"><ele>320.0</ele><time>2026-05-02T08:26:29.565Z</time></trkpt><trkpt lat="42.410859" lon="-8.5896611"><ele>320.0</ele><time>2026-05-02T08:26:36.568Z</time></trkpt><trkpt lat="42.410776" lon="-8.5896618"><ele>320.0</ele><time>2026-05-02T08:26:38.559Z</time></trkpt><trkpt lat="42.4106692" lon="-8.5896657"><ele>320.0</ele><time>2026-05-02T08:26:40.556Z</time></trkpt><trkpt lat="42.4106077" lon="-8.5896028"><ele>320.0</ele><time>2026-05-02T08:26:44.565Z</time></trkpt><trkpt lat="42.410572" lon="-8.5895112"><ele>320.0</ele><time>2026-05-02T08:26:46.556Z</time></trkpt><trkpt lat="42.410542" lon="-8.5893533"><ele>320.57142857142856</ele><time>2026-05-02T08:26:48.558Z</time></trkpt><trkpt lat="42.4105213" lon="-8.5892678"><ele>321.14285714285717</ele><time>2026-05-02T08:26:49.56Z</time></trkpt><trkpt lat="42.4104625" lon="-8.5892351"><ele>321.7142857142857</ele><time>2026-05-02T08:26:54.555Z</time></trkpt><trkpt lat="42.410398" lon="-8.5892354"><ele>322.2857142857143</ele><time>2026-05-02T08:26:57.561Z</time></trkpt><trkpt lat="42.410387" lon="-8.5893534"><ele>322.85714285714283</ele><time>2026-05-02T08:27:00.564Z</time></trkpt><trkpt lat="42.4104081" lon="-8.5894711"><ele>323.42857142857144</ele><time>2026-05-02T08:27:03.561Z</time></trkpt><trkpt lat="42.410415" lon="-8.5895628"><ele>324.0</ele><time>2026-05-02T08:27:05.569Z</time></trkpt><trkpt lat="42.4104107" lon="-8.5896509"><ele>324.1666666666667</ele><time>2026-05-02T08:27:07.558Z</time></trkpt><trkpt lat="42.4104005" lon="-8.5897858"><ele>324.3333333333333</ele><time>2026-05-02T08:27:09.557Z</time></trkpt><trkpt lat="42.4104005" lon="-8.5899486"><ele>324.5</ele><time>2026-05-02T08:27:11.565Z</time></trkpt><trkpt lat="42.4104054" lon="-8.5900421"><ele>324.66666666666663</ele><time>2026-05-02T08:27:12.561Z</time></trkpt><trkpt lat="42.4104083" lon="-8.5901443"><ele>324.8333333333333</ele><time>2026-05-02T08:27:13.568Z</time></trkpt><trkpt lat="42.4104081" lon="-8.5902496"><ele>325.0</ele><time>2026-05-02T08:27:14.565Z</time></trkpt><trkpt lat="42.4104094" lon="-8.5903587"><ele>324.3333333333333</ele><time>2026-05-02T08:27:15.558Z</time></trkpt><trkpt lat="42.4104072" lon="-8.5904694"><ele>323.66666666666663</ele><time>2026-05-02T08:27:16.553Z</time></trkpt><trkpt lat="42.4103996" lon="-8.5905753"><ele>323.0</ele><time>2026-05-02T08:27:17.56Z</time></trkpt><trkpt lat="42.4103922" lon="-8.5906722"><ele>322.3333333333333</ele><time>2026-05-02T08:27:18.555Z</time></trkpt><trkpt lat="42.4103783" lon="-8.5907677"><ele>321.6666666666667</ele><time>2026-05-02T08:27:19.557Z</time></trkpt><trkpt lat="42.4103522" lon="-8.5908583"><ele>321.0</ele><time>2026-05-02T08:27:20.571Z</time></trkpt><trkpt lat="42.4102735" lon="-8.5909381"><ele>321.0</ele><time>2026-05-02T08:27:22.556Z</time></trkpt><trkpt lat="42.4101895" lon="-8.590874"><ele>321.0</ele><time>2026-05-02T08:27:24.56Z</time></trkpt><trkpt lat="42.4101303" lon="-8.5907689"><ele>321.0</ele><time>2026-05-02T08:27:26.558Z</time></trkpt><trkpt lat="42.4101001" lon="-8.5906592"><ele>321.0</ele><time>2026-05-02T08:27:28.558Z</time></trkpt><trkpt lat="42.4100954" lon="-8.59053"><ele>321.0</ele><time>2026-05-02T08:27:30.563Z</time></trkpt><trkpt lat="42.4100924" lon="-8.5903908"><ele>321.8</ele><time>2026-05-02T08:27:32.567Z</time></trkpt><trkpt lat="42.4100868" lon="-8.5902238"><ele>322.6</ele><time>2026-05-02T08:27:34.558Z</time></trkpt><trkpt lat="42.4100893" lon="-8.5900576"><ele>323.4</ele><time>2026-05-02T08:27:36.562Z</time></trkpt><trkpt lat="42.4100839" lon="-8.5899083"><ele>324.2</ele><time>2026-05-02T08:27:38.565Z</time></trkpt><trkpt lat="42.4100654" lon="-8.5897875"><ele>325.0</ele><time>2026-05-02T08:27:40.559Z</time></trkpt><trkpt lat="42.4100043" lon="-8.5896873"><ele>325.0</ele><time>2026-05-02T08:27:42.552Z</time></trkpt><trkpt lat="42.4099281" lon="-8.5895957"><ele>325.0</ele><time>2026-05-02T08:27:44.558Z</time></trkpt><trkpt lat="42.4098183" lon="-8.5895287"><ele>325.0</ele><time>2026-05-02T08:27:46.563Z</time></trkpt><trkpt lat="42.4097453" lon="-8.5894858"><ele>325.0</ele><time>2026-05-02T08:27:47.564Z</time></trkpt><trkpt lat="42.4096667" lon="-8.5894476"><ele>325.0</ele><time>2026-05-02T08:27:48.56Z</time></trkpt><trkpt lat="42.4095937" lon="-8.5894108"><ele>325.66666666666663</ele><time>2026-05-02T08:27:49.561Z</time></trkpt><trkpt lat="42.4095189" lon="-8.5893776"><ele>326.3333333333333</ele><time>2026-05-02T08:27:50.558Z</time></trkpt><trkpt lat="42.4094391" lon="-8.5893521"><ele>327.0</ele><time>2026-05-02T08:27:51.56Z</time></trkpt><trkpt lat="42.4093652" lon="-8.5893358"><ele>327.6666666666667</ele><time>2026-05-02T08:27:52.564Z</time></trkpt><trkpt lat="42.4092969" lon="-8.5893225"><ele>328.33333333333337</ele><time>2026-05-02T08:27:53.558Z</time></trkpt><trkpt lat="42.4091758" lon="-8.5892905"><ele>329.0</ele><time>2026-05-02T08:27:55.56Z</time></trkpt><trkpt lat="42.4090594" lon="-8.5892653"><ele>329.0</ele><time>2026-05-02T08:27:57.568Z</time></trkpt><trkpt lat="42.408953" lon="-8.5892349"><ele>329.0</ele><time>2026-05-02T08:27:59.556Z</time></trkpt><trkpt lat="42.4088491" lon="-8.5891945"><ele>329.0</ele><time>2026-05-02T08:28:01.566Z</time></trkpt><trkpt lat="42.4087509" lon="-8.5891682"><ele>329.0</ele><time>2026-05-02T08:28:03.558Z</time></trkpt><trkpt lat="42.4086631" lon="-8.5891763"><ele>329.0</ele><time>2026-05-02T08:28:05.562Z</time></trkpt><trkpt lat="42.4085774" lon="-8.589198"><ele>329.0</ele><time>2026-05-02T08:28:07.561Z</time></trkpt><trkpt lat="42.4085046" lon="-8.5892022"><ele>329.0</ele><time>2026-05-02T08:28:09.561Z</time></trkpt><trkpt lat="42.4084385" lon="-8.5892264"><ele>329.0</ele><time>2026-05-02T08:28:12.561Z</time></trkpt><trkpt lat="42.4083664" lon="-8.5892395"><ele>329.0</ele><time>2026-05-02T08:28:15.559Z</time></trkpt><trkpt lat="42.4082745" lon="-8.5892534"><ele>329.0</ele><time>2026-05-02T08:28:20.559Z</time></trkpt><trkpt lat="42.4082033" lon="-8.5892595"><ele>329.0</ele><time>2026-05-02T08:28:22.556Z</time></trkpt><trkpt lat="42.4081212" lon="-8.5892402"><ele>329.0</ele><time>2026-05-02T08:28:24.558Z</time></trkpt><trkpt lat="42.4080574" lon="-8.589185"><ele>329.0</ele><time>2026-05-02T08:28:26.568Z</time></trkpt><trkpt lat="42.4079739" lon="-8.5891689"><ele>329.0</ele><time>2026-05-02T08:28:28.564Z</time></trkpt><trkpt lat="42.4078764" lon="-8.5891561"><ele>329.0</ele><time>2026-05-02T08:28:30.56Z</time></trkpt><trkpt lat="42.4077914" lon="-8.5891383"><ele>329.0</ele><time>2026-05-02T08:28:32.562Z</time></trkpt><trkpt lat="42.4077173" lon="-8.5891336"><ele>329.0</ele><time>2026-05-02T08:28:34.556Z</time></trkpt><trkpt lat="42.4076408" lon="-8.5891154"><ele>328.79999999999995</ele><time>2026-05-02T08:28:36.561Z</time></trkpt><trkpt lat="42.4075497" lon="-8.5890968"><ele>328.59999999999997</ele><time>2026-05-02T08:28:39.567Z</time></trkpt><trkpt lat="42.4074802" lon="-8.5890659"><ele>328.4</ele><time>2026-05-02T08:28:41.56Z</time></trkpt><trkpt lat="42.4073907" lon="-8.5890081"><ele>328.2</ele><time>2026-05-02T08:28:43.56Z</time></trkpt><trkpt lat="42.4072968" lon="-8.5889199"><ele>328.0</ele><time>2026-05-02T08:28:45.563Z</time></trkpt><trkpt lat="42.4072086" lon="-8.5888359"><ele>328.16666666666663</ele><time>2026-05-02T08:28:47.558Z</time></trkpt><trkpt lat="42.4071273" lon="-8.5887632"><ele>328.3333333333333</ele><time>2026-05-02T08:28:49.553Z</time></trkpt><trkpt lat="42.4070502" lon="-8.5887002"><ele>328.5</ele><time>2026-05-02T08:28:51.56Z</time></trkpt><trkpt lat="42.4069858" lon="-8.5886381"><ele>328.6666666666667</ele><time>2026-05-02T08:28:53.557Z</time></trkpt><trkpt lat="42.406931" lon="-8.5885888"><ele>328.83333333333337</ele><time>2026-05-02T08:28:55.559Z</time></trkpt><trkpt lat="42.4068461" lon="-8.5885164"><ele>329.0</ele><time>2026-05-02T08:28:58.562Z</time></trkpt><trkpt lat="42.4067306" lon="-8.5884807"><ele>329.2</ele><time>2026-05-02T08:29:00.571Z</time></trkpt><trkpt lat="42.4066487" lon="-8.5884661"><ele>329.4</ele><time>2026-05-02T08:29:01.554Z</time></trkpt><trkpt lat="42.4065656" lon="-8.588449"><ele>329.6</ele><time>2026-05-02T08:29:02.555Z</time></trkpt><trkpt lat="42.4064738" lon="-8.5884414"><ele>329.8</ele><time>2026-05-02T08:29:03.553Z</time></trkpt><trkpt lat="42.4063707" lon="-8.5884342"><ele>330.0</ele><time>2026-05-02T08:29:04.558Z</time></trkpt><trkpt lat="42.4062632" lon="-8.5884323"><ele>330.0</ele><time>2026-05-02T08:29:05.559Z</time></trkpt><trkpt lat="42.4061554" lon="-8.5884371"><ele>330.0</ele><time>2026-05-02T08:29:06.565Z</time></trkpt><trkpt lat="42.4060497" lon="-8.5884451"><ele>330.0</ele><time>2026-05-02T08:29:07.56Z</time></trkpt><trkpt lat="42.405946" lon="-8.5884598"><ele>330.0</ele><time>2026-05-02T08:29:08.559Z</time></trkpt><trkpt lat="42.4058444" lon="-8.588485"><ele>330.0</ele><time>2026-05-02T08:29:09.559Z</time></trkpt><trkpt lat="42.4057467" lon="-8.5885244"><ele>330.0</ele><time>2026-05-02T08:29:10.56Z</time></trkpt><trkpt lat="42.4056495" lon="-8.5885755"><ele>330.0</ele><time>2026-05-02T08:29:11.556Z</time></trkpt><trkpt lat="42.4055472" lon="-8.5886299"><ele>330.0</ele><time>2026-05-02T08:29:12.559Z</time></trkpt><trkpt lat="42.4054417" lon="-8.5886841"><ele>330.0</ele><time>2026-05-02T08:29:13.57Z</time></trkpt><trkpt lat="42.4053398" lon="-8.5887344"><ele>330.0</ele><time>2026-05-02T08:29:14.563Z</time></trkpt><trkpt lat="42.4052428" lon="-8.5887787"><ele>328.4</ele><time>2026-05-02T08:29:15.559Z</time></trkpt><trkpt lat="42.4051508" lon="-8.5888174"><ele>326.8</ele><time>2026-05-02T08:29:16.555Z</time></trkpt><trkpt lat="42.4050632" lon="-8.5888565"><ele>325.20000000000005</ele><time>2026-05-02T08:29:17.558Z</time></trkpt><trkpt lat="42.4049752" lon="-8.5888998"><ele>323.6</ele><time>2026-05-02T08:29:18.562Z</time></trkpt><trkpt lat="42.4048844" lon="-8.5889353"><ele>322.0</ele><time>2026-05-02T08:29:19.562Z</time></trkpt><trkpt lat="42.4047892" lon="-8.5889654"><ele>322.0</ele><time>2026-05-02T08:29:20.557Z</time></trkpt><trkpt lat="42.404691" lon="-8.5890036"><ele>322.0</ele><time>2026-05-02T08:29:21.561Z</time></trkpt><trkpt lat="42.4045889" lon="-8.5890315"><ele>322.0</ele><time>2026-05-02T08:29:22.569Z</time></trkpt><trkpt lat="42.4044847" lon="-8.5890532"><ele>322.0</ele><time>2026-05-02T08:29:23.559Z</time></trkpt><trkpt lat="42.4043819" lon="-8.5890735"><ele>322.0</ele><time>2026-05-02T08:29:24.561Z</time></trkpt><trkpt lat="42.4042963" lon="-8.5890981"><ele>321.8</ele><time>2026-05-02T08:29:25.554Z</time></trkpt><trkpt lat="42.4042064" lon="-8.5891154"><ele>321.6</ele><time>2026-05-02T08:29:27.569Z</time></trkpt><trkpt lat="42.4041205" lon="-8.5891083"><ele>321.40000000000003</ele><time>2026-05-02T08:29:33.564Z</time></trkpt><trkpt lat="42.4040572" lon="-8.5891126"><ele>321.20000000000005</ele><time>2026-05-02T08:29:35.559Z</time></trkpt><trkpt lat="42.4039516" lon="-8.5891379"><ele>321.0</ele><time>2026-05-02T08:29:37.565Z</time></trkpt><trkpt lat="42.4038197" lon="-8.5891685"><ele>320.6666666666667</ele><time>2026-05-02T08:29:39.564Z</time></trkpt><trkpt lat="42.4037448" lon="-8.5892009"><ele>320.3333333333333</ele><time>2026-05-02T08:29:40.555Z</time></trkpt><trkpt lat="42.4036656" lon="-8.5892258"><ele>320.0</ele><time>2026-05-02T08:29:41.559Z</time></trkpt><trkpt lat="42.4035938" lon="-8.5892563"><ele>319.66666666666663</ele><time>2026-05-02T08:29:42.564Z</time></trkpt><trkpt lat="42.4035237" lon="-8.5892909"><ele>319.3333333333333</ele><time>2026-05-02T08:29:43.557Z</time></trkpt><trkpt lat="42.4034475" lon="-8.5893331"><ele>319.0</ele><time>2026-05-02T08:29:44.56Z</time></trkpt><trkpt lat="42.403367" lon="-8.5893732"><ele>319.0</ele><time>2026-05-02T08:29:45.559Z</time></trkpt><trkpt lat="42.403287" lon="-8.5894081"><ele>319.0</ele><time>2026-05-02T08:29:46.563Z</time></trkpt><trkpt lat="42.4032053" lon="-8.5894396"><ele>319.0</ele><time>2026-05-02T08:29:47.561Z</time></trkpt><trkpt lat="42.4031274" lon="-8.5894701"><ele>319.0</ele><time>2026-05-02T08:29:48.562Z</time></trkpt><trkpt lat="42.4030527" lon="-8.589499"><ele>319.0</ele><time>2026-05-02T08:29:49.556Z</time></trkpt><trkpt lat="42.4029807" lon="-8.5895253"><ele>319.0</ele><time>2026-05-02T08:29:50.557Z</time></trkpt><trkpt lat="42.4029174" lon="-8.5895578"><ele>319.2857142857143</ele><time>2026-05-02T08:29:51.554Z</time></trkpt><trkpt lat="42.402851" lon="-8.5895952"><ele>319.57142857142856</ele><time>2026-05-02T08:29:52.558Z</time></trkpt><trkpt lat="42.4027862" lon="-8.5896384"><ele>319.85714285714283</ele><time>2026-05-02T08:29:53.565Z</time></trkpt><trkpt lat="42.4027261" lon="-8.5896647"><ele>320.1428571428571</ele><time>2026-05-02T08:29:54.556Z</time></trkpt><trkpt lat="42.4026626" lon="-8.5896915"><ele>320.42857142857144</ele><time>2026-05-02T08:29:55.56Z</time></trkpt><trkpt lat="42.4025966" lon="-8.5897187"><ele>320.71428571428567</ele><time>2026-05-02T08:29:56.562Z</time></trkpt><trkpt lat="42.4025273" lon="-8.5897438"><ele>321.0</ele><time>2026-05-02T08:29:57.561Z</time></trkpt><trkpt lat="42.402454" lon="-8.5897688"><ele>321.0</ele><time>2026-05-02T08:29:58.557Z</time></trkpt><trkpt lat="42.4023842" lon="-8.5897941"><ele>321.0</ele><time>2026-05-02T08:29:59.561Z</time></trkpt><trkpt lat="42.4023211" lon="-8.5898244"><ele>321.0</ele><time>2026-05-02T08:30:00.557Z</time></trkpt><trkpt lat="42.4022123" lon="-8.5898965"><ele>321.0</ele><time>2026-05-02T08:30:02.555Z</time></trkpt><trkpt lat="42.4021171" lon="-8.5899821"><ele>321.0</ele><time>2026-05-02T08:30:04.562Z</time></trkpt><trkpt lat="42.4020377" lon="-8.590028"><ele>323.5</ele><time>2026-05-02T08:30:06.56Z</time></trkpt><trkpt lat="42.401963" lon="-8.590062"><ele>326.0</ele><time>2026-05-02T08:30:08.561Z</time></trkpt><trkpt lat="42.4018813" lon="-8.5901226"><ele>328.5</ele><time>2026-05-02T08:30:10.564Z</time></trkpt><trkpt lat="42.4018132" lon="-8.5902169"><ele>331.0</ele><time>2026-05-02T08:30:12.57Z</time></trkpt><trkpt lat="42.4017654" lon="-8.5902787"><ele>333.5</ele><time>2026-05-02T08:30:13.553Z</time></trkpt><trkpt lat="42.4017163" lon="-8.5903482"><ele>336.0</ele><time>2026-05-02T08:30:14.554Z</time></trkpt><trkpt lat="42.4016721" lon="-8.5904192"><ele>336.5</ele><time>2026-05-02T08:30:15.559Z</time></trkpt><trkpt lat="42.4016385" lon="-8.5904987"><ele>337.0</ele><time>2026-05-02T08:30:16.557Z</time></trkpt><trkpt lat="42.4016016" lon="-8.590586"><ele>337.5</ele><time>2026-05-02T08:30:17.562Z</time></trkpt><trkpt lat="42.4015583" lon="-8.5906673"><ele>338.0</ele><time>2026-05-02T08:30:18.56Z</time></trkpt><trkpt lat="42.4015115" lon="-8.5907454"><ele>338.5</ele><time>2026-05-02T08:30:19.559Z</time></trkpt><trkpt lat="42.4014567" lon="-8.5908207"><ele>339.0</ele><time>2026-05-02T08:30:20.559Z</time></trkpt><trkpt lat="42.4013924" lon="-8.5909004"><ele>343.1666666666667</ele><time>2026-05-02T08:30:21.561Z</time></trkpt><trkpt lat="42.4013263" lon="-8.5909824"><ele>347.3333333333333</ele><time>2026-05-02T08:30:22.557Z</time></trkpt><trkpt lat="42.4012654" lon="-8.5910633"><ele>351.5</ele><time>2026-05-02T08:30:23.563Z</time></trkpt><trkpt lat="42.4012212" lon="-8.5911355"><ele>355.66666666666663</ele><time>2026-05-02T08:30:24.567Z</time></trkpt><trkpt lat="42.4011863" lon="-8.5912143"><ele>359.8333333333333</ele><time>2026-05-02T08:30:25.557Z</time></trkpt><trkpt lat="42.4011669" lon="-8.591297"><ele>364.0</ele><time>2026-05-02T08:30:26.556Z</time></trkpt><trkpt lat="42.4011713" lon="-8.5914137"><ele>364.0</ele><time>2026-05-02T08:30:28.559Z</time></trkpt><trkpt lat="42.4012126" lon="-8.5915072"><ele>364.0</ele><time>2026-05-02T08:30:30.567Z</time></trkpt><trkpt lat="42.4012184" lon="-8.59162"><ele>364.0</ele><time>2026-05-02T08:30:33.559Z</time></trkpt><trkpt lat="42.4011737" lon="-8.5916851"><ele>364.0</ele><time>2026-05-02T08:30:36.566Z</time></trkpt><trkpt lat="42.4010867" lon="-8.5916962"><ele>364.0</ele><time>2026-05-02T08:30:39.566Z</time></trkpt><trkpt lat="42.4009919" lon="-8.5917135"><ele>364.0</ele><time>2026-05-02T08:30:41.559Z</time></trkpt><trkpt lat="42.4009385" lon="-8.5917666"><ele>364.0</ele><time>2026-05-02T08:30:43.561Z</time></trkpt><trkpt lat="42.4008507" lon="-8.5917919"><ele>364.0</ele><time>2026-05-02T08:30:46.558Z</time></trkpt><trkpt lat="42.4008376" lon="-8.591909"><ele>364.0</ele><time>2026-05-02T08:30:51.557Z</time></trkpt><trkpt lat="42.4008831" lon="-8.59203"><ele>364.0</ele><time>2026-05-02T08:30:53.557Z</time></trkpt><trkpt lat="42.4009307" lon="-8.5921651"><ele>364.0</ele><time>2026-05-02T08:30:55.56Z</time></trkpt><trkpt lat="42.400959" lon="-8.5922413"><ele>364.5</ele><time>2026-05-02T08:30:56.555Z</time></trkpt><trkpt lat="42.4009882" lon="-8.5923426"><ele>365.0</ele><time>2026-05-02T08:30:57.572Z</time></trkpt><trkpt lat="42.4010204" lon="-8.5924624"><ele>365.5</ele><time>2026-05-02T08:30:58.56Z</time></trkpt><trkpt lat="42.4010511" lon="-8.5925864"><ele>366.0</ele><time>2026-05-02T08:30:59.557Z</time></trkpt><trkpt lat="42.401078" lon="-8.5927027"><ele>366.5</ele><time>2026-05-02T08:31:00.565Z</time></trkpt><trkpt lat="42.4010965" lon="-8.5928017"><ele>367.0</ele><time>2026-05-02T08:31:01.56Z</time></trkpt><trkpt lat="42.4011111" lon="-8.5929556"><ele>367.16666666666663</ele><time>2026-05-02T08:31:03.558Z</time></trkpt><trkpt lat="42.4011037" lon="-8.5930795"><ele>367.3333333333333</ele><time>2026-05-02T08:31:05.569Z</time></trkpt><trkpt lat="42.4011017" lon="-8.5932192"><ele>367.5</ele><time>2026-05-02T08:31:07.56Z</time></trkpt><trkpt lat="42.4011247" lon="-8.5933543"><ele>367.6666666666667</ele><time>2026-05-02T08:31:09.56Z</time></trkpt><trkpt lat="42.4011391" lon="-8.5934414"><ele>367.83333333333337</ele><time>2026-05-02T08:31:11.562Z</time></trkpt><trkpt lat="42.4011173" lon="-8.5935251"><ele>368.0</ele><time>2026-05-02T08:31:38.567Z</time></trkpt><trkpt lat="42.4011699" lon="-8.5935988"><ele>368.0</ele><time>2026-05-02T08:31:43.559Z</time></trkpt><trkpt lat="42.4012209" lon="-8.5936541"><ele>368.0</ele><time>2026-05-02T08:31:45.553Z</time></trkpt><trkpt lat="42.4012706" lon="-8.5937423"><ele>368.0</ele><time>2026-05-02T08:31:48.563Z</time></trkpt><trkpt lat="42.4013283" lon="-8.5937926"><ele>368.0</ele><time>2026-05-02T08:31:51.554Z</time></trkpt><trkpt lat="42.4013648" lon="-8.5938723"><ele>368.0</ele><time>2026-05-02T08:31:54.559Z</time></trkpt><trkpt lat="42.401406" lon="-8.5939545"><ele>368.0</ele><time>2026-05-02T08:31:57.56Z</time></trkpt><trkpt lat="42.4014515" lon="-8.5940193"><ele>368.0</ele><time>2026-05-02T08:31:59.559Z</time></trkpt><trkpt lat="42.4015109" lon="-8.5940707"><ele>366.6666666666667</ele><time>2026-05-02T08:32:01.556Z</time></trkpt><trkpt lat="42.4015681" lon="-8.5941419"><ele>365.33333333333337</ele><time>2026-05-02T08:32:03.559Z</time></trkpt><trkpt lat="42.4016191" lon="-8.594218"><ele>364.0</ele><time>2026-05-02T08:32:05.555Z</time></trkpt><trkpt lat="42.4016694" lon="-8.5942876"><ele>362.6666666666667</ele><time>2026-05-02T08:32:07.56Z</time></trkpt><trkpt lat="42.401717" lon="-8.5943554"><ele>361.3333333333333</ele><time>2026-05-02T08:32:09.568Z</time></trkpt><trkpt lat="42.4017584" lon="-8.5944472"><ele>360.0</ele><time>2026-05-02T08:32:12.567Z</time></trkpt><trkpt lat="42.4018127" lon="-8.5945258"><ele>363.8333333333333</ele><time>2026-05-02T08:32:16.556Z</time></trkpt><trkpt lat="42.4018521" lon="-8.5946387"><ele>367.6666666666667</ele><time>2026-05-02T08:32:19.557Z</time></trkpt><trkpt lat="42.401879" lon="-8.5947584"><ele>371.5</ele><time>2026-05-02T08:32:22.555Z</time></trkpt><trkpt lat="42.4019012" lon="-8.5948491"><ele>375.33333333333337</ele><time>2026-05-02T08:32:32.564Z</time></trkpt><trkpt lat="42.4019061" lon="-8.5949379"><ele>379.1666666666667</ele><time>2026-05-02T08:32:35.554Z</time></trkpt><trkpt lat="42.4019106" lon="-8.595037"><ele>383.0</ele><time>2026-05-02T08:32:49.558Z</time></trkpt><trkpt lat="42.4019325" lon="-8.5951358"><ele>383.0</ele><time>2026-05-02T08:32:54.563Z</time></trkpt><trkpt lat="42.4019824" lon="-8.5951956"><ele>383.0</ele><time>2026-05-02T08:32:58.551Z</time></trkpt><trkpt lat="42.4019655" lon="-8.5952868"><ele>383.0</ele><time>2026-05-02T08:33:15.559Z</time></trkpt><trkpt lat="42.4019015" lon="-8.5953062"><ele>383.0</ele><time>2026-05-02T08:33:18.558Z</time></trkpt><trkpt lat="42.401841" lon="-8.5952624"><ele>383.0</ele><time>2026-05-02T08:33:22.554Z</time></trkpt><trkpt lat="42.4017782" lon="-8.5952071"><ele>383.0</ele><time>2026-05-02T08:33:30.562Z</time></trkpt><trkpt lat="42.4017097" lon="-8.5951355"><ele>383.0</ele><time>2026-05-02T08:33:41.556Z</time></trkpt><trkpt lat="42.4016515" lon="-8.5950742"><ele>383.0</ele><time>2026-05-02T08:33:45.57Z</time></trkpt><trkpt lat="42.401596" lon="-8.5949866"><ele>383.0</ele><time>2026-05-02T08:33:49.558Z</time></trkpt><trkpt lat="42.4015521" lon="-8.5949183"><ele>383.0</ele><time>2026-05-02T08:33:52.557Z</time></trkpt><trkpt lat="42.4014997" lon="-8.594844"><ele>383.0</ele><time>2026-05-02T08:33:57.554Z</time></trkpt><trkpt lat="42.4014506" lon="-8.594789"><ele>383.0</ele><time>2026-05-02T08:34:01.563Z</time></trkpt><trkpt lat="42.4013665" lon="-8.5947534"><ele>383.0</ele><time>2026-05-02T08:34:05.564Z</time></trkpt><trkpt lat="42.4012803" lon="-8.5947297"><ele>383.7142857142857</ele><time>2026-05-02T08:34:55.561Z</time></trkpt><trkpt lat="42.4012479" lon="-8.5946514"><ele>384.42857142857144</ele><time>2026-05-02T08:36:25.563Z</time></trkpt><trkpt lat="42.4012478" lon="-8.5945504"><ele>385.1428571428571</ele><time>2026-05-02T08:36:33.563Z</time></trkpt><trkpt lat="42.4012425" lon="-8.5944619"><ele>385.8571428571429</ele><time>2026-05-02T08:36:45.558Z</time></trkpt><trkpt lat="42.4012325" lon="-8.5943558"><ele>386.5714285714286</ele><time>2026-05-02T08:37:10.558Z</time></trkpt><trkpt lat="42.4012076" lon="-8.5942452"><ele>387.2857142857143</ele><time>2026-05-02T08:37:14.563Z</time></trkpt><trkpt lat="42.401147" lon="-8.5941888"><ele>388.0</ele><time>2026-05-02T08:37:18.563Z</time></trkpt><trkpt lat="42.4011201" lon="-8.5941115"><ele>388.00000000000006</ele><time>2026-05-02T08:37:25.563Z</time></trkpt><trkpt lat="42.4011066" lon="-8.5940172"><ele>388.0</ele><time>2026-05-02T08:37:31.559Z</time></trkpt><trkpt lat="42.401043" lon="-8.5939628"><ele>388.0</ele><time>2026-05-02T08:37:36.566Z</time></trkpt><trkpt lat="42.4009844" lon="-8.5939236"><ele>388.0</ele><time>2026-05-02T08:37:41.554Z</time></trkpt><trkpt lat="42.4008961" lon="-8.5938362"><ele>388.00000000000006</ele><time>2026-05-02T08:37:59.564Z</time></trkpt><trkpt lat="42.4008484" lon="-8.5937755"><ele>388.0</ele><time>2026-05-02T08:38:03.563Z</time></trkpt><trkpt lat="42.4008186" lon="-8.593698"><ele>388.0</ele><time>2026-05-02T08:38:15.558Z</time></trkpt><trkpt lat="42.4007715" lon="-8.5937622"><ele>388.0</ele><time>2026-05-02T08:38:19.563Z</time></trkpt><trkpt lat="42.4007113" lon="-8.5938108"><ele>388.0</ele><time>2026-05-02T08:38:22.556Z</time></trkpt><trkpt lat="42.4006525" lon="-8.5938431"><ele>388.0</ele><time>2026-05-02T08:38:24.556Z</time></trkpt><trkpt lat="42.4005888" lon="-8.5939288"><ele>388.0</ele><time>2026-05-02T08:38:27.556Z</time></trkpt><trkpt lat="42.4005542" lon="-8.5940079"><ele>388.0</ele><time>2026-05-02T08:38:29.562Z</time></trkpt><trkpt lat="42.4005003" lon="-8.5940803"><ele>388.0</ele><time>2026-05-02T08:38:32.559Z</time></trkpt><trkpt lat="42.400435" lon="-8.5941441"><ele>388.00000000000006</ele><time>2026-05-02T08:38:50.564Z</time></trkpt><trkpt lat="42.4004472" lon="-8.5942348"><ele>388.0</ele><time>2026-05-02T08:38:55.558Z</time></trkpt><trkpt lat="42.4004892" lon="-8.5943334"><ele>388.0</ele><time>2026-05-02T08:38:58.555Z</time></trkpt><trkpt lat="42.400517" lon="-8.5944263"><ele>388.0</ele><time>2026-05-02T08:39:14.557Z</time></trkpt><trkpt lat="42.4004661" lon="-8.5944827"><ele>388.00000000000006</ele><time>2026-05-02T08:39:19.56Z</time></trkpt><trkpt lat="42.4003821" lon="-8.5945056"><ele>388.0</ele><time>2026-05-02T08:39:23.558Z</time></trkpt><trkpt lat="42.4003105" lon="-8.5945596"><ele>391.1666666666667</ele><time>2026-05-02T08:39:26.554Z</time></trkpt><trkpt lat="42.4002402" lon="-8.5945922"><ele>394.33333333333337</ele><time>2026-05-02T08:39:30.554Z</time></trkpt><trkpt lat="42.4001962" lon="-8.5946678"><ele>397.5</ele><time>2026-05-02T08:39:33.554Z</time></trkpt><trkpt lat="42.4001308" lon="-8.5947"><ele>400.66666666666663</ele><time>2026-05-02T08:39:38.553Z</time></trkpt><trkpt lat="42.4000654" lon="-8.5946672"><ele>403.8333333333333</ele><time>2026-05-02T08:39:42.555Z</time></trkpt><trkpt lat="42.4000367" lon="-8.5945296"><ele>407.0</ele><time>2026-05-02T08:50:42.562Z</time></trkpt><trkpt lat="42.4000133" lon="-8.5944384"><ele>407.0</ele><time>2026-05-02T08:50:43.549Z</time></trkpt><trkpt lat="42.4000098" lon="-8.5943096"><ele>407.0</ele><time>2026-05-02T08:50:44.551Z</time></trkpt><trkpt lat="42.4000252" lon="-8.5941863"><ele>407.0</ele><time>2026-05-02T08:50:45.553Z</time></trkpt><trkpt lat="42.4000376" lon="-8.5940559"><ele>407.0</ele><time>2026-05-02T08:50:46.551Z</time></trkpt><trkpt lat="42.4000357" lon="-8.593924"><ele>407.0</ele><time>2026-05-02T08:50:47.555Z</time></trkpt><trkpt lat="42.4000137" lon="-8.5938003"><ele>406.99999999999994</ele><time>2026-05-02T08:50:48.555Z</time></trkpt><trkpt lat="42.3999862" lon="-8.5936898"><ele>407.0</ele><time>2026-05-02T08:50:49.555Z</time></trkpt><trkpt lat="42.3999535" lon="-8.5936043"><ele>407.0</ele><time>2026-05-02T08:50:50.552Z</time></trkpt><trkpt lat="42.3999114" lon="-8.5935363"><ele>407.0</ele><time>2026-05-02T08:50:51.554Z</time></trkpt><trkpt lat="42.399811" lon="-8.5934628"><ele>406.99999999999994</ele><time>2026-05-02T08:50:53.55Z</time></trkpt><trkpt lat="42.3997176" lon="-8.5934053"><ele>407.0</ele><time>2026-05-02T08:50:55.553Z</time></trkpt><trkpt lat="42.3996322" lon="-8.5933251"><ele>408.20000000000005</ele><time>2026-05-02T08:50:57.556Z</time></trkpt><trkpt lat="42.399569" lon="-8.5932203"><ele>409.4</ele><time>2026-05-02T08:50:59.55Z</time></trkpt><trkpt lat="42.3995712" lon="-8.5930848"><ele>410.6</ele><time>2026-05-02T08:51:01.554Z</time></trkpt><trkpt lat="42.3996088" lon="-8.5929158"><ele>411.79999999999995</ele><time>2026-05-02T08:51:03.547Z</time></trkpt><trkpt lat="42.3996303" lon="-8.5928132"><ele>413.0</ele><time>2026-05-02T08:51:04.551Z</time></trkpt><trkpt lat="42.3996522" lon="-8.59271"><ele>409.3333333333333</ele><time>2026-05-02T08:51:05.557Z</time></trkpt><trkpt lat="42.3996743" lon="-8.5926"><ele>405.66666666666663</ele><time>2026-05-02T08:51:06.551Z</time></trkpt><trkpt lat="42.3996902" lon="-8.592495"><ele>402.0</ele><time>2026-05-02T08:51:07.558Z</time></trkpt><trkpt lat="42.399706" lon="-8.5923848"><ele>398.33333333333337</ele><time>2026-05-02T08:51:08.556Z</time></trkpt><trkpt lat="42.3997214" lon="-8.5922697"><ele>394.6666666666667</ele><time>2026-05-02T08:51:09.554Z</time></trkpt><trkpt lat="42.3997314" lon="-8.5921621"><ele>391.0</ele><time>2026-05-02T08:51:10.552Z</time></trkpt><trkpt lat="42.3997332" lon="-8.592066"><ele>390.6666666666667</ele><time>2026-05-02T08:51:11.56Z</time></trkpt><trkpt lat="42.3997225" lon="-8.5919744"><ele>390.33333333333337</ele><time>2026-05-02T08:51:12.557Z</time></trkpt><trkpt lat="42.3996971" lon="-8.5918825"><ele>390.0</ele><time>2026-05-02T08:51:13.55Z</time></trkpt><trkpt lat="42.399662" lon="-8.5917887"><ele>389.66666666666663</ele><time>2026-05-02T08:51:14.558Z</time></trkpt><trkpt lat="42.3996308" lon="-8.5916959"><ele>389.3333333333333</ele><time>2026-05-02T08:51:15.549Z</time></trkpt><trkpt lat="42.3996067" lon="-8.5915976"><ele>389.0</ele><time>2026-05-02T08:51:16.554Z</time></trkpt><trkpt lat="42.3995957" lon="-8.5914912"><ele>389.6</ele><time>2026-05-02T08:51:17.555Z</time></trkpt><trkpt lat="42.399593" lon="-8.5913816"><ele>390.2</ele><time>2026-05-02T08:51:18.553Z</time></trkpt><trkpt lat="42.3996005" lon="-8.5912682"><ele>390.8</ele><time>2026-05-02T08:51:19.551Z</time></trkpt><trkpt lat="42.3996177" lon="-8.5911435"><ele>391.40000000000003</ele><time>2026-05-02T08:51:20.551Z</time></trkpt><trkpt lat="42.3996427" lon="-8.5910141"><ele>392.0</ele><time>2026-05-02T08:51:21.548Z</time></trkpt><trkpt lat="42.3996757" lon="-8.5908783"><ele>391.99999999999994</ele><time>2026-05-02T08:51:22.552Z</time></trkpt><trkpt lat="42.3997118" lon="-8.5907445"><ele>392.0</ele><time>2026-05-02T08:51:23.556Z</time></trkpt><trkpt lat="42.3997474" lon="-8.5906264"><ele>392.0</ele><time>2026-05-02T08:51:24.552Z</time></trkpt><trkpt lat="42.3997825" lon="-8.590516"><ele>392.0</ele><time>2026-05-02T08:51:25.555Z</time></trkpt><trkpt lat="42.3998136" lon="-8.5904164"><ele>391.99999999999994</ele><time>2026-05-02T08:51:26.554Z</time></trkpt><trkpt lat="42.399839" lon="-8.5903266"><ele>392.0</ele><time>2026-05-02T08:51:27.554Z</time></trkpt><trkpt lat="42.3998514" lon="-8.5902399"><ele>392.3333333333333</ele><time>2026-05-02T08:51:28.557Z</time></trkpt><trkpt lat="42.3998439" lon="-8.5901535"><ele>392.66666666666663</ele><time>2026-05-02T08:51:29.545Z</time></trkpt><trkpt lat="42.3997731" lon="-8.5900114"><ele>393.0</ele><time>2026-05-02T08:51:31.556Z</time></trkpt><trkpt lat="42.3997162" lon="-8.5899637"><ele>393.33333333333337</ele><time>2026-05-02T08:51:32.556Z</time></trkpt><trkpt lat="42.39964" lon="-8.589932"><ele>393.6666666666667</ele><time>2026-05-02T08:51:33.565Z</time></trkpt><trkpt lat="42.3995473" lon="-8.5898927"><ele>394.0</ele><time>2026-05-02T08:51:34.552Z</time></trkpt><trkpt lat="42.3994545" lon="-8.5898531"><ele>394.00000000000006</ele><time>2026-05-02T08:51:35.552Z</time></trkpt><trkpt lat="42.3993643" lon="-8.5898216"><ele>394.0</ele><time>2026-05-02T08:51:36.56Z</time></trkpt><trkpt lat="42.3992849" lon="-8.5897905"><ele>394.0</ele><time>2026-05-02T08:51:37.551Z</time></trkpt><trkpt lat="42.3992136" lon="-8.5897543"><ele>394.0</ele><time>2026-05-02T08:51:38.553Z</time></trkpt><trkpt lat="42.3991555" lon="-8.5897118"><ele>394.00000000000006</ele><time>2026-05-02T08:51:39.551Z</time></trkpt><trkpt lat="42.3990984" lon="-8.5896483"><ele>394.0</ele><time>2026-05-02T08:52:01.549Z</time></trkpt><trkpt lat="42.3990148" lon="-8.5895781"><ele>394.0</ele><time>2026-05-02T08:52:04.551Z</time></trkpt><trkpt lat="42.3989198" lon="-8.5895108"><ele>394.0</ele><time>2026-05-02T08:52:06.547Z</time></trkpt><trkpt lat="42.3988035" lon="-8.5894452"><ele>394.0</ele><time>2026-05-02T08:52:08.548Z</time></trkpt><trkpt lat="42.3987431" lon="-8.589414"><ele>394.0</ele><time>2026-05-02T08:52:09.554Z</time></trkpt><trkpt lat="42.3986286" lon="-8.5893671"><ele>394.0</ele><time>2026-05-02T08:52:11.562Z</time></trkpt><trkpt lat="42.3985296" lon="-8.5892859"><ele>396.4</ele><time>2026-05-02T08:52:13.546Z</time></trkpt><trkpt lat="42.3984575" lon="-8.5891893"><ele>398.79999999999995</ele><time>2026-05-02T08:52:15.556Z</time></trkpt><trkpt lat="42.3984034" lon="-8.5890859"><ele>401.20000000000005</ele><time>2026-05-02T08:52:17.551Z</time></trkpt><trkpt lat="42.3983207" lon="-8.5889778"><ele>403.6</ele><time>2026-05-02T08:52:19.55Z</time></trkpt><trkpt lat="42.3982304" lon="-8.588876"><ele>406.0</ele><time>2026-05-02T08:52:21.554Z</time></trkpt><trkpt lat="42.3981795" lon="-8.5888201"><ele>406.00000000000006</ele><time>2026-05-02T08:52:22.551Z</time></trkpt><trkpt lat="42.3981289" lon="-8.5887651"><ele>406.0</ele><time>2026-05-02T08:52:23.551Z</time></trkpt><trkpt lat="42.3980812" lon="-8.5887068"><ele>406.0</ele><time>2026-05-02T08:52:24.549Z</time></trkpt><trkpt lat="42.3980292" lon="-8.5886438"><ele>406.0</ele><time>2026-05-02T08:52:25.56Z</time></trkpt><trkpt lat="42.3979757" lon="-8.5885884"><ele>406.00000000000006</ele><time>2026-05-02T08:52:26.555Z</time></trkpt><trkpt lat="42.3978679" lon="-8.5885207"><ele>406.0</ele><time>2026-05-02T08:52:28.553Z</time></trkpt><trkpt lat="42.3977598" lon="-8.5884923"><ele>409.0</ele><time>2026-05-02T08:52:30.552Z</time></trkpt><trkpt lat="42.3976462" lon="-8.5884238"><ele>412.0</ele><time>2026-05-02T08:52:32.551Z</time></trkpt><trkpt lat="42.3975687" lon="-8.5883357"><ele>415.0</ele><time>2026-05-02T08:52:34.552Z</time></trkpt><trkpt lat="42.3974953" lon="-8.5882721"><ele>418.0</ele><time>2026-05-02T08:53:00.55Z</time></trkpt><trkpt lat="42.3974078" lon="-8.5882482"><ele>421.0</ele><time>2026-05-02T08:53:03.554Z</time></trkpt><trkpt lat="42.3973478" lon="-8.5881955"><ele>421.00000000000006</ele><time>2026-05-02T08:53:05.554Z</time></trkpt><trkpt lat="42.3972819" lon="-8.5881473"><ele>421.0</ele><time>2026-05-02T08:53:08.564Z</time></trkpt><trkpt lat="42.3973117" lon="-8.5882461"><ele>421.0</ele><time>2026-05-02T08:53:48.558Z</time></trkpt><trkpt lat="42.39734" lon="-8.5883589"><ele>421.0</ele><time>2026-05-02T08:53:50.552Z</time></trkpt><trkpt lat="42.3973787" lon="-8.5884631"><ele>421.00000000000006</ele><time>2026-05-02T08:53:52.552Z</time></trkpt><trkpt lat="42.3974174" lon="-8.5885625"><ele>421.0</ele><time>2026-05-02T08:53:54.55Z</time></trkpt><trkpt lat="42.3974533" lon="-8.588652"><ele>424.8</ele><time>2026-05-02T08:53:56.553Z</time></trkpt><trkpt lat="42.3974939" lon="-8.5887691"><ele>428.6</ele><time>2026-05-02T08:53:58.549Z</time></trkpt><trkpt lat="42.3975432" lon="-8.5889017"><ele>432.4</ele><time>2026-05-02T08:54:00.562Z</time></trkpt><trkpt lat="42.3975869" lon="-8.589038"><ele>436.2</ele><time>2026-05-02T08:54:02.552Z</time></trkpt><trkpt lat="42.3976061" lon="-8.5891418"><ele>440.0</ele><time>2026-05-02T08:54:04.553Z</time></trkpt><trkpt lat="42.3976277" lon="-8.5892467"><ele>440.0</ele><time>2026-05-02T08:54:06.552Z</time></trkpt><trkpt lat="42.3976667" lon="-8.5893269"><ele>440.0</ele><time>2026-05-02T08:54:08.551Z</time></trkpt><trkpt lat="42.3977341" lon="-8.5894105"><ele>440.0</ele><time>2026-05-02T08:54:10.556Z</time></trkpt><trkpt lat="42.3978184" lon="-8.5895063"><ele>440.0</ele><time>2026-05-02T08:54:12.55Z</time></trkpt><trkpt lat="42.3978986" lon="-8.5896016"><ele>440.0</ele><time>2026-05-02T08:54:14.551Z</time></trkpt><trkpt lat="42.3979561" lon="-8.5896882"><ele>437.3333333333333</ele><time>2026-05-02T08:54:16.555Z</time></trkpt><trkpt lat="42.39799" lon="-8.5897905"><ele>434.66666666666663</ele><time>2026-05-02T08:54:18.551Z</time></trkpt><trkpt lat="42.3980153" lon="-8.5898948"><ele>432.0</ele><time>2026-05-02T08:54:20.553Z</time></trkpt><trkpt lat="42.398043" lon="-8.5900021"><ele>429.33333333333337</ele><time>2026-05-02T08:54:22.569Z</time></trkpt><trkpt lat="42.3980686" lon="-8.5901111"><ele>426.6666666666667</ele><time>2026-05-02T08:54:24.552Z</time></trkpt><trkpt lat="42.3980766" lon="-8.590218"><ele>424.0</ele><time>2026-05-02T08:54:26.551Z</time></trkpt><trkpt lat="42.398095" lon="-8.5903258"><ele>426.6666666666667</ele><time>2026-05-02T08:54:28.55Z</time></trkpt><trkpt lat="42.3980959" lon="-8.5904271"><ele>429.33333333333337</ele><time>2026-05-02T08:54:30.562Z</time></trkpt><trkpt lat="42.3980728" lon="-8.5905394"><ele>432.0</ele><time>2026-05-02T08:54:32.551Z</time></trkpt><trkpt lat="42.3980811" lon="-8.5906499"><ele>434.66666666666663</ele><time>2026-05-02T08:54:34.561Z</time></trkpt><trkpt lat="42.3980085" lon="-8.5907609"><ele>437.3333333333333</ele><time>2026-05-02T08:55:08.55Z</time></trkpt><trkpt lat="42.3979693" lon="-8.5908372"><ele>440.0</ele><time>2026-05-02T08:55:10.546Z</time></trkpt><trkpt lat="42.3979127" lon="-8.5909101"><ele>444.8333333333333</ele><time>2026-05-02T08:55:17.558Z</time></trkpt><trkpt lat="42.397865" lon="-8.590969"><ele>449.66666666666663</ele><time>2026-05-02T08:55:21.55Z</time></trkpt><trkpt lat="42.3978126" lon="-8.5910317"><ele>454.5</ele><time>2026-05-02T08:55:28.552Z</time></trkpt><trkpt lat="42.397753" lon="-8.5910785"><ele>459.33333333333337</ele><time>2026-05-02T08:55:31.552Z</time></trkpt><trkpt lat="42.3976898" lon="-8.5911411"><ele>464.1666666666667</ele><time>2026-05-02T08:55:35.561Z</time></trkpt><trkpt lat="42.3976324" lon="-8.5912106"><ele>469.0</ele><time>2026-05-02T08:55:37.555Z</time></trkpt><trkpt lat="42.3975658" lon="-8.5913318"><ele>469.0</ele><time>2026-05-02T08:55:39.552Z</time></trkpt><trkpt lat="42.3975087" lon="-8.5913831"><ele>469.0</ele><time>2026-05-02T08:55:41.554Z</time></trkpt><trkpt lat="42.3974993" lon="-8.5912925"><ele>469.0</ele><time>2026-05-02T08:55:45.557Z</time></trkpt><trkpt lat="42.3974997" lon="-8.5912051"><ele>469.0</ele><time>2026-05-02T08:56:03.553Z</time></trkpt><trkpt lat="42.3974747" lon="-8.591112"><ele>469.0</ele><time>2026-05-02T08:56:07.558Z</time></trkpt><trkpt lat="42.3974247" lon="-8.5910236"><ele>469.0</ele><time>2026-05-02T08:56:17.553Z</time></trkpt><trkpt lat="42.3973711" lon="-8.5909523"><ele>469.0</ele><time>2026-05-02T08:56:20.555Z</time></trkpt><trkpt lat="42.3973074" lon="-8.5909155"><ele>469.00000000000006</ele><time>2026-05-02T08:56:23.557Z</time></trkpt><trkpt lat="42.3972476" lon="-8.5908343"><ele>469.0</ele><time>2026-05-02T08:56:28.557Z</time></trkpt><trkpt lat="42.3971818" lon="-8.5907978"><ele>469.0</ele><time>2026-05-02T08:56:30.551Z</time></trkpt><trkpt lat="42.397105" lon="-8.5908061"><ele>469.0</ele><time>2026-05-02T08:56:32.563Z</time></trkpt><trkpt lat="42.3970542" lon="-8.5908724"><ele>469.00000000000006</ele><time>2026-05-02T08:56:43.551Z</time></trkpt><trkpt lat="42.3969896" lon="-8.5908926"><ele>469.0</ele><time>2026-05-02T08:56:48.555Z</time></trkpt><trkpt lat="42.3969055" lon="-8.5909091"><ele>473.57142857142856</ele><time>2026-05-02T08:56:55.556Z</time></trkpt><trkpt lat="42.3968667" lon="-8.5908079"><ele>478.1428571428571</ele><time>2026-05-02T08:56:59.551Z</time></trkpt><trkpt lat="42.396836" lon="-8.590732"><ele>482.7142857142857</ele><time>2026-05-02T08:57:10.559Z</time></trkpt><trkpt lat="42.3967805" lon="-8.5906768"><ele>487.2857142857143</ele><time>2026-05-02T08:57:25.561Z</time></trkpt><trkpt lat="42.3967171" lon="-8.5906659"><ele>491.85714285714283</ele><time>2026-05-02T08:57:28.553Z</time></trkpt><trkpt lat="42.3966358" lon="-8.5906738"><ele>496.42857142857144</ele><time>2026-05-02T08:57:30.543Z</time></trkpt><trkpt lat="42.3965795" lon="-8.5906239"><ele>501.0</ele><time>2026-05-02T08:57:32.546Z</time></trkpt><trkpt lat="42.3965313" lon="-8.5905412"><ele>501.0</ele><time>2026-05-02T08:57:35.548Z</time></trkpt><trkpt lat="42.396466" lon="-8.5905881"><ele>501.0</ele><time>2026-05-02T08:57:39.554Z</time></trkpt><trkpt lat="42.3963986" lon="-8.5905762"><ele>501.0</ele><time>2026-05-02T08:58:45.55Z</time></trkpt><trkpt lat="42.3963448" lon="-8.5905151"><ele>501.0</ele><time>2026-05-02T08:58:47.551Z</time></trkpt><trkpt lat="42.3962888" lon="-8.5904482"><ele>501.0</ele><time>2026-05-02T08:58:50.547Z</time></trkpt><trkpt lat="42.396305" lon="-8.5903559"><ele>501.0</ele><time>2026-05-02T08:59:07.548Z</time></trkpt><trkpt lat="42.3962778" lon="-8.5902458"><ele>501.0</ele><time>2026-05-02T08:59:15.556Z</time></trkpt><trkpt lat="42.3962568" lon="-8.5901529"><ele>505.3333333333333</ele><time>2026-05-02T08:59:17.55Z</time></trkpt><trkpt lat="42.3962063" lon="-8.5900898"><ele>509.66666666666663</ele><time>2026-05-02T08:59:19.56Z</time></trkpt><trkpt lat="42.3961401" lon="-8.5901344"><ele>514.0</ele><time>2026-05-02T08:59:21.55Z</time></trkpt><trkpt lat="42.3961022" lon="-8.5902091"><ele>518.3333333333333</ele><time>2026-05-02T08:59:25.549Z</time></trkpt><trkpt lat="42.3960219" lon="-8.5902014"><ele>522.6666666666666</ele><time>2026-05-02T08:59:28.557Z</time></trkpt><trkpt lat="42.3959395" lon="-8.5902094"><ele>527.0</ele><time>2026-05-02T08:59:32.549Z</time></trkpt><trkpt lat="42.3958604" lon="-8.5901574"><ele>527.0000000000001</ele><time>2026-05-02T09:10:56.547Z</time></trkpt><trkpt lat="42.3958015" lon="-8.590088"><ele>527.0</ele><time>2026-05-02T09:10:59.55Z</time></trkpt><trkpt lat="42.3957701" lon="-8.5900058"><ele>527.0</ele><time>2026-05-02T09:11:01.545Z</time></trkpt><trkpt lat="42.3957314" lon="-8.5899303"><ele>527.0</ele><time>2026-05-02T09:11:03.547Z</time></trkpt><trkpt lat="42.3956778" lon="-8.5898816"><ele>527.0</ele><time>2026-05-02T09:11:05.539Z</time></trkpt><trkpt lat="42.3956204" lon="-8.5898202"><ele>527.0000000000001</ele><time>2026-05-02T09:11:07.543Z</time></trkpt><trkpt lat="42.395564" lon="-8.5897645"><ele>527.0</ele><time>2026-05-02T09:11:09.546Z</time></trkpt><trkpt lat="42.3955055" lon="-8.5897257"><ele>526.1666666666666</ele><time>2026-05-02T09:11:12.543Z</time></trkpt><trkpt lat="42.3954426" lon="-8.5896697"><ele>525.3333333333333</ele><time>2026-05-02T09:11:19.542Z</time></trkpt><trkpt lat="42.3953546" lon="-8.589671"><ele>524.5</ele><time>2026-05-02T09:11:22.546Z</time></trkpt><trkpt lat="42.3952755" lon="-8.5896772"><ele>523.6666666666666</ele><time>2026-05-02T09:11:25.541Z</time></trkpt><trkpt lat="42.3952019" lon="-8.5896611"><ele>522.8333333333334</ele><time>2026-05-02T09:11:28.542Z</time></trkpt><trkpt lat="42.3951185" lon="-8.5896591"><ele>522.0</ele><time>2026-05-02T09:11:31.545Z</time></trkpt><trkpt lat="42.3950367" lon="-8.5896177"><ele>522.0</ele><time>2026-05-02T09:11:35.54Z</time></trkpt><trkpt lat="42.3949847" lon="-8.5895578"><ele>522.0</ele><time>2026-05-02T09:11:37.543Z</time></trkpt><trkpt lat="42.3949185" lon="-8.5895012"><ele>522.0</ele><time>2026-05-02T09:11:40.543Z</time></trkpt><trkpt lat="42.3948552" lon="-8.5894802"><ele>522.0</ele><time>2026-05-02T09:11:43.546Z</time></trkpt><trkpt lat="42.3947731" lon="-8.5894388"><ele>522.0</ele><time>2026-05-02T09:11:46.539Z</time></trkpt><trkpt lat="42.3947076" lon="-8.5894108"><ele>522.0</ele><time>2026-05-02T09:11:48.546Z</time></trkpt><trkpt lat="42.394647" lon="-8.5893516"><ele>522.0</ele><time>2026-05-02T09:11:50.542Z</time></trkpt><trkpt lat="42.394578" lon="-8.5892388"><ele>519.0</ele><time>2026-05-02T09:11:52.54Z</time></trkpt><trkpt lat="42.3944851" lon="-8.5891285"><ele>516.0</ele><time>2026-05-02T09:11:54.543Z</time></trkpt><trkpt lat="42.3944038" lon="-8.5890203"><ele>513.0</ele><time>2026-05-02T09:11:56.556Z</time></trkpt><trkpt lat="42.3943266" lon="-8.5888922"><ele>510.0</ele><time>2026-05-02T09:11:58.558Z</time></trkpt><trkpt lat="42.3942748" lon="-8.5887608"><ele>509.8</ele><time>2026-05-02T09:12:00.541Z</time></trkpt><trkpt lat="42.3942524" lon="-8.588641"><ele>509.6</ele><time>2026-05-02T09:12:02.547Z</time></trkpt><trkpt lat="42.3942335" lon="-8.5885427"><ele>509.4</ele><time>2026-05-02T09:12:04.556Z</time></trkpt><trkpt lat="42.3941911" lon="-8.58845"><ele>509.2</ele><time>2026-05-02T09:12:06.54Z</time></trkpt><trkpt lat="42.3941238" lon="-8.5883599"><ele>509.0</ele><time>2026-05-02T09:12:08.536Z</time></trkpt><trkpt lat="42.394042" lon="-8.5882316"><ele>509.0</ele><time>2026-05-02T09:12:10.554Z</time></trkpt><trkpt lat="42.3940068" lon="-8.5881595"><ele>509.0</ele><time>2026-05-02T09:12:11.55Z</time></trkpt><trkpt lat="42.3939405" lon="-8.5880446"><ele>509.0</ele><time>2026-05-02T09:12:13.543Z</time></trkpt><trkpt lat="42.3938537" lon="-8.5879943"><ele>509.0</ele><time>2026-05-02T09:12:15.543Z</time></trkpt><trkpt lat="42.393745" lon="-8.5879973"><ele>509.0</ele><time>2026-05-02T09:12:17.543Z</time></trkpt><trkpt lat="42.3936392" lon="-8.5879932"><ele>510.0</ele><time>2026-05-02T09:12:19.549Z</time></trkpt><trkpt lat="42.3935284" lon="-8.588015"><ele>511.0</ele><time>2026-05-02T09:12:21.541Z</time></trkpt><trkpt lat="42.393412" lon="-8.5880489"><ele>512.0</ele><time>2026-05-02T09:12:23.546Z</time></trkpt><trkpt lat="42.3933127" lon="-8.5880464"><ele>513.0</ele><time>2026-05-02T09:12:25.548Z</time></trkpt><trkpt lat="42.3932284" lon="-8.5880087"><ele>514.0</ele><time>2026-05-02T09:12:27.536Z</time></trkpt><trkpt lat="42.393135" lon="-8.5879568"><ele>514.0</ele><time>2026-05-02T09:12:29.541Z</time></trkpt><trkpt lat="42.393063" lon="-8.5879147"><ele>514.0</ele><time>2026-05-02T09:12:31.551Z</time></trkpt><trkpt lat="42.3929916" lon="-8.5878571"><ele>514.0</ele><time>2026-05-02T09:12:33.547Z</time></trkpt><trkpt lat="42.3929195" lon="-8.587778"><ele>514.0</ele><time>2026-05-02T09:12:35.54Z</time></trkpt><trkpt lat="42.3928432" lon="-8.5877128"><ele>514.0</ele><time>2026-05-02T09:12:37.54Z</time></trkpt><trkpt lat="42.3927593" lon="-8.5876185"><ele>513.6666666666667</ele><time>2026-05-02T09:12:39.542Z</time></trkpt><trkpt lat="42.3927089" lon="-8.5875269"><ele>513.3333333333334</ele><time>2026-05-02T09:12:41.542Z</time></trkpt><trkpt lat="42.3926806" lon="-8.587424"><ele>513.0</ele><time>2026-05-02T09:12:43.546Z</time></trkpt><trkpt lat="42.3926196" lon="-8.5873308"><ele>512.6666666666666</ele><time>2026-05-02T09:12:45.539Z</time></trkpt><trkpt lat="42.3925292" lon="-8.587291"><ele>512.3333333333333</ele><time>2026-05-02T09:12:47.54Z</time></trkpt><trkpt lat="42.3924476" lon="-8.5872601"><ele>512.0</ele><time>2026-05-02T09:12:49.535Z</time></trkpt><trkpt lat="42.3923667" lon="-8.587208"><ele>512.0</ele><time>2026-05-02T09:12:52.548Z</time></trkpt><trkpt lat="42.3922768" lon="-8.5871811"><ele>512.0</ele><time>2026-05-02T09:12:55.541Z</time></trkpt><trkpt lat="42.3922087" lon="-8.5871597"><ele>512.0</ele><time>2026-05-02T09:12:57.551Z</time></trkpt><trkpt lat="42.3921199" lon="-8.5871182"><ele>512.0</ele><time>2026-05-02T09:12:59.538Z</time></trkpt><trkpt lat="42.3920244" lon="-8.5870833"><ele>512.0</ele><time>2026-05-02T09:13:01.541Z</time></trkpt><trkpt lat="42.3919276" lon="-8.5870398"><ele>510.66666666666663</ele><time>2026-05-02T09:13:03.536Z</time></trkpt><trkpt lat="42.3918495" lon="-8.5869862"><ele>509.3333333333333</ele><time>2026-05-02T09:13:05.553Z</time></trkpt><trkpt lat="42.3917625" lon="-8.5869767"><ele>508.0</ele><time>2026-05-02T09:13:07.54Z</time></trkpt><trkpt lat="42.3916828" lon="-8.5870267"><ele>506.66666666666663</ele><time>2026-05-02T09:13:09.541Z</time></trkpt><trkpt lat="42.3915851" lon="-8.5870894"><ele>505.3333333333333</ele><time>2026-05-02T09:13:11.535Z</time></trkpt><trkpt lat="42.3915262" lon="-8.5871268"><ele>504.0</ele><time>2026-05-02T09:13:12.546Z</time></trkpt><trkpt lat="42.3914151" lon="-8.5872038"><ele>503.1666666666667</ele><time>2026-05-02T09:13:14.555Z</time></trkpt><trkpt lat="42.3913467" lon="-8.5872415"><ele>502.33333333333337</ele><time>2026-05-02T09:13:15.553Z</time></trkpt><trkpt lat="42.3912802" lon="-8.5872856"><ele>501.5</ele><time>2026-05-02T09:13:16.553Z</time></trkpt><trkpt lat="42.3912102" lon="-8.5873288"><ele>500.6666666666667</ele><time>2026-05-02T09:13:17.542Z</time></trkpt><trkpt lat="42.3911315" lon="-8.5873701"><ele>499.83333333333337</ele><time>2026-05-02T09:13:18.549Z</time></trkpt><trkpt lat="42.3910509" lon="-8.5874121"><ele>499.0</ele><time>2026-05-02T09:13:19.548Z</time></trkpt><trkpt lat="42.3909715" lon="-8.587457"><ele>497.1666666666667</ele><time>2026-05-02T09:13:20.54Z</time></trkpt><trkpt lat="42.390894" lon="-8.587495"><ele>495.33333333333337</ele><time>2026-05-02T09:13:21.54Z</time></trkpt><trkpt lat="42.3908235" lon="-8.5875325"><ele>493.5</ele><time>2026-05-02T09:13:22.547Z</time></trkpt><trkpt lat="42.3907565" lon="-8.5875717"><ele>491.66666666666663</ele><time>2026-05-02T09:13:23.546Z</time></trkpt><trkpt lat="42.3906884" lon="-8.5876078"><ele>489.8333333333333</ele><time>2026-05-02T09:13:24.541Z</time></trkpt><trkpt lat="42.3906192" lon="-8.587646"><ele>488.0</ele><time>2026-05-02T09:13:25.543Z</time></trkpt><trkpt lat="42.3905559" lon="-8.5876889"><ele>487.42857142857133</ele><time>2026-05-02T09:13:26.543Z</time></trkpt><trkpt lat="42.3905008" lon="-8.5877378"><ele>486.85714285714283</ele><time>2026-05-02T09:13:27.546Z</time></trkpt><trkpt lat="42.3904455" lon="-8.5877889"><ele>486.2857142857142</ele><time>2026-05-02T09:13:28.544Z</time></trkpt><trkpt lat="42.3903875" lon="-8.5878376"><ele>485.71428571428567</ele><time>2026-05-02T09:13:29.542Z</time></trkpt><trkpt lat="42.3903318" lon="-8.5878853"><ele>485.1428571428571</ele><time>2026-05-02T09:13:30.561Z</time></trkpt><trkpt lat="42.3902731" lon="-8.5879246"><ele>484.57142857142856</ele><time>2026-05-02T09:13:31.543Z</time></trkpt><trkpt lat="42.3902074" lon="-8.5879625"><ele>484.0</ele><time>2026-05-02T09:13:32.543Z</time></trkpt><trkpt lat="42.3901483" lon="-8.5880095"><ele>482.83333333333337</ele><time>2026-05-02T09:13:33.549Z</time></trkpt><trkpt lat="42.3900878" lon="-8.5880444"><ele>481.6666666666667</ele><time>2026-05-02T09:13:34.539Z</time></trkpt><trkpt lat="42.3900227" lon="-8.5880623"><ele>480.5</ele><time>2026-05-02T09:13:35.547Z</time></trkpt><trkpt lat="42.3898994" lon="-8.5880789"><ele>479.33333333333337</ele><time>2026-05-02T09:13:37.541Z</time></trkpt><trkpt lat="42.3898341" lon="-8.5880799"><ele>478.1666666666667</ele><time>2026-05-02T09:13:38.542Z</time></trkpt><trkpt lat="42.3897293" lon="-8.588054"><ele>477.0</ele><time>2026-05-02T09:13:40.538Z</time></trkpt><trkpt lat="42.3896264" lon="-8.5880399"><ele>475.8333333333333</ele><time>2026-05-02T09:13:42.542Z</time></trkpt><trkpt lat="42.3895349" lon="-8.588032"><ele>474.66666666666663</ele><time>2026-05-02T09:13:44.548Z</time></trkpt><trkpt lat="42.3894644" lon="-8.5880224"><ele>473.5</ele><time>2026-05-02T09:13:46.539Z</time></trkpt><trkpt lat="42.3894887" lon="-8.5881303"><ele>472.3333333333333</ele><time>2026-05-02T09:13:52.547Z</time></trkpt><trkpt lat="42.3895098" lon="-8.5882305"><ele>471.16666666666663</ele><time>2026-05-02T09:13:54.545Z</time></trkpt><trkpt lat="42.3895112" lon="-8.5883494"><ele>470.0</ele><time>2026-05-02T09:13:58.543Z</time></trkpt><trkpt lat="42.3894876" lon="-8.5884388"><ele>470.0</ele><time>2026-05-02T09:14:23.538Z</time></trkpt><trkpt lat="42.3894288" lon="-8.5884812"><ele>469.99999999999994</ele><time>2026-05-02T09:14:30.542Z</time></trkpt><trkpt lat="42.3893625" lon="-8.5884992"><ele>470.0</ele><time>2026-05-02T09:14:36.538Z</time></trkpt><trkpt lat="42.3893227" lon="-8.5885744"><ele>470.0</ele><time>2026-05-02T09:14:40.543Z</time></trkpt><trkpt lat="42.3892343" lon="-8.5886181"><ele>469.99999999999994</ele><time>2026-05-02T09:14:44.539Z</time></trkpt><trkpt lat="42.3891639" lon="-8.5886449"><ele>470.0</ele><time>2026-05-02T09:14:47.538Z</time></trkpt><trkpt lat="42.3891067" lon="-8.5886946"><ele>470.0</ele><time>2026-05-02T09:14:52.544Z</time></trkpt><trkpt lat="42.3891157" lon="-8.5888046"><ele>468.8333333333333</ele><time>2026-05-02T09:14:55.547Z</time></trkpt><trkpt lat="42.389155" lon="-8.5889232"><ele>467.66666666666663</ele><time>2026-05-02T09:14:57.543Z</time></trkpt><trkpt lat="42.3891901" lon="-8.5890494"><ele>466.5</ele><time>2026-05-02T09:14:59.541Z</time></trkpt><trkpt lat="42.3892083" lon="-8.5891727"><ele>465.33333333333337</ele><time>2026-05-02T09:15:01.544Z</time></trkpt><trkpt lat="42.3892222" lon="-8.5892793"><ele>464.1666666666667</ele><time>2026-05-02T09:15:03.543Z</time></trkpt><trkpt lat="42.3892333" lon="-8.5893778"><ele>463.0</ele><time>2026-05-02T09:15:14.535Z</time></trkpt><trkpt lat="42.3891577" lon="-8.5894264"><ele>463.00000000000006</ele><time>2026-05-02T09:15:18.538Z</time></trkpt><trkpt lat="42.3891043" lon="-8.5894864"><ele>463.0</ele><time>2026-05-02T09:15:21.537Z</time></trkpt><trkpt lat="42.3891131" lon="-8.5896019"><ele>463.0</ele><time>2026-05-02T09:15:25.544Z</time></trkpt><trkpt lat="42.3891531" lon="-8.5897123"><ele>463.0</ele><time>2026-05-02T09:15:28.542Z</time></trkpt><trkpt lat="42.3891537" lon="-8.5898285"><ele>463.00000000000006</ele><time>2026-05-02T09:15:31.546Z</time></trkpt><trkpt lat="42.3891618" lon="-8.5899242"><ele>463.0</ele><time>2026-05-02T09:15:33.548Z</time></trkpt><trkpt lat="42.3891789" lon="-8.590035"><ele>462.1666666666667</ele><time>2026-05-02T09:15:35.546Z</time></trkpt><trkpt lat="42.389195" lon="-8.5901618"><ele>461.33333333333337</ele><time>2026-05-02T09:15:37.544Z</time></trkpt><trkpt lat="42.3892025" lon="-8.5902666"><ele>460.5</ele><time>2026-05-02T09:15:39.545Z</time></trkpt><trkpt lat="42.3891881" lon="-8.5903587"><ele>459.66666666666663</ele><time>2026-05-02T09:15:45.549Z</time></trkpt><trkpt lat="42.3892047" lon="-8.590451"><ele>458.8333333333333</ele><time>2026-05-02T09:15:48.545Z</time></trkpt><trkpt lat="42.3891503" lon="-8.5905183"><ele>458.0</ele><time>2026-05-02T09:15:50.539Z</time></trkpt><trkpt lat="42.3890601" lon="-8.590549"><ele>457.0</ele><time>2026-05-02T09:15:52.536Z</time></trkpt><trkpt lat="42.3889946" lon="-8.590584"><ele>456.0</ele><time>2026-05-02T09:15:54.538Z</time></trkpt><trkpt lat="42.3889262" lon="-8.590626"><ele>455.0</ele><time>2026-05-02T09:15:58.543Z</time></trkpt><trkpt lat="42.3888671" lon="-8.5906635"><ele>454.0</ele><time>2026-05-02T09:16:00.544Z</time></trkpt><trkpt lat="42.3887919" lon="-8.5907096"><ele>453.0</ele><time>2026-05-02T09:16:02.547Z</time></trkpt><trkpt lat="42.3887039" lon="-8.5907237"><ele>452.0</ele><time>2026-05-02T09:16:06.547Z</time></trkpt><trkpt lat="42.3886392" lon="-8.5907382"><ele>451.0</ele><time>2026-05-02T09:16:10.535Z</time></trkpt><trkpt lat="42.3885709" lon="-8.5907773"><ele>449.4285714285714</ele><time>2026-05-02T09:16:14.546Z</time></trkpt><trkpt lat="42.3885061" lon="-8.5908266"><ele>447.8571428571429</ele><time>2026-05-02T09:16:24.546Z</time></trkpt><trkpt lat="42.38845" lon="-8.5908761"><ele>446.2857142857143</ele><time>2026-05-02T09:16:27.544Z</time></trkpt><trkpt lat="42.388405" lon="-8.5909536"><ele>444.71428571428567</ele><time>2026-05-02T09:16:32.544Z</time></trkpt><trkpt lat="42.3884156" lon="-8.5910674"><ele>443.1428571428571</ele><time>2026-05-02T09:16:36.536Z</time></trkpt><trkpt lat="42.3883711" lon="-8.5911395"><ele>441.57142857142856</ele><time>2026-05-02T09:16:39.539Z</time></trkpt><trkpt lat="42.3883214" lon="-8.5912198"><ele>440.0</ele><time>2026-05-02T09:16:43.536Z</time></trkpt><trkpt lat="42.388319" lon="-8.5913276"><ele>438.99999999999994</ele><time>2026-05-02T09:16:46.545Z</time></trkpt><trkpt lat="42.3882794" lon="-8.5914038"><ele>438.0</ele><time>2026-05-02T09:16:50.544Z</time></trkpt><trkpt lat="42.3882307" lon="-8.5914832"><ele>437.0</ele><time>2026-05-02T09:16:53.538Z</time></trkpt><trkpt lat="42.3881825" lon="-8.5915608"><ele>436.0</ele><time>2026-05-02T09:16:56.546Z</time></trkpt><trkpt lat="42.388142" lon="-8.591635"><ele>435.0</ele><time>2026-05-02T09:16:59.544Z</time></trkpt><trkpt lat="42.3881061" lon="-8.5917327"><ele>433.99999999999994</ele><time>2026-05-02T09:17:01.544Z</time></trkpt><trkpt lat="42.388071" lon="-8.5918057"><ele>433.0</ele><time>2026-05-02T09:17:03.545Z</time></trkpt><trkpt lat="42.3880305" lon="-8.5918823"><ele>432.57142857142856</ele><time>2026-05-02T09:17:06.539Z</time></trkpt><trkpt lat="42.387976" lon="-8.5919643"><ele>432.1428571428571</ele><time>2026-05-02T09:17:09.553Z</time></trkpt><trkpt lat="42.3879112" lon="-8.5920379"><ele>431.71428571428567</ele><time>2026-05-02T09:17:12.536Z</time></trkpt><trkpt lat="42.3878556" lon="-8.5920847"><ele>431.2857142857143</ele><time>2026-05-02T09:17:14.541Z</time></trkpt><trkpt lat="42.3877967" lon="-8.5921151"><ele>430.8571428571429</ele><time>2026-05-02T09:17:16.544Z</time></trkpt><trkpt lat="42.3877296" lon="-8.5921583"><ele>430.4285714285714</ele><time>2026-05-02T09:17:19.542Z</time></trkpt><trkpt lat="42.38767" lon="-8.5922268"><ele>430.0</ele><time>2026-05-02T09:17:29.541Z</time></trkpt><trkpt lat="42.3875778" lon="-8.5922855"><ele>428.7142857142857</ele><time>2026-05-02T09:17:32.543Z</time></trkpt><trkpt lat="42.3875118" lon="-8.5922874"><ele>427.42857142857144</ele><time>2026-05-02T09:17:34.54Z</time></trkpt><trkpt lat="42.3874168" lon="-8.5922746"><ele>426.14285714285717</ele><time>2026-05-02T09:17:37.545Z</time></trkpt><trkpt lat="42.3873509" lon="-8.5922555"><ele>424.8571428571429</ele><time>2026-05-02T09:17:39.541Z</time></trkpt><trkpt lat="42.3872827" lon="-8.5922291"><ele>423.57142857142856</ele><time>2026-05-02T09:17:41.538Z</time></trkpt><trkpt lat="42.387211" lon="-8.5922198"><ele>422.28571428571433</ele><time>2026-05-02T09:17:43.546Z</time></trkpt><trkpt lat="42.3871358" lon="-8.5922387"><ele>421.0</ele><time>2026-05-02T09:17:45.543Z</time></trkpt><trkpt lat="42.3870517" lon="-8.5922672"><ele>419.83333333333337</ele><time>2026-05-02T09:17:47.538Z</time></trkpt><trkpt lat="42.386954" lon="-8.5922755"><ele>418.6666666666667</ele><time>2026-05-02T09:17:49.547Z</time></trkpt><trkpt lat="42.3868579" lon="-8.5922969"><ele>417.5</ele><time>2026-05-02T09:17:51.546Z</time></trkpt><trkpt lat="42.3867942" lon="-8.5923267"><ele>416.33333333333337</ele><time>2026-05-02T09:17:54.533Z</time></trkpt><trkpt lat="42.3867514" lon="-8.5924027"><ele>415.1666666666667</ele><time>2026-05-02T09:17:57.547Z</time></trkpt><trkpt lat="42.3867008" lon="-8.5924843"><ele>414.0</ele><time>2026-05-02T09:17:59.542Z</time></trkpt><trkpt lat="42.3866636" lon="-8.5925815"><ele>414.0</ele><time>2026-05-02T09:18:01.541Z</time></trkpt><trkpt lat="42.3866127" lon="-8.5926499"><ele>414.0</ele><time>2026-05-02T09:18:03.542Z</time></trkpt><trkpt lat="42.386529" lon="-8.5926859"><ele>414.0</ele><time>2026-05-02T09:18:05.549Z</time></trkpt><trkpt lat="42.3864637" lon="-8.5927049"><ele>414.0</ele><time>2026-05-02T09:18:06.539Z</time></trkpt><trkpt lat="42.3863903" lon="-8.5927277"><ele>414.0</ele><time>2026-05-02T09:18:07.545Z</time></trkpt><trkpt lat="42.3863264" lon="-8.5927467"><ele>414.0</ele><time>2026-05-02T09:18:08.553Z</time></trkpt><trkpt lat="42.3862227" lon="-8.5927541"><ele>412.8571428571429</ele><time>2026-05-02T09:18:10.542Z</time></trkpt><trkpt lat="42.3861578" lon="-8.5927935"><ele>411.7142857142857</ele><time>2026-05-02T09:18:12.537Z</time></trkpt><trkpt lat="42.3860984" lon="-8.5928286"><ele>410.57142857142856</ele><time>2026-05-02T09:18:16.536Z</time></trkpt><trkpt lat="42.3860594" lon="-8.592917"><ele>409.42857142857144</ele><time>2026-05-02T09:18:21.54Z</time></trkpt><trkpt lat="42.3859989" lon="-8.5929748"><ele>408.2857142857143</ele><time>2026-05-02T09:18:24.538Z</time></trkpt><trkpt lat="42.3859531" lon="-8.593054"><ele>407.14285714285717</ele><time>2026-05-02T09:18:28.541Z</time></trkpt><trkpt lat="42.3858868" lon="-8.5930421"><ele>406.0</ele><time>2026-05-02T09:18:31.546Z</time></trkpt><trkpt lat="42.3858246" lon="-8.5930655"><ele>404.00000000000006</ele><time>2026-05-02T09:18:33.537Z</time></trkpt><trkpt lat="42.3857339" lon="-8.5930826"><ele>402.0</ele><time>2026-05-02T09:18:36.538Z</time></trkpt><trkpt lat="42.3856688" lon="-8.5930529"><ele>400.0</ele><time>2026-05-02T09:18:39.539Z</time></trkpt><trkpt lat="42.3856054" lon="-8.5930656"><ele>398.0</ele><time>2026-05-02T09:18:42.54Z</time></trkpt><trkpt lat="42.3855381" lon="-8.5931067"><ele>396.00000000000006</ele><time>2026-05-02T09:18:46.554Z</time></trkpt><trkpt lat="42.3854391" lon="-8.5930859"><ele>394.0</ele><time>2026-05-02T09:18:49.551Z</time></trkpt><trkpt lat="42.3853643" lon="-8.593109"><ele>392.50000000000006</ele><time>2026-05-02T09:18:51.544Z</time></trkpt><trkpt lat="42.3852962" lon="-8.5931222"><ele>391.0</ele><time>2026-05-02T09:18:53.541Z</time></trkpt><trkpt lat="42.3852106" lon="-8.5931298"><ele>389.5</ele><time>2026-05-02T09:18:55.537Z</time></trkpt><trkpt lat="42.3851157" lon="-8.5931875"><ele>388.0</ele><time>2026-05-02T09:18:57.54Z</time></trkpt><trkpt lat="42.38502" lon="-8.5931901"><ele>386.50000000000006</ele><time>2026-05-02T09:18:59.541Z</time></trkpt><trkpt lat="42.3849381" lon="-8.5932066"><ele>385.0</ele><time>2026-05-02T09:19:01.545Z</time></trkpt><trkpt lat="42.3848715" lon="-8.5931734"><ele>385.00000000000006</ele><time>2026-05-02T09:19:04.547Z</time></trkpt><trkpt lat="42.3848245" lon="-8.5931046"><ele>385.0</ele><time>2026-05-02T09:19:06.538Z</time></trkpt><trkpt lat="42.3848061" lon="-8.5930087"><ele>385.0</ele><time>2026-05-02T09:19:10.542Z</time></trkpt><trkpt lat="42.3847613" lon="-8.5929283"><ele>385.0</ele><time>2026-05-02T09:19:13.547Z</time></trkpt><trkpt lat="42.3846764" lon="-8.5929473"><ele>385.00000000000006</ele><time>2026-05-02T09:19:16.54Z</time></trkpt><trkpt lat="42.3845946" lon="-8.5929657"><ele>385.0</ele><time>2026-05-02T09:19:19.54Z</time></trkpt><trkpt lat="42.3845176" lon="-8.5929756"><ele>381.4</ele><time>2026-05-02T09:19:21.535Z</time></trkpt><trkpt lat="42.3844082" lon="-8.5930025"><ele>377.8</ele><time>2026-05-02T09:19:23.546Z</time></trkpt><trkpt lat="42.3843371" lon="-8.593042"><ele>374.20000000000005</ele><time>2026-05-02T09:19:25.538Z</time></trkpt><trkpt lat="42.3842041" lon="-8.5931271"><ele>370.6</ele><time>2026-05-02T09:19:27.539Z</time></trkpt><trkpt lat="42.3841389" lon="-8.5931518"><ele>367.0</ele><time>2026-05-02T09:19:29.538Z</time></trkpt><trkpt lat="42.3840564" lon="-8.5931019"><ele>367.0</ele><time>2026-05-02T09:19:33.539Z</time></trkpt><trkpt lat="42.3840152" lon="-8.5930115"><ele>367.0</ele><time>2026-05-02T09:19:35.539Z</time></trkpt><trkpt lat="42.3839846" lon="-8.5929196"><ele>367.0</ele><time>2026-05-02T09:19:38.546Z</time></trkpt><trkpt lat="42.3839085" lon="-8.5928815"><ele>367.0</ele><time>2026-05-02T09:19:40.539Z</time></trkpt><trkpt lat="42.3838138" lon="-8.5928751"><ele>367.0</ele><time>2026-05-02T09:19:42.543Z</time></trkpt><trkpt lat="42.3837205" lon="-8.592879"><ele>367.0</ele><time>2026-05-02T09:19:44.534Z</time></trkpt><trkpt lat="42.3836093" lon="-8.5928795"><ele>365.8333333333333</ele><time>2026-05-02T09:19:46.537Z</time></trkpt><trkpt lat="42.3834795" lon="-8.5928873"><ele>364.66666666666663</ele><time>2026-05-02T09:19:48.532Z</time></trkpt><trkpt lat="42.3834136" lon="-8.5929031"><ele>363.5</ele><time>2026-05-02T09:19:49.544Z</time></trkpt><trkpt lat="42.3833458" lon="-8.5929151"><ele>362.3333333333333</ele><time>2026-05-02T09:19:50.537Z</time></trkpt><trkpt lat="42.3832787" lon="-8.5929275"><ele>361.1666666666667</ele><time>2026-05-02T09:19:51.536Z</time></trkpt><trkpt lat="42.3832136" lon="-8.5929311"><ele>360.0</ele><time>2026-05-02T09:19:52.542Z</time></trkpt><trkpt lat="42.3831443" lon="-8.5929254"><ele>360.0</ele><time>2026-05-02T09:19:53.537Z</time></trkpt><trkpt lat="42.3830795" lon="-8.5929186"><ele>360.0</ele><time>2026-05-02T09:19:54.539Z</time></trkpt><trkpt lat="42.382947" lon="-8.5929132"><ele>360.0</ele><time>2026-05-02T09:19:56.537Z</time></trkpt><trkpt lat="42.3828744" lon="-8.5929089"><ele>360.0</ele><time>2026-05-02T09:19:57.541Z</time></trkpt><trkpt lat="42.3828" lon="-8.5929056"><ele>360.0</ele><time>2026-05-02T09:19:58.549Z</time></trkpt><trkpt lat="42.3827253" lon="-8.592896"><ele>360.0</ele><time>2026-05-02T09:19:59.539Z</time></trkpt><trkpt lat="42.3826475" lon="-8.5928829"><ele>360.1666666666667</ele><time>2026-05-02T09:20:00.54Z</time></trkpt><trkpt lat="42.3825702" lon="-8.5928699"><ele>360.3333333333333</ele><time>2026-05-02T09:20:01.536Z</time></trkpt><trkpt lat="42.3824903" lon="-8.5928568"><ele>360.5</ele><time>2026-05-02T09:20:02.538Z</time></trkpt><trkpt lat="42.3824045" lon="-8.5928432"><ele>360.66666666666663</ele><time>2026-05-02T09:20:03.541Z</time></trkpt><trkpt lat="42.3823148" lon="-8.5928355"><ele>360.8333333333333</ele><time>2026-05-02T09:20:04.544Z</time></trkpt><trkpt lat="42.3822275" lon="-8.5928386"><ele>361.0</ele><time>2026-05-02T09:20:05.544Z</time></trkpt><trkpt lat="42.3821518" lon="-8.5928674"><ele>361.0</ele><time>2026-05-02T09:20:06.538Z</time></trkpt><trkpt lat="42.3820839" lon="-8.5929145"><ele>361.0</ele><time>2026-05-02T09:20:07.545Z</time></trkpt><trkpt lat="42.3820246" lon="-8.5929697"><ele>361.0</ele><time>2026-05-02T09:20:08.537Z</time></trkpt><trkpt lat="42.3819685" lon="-8.5930275"><ele>361.0</ele><time>2026-05-02T09:20:09.542Z</time></trkpt><trkpt lat="42.3819181" lon="-8.5930852"><ele>361.0</ele><time>2026-05-02T09:20:10.54Z</time></trkpt><trkpt lat="42.3818421" lon="-8.5931946"><ele>361.0</ele><time>2026-05-02T09:20:12.537Z</time></trkpt><trkpt lat="42.3818102" lon="-8.5933246"><ele>361.0</ele><time>2026-05-02T09:20:14.534Z</time></trkpt><trkpt lat="42.3818677" lon="-8.5934942"><ele>361.0</ele><time>2026-05-02T09:20:16.548Z</time></trkpt><trkpt lat="42.3819047" lon="-8.5935874"><ele>361.0</ele><time>2026-05-02T09:20:17.535Z</time></trkpt><trkpt lat="42.3819456" lon="-8.5936753"><ele>361.0</ele><time>2026-05-02T09:20:18.539Z</time></trkpt><trkpt lat="42.3819785" lon="-8.5937542"><ele>361.0</ele><time>2026-05-02T09:20:19.543Z</time></trkpt><trkpt lat="42.3820154" lon="-8.593863"><ele>361.0</ele><time>2026-05-02T09:20:21.542Z</time></trkpt><trkpt lat="42.3820657" lon="-8.5939284"><ele>360.0</ele><time>2026-05-02T09:20:23.544Z</time></trkpt><trkpt lat="42.3821246" lon="-8.5939714"><ele>359.0</ele><time>2026-05-02T09:20:25.536Z</time></trkpt><trkpt lat="42.3821877" lon="-8.5940167"><ele>358.0</ele><time>2026-05-02T09:20:27.54Z</time></trkpt><trkpt lat="42.3822605" lon="-8.5940677"><ele>357.0</ele><time>2026-05-02T09:20:29.542Z</time></trkpt><trkpt lat="42.3823137" lon="-8.5941435"><ele>356.0</ele><time>2026-05-02T09:20:31.536Z</time></trkpt><trkpt lat="42.3823444" lon="-8.5942471"><ele>355.0</ele><time>2026-05-02T09:20:33.546Z</time></trkpt><trkpt lat="42.3823841" lon="-8.5943683"><ele>355.0</ele><time>2026-05-02T09:20:35.548Z</time></trkpt><trkpt lat="42.3824723" lon="-8.5944262"><ele>355.0</ele><time>2026-05-02T09:20:37.539Z</time></trkpt><trkpt lat="42.3825384" lon="-8.5944296"><ele>355.0</ele><time>2026-05-02T09:20:39.533Z</time></trkpt><trkpt lat="42.3826124" lon="-8.594352"><ele>355.0</ele><time>2026-05-02T09:20:42.543Z</time></trkpt><trkpt lat="42.3826283" lon="-8.5942474"><ele>355.0</ele><time>2026-05-02T09:20:44.544Z</time></trkpt><trkpt lat="42.3826371" lon="-8.5941301"><ele>355.0</ele><time>2026-05-02T09:20:46.531Z</time></trkpt><trkpt lat="42.3826777" lon="-8.5940405"><ele>355.0</ele><time>2026-05-02T09:20:49.537Z</time></trkpt><trkpt lat="42.3827494" lon="-8.5940206"><ele>355.0</ele><time>2026-05-02T09:20:51.536Z</time></trkpt><trkpt lat="42.3828125" lon="-8.5939745"><ele>355.0</ele><time>2026-05-02T09:20:53.538Z</time></trkpt><trkpt lat="42.3828538" lon="-8.593876"><ele>355.0</ele><time>2026-05-02T09:20:55.545Z</time></trkpt><trkpt lat="42.3828862" lon="-8.5937755"><ele>355.0</ele><time>2026-05-02T09:20:57.542Z</time></trkpt><trkpt lat="42.3829384" lon="-8.5936822"><ele>355.0</ele><time>2026-05-02T09:21:00.538Z</time></trkpt><trkpt lat="42.3830253" lon="-8.5936616"><ele>355.1428571428571</ele><time>2026-05-02T09:21:03.538Z</time></trkpt><trkpt lat="42.3830845" lon="-8.593691"><ele>355.2857142857143</ele><time>2026-05-02T09:21:05.539Z</time></trkpt><trkpt lat="42.3831422" lon="-8.593734"><ele>355.42857142857144</ele><time>2026-05-02T09:21:07.548Z</time></trkpt><trkpt lat="42.3831918" lon="-8.5938081"><ele>355.57142857142856</ele><time>2026-05-02T09:21:09.535Z</time></trkpt><trkpt lat="42.3832663" lon="-8.593864"><ele>355.7142857142857</ele><time>2026-05-02T09:21:12.54Z</time></trkpt><trkpt lat="42.3833152" lon="-8.5939248"><ele>355.85714285714283</ele><time>2026-05-02T09:21:20.542Z</time></trkpt><trkpt lat="42.383349" lon="-8.5939991"><ele>356.0</ele><time>2026-05-02T09:21:41.538Z</time></trkpt><trkpt lat="42.383405" lon="-8.5940728"><ele>356.0</ele><time>2026-05-02T09:21:58.536Z</time></trkpt><trkpt lat="42.3834697" lon="-8.5940467"><ele>356.0</ele><time>2026-05-02T09:23:10.535Z</time></trkpt><trkpt lat="42.383509" lon="-8.5941446"><ele>356.0</ele><time>2026-05-02T09:23:14.536Z</time></trkpt><trkpt lat="42.3835436" lon="-8.594224"><ele>356.0</ele><time>2026-05-02T09:23:16.546Z</time></trkpt><trkpt lat="42.3835817" lon="-8.5943368"><ele>356.0</ele><time>2026-05-02T09:23:18.537Z</time></trkpt><trkpt lat="42.3836236" lon="-8.5944738"><ele>356.0</ele><time>2026-05-02T09:23:20.537Z</time></trkpt><trkpt lat="42.3836535" lon="-8.5946322"><ele>354.83333333333337</ele><time>2026-05-02T09:23:22.537Z</time></trkpt><trkpt lat="42.3836621" lon="-8.5947632"><ele>353.6666666666667</ele><time>2026-05-02T09:23:24.545Z</time></trkpt><trkpt lat="42.3836378" lon="-8.5948871"><ele>352.5</ele><time>2026-05-02T09:23:27.538Z</time></trkpt><trkpt lat="42.3836225" lon="-8.5950087"><ele>351.3333333333333</ele><time>2026-05-02T09:23:29.535Z</time></trkpt><trkpt lat="42.3836371" lon="-8.5950959"><ele>350.16666666666663</ele><time>2026-05-02T09:23:30.537Z</time></trkpt><trkpt lat="42.383652" lon="-8.5951817"><ele>349.0</ele><time>2026-05-02T09:23:31.538Z</time></trkpt><trkpt lat="42.3836744" lon="-8.5953114"><ele>347.8333333333333</ele><time>2026-05-02T09:23:33.548Z</time></trkpt><trkpt lat="42.3836705" lon="-8.5954181"><ele>346.66666666666663</ele><time>2026-05-02T09:23:35.534Z</time></trkpt><trkpt lat="42.3836244" lon="-8.5954962"><ele>345.5</ele><time>2026-05-02T09:23:37.541Z</time></trkpt><trkpt lat="42.383573" lon="-8.5955957"><ele>344.3333333333333</ele><time>2026-05-02T09:23:39.538Z</time></trkpt><trkpt lat="42.3835451" lon="-8.5957081"><ele>343.1666666666667</ele><time>2026-05-02T09:23:41.538Z</time></trkpt><trkpt lat="42.3835174" lon="-8.5958147"><ele>342.0</ele><time>2026-05-02T09:23:44.534Z</time></trkpt><trkpt lat="42.3835861" lon="-8.5957511"><ele>342.0</ele><time>2026-05-02T09:23:52.536Z</time></trkpt><trkpt lat="42.3836298" lon="-8.5956775"><ele>342.0</ele><time>2026-05-02T09:23:54.536Z</time></trkpt><trkpt lat="42.3836907" lon="-8.5956457"><ele>342.0</ele><time>2026-05-02T09:23:56.539Z</time></trkpt><trkpt lat="42.3837771" lon="-8.5956049"><ele>342.0</ele><time>2026-05-02T09:23:58.535Z</time></trkpt><trkpt lat="42.3838433" lon="-8.5955228"><ele>342.0</ele><time>2026-05-02T09:24:00.537Z</time></trkpt><trkpt lat="42.3838721" lon="-8.5954087"><ele>342.0</ele><time>2026-05-02T09:24:02.537Z</time></trkpt><trkpt lat="42.3838732" lon="-8.5953089"><ele>341.0</ele><time>2026-05-02T09:24:04.534Z</time></trkpt><trkpt lat="42.3839004" lon="-8.5951743"><ele>340.0</ele><time>2026-05-02T09:24:06.542Z</time></trkpt><trkpt lat="42.3839371" lon="-8.5950301"><ele>339.0</ele><time>2026-05-02T09:24:08.534Z</time></trkpt><trkpt lat="42.3840055" lon="-8.5949359"><ele>338.0</ele><time>2026-05-02T09:24:10.538Z</time></trkpt><trkpt lat="42.3840763" lon="-8.5948925"><ele>337.0</ele><time>2026-05-02T09:24:12.536Z</time></trkpt><trkpt lat="42.3841511" lon="-8.5948988"><ele>337.0</ele><time>2026-05-02T09:24:14.543Z</time></trkpt><trkpt lat="42.3842237" lon="-8.5949771"><ele>337.0</ele><time>2026-05-02T09:24:16.531Z</time></trkpt><trkpt lat="42.3843075" lon="-8.5950376"><ele>337.0</ele><time>2026-05-02T09:24:18.536Z</time></trkpt><trkpt lat="42.3843803" lon="-8.5950751"><ele>337.0</ele><time>2026-05-02T09:24:20.543Z</time></trkpt><trkpt lat="42.3844473" lon="-8.5951133"><ele>337.0</ele><time>2026-05-02T09:24:22.534Z</time></trkpt><trkpt lat="42.3845371" lon="-8.5951378"><ele>337.0</ele><time>2026-05-02T09:24:25.533Z</time></trkpt><trkpt lat="42.3846061" lon="-8.5951344"><ele>338.3333333333333</ele><time>2026-05-02T09:24:27.535Z</time></trkpt><trkpt lat="42.38468" lon="-8.5951294"><ele>339.66666666666663</ele><time>2026-05-02T09:24:29.547Z</time></trkpt><trkpt lat="42.3847741" lon="-8.5951099"><ele>341.0</ele><time>2026-05-02T09:24:31.541Z</time></trkpt><trkpt lat="42.3848874" lon="-8.5950619"><ele>342.3333333333333</ele><time>2026-05-02T09:24:33.543Z</time></trkpt><trkpt lat="42.3849466" lon="-8.5950297"><ele>343.6666666666667</ele><time>2026-05-02T09:24:34.537Z</time></trkpt><trkpt lat="42.385006" lon="-8.5949986"><ele>345.0</ele><time>2026-05-02T09:24:35.541Z</time></trkpt><trkpt lat="42.3850817" lon="-8.5949638"><ele>345.0</ele><time>2026-05-02T09:24:37.539Z</time></trkpt><trkpt lat="42.3851388" lon="-8.5949279"><ele>345.0</ele><time>2026-05-02T09:24:50.537Z</time></trkpt><trkpt lat="42.3851869" lon="-8.5948328"><ele>345.0</ele><time>2026-05-02T09:24:55.535Z</time></trkpt><trkpt lat="42.3852476" lon="-8.5947527"><ele>345.0</ele><time>2026-05-02T09:24:58.536Z</time></trkpt><trkpt lat="42.3853116" lon="-8.5947292"><ele>345.0</ele><time>2026-05-02T09:25:10.54Z</time></trkpt><trkpt lat="42.3853718" lon="-8.5947614"><ele>345.0</ele><time>2026-05-02T09:25:15.535Z</time></trkpt><trkpt lat="42.3853384" lon="-8.5948364"><ele>345.0</ele><time>2026-05-02T09:25:20.539Z</time></trkpt><trkpt lat="42.3853994" lon="-8.5948115"><ele>345.0</ele><time>2026-05-02T09:25:34.546Z</time></trkpt><trkpt lat="42.3853282" lon="-8.5947621"><ele>345.0</ele><time>2026-05-02T09:26:17.532Z</time></trkpt><trkpt lat="42.3852541" lon="-8.594721"><ele>345.0</ele><time>2026-05-02T09:26:19.537Z</time></trkpt><trkpt lat="42.3851544" lon="-8.5947183"><ele>345.0</ele><time>2026-05-02T09:26:21.538Z</time></trkpt><trkpt lat="42.3850903" lon="-8.594715"><ele>345.0</ele><time>2026-05-02T09:26:22.54Z</time></trkpt><trkpt lat="42.3850016" lon="-8.5946233"><ele>345.0</ele><time>2026-05-02T09:26:24.546Z</time></trkpt><trkpt lat="42.3849239" lon="-8.5945241"><ele>348.3333333333333</ele><time>2026-05-02T09:26:26.54Z</time></trkpt><trkpt lat="42.3848882" lon="-8.5944335"><ele>351.6666666666667</ele><time>2026-05-02T09:26:27.537Z</time></trkpt><trkpt lat="42.3848534" lon="-8.5943383"><ele>355.0</ele><time>2026-05-02T09:26:28.535Z</time></trkpt><trkpt lat="42.3848219" lon="-8.5942484"><ele>358.33333333333337</ele><time>2026-05-02T09:26:29.54Z</time></trkpt><trkpt lat="42.3847967" lon="-8.5941654"><ele>361.6666666666667</ele><time>2026-05-02T09:26:30.534Z</time></trkpt><trkpt lat="42.3847715" lon="-8.5940416"><ele>365.0</ele><time>2026-05-02T09:26:32.541Z</time></trkpt><trkpt lat="42.3847025" lon="-8.5940301"><ele>362.6</ele><time>2026-05-02T09:26:48.532Z</time></trkpt><trkpt lat="42.3845962" lon="-8.5940134"><ele>360.2</ele><time>2026-05-02T09:26:50.537Z</time></trkpt><trkpt lat="42.3845326" lon="-8.5939886"><ele>357.79999999999995</ele><time>2026-05-02T09:26:51.536Z</time></trkpt><trkpt lat="42.3844516" lon="-8.5939418"><ele>355.4</ele><time>2026-05-02T09:26:52.534Z</time></trkpt><trkpt lat="42.3843274" lon="-8.5938482"><ele>353.0</ele><time>2026-05-02T09:26:53.538Z</time></trkpt><trkpt lat="42.384207" lon="-8.5937581"><ele>353.0</ele><time>2026-05-02T09:26:54.534Z</time></trkpt><trkpt lat="42.3841224" lon="-8.5936829"><ele>353.0</ele><time>2026-05-02T09:26:55.534Z</time></trkpt><trkpt lat="42.384067" lon="-8.59359"><ele>353.0</ele><time>2026-05-02T09:26:56.533Z</time></trkpt><trkpt lat="42.3840297" lon="-8.5934964"><ele>353.0</ele><time>2026-05-02T09:26:57.536Z</time></trkpt><trkpt lat="42.3840106" lon="-8.5933902"><ele>353.0</ele><time>2026-05-02T09:26:58.534Z</time></trkpt><trkpt lat="42.3840193" lon="-8.5932747"><ele>353.0</ele><time>2026-05-02T09:26:59.538Z</time></trkpt><trkpt lat="42.3840336" lon="-8.5931473"><ele>355.33333333333337</ele><time>2026-05-02T09:27:00.535Z</time></trkpt><trkpt lat="42.3840449" lon="-8.5930288"><ele>357.6666666666667</ele><time>2026-05-02T09:27:01.54Z</time></trkpt><trkpt lat="42.3840384" lon="-8.5929209"><ele>360.0</ele><time>2026-05-02T09:27:02.538Z</time></trkpt><trkpt lat="42.3839982" lon="-8.5928397"><ele>362.3333333333333</ele><time>2026-05-02T09:27:03.537Z</time></trkpt><trkpt lat="42.3839297" lon="-8.5927971"><ele>364.66666666666663</ele><time>2026-05-02T09:27:04.54Z</time></trkpt><trkpt lat="42.3838387" lon="-8.5928014"><ele>367.0</ele><time>2026-05-02T09:27:05.529Z</time></trkpt><trkpt lat="42.3837566" lon="-8.5928196"><ele>365.8333333333333</ele><time>2026-05-02T09:27:06.534Z</time></trkpt><trkpt lat="42.3836526" lon="-8.5928364"><ele>364.66666666666663</ele><time>2026-05-02T09:27:08.536Z</time></trkpt><trkpt lat="42.3835906" lon="-8.5928898"><ele>363.5</ele><time>2026-05-02T09:27:21.533Z</time></trkpt><trkpt lat="42.3834848" lon="-8.5929188"><ele>362.3333333333333</ele><time>2026-05-02T09:27:23.529Z</time></trkpt><trkpt lat="42.3834175" lon="-8.5929355"><ele>361.1666666666667</ele><time>2026-05-02T09:27:24.536Z</time></trkpt><trkpt lat="42.3833469" lon="-8.5929431"><ele>360.0</ele><time>2026-05-02T09:27:25.536Z</time></trkpt><trkpt lat="42.3832504" lon="-8.5929362"><ele>360.0</ele><time>2026-05-02T09:27:26.548Z</time></trkpt><trkpt lat="42.3831555" lon="-8.5929332"><ele>360.0</ele><time>2026-05-02T09:27:27.542Z</time></trkpt><trkpt lat="42.3830702" lon="-8.5929274"><ele>360.0</ele><time>2026-05-02T09:27:28.531Z</time></trkpt><trkpt lat="42.3829866" lon="-8.5929293"><ele>360.0</ele><time>2026-05-02T09:27:29.534Z</time></trkpt><trkpt lat="42.3829048" lon="-8.5929196"><ele>360.0</ele><time>2026-05-02T09:27:30.543Z</time></trkpt><trkpt lat="42.3828195" lon="-8.5929096"><ele>360.0</ele><time>2026-05-02T09:27:31.537Z</time></trkpt><trkpt lat="42.382734" lon="-8.5928879"><ele>359.6666666666667</ele><time>2026-05-02T09:27:32.539Z</time></trkpt><trkpt lat="42.382648" lon="-8.5928648"><ele>359.3333333333333</ele><time>2026-05-02T09:27:33.544Z</time></trkpt><trkpt lat="42.3825575" lon="-8.592845"><ele>359.0</ele><time>2026-05-02T09:27:34.531Z</time></trkpt><trkpt lat="42.3824663" lon="-8.5928326"><ele>358.66666666666663</ele><time>2026-05-02T09:27:35.535Z</time></trkpt><trkpt lat="42.3823766" lon="-8.5928236"><ele>358.3333333333333</ele><time>2026-05-02T09:27:36.533Z</time></trkpt><trkpt lat="42.3822948" lon="-8.5928284"><ele>358.0</ele><time>2026-05-02T09:27:37.534Z</time></trkpt><trkpt lat="42.3822272" lon="-8.5928419"><ele>358.59999999999997</ele><time>2026-05-02T09:27:38.539Z</time></trkpt><trkpt lat="42.3821132" lon="-8.5928951"><ele>359.2</ele><time>2026-05-02T09:27:40.538Z</time></trkpt><trkpt lat="42.3820293" lon="-8.5929557"><ele>359.8</ele><time>2026-05-02T09:27:42.527Z</time></trkpt><trkpt lat="42.3819563" lon="-8.5930026"><ele>360.4</ele><time>2026-05-02T09:27:44.534Z</time></trkpt><trkpt lat="42.3818744" lon="-8.5929777"><ele>361.0</ele><time>2026-05-02T09:27:47.536Z</time></trkpt><trkpt lat="42.3818521" lon="-8.5928579"><ele>362.0</ele><time>2026-05-02T09:27:49.531Z</time></trkpt><trkpt lat="42.3818405" lon="-8.592711"><ele>363.0</ele><time>2026-05-02T09:27:51.551Z</time></trkpt><trkpt lat="42.3817975" lon="-8.5926233"><ele>364.0</ele><time>2026-05-02T09:27:54.539Z</time></trkpt><trkpt lat="42.3817604" lon="-8.5925413"><ele>365.0</ele><time>2026-05-02T09:27:57.538Z</time></trkpt><trkpt lat="42.3817029" lon="-8.5924427"><ele>366.0</ele><time>2026-05-02T09:27:59.537Z</time></trkpt><trkpt lat="42.3816714" lon="-8.5923629"><ele>367.0</ele><time>2026-05-02T09:28:01.552Z</time></trkpt><trkpt lat="42.3816548" lon="-8.5922697"><ele>367.0</ele><time>2026-05-02T09:28:03.534Z</time></trkpt><trkpt lat="42.3816428" lon="-8.5921471"><ele>367.0</ele><time>2026-05-02T09:28:06.54Z</time></trkpt><trkpt lat="42.3815922" lon="-8.5920904"><ele>367.0</ele><time>2026-05-02T09:28:09.534Z</time></trkpt><trkpt lat="42.3815259" lon="-8.5921093"><ele>367.0</ele><time>2026-05-02T09:28:14.532Z</time></trkpt><trkpt lat="42.3814613" lon="-8.5921045"><ele>367.0</ele><time>2026-05-02T09:28:21.536Z</time></trkpt><trkpt lat="42.3813956" lon="-8.5920791"><ele>367.0</ele><time>2026-05-02T09:28:25.538Z</time></trkpt><trkpt lat="42.381328" lon="-8.5920675"><ele>367.0</ele><time>2026-05-02T09:28:29.539Z</time></trkpt><trkpt lat="42.3812419" lon="-8.5920314"><ele>364.8333333333333</ele><time>2026-05-02T09:28:33.536Z</time></trkpt><trkpt lat="42.3811659" lon="-8.5920034"><ele>362.66666666666663</ele><time>2026-05-02T09:28:35.542Z</time></trkpt><trkpt lat="42.3810719" lon="-8.5919577"><ele>360.5</ele><time>2026-05-02T09:28:38.538Z</time></trkpt><trkpt lat="42.3809953" lon="-8.5918763"><ele>358.3333333333333</ele><time>2026-05-02T09:28:40.533Z</time></trkpt><trkpt lat="42.3809464" lon="-8.5917885"><ele>356.1666666666667</ele><time>2026-05-02T09:28:42.534Z</time></trkpt><trkpt lat="42.3809576" lon="-8.5917046"><ele>354.0</ele><time>2026-05-02T09:28:47.543Z</time></trkpt><trkpt lat="42.3810438" lon="-8.5916871"><ele>354.0</ele><time>2026-05-02T09:28:53.539Z</time></trkpt><trkpt lat="42.3811168" lon="-8.5917191"><ele>354.0</ele><time>2026-05-02T09:28:56.533Z</time></trkpt><trkpt lat="42.3811697" lon="-8.5916544"><ele>354.0</ele><time>2026-05-02T09:29:06.542Z</time></trkpt><trkpt lat="42.3811023" lon="-8.5916486"><ele>354.0</ele><time>2026-05-02T09:29:16.536Z</time></trkpt><trkpt lat="42.3810243" lon="-8.5915558"><ele>354.0</ele><time>2026-05-02T09:29:18.54Z</time></trkpt><trkpt lat="42.3809897" lon="-8.5914823"><ele>354.0</ele><time>2026-05-02T09:29:19.536Z</time></trkpt><trkpt lat="42.3809537" lon="-8.5914026"><ele>354.0</ele><time>2026-05-02T09:29:20.537Z</time></trkpt><trkpt lat="42.3809015" lon="-8.5913136"><ele>354.0</ele><time>2026-05-02T09:29:21.529Z</time></trkpt><trkpt lat="42.3808385" lon="-8.5912226"><ele>354.0</ele><time>2026-05-02T09:29:22.535Z</time></trkpt><trkpt lat="42.3807928" lon="-8.5911299"><ele>354.0</ele><time>2026-05-02T09:29:23.533Z</time></trkpt><trkpt lat="42.3807586" lon="-8.5910397"><ele>354.0</ele><time>2026-05-02T09:29:24.532Z</time></trkpt><trkpt lat="42.3807225" lon="-8.5909198"><ele>354.0</ele><time>2026-05-02T09:29:26.531Z</time></trkpt><trkpt lat="42.3806613" lon="-8.5908708"><ele>355.79999999999995</ele><time>2026-05-02T09:29:28.542Z</time></trkpt><trkpt lat="42.3805975" lon="-8.5907922"><ele>357.59999999999997</ele><time>2026-05-02T09:29:31.545Z</time></trkpt><trkpt lat="42.3806008" lon="-8.5906849"><ele>359.4</ele><time>2026-05-02T09:29:33.534Z</time></trkpt><trkpt lat="42.3806587" lon="-8.5905783"><ele>361.2</ele><time>2026-05-02T09:29:35.536Z</time></trkpt><trkpt lat="42.3807623" lon="-8.5904996"><ele>363.0</ele><time>2026-05-02T09:29:37.535Z</time></trkpt><trkpt lat="42.3808512" lon="-8.5904179"><ele>364.0</ele><time>2026-05-02T09:29:39.546Z</time></trkpt><trkpt lat="42.3809064" lon="-8.590323"><ele>365.0</ele><time>2026-05-02T09:29:41.538Z</time></trkpt><trkpt lat="42.3809597" lon="-8.5902102"><ele>366.0</ele><time>2026-05-02T09:29:43.533Z</time></trkpt><trkpt lat="42.3810068" lon="-8.5900769"><ele>367.0</ele><time>2026-05-02T09:29:45.54Z</time></trkpt><trkpt lat="42.3810425" lon="-8.5899422"><ele>368.0</ele><time>2026-05-02T09:29:47.535Z</time></trkpt><trkpt lat="42.3810602" lon="-8.5898336"><ele>368.0</ele><time>2026-05-02T09:29:49.532Z</time></trkpt><trkpt lat="42.3811076" lon="-8.5897584"><ele>368.0</ele><time>2026-05-02T09:29:52.536Z</time></trkpt><trkpt lat="42.3811612" lon="-8.5897012"><ele>368.0</ele><time>2026-05-02T09:29:56.531Z</time></trkpt><trkpt lat="42.3812249" lon="-8.5896402"><ele>368.0</ele><time>2026-05-02T09:30:00.544Z</time></trkpt><trkpt lat="42.3812897" lon="-8.5896395"><ele>368.0</ele><time>2026-05-02T09:30:04.536Z</time></trkpt><trkpt lat="42.3813547" lon="-8.5895665"><ele>368.0</ele><time>2026-05-02T09:30:07.533Z</time></trkpt><trkpt lat="42.3814167" lon="-8.5895353"><ele>368.0</ele><time>2026-05-02T09:30:10.533Z</time></trkpt><trkpt lat="42.3815008" lon="-8.5895287"><ele>368.5714285714286</ele><time>2026-05-02T09:30:13.53Z</time></trkpt><trkpt lat="42.3815597" lon="-8.5894881"><ele>369.1428571428571</ele><time>2026-05-02T09:30:16.539Z</time></trkpt><trkpt lat="42.3816194" lon="-8.5894433"><ele>369.7142857142857</ele><time>2026-05-02T09:30:20.547Z</time></trkpt><trkpt lat="42.3816744" lon="-8.5893958"><ele>370.28571428571433</ele><time>2026-05-02T09:30:23.539Z</time></trkpt><trkpt lat="42.3817329" lon="-8.5893339"><ele>370.8571428571429</ele><time>2026-05-02T09:30:29.541Z</time></trkpt><trkpt lat="42.3816748" lon="-8.589388"><ele>371.42857142857144</ele><time>2026-05-02T09:31:01.538Z</time></trkpt><trkpt lat="42.3817129" lon="-8.5894907"><ele>372.0</ele><time>2026-05-02T09:31:08.543Z</time></trkpt><trkpt lat="42.3817504" lon="-8.5895594"><ele>372.00000000000006</ele><time>2026-05-02T09:31:10.543Z</time></trkpt><trkpt lat="42.3818186" lon="-8.5895985"><ele>372.0</ele><time>2026-05-02T09:31:13.533Z</time></trkpt><trkpt lat="42.3818916" lon="-8.5895914"><ele>372.0</ele><time>2026-05-02T09:31:17.54Z</time></trkpt><trkpt lat="42.3819717" lon="-8.5896089"><ele>372.0</ele><time>2026-05-02T09:31:20.539Z</time></trkpt><trkpt lat="42.3820479" lon="-8.5896293"><ele>372.0</ele><time>2026-05-02T09:31:23.529Z</time></trkpt><trkpt lat="42.3821147" lon="-8.589633"><ele>372.00000000000006</ele><time>2026-05-02T09:31:25.532Z</time></trkpt><trkpt lat="42.3821802" lon="-8.5896296"><ele>372.0</ele><time>2026-05-02T09:31:27.531Z</time></trkpt><trkpt lat="42.3822558" lon="-8.5895663"><ele>373.6666666666667</ele><time>2026-05-02T09:31:30.553Z</time></trkpt><trkpt lat="42.3823222" lon="-8.589484"><ele>375.3333333333333</ele><time>2026-05-02T09:31:32.533Z</time></trkpt><trkpt lat="42.3823815" lon="-8.5893879"><ele>377.0</ele><time>2026-05-02T09:31:34.533Z</time></trkpt><trkpt lat="42.3824303" lon="-8.5893087"><ele>378.66666666666663</ele><time>2026-05-02T09:31:36.531Z</time></trkpt><trkpt lat="42.3824794" lon="-8.5892203"><ele>380.3333333333333</ele><time>2026-05-02T09:31:38.535Z</time></trkpt><trkpt lat="42.3825308" lon="-8.5891616"><ele>382.0</ele><time>2026-05-02T09:31:40.538Z</time></trkpt><trkpt lat="42.3825801" lon="-8.5890998"><ele>382.0</ele><time>2026-05-02T09:31:42.533Z</time></trkpt><trkpt lat="42.3826315" lon="-8.5890157"><ele>382.0</ele><time>2026-05-02T09:31:45.533Z</time></trkpt><trkpt lat="42.382683" lon="-8.588945"><ele>382.0</ele><time>2026-05-02T09:31:47.534Z</time></trkpt><trkpt lat="42.3827349" lon="-8.588869"><ele>382.0</ele><time>2026-05-02T09:31:49.538Z</time></trkpt><trkpt lat="42.3828003" lon="-8.5887947"><ele>382.0</ele><time>2026-05-02T09:31:51.532Z</time></trkpt><trkpt lat="42.3828711" lon="-8.5887384"><ele>382.0</ele><time>2026-05-02T09:31:53.533Z</time></trkpt><trkpt lat="42.3829567" lon="-8.5886775"><ele>383.20000000000005</ele><time>2026-05-02T09:31:55.539Z</time></trkpt><trkpt lat="42.3830435" lon="-8.5886245"><ele>384.4</ele><time>2026-05-02T09:31:57.533Z</time></trkpt><trkpt lat="42.3831234" lon="-8.588562"><ele>385.6</ele><time>2026-05-02T09:31:59.532Z</time></trkpt><trkpt lat="42.3831992" lon="-8.5884736"><ele>386.79999999999995</ele><time>2026-05-02T09:32:01.534Z</time></trkpt><trkpt lat="42.383269" lon="-8.5883799"><ele>388.0</ele><time>2026-05-02T09:32:03.535Z</time></trkpt><trkpt lat="42.3832941" lon="-8.5882702"><ele>388.00000000000006</ele><time>2026-05-02T09:32:06.543Z</time></trkpt><trkpt lat="42.38332" lon="-8.5881621"><ele>388.0</ele><time>2026-05-02T09:32:09.534Z</time></trkpt><trkpt lat="42.3833699" lon="-8.5881008"><ele>388.0</ele><time>2026-05-02T09:32:12.533Z</time></trkpt><trkpt lat="42.3834304" lon="-8.5880149"><ele>388.0</ele><time>2026-05-02T09:32:15.54Z</time></trkpt><trkpt lat="42.3834885" lon="-8.5879221"><ele>388.00000000000006</ele><time>2026-05-02T09:32:17.532Z</time></trkpt><trkpt lat="42.3835237" lon="-8.5878398"><ele>388.0</ele><time>2026-05-02T09:32:19.539Z</time></trkpt><trkpt lat="42.3835801" lon="-8.5877549"><ele>388.0</ele><time>2026-05-02T09:32:21.534Z</time></trkpt><trkpt lat="42.3836434" lon="-8.5876851"><ele>388.0</ele><time>2026-05-02T09:32:23.538Z</time></trkpt><trkpt lat="42.383724" lon="-8.5876047"><ele>388.0</ele><time>2026-05-02T09:32:25.533Z</time></trkpt><trkpt lat="42.3838077" lon="-8.5875154"><ele>388.0</ele><time>2026-05-02T09:32:27.527Z</time></trkpt><trkpt lat="42.3838755" lon="-8.5874293"><ele>388.0</ele><time>2026-05-02T09:32:29.535Z</time></trkpt><trkpt lat="42.3839416" lon="-8.587342"><ele>389.5</ele><time>2026-05-02T09:32:31.535Z</time></trkpt><trkpt lat="42.3840193" lon="-8.5872477"><ele>391.0</ele><time>2026-05-02T09:32:33.532Z</time></trkpt><trkpt lat="42.3840945" lon="-8.5871187"><ele>392.5</ele><time>2026-05-02T09:32:35.54Z</time></trkpt><trkpt lat="42.384141" lon="-8.5869763"><ele>394.0</ele><time>2026-05-02T09:32:37.531Z</time></trkpt><trkpt lat="42.384175" lon="-8.5868331"><ele>394.50000000000006</ele><time>2026-05-02T09:32:39.533Z</time></trkpt><trkpt lat="42.3842007" lon="-8.5867548"><ele>395.0</ele><time>2026-05-02T09:32:40.536Z</time></trkpt><trkpt lat="42.3842404" lon="-8.5866671"><ele>395.5</ele><time>2026-05-02T09:32:41.531Z</time></trkpt><trkpt lat="42.384283" lon="-8.5865771"><ele>396.0</ele><time>2026-05-02T09:32:42.542Z</time></trkpt><trkpt lat="42.3843336" lon="-8.5865013"><ele>396.50000000000006</ele><time>2026-05-02T09:32:43.536Z</time></trkpt><trkpt lat="42.3843924" lon="-8.5864342"><ele>397.0</ele><time>2026-05-02T09:32:44.531Z</time></trkpt><trkpt lat="42.3844802" lon="-8.586335"><ele>397.0</ele><time>2026-05-02T09:32:46.537Z</time></trkpt><trkpt lat="42.3845504" lon="-8.5862521"><ele>397.0</ele><time>2026-05-02T09:32:48.535Z</time></trkpt><trkpt lat="42.3846107" lon="-8.5861674"><ele>397.0</ele><time>2026-05-02T09:32:50.533Z</time></trkpt><trkpt lat="42.3846909" lon="-8.5860807"><ele>397.0</ele><time>2026-05-02T09:32:52.532Z</time></trkpt><trkpt lat="42.3847667" lon="-8.5859857"><ele>397.0</ele><time>2026-05-02T09:32:54.532Z</time></trkpt><trkpt lat="42.3848229" lon="-8.5859066"><ele>397.00000000000006</ele><time>2026-05-02T09:32:56.53Z</time></trkpt><trkpt lat="42.384731" lon="-8.5858945"><ele>397.0</ele><time>2026-05-02T09:33:08.537Z</time></trkpt><trkpt lat="42.384663" lon="-8.5858617"><ele>397.0</ele><time>2026-05-02T09:33:10.535Z</time></trkpt><trkpt lat="42.3847224" lon="-8.585779"><ele>397.0</ele><time>2026-05-02T09:33:13.529Z</time></trkpt><trkpt lat="42.3848114" lon="-8.5857305"><ele>397.00000000000006</ele><time>2026-05-02T09:33:15.534Z</time></trkpt><trkpt lat="42.3848721" lon="-8.5856828"><ele>397.0</ele><time>2026-05-02T09:33:16.538Z</time></trkpt><trkpt lat="42.3849536" lon="-8.5855844"><ele>398.50000000000006</ele><time>2026-05-02T09:33:18.531Z</time></trkpt><trkpt lat="42.3850074" lon="-8.5854963"><ele>400.0</ele><time>2026-05-02T09:33:20.539Z</time></trkpt><trkpt lat="42.3850626" lon="-8.5854254"><ele>401.5</ele><time>2026-05-02T09:33:22.535Z</time></trkpt><trkpt lat="42.3851384" lon="-8.5853569"><ele>403.0</ele><time>2026-05-02T09:33:25.535Z</time></trkpt><trkpt lat="42.3852191" lon="-8.5853004"><ele>404.50000000000006</ele><time>2026-05-02T09:33:28.527Z</time></trkpt><trkpt lat="42.3852625" lon="-8.5852371"><ele>406.0</ele><time>2026-05-02T09:33:30.538Z</time></trkpt><trkpt lat="42.3852942" lon="-8.5851501"><ele>408.00000000000006</ele><time>2026-05-02T09:33:33.542Z</time></trkpt><trkpt lat="42.3853585" lon="-8.5850776"><ele>410.0</ele><time>2026-05-02T09:33:36.528Z</time></trkpt><trkpt lat="42.385439" lon="-8.5849653"><ele>412.0</ele><time>2026-05-02T09:33:38.536Z</time></trkpt><trkpt lat="42.3854947" lon="-8.5849093"><ele>414.0</ele><time>2026-05-02T09:33:39.537Z</time></trkpt><trkpt lat="42.385559" lon="-8.5848654"><ele>416.00000000000006</ele><time>2026-05-02T09:33:40.532Z</time></trkpt><trkpt lat="42.385619" lon="-8.5848271"><ele>418.0</ele><time>2026-05-02T09:33:41.54Z</time></trkpt><trkpt lat="42.3857059" lon="-8.5847876"><ele>420.4</ele><time>2026-05-02T09:33:43.534Z</time></trkpt><trkpt lat="42.3857836" lon="-8.5848315"><ele>422.79999999999995</ele><time>2026-05-02T09:33:45.539Z</time></trkpt><trkpt lat="42.3858685" lon="-8.5848929"><ele>425.2</ele><time>2026-05-02T09:33:47.536Z</time></trkpt><trkpt lat="42.3859638" lon="-8.5849618"><ele>427.6</ele><time>2026-05-02T09:33:49.533Z</time></trkpt><trkpt lat="42.3860513" lon="-8.5850282"><ele>430.0</ele><time>2026-05-02T09:33:51.53Z</time></trkpt><trkpt lat="42.3861476" lon="-8.5850974"><ele>430.00000000000006</ele><time>2026-05-02T09:33:53.529Z</time></trkpt><trkpt lat="42.3862453" lon="-8.5851531"><ele>430.0</ele><time>2026-05-02T09:33:55.533Z</time></trkpt><trkpt lat="42.3863324" lon="-8.5852182"><ele>430.0</ele><time>2026-05-02T09:33:57.534Z</time></trkpt><trkpt lat="42.3864173" lon="-8.5852879"><ele>430.0</ele><time>2026-05-02T09:33:59.534Z</time></trkpt><trkpt lat="42.3864794" lon="-8.5853473"><ele>430.00000000000006</ele><time>2026-05-02T09:34:01.534Z</time></trkpt><trkpt lat="42.3865356" lon="-8.5853866"><ele>430.0</ele><time>2026-05-02T09:34:03.539Z</time></trkpt><trkpt lat="42.3865919" lon="-8.5854664"><ele>431.33333333333337</ele><time>2026-05-02T09:34:05.536Z</time></trkpt><trkpt lat="42.3866227" lon="-8.5856119"><ele>432.6666666666667</ele><time>2026-05-02T09:34:07.534Z</time></trkpt><trkpt lat="42.3866163" lon="-8.5857054"><ele>434.0</ele><time>2026-05-02T09:34:08.532Z</time></trkpt><trkpt lat="42.3866022" lon="-8.5858066"><ele>435.33333333333337</ele><time>2026-05-02T09:34:09.536Z</time></trkpt><trkpt lat="42.3865903" lon="-8.5859075"><ele>436.6666666666667</ele><time>2026-05-02T09:34:10.533Z</time></trkpt><trkpt lat="42.3865802" lon="-8.5860163"><ele>438.0</ele><time>2026-05-02T09:34:11.531Z</time></trkpt><trkpt lat="42.3865683" lon="-8.5861219"><ele>438.4</ele><time>2026-05-02T09:34:12.534Z</time></trkpt><trkpt lat="42.3865603" lon="-8.5862493"><ele>438.79999999999995</ele><time>2026-05-02T09:34:13.532Z</time></trkpt><trkpt lat="42.3865446" lon="-8.586397"><ele>439.2</ele><time>2026-05-02T09:34:14.531Z</time></trkpt><trkpt lat="42.3865153" lon="-8.5865544"><ele>439.6</ele><time>2026-05-02T09:34:15.536Z</time></trkpt><trkpt lat="42.3864796" lon="-8.5867113"><ele>440.0</ele><time>2026-05-02T09:34:16.528Z</time></trkpt><trkpt lat="42.3864448" lon="-8.5868441"><ele>440.0</ele><time>2026-05-02T09:34:17.53Z</time></trkpt><trkpt lat="42.3864071" lon="-8.5869719"><ele>440.0</ele><time>2026-05-02T09:34:18.538Z</time></trkpt><trkpt lat="42.3863671" lon="-8.5871011"><ele>440.0</ele><time>2026-05-02T09:34:19.533Z</time></trkpt><trkpt lat="42.386327" lon="-8.5872295"><ele>440.0</ele><time>2026-05-02T09:34:20.527Z</time></trkpt><trkpt lat="42.3862938" lon="-8.5873566"><ele>440.0</ele><time>2026-05-02T09:34:21.531Z</time></trkpt><trkpt lat="42.3862674" lon="-8.5874802"><ele>438.8333333333333</ele><time>2026-05-02T09:34:22.534Z</time></trkpt><trkpt lat="42.3862515" lon="-8.5875921"><ele>437.66666666666663</ele><time>2026-05-02T09:34:23.534Z</time></trkpt><trkpt lat="42.3862429" lon="-8.5876982"><ele>436.5</ele><time>2026-05-02T09:34:24.535Z</time></trkpt><trkpt lat="42.3862439" lon="-8.5878086"><ele>435.33333333333337</ele><time>2026-05-02T09:34:25.533Z</time></trkpt><trkpt lat="42.3862553" lon="-8.5879184"><ele>434.1666666666667</ele><time>2026-05-02T09:34:26.534Z</time></trkpt><trkpt lat="42.3862599" lon="-8.5880281"><ele>433.0</ele><time>2026-05-02T09:34:27.536Z</time></trkpt><trkpt lat="42.3862591" lon="-8.5881392"><ele>433.00000000000006</ele><time>2026-05-02T09:34:28.53Z</time></trkpt><trkpt lat="42.386253" lon="-8.5882489"><ele>433.0</ele><time>2026-05-02T09:34:29.533Z</time></trkpt><trkpt lat="42.3862453" lon="-8.5883699"><ele>433.0</ele><time>2026-05-02T09:34:30.533Z</time></trkpt><trkpt lat="42.3862344" lon="-8.5884948"><ele>433.0</ele><time>2026-05-02T09:34:31.534Z</time></trkpt><trkpt lat="42.3862237" lon="-8.5886143"><ele>433.00000000000006</ele><time>2026-05-02T09:34:32.537Z</time></trkpt><trkpt lat="42.386219" lon="-8.5887259"><ele>433.0</ele><time>2026-05-02T09:34:33.534Z</time></trkpt><trkpt lat="42.3862399" lon="-8.5888459"><ele>434.0</ele><time>2026-05-02T09:34:35.53Z</time></trkpt><trkpt lat="42.3863199" lon="-8.5888319"><ele>434.99999999999994</ele><time>2026-05-02T09:34:37.529Z</time></trkpt><trkpt lat="42.386418" lon="-8.5887943"><ele>435.99999999999994</ele><time>2026-05-02T09:34:39.539Z</time></trkpt><trkpt lat="42.386522" lon="-8.588701"><ele>437.0</ele><time>2026-05-02T09:34:41.535Z</time></trkpt><trkpt lat="42.3865805" lon="-8.5886366"><ele>438.0</ele><time>2026-05-02T09:34:42.553Z</time></trkpt><trkpt lat="42.3866401" lon="-8.5885679"><ele>439.59999999999997</ele><time>2026-05-02T09:34:43.534Z</time></trkpt><trkpt lat="42.3866975" lon="-8.588505"><ele>441.19999999999993</ele><time>2026-05-02T09:34:44.532Z</time></trkpt><trkpt lat="42.3867553" lon="-8.5884498"><ele>442.8</ele><time>2026-05-02T09:34:45.542Z</time></trkpt><trkpt lat="42.3868631" lon="-8.5883605"><ele>444.4</ele><time>2026-05-02T09:34:47.534Z</time></trkpt><trkpt lat="42.386946" lon="-8.5883235"><ele>446.0</ele><time>2026-05-02T09:34:48.541Z</time></trkpt><trkpt lat="42.3870542" lon="-8.5882972"><ele>446.0</ele><time>2026-05-02T09:34:49.545Z</time></trkpt><trkpt lat="42.3871749" lon="-8.5883022"><ele>446.0</ele><time>2026-05-02T09:34:50.529Z</time></trkpt><trkpt lat="42.3872977" lon="-8.5883353"><ele>446.0</ele><time>2026-05-02T09:34:51.532Z</time></trkpt><trkpt lat="42.3874099" lon="-8.5883824"><ele>446.0</ele><time>2026-05-02T09:34:52.538Z</time></trkpt><trkpt lat="42.3875058" lon="-8.5884542"><ele>445.75</ele><time>2026-05-02T09:34:53.53Z</time></trkpt><trkpt lat="42.3875955" lon="-8.5885701"><ele>445.5</ele><time>2026-05-02T09:34:54.53Z</time></trkpt><trkpt lat="42.3876671" lon="-8.5887201"><ele>445.25</ele><time>2026-05-02T09:34:55.541Z</time></trkpt><trkpt lat="42.3877348" lon="-8.5888758"><ele>445.0</ele><time>2026-05-02T09:34:56.533Z</time></trkpt><trkpt lat="42.3878068" lon="-8.589022"><ele>445.0</ele><time>2026-05-02T09:34:57.531Z</time></trkpt><trkpt lat="42.3878864" lon="-8.5891547"><ele>445.0</ele><time>2026-05-02T09:34:58.537Z</time></trkpt><trkpt lat="42.387971" lon="-8.5892898"><ele>445.0</ele><time>2026-05-02T09:34:59.534Z</time></trkpt><trkpt lat="42.3880624" lon="-8.5894193"><ele>445.0</ele><time>2026-05-02T09:35:00.54Z</time></trkpt><trkpt lat="42.3881479" lon="-8.589547"><ele>444.4</ele><time>2026-05-02T09:35:01.532Z</time></trkpt><trkpt lat="42.388239" lon="-8.5896613"><ele>443.8</ele><time>2026-05-02T09:35:02.537Z</time></trkpt><trkpt lat="42.3883208" lon="-8.5897597"><ele>443.20000000000005</ele><time>2026-05-02T09:35:03.539Z</time></trkpt><trkpt lat="42.3883992" lon="-8.5898306"><ele>442.6</ele><time>2026-05-02T09:35:04.533Z</time></trkpt><trkpt lat="42.388463" lon="-8.5898992"><ele>442.0</ele><time>2026-05-02T09:35:05.537Z</time></trkpt><trkpt lat="42.3885153" lon="-8.5899687"><ele>442.00000000000006</ele><time>2026-05-02T09:35:06.532Z</time></trkpt><trkpt lat="42.388566" lon="-8.5900421"><ele>442.0</ele><time>2026-05-02T09:35:07.531Z</time></trkpt><trkpt lat="42.3886307" lon="-8.5901035"><ele>442.0</ele><time>2026-05-02T09:35:08.531Z</time></trkpt><trkpt lat="42.3886984" lon="-8.5901616"><ele>442.0</ele><time>2026-05-02T09:35:09.531Z</time></trkpt><trkpt lat="42.3887728" lon="-8.5902232"><ele>442.00000000000006</ele><time>2026-05-02T09:35:10.536Z</time></trkpt><trkpt lat="42.3888524" lon="-8.5902849"><ele>442.0</ele><time>2026-05-02T09:35:11.54Z</time></trkpt><trkpt lat="42.3889364" lon="-8.5903559"><ele>443.8</ele><time>2026-05-02T09:35:12.53Z</time></trkpt><trkpt lat="42.3890405" lon="-8.5904153"><ele>445.6</ele><time>2026-05-02T09:35:13.532Z</time></trkpt><trkpt lat="42.3891427" lon="-8.5904604"><ele>447.40000000000003</ele><time>2026-05-02T09:35:14.53Z</time></trkpt><trkpt lat="42.3892319" lon="-8.5904967"><ele>449.20000000000005</ele><time>2026-05-02T09:35:15.54Z</time></trkpt><trkpt lat="42.3893153" lon="-8.5905478"><ele>451.0</ele><time>2026-05-02T09:35:16.533Z</time></trkpt><trkpt lat="42.3893865" lon="-8.5906025"><ele>451.00000000000006</ele><time>2026-05-02T09:35:17.533Z</time></trkpt><trkpt lat="42.389446" lon="-8.5906661"><ele>451.0</ele><time>2026-05-02T09:35:18.538Z</time></trkpt><trkpt lat="42.3895111" lon="-8.5907738"><ele>451.0</ele><time>2026-05-02T09:35:20.531Z</time></trkpt><trkpt lat="42.3895594" lon="-8.5908312"><ele>451.0</ele><time>2026-05-02T09:35:23.537Z</time></trkpt><trkpt lat="42.389537" lon="-8.5907172"><ele>451.00000000000006</ele><time>2026-05-02T09:35:26.538Z</time></trkpt><trkpt lat="42.3895001" lon="-8.5906264"><ele>451.0</ele><time>2026-05-02T09:35:27.533Z</time></trkpt><trkpt lat="42.3894351" lon="-8.5905266"><ele>451.0</ele><time>2026-05-02T09:35:28.531Z</time></trkpt><trkpt lat="42.3893731" lon="-8.5903928"><ele>451.0</ele><time>2026-05-02T09:35:29.545Z</time></trkpt><trkpt lat="42.3893113" lon="-8.5902458"><ele>451.0</ele><time>2026-05-02T09:35:30.536Z</time></trkpt><trkpt lat="42.3892567" lon="-8.5900936"><ele>451.0</ele><time>2026-05-02T09:35:31.535Z</time></trkpt><trkpt lat="42.3892139" lon="-8.5899531"><ele>452.75</ele><time>2026-05-02T09:35:32.534Z</time></trkpt><trkpt lat="42.3891897" lon="-8.589804"><ele>454.5</ele><time>2026-05-02T09:35:33.531Z</time></trkpt><trkpt lat="42.389175" lon="-8.5896524"><ele>456.25</ele><time>2026-05-02T09:35:34.531Z</time></trkpt><trkpt lat="42.3891683" lon="-8.5894885"><ele>458.0</ele><time>2026-05-02T09:35:35.53Z</time></trkpt><trkpt lat="42.389161" lon="-8.5893167"><ele>459.25</ele><time>2026-05-02T09:35:36.534Z</time></trkpt><trkpt lat="42.3891503" lon="-8.5891371"><ele>460.5</ele><time>2026-05-02T09:35:37.532Z</time></trkpt><trkpt lat="42.3891417" lon="-8.5889516"><ele>461.75</ele><time>2026-05-02T09:35:38.531Z</time></trkpt><trkpt lat="42.3891226" lon="-8.5887649"><ele>463.0</ele><time>2026-05-02T09:35:39.543Z</time></trkpt><trkpt lat="42.3891037" lon="-8.5885911"><ele>464.4</ele><time>2026-05-02T09:35:40.534Z</time></trkpt><trkpt lat="42.389083" lon="-8.5884372"><ele>465.79999999999995</ele><time>2026-05-02T09:35:41.53Z</time></trkpt><trkpt lat="42.3890677" lon="-8.5882901"><ele>467.2</ele><time>2026-05-02T09:35:42.535Z</time></trkpt><trkpt lat="42.3890601" lon="-8.5881444"><ele>468.6</ele><time>2026-05-02T09:35:43.53Z</time></trkpt><trkpt lat="42.3890535" lon="-8.5880042"><ele>470.0</ele><time>2026-05-02T09:35:44.533Z</time></trkpt><trkpt lat="42.3890471" lon="-8.5878641"><ele>471.8</ele><time>2026-05-02T09:35:45.535Z</time></trkpt><trkpt lat="42.3890353" lon="-8.5877354"><ele>473.6</ele><time>2026-05-02T09:35:46.53Z</time></trkpt><trkpt lat="42.3890245" lon="-8.5876032"><ele>475.4</ele><time>2026-05-02T09:35:47.535Z</time></trkpt><trkpt lat="42.3890156" lon="-8.58747"><ele>477.2</ele><time>2026-05-02T09:35:48.531Z</time></trkpt><trkpt lat="42.389004" lon="-8.5873458"><ele>479.0</ele><time>2026-05-02T09:35:49.537Z</time></trkpt><trkpt lat="42.3889933" lon="-8.5872382"><ele>478.99999999999994</ele><time>2026-05-02T09:35:50.53Z</time></trkpt><trkpt lat="42.3889808" lon="-8.5871294"><ele>479.0</ele><time>2026-05-02T09:35:51.532Z</time></trkpt><trkpt lat="42.3889697" lon="-8.5870156"><ele>479.0</ele><time>2026-05-02T09:35:52.534Z</time></trkpt><trkpt lat="42.3889576" lon="-8.5868976"><ele>479.0</ele><time>2026-05-02T09:35:53.534Z</time></trkpt><trkpt lat="42.3889371" lon="-8.5867813"><ele>478.99999999999994</ele><time>2026-05-02T09:35:54.53Z</time></trkpt><trkpt lat="42.3889217" lon="-8.5866795"><ele>479.0</ele><time>2026-05-02T09:35:55.537Z</time></trkpt><trkpt lat="42.3889022" lon="-8.5865904"><ele>478.79999999999995</ele><time>2026-05-02T09:35:56.535Z</time></trkpt><trkpt lat="42.3888694" lon="-8.5864404"><ele>478.59999999999997</ele><time>2026-05-02T09:35:58.537Z</time></trkpt><trkpt lat="42.3888351" lon="-8.5863147"><ele>478.4</ele><time>2026-05-02T09:36:00.538Z</time></trkpt><trkpt lat="42.3887892" lon="-8.5861893"><ele>478.2</ele><time>2026-05-02T09:36:02.531Z</time></trkpt><trkpt lat="42.3887375" lon="-8.5860475"><ele>478.0</ele><time>2026-05-02T09:36:04.536Z</time></trkpt><trkpt lat="42.3887064" lon="-8.58597"><ele>478.6666666666667</ele><time>2026-05-02T09:36:05.534Z</time></trkpt><trkpt lat="42.38865" lon="-8.5858168"><ele>479.33333333333337</ele><time>2026-05-02T09:36:07.542Z</time></trkpt><trkpt lat="42.388633" lon="-8.585727"><ele>480.0</ele><time>2026-05-02T09:36:08.53Z</time></trkpt><trkpt lat="42.3886215" lon="-8.5856204"><ele>480.66666666666663</ele><time>2026-05-02T09:36:09.531Z</time></trkpt><trkpt lat="42.3886147" lon="-8.5855084"><ele>481.3333333333333</ele><time>2026-05-02T09:36:10.535Z</time></trkpt><trkpt lat="42.388605" lon="-8.5853947"><ele>482.0</ele><time>2026-05-02T09:36:11.538Z</time></trkpt><trkpt lat="42.3885943" lon="-8.5852884"><ele>482.3333333333333</ele><time>2026-05-02T09:36:12.543Z</time></trkpt><trkpt lat="42.3885878" lon="-8.5851758"><ele>482.66666666666663</ele><time>2026-05-02T09:36:13.54Z</time></trkpt><trkpt lat="42.3885885" lon="-8.5850675"><ele>483.0</ele><time>2026-05-02T09:36:14.532Z</time></trkpt><trkpt lat="42.3885868" lon="-8.584961"><ele>483.33333333333337</ele><time>2026-05-02T09:36:15.532Z</time></trkpt><trkpt lat="42.3885777" lon="-8.5848543"><ele>483.6666666666667</ele><time>2026-05-02T09:36:16.529Z</time></trkpt><trkpt lat="42.3885708" lon="-8.5847486"><ele>484.0</ele><time>2026-05-02T09:36:17.533Z</time></trkpt><trkpt lat="42.3885732" lon="-8.5846437"><ele>484.00000000000006</ele><time>2026-05-02T09:36:18.542Z</time></trkpt><trkpt lat="42.3885805" lon="-8.5845394"><ele>484.0</ele><time>2026-05-02T09:36:19.536Z</time></trkpt><trkpt lat="42.3886009" lon="-8.5844346"><ele>484.0</ele><time>2026-05-02T09:36:20.532Z</time></trkpt><trkpt lat="42.3886287" lon="-8.584327"><ele>484.0</ele><time>2026-05-02T09:36:21.53Z</time></trkpt><trkpt lat="42.3886659" lon="-8.5842176"><ele>484.00000000000006</ele><time>2026-05-02T09:36:22.536Z</time></trkpt><trkpt lat="42.3887194" lon="-8.5841131"><ele>484.0</ele><time>2026-05-02T09:36:23.537Z</time></trkpt><trkpt lat="42.3887848" lon="-8.584005"><ele>486.6</ele><time>2026-05-02T09:36:24.533Z</time></trkpt><trkpt lat="42.3888567" lon="-8.5838887"><ele>489.2</ele><time>2026-05-02T09:36:25.536Z</time></trkpt><trkpt lat="42.3889319" lon="-8.5837721"><ele>491.80000000000007</ele><time>2026-05-02T09:36:26.534Z</time></trkpt><trkpt lat="42.3890028" lon="-8.5836519"><ele>494.40000000000003</ele><time>2026-05-02T09:36:27.536Z</time></trkpt><trkpt lat="42.3890692" lon="-8.5835399"><ele>497.0</ele><time>2026-05-02T09:36:28.533Z</time></trkpt><trkpt lat="42.3891341" lon="-8.5834293"><ele>496.99999999999994</ele><time>2026-05-02T09:36:29.534Z</time></trkpt><trkpt lat="42.389192" lon="-8.5833172"><ele>497.0</ele><time>2026-05-02T09:36:30.541Z</time></trkpt><trkpt lat="42.3892466" lon="-8.5832122"><ele>497.0</ele><time>2026-05-02T09:36:31.527Z</time></trkpt><trkpt lat="42.3893013" lon="-8.5831219"><ele>497.0</ele><time>2026-05-02T09:36:32.532Z</time></trkpt><trkpt lat="42.3893557" lon="-8.5830374"><ele>496.99999999999994</ele><time>2026-05-02T09:36:33.53Z</time></trkpt><trkpt lat="42.3894105" lon="-8.5829623"><ele>497.0</ele><time>2026-05-02T09:36:34.536Z</time></trkpt><trkpt lat="42.3894575" lon="-8.5829055"><ele>497.0</ele><time>2026-05-02T09:36:35.527Z</time></trkpt><trkpt lat="42.3894782" lon="-8.5828208"><ele>497.00000000000006</ele><time>2026-05-02T09:36:38.532Z</time></trkpt><trkpt lat="42.3893993" lon="-8.5828104"><ele>497.00000000000006</ele><time>2026-05-02T09:36:40.538Z</time></trkpt><trkpt lat="42.3892922" lon="-8.5828408"><ele>497.0</ele><time>2026-05-02T09:36:42.533Z</time></trkpt><trkpt lat="42.3891634" lon="-8.5828839"><ele>497.0</ele><time>2026-05-02T09:36:44.532Z</time></trkpt><trkpt lat="42.3891015" lon="-8.5829262"><ele>497.0</ele><time>2026-05-02T09:36:45.531Z</time></trkpt><trkpt lat="42.3890424" lon="-8.582969"><ele>497.0</ele><time>2026-05-02T09:36:46.539Z</time></trkpt><trkpt lat="42.3889875" lon="-8.5830245"><ele>497.0</ele><time>2026-05-02T09:36:47.529Z</time></trkpt><trkpt lat="42.3889329" lon="-8.583088"><ele>497.0</ele><time>2026-05-02T09:36:48.534Z</time></trkpt><trkpt lat="42.3888806" lon="-8.5831569"><ele>497.0</ele><time>2026-05-02T09:36:49.542Z</time></trkpt><trkpt lat="42.3888328" lon="-8.5832263"><ele>497.0</ele><time>2026-05-02T09:36:50.527Z</time></trkpt><trkpt lat="42.3887742" lon="-8.5833004"><ele>497.0</ele><time>2026-05-02T09:36:51.532Z</time></trkpt><trkpt lat="42.3887192" lon="-8.5833629"><ele>494.8</ele><time>2026-05-02T09:36:52.532Z</time></trkpt><trkpt lat="42.3886213" lon="-8.58342"><ele>492.6</ele><time>2026-05-02T09:36:54.533Z</time></trkpt><trkpt lat="42.3885309" lon="-8.583372"><ele>490.40000000000003</ele><time>2026-05-02T09:36:56.531Z</time></trkpt><trkpt lat="42.3884485" lon="-8.5832761"><ele>488.20000000000005</ele><time>2026-05-02T09:36:58.533Z</time></trkpt><trkpt lat="42.3883592" lon="-8.5831762"><ele>486.0</ele><time>2026-05-02T09:37:00.53Z</time></trkpt><trkpt lat="42.3883049" lon="-8.5831208"><ele>486.0</ele><time>2026-05-02T09:37:01.538Z</time></trkpt><trkpt lat="42.3882474" lon="-8.5830753"><ele>486.0</ele><time>2026-05-02T09:37:02.537Z</time></trkpt><trkpt lat="42.3881911" lon="-8.5830342"><ele>486.0</ele><time>2026-05-02T09:37:03.532Z</time></trkpt><trkpt lat="42.3881255" lon="-8.5829881"><ele>486.0</ele><time>2026-05-02T09:37:04.529Z</time></trkpt><trkpt lat="42.3880631" lon="-8.5829368"><ele>486.0</ele><time>2026-05-02T09:37:05.534Z</time></trkpt><trkpt lat="42.3880051" lon="-8.5828928"><ele>486.0</ele><time>2026-05-02T09:37:06.537Z</time></trkpt><trkpt lat="42.3878916" lon="-8.5828215"><ele>485.1428571428571</ele><time>2026-05-02T09:37:08.53Z</time></trkpt><trkpt lat="42.3878344" lon="-8.5827793"><ele>484.28571428571433</ele><time>2026-05-02T09:37:09.538Z</time></trkpt><trkpt lat="42.3877764" lon="-8.5827234"><ele>483.42857142857144</ele><time>2026-05-02T09:37:10.533Z</time></trkpt><trkpt lat="42.3877103" lon="-8.582658"><ele>482.57142857142856</ele><time>2026-05-02T09:37:11.533Z</time></trkpt><trkpt lat="42.3876487" lon="-8.5825867"><ele>481.71428571428567</ele><time>2026-05-02T09:37:12.534Z</time></trkpt><trkpt lat="42.3875996" lon="-8.582507"><ele>480.8571428571429</ele><time>2026-05-02T09:37:13.532Z</time></trkpt><trkpt lat="42.3875767" lon="-8.5824186"><ele>480.0</ele><time>2026-05-02T09:37:14.543Z</time></trkpt><trkpt lat="42.3875396" lon="-8.5822545"><ele>480.0</ele><time>2026-05-02T09:37:16.529Z</time></trkpt><trkpt lat="42.3875063" lon="-8.5821682"><ele>480.0</ele><time>2026-05-02T09:37:17.531Z</time></trkpt><trkpt lat="42.3874703" lon="-8.5820937"><ele>480.0</ele><time>2026-05-02T09:37:18.531Z</time></trkpt><trkpt lat="42.387392" lon="-8.5819673"><ele>480.0</ele><time>2026-05-02T09:37:20.534Z</time></trkpt><trkpt lat="42.3873129" lon="-8.5818625"><ele>480.0</ele><time>2026-05-02T09:37:22.528Z</time></trkpt><trkpt lat="42.3872639" lon="-8.581778"><ele>481.0</ele><time>2026-05-02T09:37:25.531Z</time></trkpt><trkpt lat="42.3872726" lon="-8.5816904"><ele>482.0</ele><time>2026-05-02T09:37:28.532Z</time></trkpt><trkpt lat="42.3872967" lon="-8.58157"><ele>483.0</ele><time>2026-05-02T09:37:31.533Z</time></trkpt><trkpt lat="42.3873435" lon="-8.5814845"><ele>484.0</ele><time>2026-05-02T09:37:33.538Z</time></trkpt><trkpt lat="42.3874026" lon="-8.5814248"><ele>485.0</ele><time>2026-05-02T09:37:35.53Z</time></trkpt><trkpt lat="42.3874764" lon="-8.5814"><ele>486.0</ele><time>2026-05-02T09:37:37.534Z</time></trkpt><trkpt lat="42.3875715" lon="-8.5813792"><ele>486.0</ele><time>2026-05-02T09:37:39.533Z</time></trkpt><trkpt lat="42.3876836" lon="-8.58138"><ele>486.0</ele><time>2026-05-02T09:37:41.534Z</time></trkpt><trkpt lat="42.3877815" lon="-8.5813744"><ele>486.0</ele><time>2026-05-02T09:37:43.53Z</time></trkpt><trkpt lat="42.3878602" lon="-8.5813588"><ele>486.0</ele><time>2026-05-02T09:37:45.532Z</time></trkpt><trkpt lat="42.3879277" lon="-8.5813723"><ele>486.0</ele><time>2026-05-02T09:37:48.534Z</time></trkpt><trkpt lat="42.3880009" lon="-8.5813147"><ele>486.0</ele><time>2026-05-02T09:38:04.531Z</time></trkpt><trkpt lat="42.3880587" lon="-8.581238"><ele>489.6666666666667</ele><time>2026-05-02T09:38:08.532Z</time></trkpt><trkpt lat="42.3881229" lon="-8.5811859"><ele>493.33333333333337</ele><time>2026-05-02T09:38:11.531Z</time></trkpt><trkpt lat="42.3881933" lon="-8.581142"><ele>497.0</ele><time>2026-05-02T09:38:15.531Z</time></trkpt><trkpt lat="42.3882523" lon="-8.5810987"><ele>500.6666666666667</ele><time>2026-05-02T09:38:19.534Z</time></trkpt><trkpt lat="42.3883294" lon="-8.5811073"><ele>504.33333333333337</ele><time>2026-05-02T09:38:25.535Z</time></trkpt><trkpt lat="42.3883904" lon="-8.5810828"><ele>508.0</ele><time>2026-05-02T09:38:28.539Z</time></trkpt><trkpt lat="42.3884807" lon="-8.5810727"><ele>508.33333333333337</ele><time>2026-05-02T09:38:31.536Z</time></trkpt><trkpt lat="42.3885553" lon="-8.5811336"><ele>508.6666666666667</ele><time>2026-05-02T09:38:34.545Z</time></trkpt><trkpt lat="42.3886147" lon="-8.581163"><ele>509.0</ele><time>2026-05-02T09:38:39.533Z</time></trkpt><trkpt lat="42.3886974" lon="-8.581126"><ele>509.33333333333337</ele><time>2026-05-02T09:40:57.529Z</time></trkpt><trkpt lat="42.3887853" lon="-8.581125"><ele>509.6666666666667</ele><time>2026-05-02T09:41:00.546Z</time></trkpt><trkpt lat="42.3888664" lon="-8.5810901"><ele>510.0</ele><time>2026-05-02T09:41:03.526Z</time></trkpt><trkpt lat="42.3889267" lon="-8.5810608"><ele>510.0</ele><time>2026-05-02T09:41:05.536Z</time></trkpt><trkpt lat="42.388996" lon="-8.5810468"><ele>510.0</ele><time>2026-05-02T09:41:07.524Z</time></trkpt><trkpt lat="42.3890838" lon="-8.5810373"><ele>510.0</ele><time>2026-05-02T09:41:10.528Z</time></trkpt><trkpt lat="42.3891535" lon="-8.581014"><ele>510.0</ele><time>2026-05-02T09:41:12.532Z</time></trkpt><trkpt lat="42.3892311" lon="-8.5810139"><ele>510.0</ele><time>2026-05-02T09:41:14.533Z</time></trkpt><trkpt lat="42.389305" lon="-8.5810284"><ele>510.0</ele><time>2026-05-02T09:41:16.53Z</time></trkpt><trkpt lat="42.3893745" lon="-8.581038"><ele>510.0</ele><time>2026-05-02T09:41:18.526Z</time></trkpt><trkpt lat="42.3894438" lon="-8.5810273"><ele>510.00000000000006</ele><time>2026-05-02T09:41:20.535Z</time></trkpt><trkpt lat="42.3895164" lon="-8.5810359"><ele>510.0</ele><time>2026-05-02T09:41:22.532Z</time></trkpt><trkpt lat="42.3895857" lon="-8.5810517"><ele>510.0</ele><time>2026-05-02T09:41:24.533Z</time></trkpt><trkpt lat="42.3896491" lon="-8.5810765"><ele>510.00000000000006</ele><time>2026-05-02T09:41:26.53Z</time></trkpt><trkpt lat="42.3897132" lon="-8.5811155"><ele>510.0</ele><time>2026-05-02T09:41:28.533Z</time></trkpt><trkpt lat="42.3897871" lon="-8.581171"><ele>510.0</ele><time>2026-05-02T09:41:31.528Z</time></trkpt><trkpt lat="42.3898793" lon="-8.5811671"><ele>509.1666666666667</ele><time>2026-05-02T09:41:34.532Z</time></trkpt><trkpt lat="42.3899472" lon="-8.5811673"><ele>508.33333333333337</ele><time>2026-05-02T09:41:36.525Z</time></trkpt><trkpt lat="42.3900206" lon="-8.5811393"><ele>507.5</ele><time>2026-05-02T09:41:39.535Z</time></trkpt><trkpt lat="42.3901157" lon="-8.5811016"><ele>506.6666666666667</ele><time>2026-05-02T09:41:42.536Z</time></trkpt><trkpt lat="42.3901923" lon="-8.5810735"><ele>505.83333333333337</ele><time>2026-05-02T09:41:44.527Z</time></trkpt><trkpt lat="42.3902664" lon="-8.581052"><ele>505.0</ele><time>2026-05-02T09:41:46.534Z</time></trkpt><trkpt lat="42.3903462" lon="-8.5810615"><ele>505.00000000000006</ele><time>2026-05-02T09:41:48.537Z</time></trkpt><trkpt lat="42.3904119" lon="-8.5810735"><ele>505.0</ele><time>2026-05-02T09:41:50.531Z</time></trkpt><trkpt lat="42.3905068" lon="-8.5810683"><ele>505.0</ele><time>2026-05-02T09:41:53.53Z</time></trkpt><trkpt lat="42.39057" lon="-8.5810397"><ele>505.0</ele><time>2026-05-02T09:41:55.539Z</time></trkpt><trkpt lat="42.3906419" lon="-8.5809854"><ele>505.00000000000006</ele><time>2026-05-02T09:41:58.527Z</time></trkpt><trkpt lat="42.3907096" lon="-8.580992"><ele>505.0</ele><time>2026-05-02T09:43:04.537Z</time></trkpt><trkpt lat="42.3907621" lon="-8.581058"><ele>503.6666666666667</ele><time>2026-05-02T09:43:07.538Z</time></trkpt><trkpt lat="42.3907546" lon="-8.5811762"><ele>502.33333333333337</ele><time>2026-05-02T09:43:10.529Z</time></trkpt><trkpt lat="42.3907578" lon="-8.5812777"><ele>501.0</ele><time>2026-05-02T09:43:12.529Z</time></trkpt><trkpt lat="42.3907778" lon="-8.5813994"><ele>499.66666666666663</ele><time>2026-05-02T09:43:14.528Z</time></trkpt><trkpt lat="42.3907964" lon="-8.5815389"><ele>498.3333333333333</ele><time>2026-05-02T09:43:16.526Z</time></trkpt><trkpt lat="42.3908039" lon="-8.5816495"><ele>497.0</ele><time>2026-05-02T09:43:18.526Z</time></trkpt><trkpt lat="42.39081" lon="-8.5817552"><ele>496.8333333333333</ele><time>2026-05-02T09:43:20.529Z</time></trkpt><trkpt lat="42.3908186" lon="-8.5818439"><ele>496.66666666666663</ele><time>2026-05-02T09:43:22.525Z</time></trkpt><trkpt lat="42.3908149" lon="-8.581947"><ele>496.5</ele><time>2026-05-02T09:43:24.527Z</time></trkpt><trkpt lat="42.3908132" lon="-8.5820803"><ele>496.33333333333337</ele><time>2026-05-02T09:43:26.532Z</time></trkpt><trkpt lat="42.3908154" lon="-8.5821837"><ele>496.1666666666667</ele><time>2026-05-02T09:43:28.531Z</time></trkpt><trkpt lat="42.3908207" lon="-8.5822921"><ele>496.0</ele><time>2026-05-02T09:43:31.536Z</time></trkpt><trkpt lat="42.3908189" lon="-8.5824048"><ele>496.00000000000006</ele><time>2026-05-02T09:43:33.526Z</time></trkpt><trkpt lat="42.3908239" lon="-8.5825277"><ele>496.0</ele><time>2026-05-02T09:43:35.535Z</time></trkpt><trkpt lat="42.3908281" lon="-8.5826605"><ele>496.0</ele><time>2026-05-02T09:43:37.537Z</time></trkpt><trkpt lat="42.390836" lon="-8.5827768"><ele>496.0</ele><time>2026-05-02T09:43:39.53Z</time></trkpt><trkpt lat="42.39086" lon="-8.582869"><ele>496.00000000000006</ele><time>2026-05-02T09:43:41.532Z</time></trkpt><trkpt lat="42.3908783" lon="-8.5829532"><ele>496.0</ele><time>2026-05-02T09:43:44.531Z</time></trkpt><trkpt lat="42.3909125" lon="-8.5830389"><ele>496.0</ele><time>2026-05-02T09:44:43.526Z</time></trkpt><trkpt lat="42.3909545" lon="-8.5831317"><ele>496.0</ele><time>2026-05-02T09:44:45.537Z</time></trkpt><trkpt lat="42.3909753" lon="-8.5832239"><ele>496.0</ele><time>2026-05-02T09:44:47.531Z</time></trkpt><trkpt lat="42.3910287" lon="-8.5833525"><ele>496.0</ele><time>2026-05-02T09:44:49.525Z</time></trkpt><trkpt lat="42.3911189" lon="-8.5834386"><ele>496.0</ele><time>2026-05-02T09:44:51.535Z</time></trkpt><trkpt lat="42.3911973" lon="-8.583498"><ele>496.0</ele><time>2026-05-02T09:44:53.533Z</time></trkpt><trkpt lat="42.3912705" lon="-8.583528"><ele>496.0</ele><time>2026-05-02T09:44:55.531Z</time></trkpt><trkpt lat="42.3913542" lon="-8.5835622"><ele>496.0</ele><time>2026-05-02T09:44:57.528Z</time></trkpt><trkpt lat="42.391459" lon="-8.5835882"><ele>496.0</ele><time>2026-05-02T09:44:59.528Z</time></trkpt><trkpt lat="42.3915735" lon="-8.5836334"><ele>496.0</ele><time>2026-05-02T09:45:01.531Z</time></trkpt><trkpt lat="42.3916374" lon="-8.583675"><ele>493.4</ele><time>2026-05-02T09:45:02.532Z</time></trkpt><trkpt lat="42.3917012" lon="-8.5837206"><ele>490.8</ele><time>2026-05-02T09:45:03.53Z</time></trkpt><trkpt lat="42.3917685" lon="-8.5837655"><ele>488.19999999999993</ele><time>2026-05-02T09:45:04.528Z</time></trkpt><trkpt lat="42.391831" lon="-8.5838156"><ele>485.59999999999997</ele><time>2026-05-02T09:45:05.53Z</time></trkpt><trkpt lat="42.3919435" lon="-8.5838658"><ele>483.0</ele><time>2026-05-02T09:45:07.535Z</time></trkpt><trkpt lat="42.3920628" lon="-8.5838968"><ele>483.0</ele><time>2026-05-02T09:45:09.53Z</time></trkpt><trkpt lat="42.3921244" lon="-8.5839291"><ele>483.0</ele><time>2026-05-02T09:45:10.542Z</time></trkpt><trkpt lat="42.392187" lon="-8.5839569"><ele>483.0</ele><time>2026-05-02T09:45:11.526Z</time></trkpt><trkpt lat="42.3922517" lon="-8.5839792"><ele>483.0</ele><time>2026-05-02T09:45:12.53Z</time></trkpt><trkpt lat="42.3923639" lon="-8.5840123"><ele>483.0</ele><time>2026-05-02T09:45:14.533Z</time></trkpt><trkpt lat="42.3924668" lon="-8.5840286"><ele>483.0</ele><time>2026-05-02T09:45:16.53Z</time></trkpt><trkpt lat="42.3925531" lon="-8.5840014"><ele>479.1666666666667</ele><time>2026-05-02T09:45:18.532Z</time></trkpt><trkpt lat="42.392657" lon="-8.5839527"><ele>475.33333333333337</ele><time>2026-05-02T09:45:20.525Z</time></trkpt><trkpt lat="42.3927195" lon="-8.5839134"><ele>471.5</ele><time>2026-05-02T09:45:21.531Z</time></trkpt><trkpt lat="42.3927863" lon="-8.5838779"><ele>467.6666666666667</ele><time>2026-05-02T09:45:22.528Z</time></trkpt><trkpt lat="42.3928632" lon="-8.5838391"><ele>463.83333333333337</ele><time>2026-05-02T09:45:23.527Z</time></trkpt><trkpt lat="42.392947" lon="-8.5838102"><ele>460.0</ele><time>2026-05-02T09:45:24.534Z</time></trkpt><trkpt lat="42.3930307" lon="-8.5837988"><ele>455.4</ele><time>2026-05-02T09:45:25.534Z</time></trkpt><trkpt lat="42.3931151" lon="-8.5837979"><ele>450.8</ele><time>2026-05-02T09:45:26.538Z</time></trkpt><trkpt lat="42.3932032" lon="-8.5838178"><ele>446.20000000000005</ele><time>2026-05-02T09:45:27.537Z</time></trkpt><trkpt lat="42.3932893" lon="-8.5838488"><ele>441.6</ele><time>2026-05-02T09:45:28.535Z</time></trkpt><trkpt lat="42.3933733" lon="-8.5838885"><ele>437.0</ele><time>2026-05-02T09:45:29.527Z</time></trkpt><trkpt lat="42.3934653" lon="-8.5839377"><ele>437.0</ele><time>2026-05-02T09:45:30.542Z</time></trkpt><trkpt lat="42.3935555" lon="-8.5839869"><ele>437.00000000000006</ele><time>2026-05-02T09:45:31.531Z</time></trkpt><trkpt lat="42.3936493" lon="-8.5840238"><ele>437.00000000000006</ele><time>2026-05-02T09:45:32.527Z</time></trkpt><trkpt lat="42.3937454" lon="-8.5840524"><ele>437.0</ele><time>2026-05-02T09:45:33.527Z</time></trkpt><trkpt lat="42.3938397" lon="-8.5840833"><ele>437.0</ele><time>2026-05-02T09:45:34.53Z</time></trkpt><trkpt lat="42.3939354" lon="-8.5841178"><ele>434.8333333333333</ele><time>2026-05-02T09:45:35.527Z</time></trkpt><trkpt lat="42.3940312" lon="-8.5841508"><ele>432.66666666666663</ele><time>2026-05-02T09:45:36.533Z</time></trkpt><trkpt lat="42.3941216" lon="-8.5841741"><ele>430.5</ele><time>2026-05-02T09:45:37.531Z</time></trkpt><trkpt lat="42.3942025" lon="-8.5841829"><ele>428.33333333333337</ele><time>2026-05-02T09:45:38.529Z</time></trkpt><trkpt lat="42.3942684" lon="-8.5842003"><ele>426.1666666666667</ele><time>2026-05-02T09:45:39.532Z</time></trkpt><trkpt lat="42.3943395" lon="-8.5842183"><ele>424.0</ele><time>2026-05-02T09:45:40.534Z</time></trkpt><trkpt lat="42.3944053" lon="-8.5842156"><ele>424.00000000000006</ele><time>2026-05-02T09:45:41.526Z</time></trkpt><trkpt lat="42.394467" lon="-8.5841955"><ele>424.0</ele><time>2026-05-02T09:45:45.535Z</time></trkpt><trkpt lat="42.394549" lon="-8.5841732"><ele>424.0</ele><time>2026-05-02T09:45:50.528Z</time></trkpt><trkpt lat="42.3946319" lon="-8.5842244"><ele>424.0</ele><time>2026-05-02T09:45:53.536Z</time></trkpt><trkpt lat="42.3946519" lon="-8.5843207"><ele>424.00000000000006</ele><time>2026-05-02T09:45:58.527Z</time></trkpt><trkpt lat="42.3946388" lon="-8.5844168"><ele>424.0</ele><time>2026-05-02T09:46:06.528Z</time></trkpt><trkpt lat="42.3946445" lon="-8.5845232"><ele>423.50000000000006</ele><time>2026-05-02T09:46:09.527Z</time></trkpt><trkpt lat="42.3946987" lon="-8.5845992"><ele>423.0</ele><time>2026-05-02T09:46:14.53Z</time></trkpt><trkpt lat="42.3947912" lon="-8.5846569"><ele>422.5</ele><time>2026-05-02T09:46:17.531Z</time></trkpt><trkpt lat="42.394859" lon="-8.5846902"><ele>422.0</ele><time>2026-05-02T09:46:19.533Z</time></trkpt><trkpt lat="42.3949318" lon="-8.5846997"><ele>421.50000000000006</ele><time>2026-05-02T09:46:21.526Z</time></trkpt><trkpt lat="42.395002" lon="-8.584702"><ele>421.0</ele><time>2026-05-02T09:46:23.526Z</time></trkpt><trkpt lat="42.3950732" lon="-8.5846883"><ele>421.00000000000006</ele><time>2026-05-02T09:46:31.527Z</time></trkpt><trkpt lat="42.3951468" lon="-8.5846541"><ele>421.0</ele><time>2026-05-02T09:46:33.539Z</time></trkpt><trkpt lat="42.3952078" lon="-8.5846226"><ele>421.0</ele><time>2026-05-02T09:46:35.529Z</time></trkpt><trkpt lat="42.3952721" lon="-8.5845464"><ele>421.0</ele><time>2026-05-02T09:46:38.528Z</time></trkpt><trkpt lat="42.3953447" lon="-8.5844986"><ele>421.00000000000006</ele><time>2026-05-02T09:46:41.53Z</time></trkpt><trkpt lat="42.3954064" lon="-8.5844783"><ele>421.0</ele><time>2026-05-02T09:46:43.53Z</time></trkpt><trkpt lat="42.3954847" lon="-8.5844666"><ele>414.33333333333337</ele><time>2026-05-02T09:46:46.533Z</time></trkpt><trkpt lat="42.3955521" lon="-8.5844927"><ele>407.6666666666667</ele><time>2026-05-02T09:46:49.523Z</time></trkpt><trkpt lat="42.3955909" lon="-8.5843869"><ele>401.0</ele><time>2026-05-02T09:46:54.526Z</time></trkpt><trkpt lat="42.3955723" lon="-8.5842837"><ele>394.33333333333337</ele><time>2026-05-02T09:46:57.522Z</time></trkpt><trkpt lat="42.3955727" lon="-8.5841797"><ele>387.6666666666667</ele><time>2026-05-02T09:47:00.528Z</time></trkpt><trkpt lat="42.3955877" lon="-8.584076"><ele>381.0</ele><time>2026-05-02T09:47:03.526Z</time></trkpt><trkpt lat="42.3956152" lon="-8.5839701"><ele>381.0</ele><time>2026-05-02T09:47:06.527Z</time></trkpt><trkpt lat="42.3956572" lon="-8.5838661"><ele>381.0</ele><time>2026-05-02T09:47:09.53Z</time></trkpt><trkpt lat="42.395706" lon="-8.5837904"><ele>381.0</ele><time>2026-05-02T09:47:12.524Z</time></trkpt><trkpt lat="42.3956273" lon="-8.5837234"><ele>381.0</ele><time>2026-05-02T09:47:16.535Z</time></trkpt><trkpt lat="42.3955689" lon="-8.5836359"><ele>381.0</ele><time>2026-05-02T09:47:18.53Z</time></trkpt><trkpt lat="42.3955666" lon="-8.5835428"><ele>381.0</ele><time>2026-05-02T09:47:19.526Z</time></trkpt><trkpt lat="42.3955876" lon="-8.5834434"><ele>380.4</ele><time>2026-05-02T09:47:20.528Z</time></trkpt><trkpt lat="42.3956334" lon="-8.5833359"><ele>379.8</ele><time>2026-05-02T09:47:21.528Z</time></trkpt><trkpt lat="42.3956967" lon="-8.5832171"><ele>379.2</ele><time>2026-05-02T09:47:22.531Z</time></trkpt><trkpt lat="42.3957779" lon="-8.5831121"><ele>378.59999999999997</ele><time>2026-05-02T09:47:23.531Z</time></trkpt><trkpt lat="42.39586" lon="-8.5830333"><ele>378.0</ele><time>2026-05-02T09:47:24.529Z</time></trkpt><trkpt lat="42.3959379" lon="-8.5829673"><ele>378.0</ele><time>2026-05-02T09:47:25.535Z</time></trkpt><trkpt lat="42.3960186" lon="-8.582918"><ele>378.0</ele><time>2026-05-02T09:47:26.534Z</time></trkpt><trkpt lat="42.3961011" lon="-8.5828704"><ele>378.0</ele><time>2026-05-02T09:47:27.526Z</time></trkpt><trkpt lat="42.3961853" lon="-8.5828116"><ele>378.0</ele><time>2026-05-02T09:47:28.528Z</time></trkpt><trkpt lat="42.3962716" lon="-8.5827285"><ele>378.0</ele><time>2026-05-02T09:47:29.527Z</time></trkpt><trkpt lat="42.3963461" lon="-8.5826381"><ele>378.2</ele><time>2026-05-02T09:47:30.527Z</time></trkpt><trkpt lat="42.3964123" lon="-8.5825472"><ele>378.4</ele><time>2026-05-02T09:47:31.532Z</time></trkpt><trkpt lat="42.3964678" lon="-8.5824543"><ele>378.59999999999997</ele><time>2026-05-02T09:47:32.531Z</time></trkpt><trkpt lat="42.3965175" lon="-8.5823527"><ele>378.79999999999995</ele><time>2026-05-02T09:47:33.527Z</time></trkpt><trkpt lat="42.3965517" lon="-8.582236"><ele>379.0</ele><time>2026-05-02T09:47:34.527Z</time></trkpt><trkpt lat="42.3965713" lon="-8.5821216"><ele>379.0</ele><time>2026-05-02T09:47:35.534Z</time></trkpt><trkpt lat="42.3965848" lon="-8.582015"><ele>379.0</ele><time>2026-05-02T09:47:36.526Z</time></trkpt><trkpt lat="42.3965884" lon="-8.5819033"><ele>379.0</ele><time>2026-05-02T09:47:37.529Z</time></trkpt><trkpt lat="42.3965694" lon="-8.5817935"><ele>379.0</ele><time>2026-05-02T09:47:38.534Z</time></trkpt><trkpt lat="42.3965638" lon="-8.5816832"><ele>379.0</ele><time>2026-05-02T09:47:39.53Z</time></trkpt><trkpt lat="42.396581" lon="-8.5815725"><ele>379.0</ele><time>2026-05-02T09:47:40.526Z</time></trkpt><trkpt lat="42.396608" lon="-8.5814576"><ele>379.0</ele><time>2026-05-02T09:47:41.527Z</time></trkpt><trkpt lat="42.3966307" lon="-8.5813393"><ele>379.0</ele><time>2026-05-02T09:47:42.531Z</time></trkpt><trkpt lat="42.3966544" lon="-8.5812211"><ele>379.0</ele><time>2026-05-02T09:47:43.529Z</time></trkpt><trkpt lat="42.3966698" lon="-8.5810993"><ele>379.0</ele><time>2026-05-02T09:47:44.528Z</time></trkpt><trkpt lat="42.3966784" lon="-8.5809813"><ele>379.0</ele><time>2026-05-02T09:47:45.527Z</time></trkpt><trkpt lat="42.3966895" lon="-8.5808804"><ele>379.0</ele><time>2026-05-02T09:47:46.527Z</time></trkpt><trkpt lat="42.3967102" lon="-8.5807362"><ele>378.8333333333333</ele><time>2026-05-02T09:47:48.525Z</time></trkpt><trkpt lat="42.3967347" lon="-8.5806164"><ele>378.66666666666663</ele><time>2026-05-02T09:47:50.533Z</time></trkpt><trkpt lat="42.3967369" lon="-8.5805044"><ele>378.5</ele><time>2026-05-02T09:47:52.526Z</time></trkpt><trkpt lat="42.3967345" lon="-8.5804009"><ele>378.3333333333333</ele><time>2026-05-02T09:47:54.532Z</time></trkpt><trkpt lat="42.3967748" lon="-8.5803236"><ele>378.1666666666667</ele><time>2026-05-02T09:47:56.527Z</time></trkpt><trkpt lat="42.3968462" lon="-8.5802841"><ele>378.0</ele><time>2026-05-02T09:47:58.529Z</time></trkpt><trkpt lat="42.3969152" lon="-8.5802746"><ele>378.0</ele><time>2026-05-02T09:48:00.531Z</time></trkpt><trkpt lat="42.3969756" lon="-8.5802101"><ele>378.0</ele><time>2026-05-02T09:48:03.523Z</time></trkpt><trkpt lat="42.396935" lon="-8.5803019"><ele>378.0</ele><time>2026-05-02T09:48:33.532Z</time></trkpt><trkpt lat="42.3968702" lon="-8.5803331"><ele>378.0</ele><time>2026-05-02T09:48:35.526Z</time></trkpt><trkpt lat="42.3967994" lon="-8.5803637"><ele>378.0</ele><time>2026-05-02T09:48:37.528Z</time></trkpt><trkpt lat="42.3967289" lon="-8.5804185"><ele>378.0</ele><time>2026-05-02T09:48:39.539Z</time></trkpt><trkpt lat="42.3966568" lon="-8.580395"><ele>378.0</ele><time>2026-05-02T09:48:41.535Z</time></trkpt><trkpt lat="42.3965921" lon="-8.5802888"><ele>378.0</ele><time>2026-05-02T09:48:43.533Z</time></trkpt><trkpt lat="42.3965367" lon="-8.5802086"><ele>378.0</ele><time>2026-05-02T09:48:45.527Z</time></trkpt><trkpt lat="42.3964798" lon="-8.5801672"><ele>378.0</ele><time>2026-05-02T09:48:47.529Z</time></trkpt><trkpt lat="42.3964066" lon="-8.5801439"><ele>378.0</ele><time>2026-05-02T09:48:58.525Z</time></trkpt><trkpt lat="42.3963533" lon="-8.5800905"><ele>378.0</ele><time>2026-05-02T09:49:01.526Z</time></trkpt><trkpt lat="42.3962961" lon="-8.5800227"><ele>381.0</ele><time>2026-05-02T09:49:04.531Z</time></trkpt><trkpt lat="42.3962344" lon="-8.5799568"><ele>384.0</ele><time>2026-05-02T09:49:07.528Z</time></trkpt><trkpt lat="42.3961847" lon="-8.5798722"><ele>387.0</ele><time>2026-05-02T09:49:10.543Z</time></trkpt><trkpt lat="42.3961311" lon="-8.5798231"><ele>390.0</ele><time>2026-05-02T09:49:12.523Z</time></trkpt><trkpt lat="42.3960744" lon="-8.5797588"><ele>393.0</ele><time>2026-05-02T09:49:15.526Z</time></trkpt><trkpt lat="42.3960167" lon="-8.5796782"><ele>396.0</ele><time>2026-05-02T09:49:18.524Z</time></trkpt><trkpt lat="42.3959676" lon="-8.5795986"><ele>396.0</ele><time>2026-05-02T09:49:23.529Z</time></trkpt><trkpt lat="42.3959161" lon="-8.5795413"><ele>396.0</ele><time>2026-05-02T09:49:26.528Z</time></trkpt><trkpt lat="42.3958529" lon="-8.5794816"><ele>396.0</ele><time>2026-05-02T09:49:31.54Z</time></trkpt><trkpt lat="42.3957841" lon="-8.5794156"><ele>396.0</ele><time>2026-05-02T09:49:34.529Z</time></trkpt><trkpt lat="42.3958191" lon="-8.5793301"><ele>396.0</ele><time>2026-05-02T09:51:42.527Z</time></trkpt><trkpt lat="42.3958741" lon="-8.5792801"><ele>396.0</ele><time>2026-05-02T09:51:46.526Z</time></trkpt><trkpt lat="42.395937" lon="-8.5792584"><ele>396.0</ele><time>2026-05-02T09:51:49.529Z</time></trkpt><trkpt lat="42.3960106" lon="-8.5792705"><ele>395.0</ele><time>2026-05-02T09:51:52.525Z</time></trkpt><trkpt lat="42.3960787" lon="-8.57928"><ele>394.0</ele><time>2026-05-02T09:51:55.524Z</time></trkpt><trkpt lat="42.3961417" lon="-8.5792959"><ele>393.0</ele><time>2026-05-02T09:51:57.526Z</time></trkpt><trkpt lat="42.3962236" lon="-8.5792574"><ele>392.0</ele><time>2026-05-02T09:52:00.526Z</time></trkpt><trkpt lat="42.396288" lon="-8.5792138"><ele>391.0</ele><time>2026-05-02T09:52:03.528Z</time></trkpt><trkpt lat="42.3963508" lon="-8.5791651"><ele>390.0</ele><time>2026-05-02T09:52:08.525Z</time></trkpt><trkpt lat="42.3964143" lon="-8.5791332"><ele>389.0</ele><time>2026-05-02T09:52:26.526Z</time></trkpt><trkpt lat="42.3963428" lon="-8.5791757"><ele>388.99999999999994</ele><time>2026-05-02T09:52:42.523Z</time></trkpt><trkpt lat="42.3962636" lon="-8.5792424"><ele>389.0</ele><time>2026-05-02T09:52:45.523Z</time></trkpt><trkpt lat="42.3961696" lon="-8.5792717"><ele>389.0</ele><time>2026-05-02T09:52:48.524Z</time></trkpt><trkpt lat="42.3960939" lon="-8.5793034"><ele>389.0</ele><time>2026-05-02T09:52:54.524Z</time></trkpt><trkpt lat="42.3960144" lon="-8.579296"><ele>388.99999999999994</ele><time>2026-05-02T09:52:56.523Z</time></trkpt><trkpt lat="42.3959333" lon="-8.5792609"><ele>389.0</ele><time>2026-05-02T09:52:58.534Z</time></trkpt><trkpt lat="42.3958606" lon="-8.5792162"><ele>389.0</ele><time>2026-05-02T09:53:00.526Z</time></trkpt><trkpt lat="42.3958038" lon="-8.5791717"><ele>389.0</ele><time>2026-05-02T09:53:02.529Z</time></trkpt><trkpt lat="42.3957546" lon="-8.5791107"><ele>389.0</ele><time>2026-05-02T09:53:22.538Z</time></trkpt><trkpt lat="42.3957929" lon="-8.5791906"><ele>389.0</ele><time>2026-05-02T09:53:43.53Z</time></trkpt><trkpt lat="42.3958652" lon="-8.5791836"><ele>389.0</ele><time>2026-05-02T09:54:35.53Z</time></trkpt><trkpt lat="42.3958867" lon="-8.5792691"><ele>389.0</ele><time>2026-05-02T09:54:43.522Z</time></trkpt><trkpt lat="42.3958514" lon="-8.5793399"><ele>389.0</ele><time>2026-05-02T09:54:48.533Z</time></trkpt><trkpt lat="42.3958898" lon="-8.5794317"><ele>389.0</ele><time>2026-05-02T09:54:54.521Z</time></trkpt><trkpt lat="42.395949" lon="-8.579503"><ele>389.0</ele><time>2026-05-02T09:55:16.525Z</time></trkpt><trkpt lat="42.3959854" lon="-8.5795878"><ele>389.0</ele><time>2026-05-02T09:55:19.525Z</time></trkpt><trkpt lat="42.3960363" lon="-8.5796568"><ele>389.0</ele><time>2026-05-02T09:55:24.529Z</time></trkpt><trkpt lat="42.3960954" lon="-8.5797019"><ele>389.0</ele><time>2026-05-02T09:55:28.526Z</time></trkpt><trkpt lat="42.3961483" lon="-8.5797829"><ele>389.0</ele><time>2026-05-02T09:55:32.523Z</time></trkpt><trkpt lat="42.3961992" lon="-8.57984"><ele>389.0</ele><time>2026-05-02T09:55:35.524Z</time></trkpt><trkpt lat="42.3962785" lon="-8.5799176"><ele>387.16666666666663</ele><time>2026-05-02T09:55:38.523Z</time></trkpt><trkpt lat="42.3963377" lon="-8.579993"><ele>385.3333333333333</ele><time>2026-05-02T09:55:40.525Z</time></trkpt><trkpt lat="42.3963834" lon="-8.580071"><ele>383.5</ele><time>2026-05-02T09:55:42.52Z</time></trkpt><trkpt lat="42.3964369" lon="-8.5801472"><ele>381.66666666666663</ele><time>2026-05-02T09:55:44.523Z</time></trkpt><trkpt lat="42.3965096" lon="-8.5802097"><ele>379.8333333333333</ele><time>2026-05-02T09:55:46.523Z</time></trkpt><trkpt lat="42.3965764" lon="-8.5802657"><ele>378.0</ele><time>2026-05-02T09:55:48.523Z</time></trkpt><trkpt lat="42.3966381" lon="-8.5803301"><ele>378.6666666666667</ele><time>2026-05-02T09:55:50.525Z</time></trkpt><trkpt lat="42.3966843" lon="-8.5804136"><ele>379.3333333333333</ele><time>2026-05-02T09:55:52.53Z</time></trkpt><trkpt lat="42.3967423" lon="-8.580476"><ele>380.0</ele><time>2026-05-02T09:55:54.524Z</time></trkpt><trkpt lat="42.3968222" lon="-8.5805237"><ele>380.66666666666663</ele><time>2026-05-02T09:55:56.524Z</time></trkpt><trkpt lat="42.3969089" lon="-8.5805873"><ele>381.3333333333333</ele><time>2026-05-02T09:55:58.524Z</time></trkpt><trkpt lat="42.3969888" lon="-8.5806551"><ele>382.0</ele><time>2026-05-02T09:56:00.528Z</time></trkpt><trkpt lat="42.3970447" lon="-8.5807232"><ele>382.0</ele><time>2026-05-02T09:56:02.522Z</time></trkpt><trkpt lat="42.3970722" lon="-8.5808416"><ele>382.0</ele><time>2026-05-02T09:56:04.524Z</time></trkpt><trkpt lat="42.3970982" lon="-8.5809977"><ele>382.0</ele><time>2026-05-02T09:56:06.523Z</time></trkpt><trkpt lat="42.3971117" lon="-8.5811417"><ele>382.0</ele><time>2026-05-02T09:56:08.531Z</time></trkpt><trkpt lat="42.3971091" lon="-8.5812742"><ele>382.0</ele><time>2026-05-02T09:56:10.523Z</time></trkpt><trkpt lat="42.3971024" lon="-8.5813975"><ele>381.5714285714286</ele><time>2026-05-02T09:56:12.524Z</time></trkpt><trkpt lat="42.3971049" lon="-8.5814897"><ele>381.1428571428571</ele><time>2026-05-02T09:56:14.52Z</time></trkpt><trkpt lat="42.3971088" lon="-8.581584"><ele>380.7142857142857</ele><time>2026-05-02T09:56:17.521Z</time></trkpt><trkpt lat="42.3971152" lon="-8.5816734"><ele>380.28571428571433</ele><time>2026-05-02T09:56:19.542Z</time></trkpt><trkpt lat="42.3971309" lon="-8.5817637"><ele>379.8571428571429</ele><time>2026-05-02T09:56:21.524Z</time></trkpt><trkpt lat="42.3971564" lon="-8.5818549"><ele>379.42857142857144</ele><time>2026-05-02T09:56:23.523Z</time></trkpt><trkpt lat="42.3971941" lon="-8.5819423"><ele>379.0</ele><time>2026-05-02T09:56:25.522Z</time></trkpt><trkpt lat="42.3972527" lon="-8.5820095"><ele>376.0</ele><time>2026-05-02T09:56:27.521Z</time></trkpt><trkpt lat="42.3973063" lon="-8.5820982"><ele>373.0</ele><time>2026-05-02T09:56:29.522Z</time></trkpt><trkpt lat="42.3973389" lon="-8.5821805"><ele>370.0</ele><time>2026-05-02T09:56:31.519Z</time></trkpt><trkpt lat="42.3973624" lon="-8.5822813"><ele>367.0</ele><time>2026-05-02T09:56:34.521Z</time></trkpt><trkpt lat="42.3973884" lon="-8.5823863"><ele>364.0</ele><time>2026-05-02T09:56:37.528Z</time></trkpt><trkpt lat="42.3974479" lon="-8.5824566"><ele>361.0</ele><time>2026-05-02T09:56:40.525Z</time></trkpt><trkpt lat="42.3975094" lon="-8.5825006"><ele>361.0</ele><time>2026-05-02T09:56:44.52Z</time></trkpt><trkpt lat="42.3975816" lon="-8.582537"><ele>361.0</ele><time>2026-05-02T09:56:47.523Z</time></trkpt><trkpt lat="42.3976428" lon="-8.5825933"><ele>361.0</ele><time>2026-05-02T09:56:51.523Z</time></trkpt><trkpt lat="42.3977155" lon="-8.5826082"><ele>361.0</ele><time>2026-05-02T09:56:54.52Z</time></trkpt><trkpt lat="42.3977887" lon="-8.5826157"><ele>361.0</ele><time>2026-05-02T09:56:57.522Z</time></trkpt><trkpt lat="42.3978527" lon="-8.5825895"><ele>361.0</ele><time>2026-05-02T09:57:00.52Z</time></trkpt><trkpt lat="42.3979138" lon="-8.5825486"><ele>361.0</ele><time>2026-05-02T09:57:02.529Z</time></trkpt><trkpt lat="42.3979908" lon="-8.5825471"><ele>359.0</ele><time>2026-05-02T09:57:05.522Z</time></trkpt><trkpt lat="42.3980591" lon="-8.5825474"><ele>357.0</ele><time>2026-05-02T09:57:07.526Z</time></trkpt><trkpt lat="42.3981315" lon="-8.5825321"><ele>355.0</ele><time>2026-05-02T09:57:09.521Z</time></trkpt><trkpt lat="42.3981973" lon="-8.582558"><ele>353.0</ele><time>2026-05-02T09:57:12.521Z</time></trkpt><trkpt lat="42.3982216" lon="-8.5826504"><ele>351.0</ele><time>2026-05-02T09:57:15.519Z</time></trkpt><trkpt lat="42.3982653" lon="-8.582735"><ele>349.0</ele><time>2026-05-02T09:57:17.517Z</time></trkpt><trkpt lat="42.3983139" lon="-8.5828118"><ele>347.0</ele><time>2026-05-02T09:57:19.525Z</time></trkpt><trkpt lat="42.3983661" lon="-8.5829047"><ele>346.8571428571429</ele><time>2026-05-02T09:57:21.521Z</time></trkpt><trkpt lat="42.3983878" lon="-8.5829972"><ele>346.71428571428567</ele><time>2026-05-02T09:57:23.525Z</time></trkpt><trkpt lat="42.3983869" lon="-8.5831047"><ele>346.57142857142856</ele><time>2026-05-02T09:57:26.521Z</time></trkpt><trkpt lat="42.3984228" lon="-8.5831909"><ele>346.42857142857144</ele><time>2026-05-02T09:58:29.523Z</time></trkpt><trkpt lat="42.3984329" lon="-8.5833107"><ele>346.28571428571433</ele><time>2026-05-02T09:58:41.524Z</time></trkpt><trkpt lat="42.398462" lon="-8.5833987"><ele>346.1428571428571</ele><time>2026-05-02T09:58:44.518Z</time></trkpt><trkpt lat="42.3984712" lon="-8.5834854"><ele>346.0</ele><time>2026-05-02T09:58:48.52Z</time></trkpt><trkpt lat="42.3984583" lon="-8.5835967"><ele>345.57142857142856</ele><time>2026-05-02T09:58:53.52Z</time></trkpt><trkpt lat="42.3984467" lon="-8.5836867"><ele>345.14285714285717</ele><time>2026-05-02T09:58:58.521Z</time></trkpt><trkpt lat="42.3984707" lon="-8.5837818"><ele>344.7142857142857</ele><time>2026-05-02T09:59:02.529Z</time></trkpt><trkpt lat="42.3984645" lon="-8.5838685"><ele>344.2857142857143</ele><time>2026-05-02T09:59:06.52Z</time></trkpt><trkpt lat="42.3985006" lon="-8.5839433"><ele>343.8571428571429</ele><time>2026-05-02T09:59:28.521Z</time></trkpt><trkpt lat="42.3985212" lon="-8.5840317"><ele>343.42857142857144</ele><time>2026-05-02T09:59:31.518Z</time></trkpt><trkpt lat="42.3985769" lon="-8.584096"><ele>343.0</ele><time>2026-05-02T09:59:34.519Z</time></trkpt><trkpt lat="42.3986445" lon="-8.5841236"><ele>343.0</ele><time>2026-05-02T09:59:38.522Z</time></trkpt><trkpt lat="42.3987129" lon="-8.5841649"><ele>343.0</ele><time>2026-05-02T09:59:49.526Z</time></trkpt><trkpt lat="42.3987825" lon="-8.5841768"><ele>343.0</ele><time>2026-05-02T09:59:54.522Z</time></trkpt><trkpt lat="42.398867" lon="-8.5841937"><ele>343.0</ele><time>2026-05-02T09:59:58.524Z</time></trkpt><trkpt lat="42.398941" lon="-8.5842202"><ele>343.0</ele><time>2026-05-02T10:00:01.52Z</time></trkpt><trkpt lat="42.3990131" lon="-8.5842134"><ele>343.0</ele><time>2026-05-02T10:00:11.53Z</time></trkpt><trkpt lat="42.3990759" lon="-8.5841812"><ele>343.0</ele><time>2026-05-02T10:00:16.524Z</time></trkpt><trkpt lat="42.3991452" lon="-8.5841742"><ele>342.0</ele><time>2026-05-02T10:00:22.525Z</time></trkpt><trkpt lat="42.399234" lon="-8.5842083"><ele>341.0</ele><time>2026-05-02T10:01:50.523Z</time></trkpt><trkpt lat="42.3993001" lon="-8.58425"><ele>340.0</ele><time>2026-05-02T10:02:35.522Z</time></trkpt><trkpt lat="42.3993604" lon="-8.5843152"><ele>339.0</ele><time>2026-05-02T10:02:40.522Z</time></trkpt><trkpt lat="42.3994336" lon="-8.5842785"><ele>338.0</ele><time>2026-05-02T10:02:48.525Z</time></trkpt><trkpt lat="42.3995048" lon="-8.5842525"><ele>337.0</ele><time>2026-05-02T10:02:53.519Z</time></trkpt><trkpt lat="42.3995366" lon="-8.5841679"><ele>337.0</ele><time>2026-05-02T10:02:58.524Z</time></trkpt><trkpt lat="42.3995447" lon="-8.5840626"><ele>337.0</ele><time>2026-05-02T10:03:02.52Z</time></trkpt><trkpt lat="42.3995447" lon="-8.5839458"><ele>337.0</ele><time>2026-05-02T10:03:06.521Z</time></trkpt><trkpt lat="42.3995559" lon="-8.5838613"><ele>337.0</ele><time>2026-05-02T10:03:09.52Z</time></trkpt><trkpt lat="42.3995941" lon="-8.5837816"><ele>337.0</ele><time>2026-05-02T10:03:15.524Z</time></trkpt><trkpt lat="42.3996473" lon="-8.5837096"><ele>337.0</ele><time>2026-05-02T10:03:19.518Z</time></trkpt><trkpt lat="42.3997066" lon="-8.5836385"><ele>335.8571428571429</ele><time>2026-05-02T10:03:23.519Z</time></trkpt><trkpt lat="42.3997306" lon="-8.5835361"><ele>334.7142857142857</ele><time>2026-05-02T10:03:26.526Z</time></trkpt><trkpt lat="42.3997556" lon="-8.5834548"><ele>333.57142857142856</ele><time>2026-05-02T10:03:30.519Z</time></trkpt><trkpt lat="42.3997886" lon="-8.5833773"><ele>332.42857142857144</ele><time>2026-05-02T10:03:43.521Z</time></trkpt><trkpt lat="42.3998622" lon="-8.5833296"><ele>331.2857142857143</ele><time>2026-05-02T10:03:47.532Z</time></trkpt><trkpt lat="42.3999338" lon="-8.5833244"><ele>330.14285714285717</ele><time>2026-05-02T10:03:50.521Z</time></trkpt><trkpt lat="42.4000114" lon="-8.5833555"><ele>329.0</ele><time>2026-05-02T10:05:47.516Z</time></trkpt><trkpt lat="42.4000963" lon="-8.583339"><ele>329.0</ele><time>2026-05-02T10:08:16.521Z</time></trkpt><trkpt lat="42.4001578" lon="-8.5833581"><ele>329.0</ele><time>2026-05-02T10:09:42.519Z</time></trkpt><trkpt lat="42.4001975" lon="-8.5832912"><ele>329.0</ele><time>2026-05-02T10:09:51.515Z</time></trkpt><trkpt lat="42.4002099" lon="-8.5832033"><ele>329.0</ele><time>2026-05-02T10:09:56.522Z</time></trkpt><trkpt lat="42.4002734" lon="-8.5831793"><ele>329.0</ele><time>2026-05-02T10:10:36.515Z</time></trkpt><trkpt lat="42.4003205" lon="-8.5832442"><ele>329.0</ele><time>2026-05-02T10:10:59.52Z</time></trkpt><trkpt lat="42.4003401" lon="-8.5833339"><ele>329.0</ele><time>2026-05-02T10:13:24.513Z</time></trkpt><trkpt lat="42.4004085" lon="-8.5833507"><ele>329.25</ele><time>2026-05-02T10:13:26.517Z</time></trkpt><trkpt lat="42.4005048" lon="-8.5833478"><ele>329.5</ele><time>2026-05-02T10:13:27.522Z</time></trkpt><trkpt lat="42.4006277" lon="-8.5833325"><ele>329.75</ele><time>2026-05-02T10:13:28.519Z</time></trkpt><trkpt lat="42.400749" lon="-8.5832955"><ele>330.0</ele><time>2026-05-02T10:13:29.518Z</time></trkpt><trkpt lat="42.4008578" lon="-8.5832523"><ele>330.0</ele><time>2026-05-02T10:13:30.518Z</time></trkpt><trkpt lat="42.4009573" lon="-8.5832206"><ele>330.0</ele><time>2026-05-02T10:13:31.517Z</time></trkpt><trkpt lat="42.4010446" lon="-8.5832005"><ele>330.0</ele><time>2026-05-02T10:13:32.512Z</time></trkpt><trkpt lat="42.4011297" lon="-8.5831853"><ele>330.0</ele><time>2026-05-02T10:13:33.516Z</time></trkpt><trkpt lat="42.4012057" lon="-8.5831644"><ele>330.0</ele><time>2026-05-02T10:13:34.519Z</time></trkpt><trkpt lat="42.4012809" lon="-8.5831424"><ele>330.0</ele><time>2026-05-02T10:13:35.511Z</time></trkpt><trkpt lat="42.4013556" lon="-8.5831236"><ele>329.8571428571429</ele><time>2026-05-02T10:13:36.514Z</time></trkpt><trkpt lat="42.401423" lon="-8.5831075"><ele>329.7142857142857</ele><time>2026-05-02T10:13:37.515Z</time></trkpt><trkpt lat="42.4014873" lon="-8.5830935"><ele>329.57142857142856</ele><time>2026-05-02T10:13:38.515Z</time></trkpt><trkpt lat="42.401552" lon="-8.583079"><ele>329.42857142857144</ele><time>2026-05-02T10:13:39.514Z</time></trkpt><trkpt lat="42.4016193" lon="-8.5830688"><ele>329.2857142857143</ele><time>2026-05-02T10:13:40.52Z</time></trkpt><trkpt lat="42.4016871" lon="-8.58306"><ele>329.14285714285717</ele><time>2026-05-02T10:13:41.512Z</time></trkpt><trkpt lat="42.4017635" lon="-8.5830548"><ele>329.0</ele><time>2026-05-02T10:13:42.522Z</time></trkpt><trkpt lat="42.4018306" lon="-8.5830443"><ele>329.0</ele><time>2026-05-02T10:13:43.523Z</time></trkpt><trkpt lat="42.4018922" lon="-8.5830203"><ele>329.0</ele><time>2026-05-02T10:13:44.512Z</time></trkpt><trkpt lat="42.4019456" lon="-8.5829668"><ele>329.0</ele><time>2026-05-02T10:13:45.512Z</time></trkpt><trkpt lat="42.4019766" lon="-8.5828638"><ele>329.0</ele><time>2026-05-02T10:13:46.523Z</time></trkpt><trkpt lat="42.4019984" lon="-8.5827308"><ele>329.0</ele><time>2026-05-02T10:13:47.509Z</time></trkpt><trkpt lat="42.4020111" lon="-8.5825746"><ele>329.0</ele><time>2026-05-02T10:13:48.513Z</time></trkpt><trkpt lat="42.4020168" lon="-8.5824049"><ele>328.0</ele><time>2026-05-02T10:13:49.515Z</time></trkpt><trkpt lat="42.4020238" lon="-8.5822303"><ele>327.0</ele><time>2026-05-02T10:13:50.511Z</time></trkpt><trkpt lat="42.4020332" lon="-8.5820551"><ele>326.0</ele><time>2026-05-02T10:13:51.515Z</time></trkpt><trkpt lat="42.4020395" lon="-8.5818854"><ele>325.0</ele><time>2026-05-02T10:13:52.515Z</time></trkpt><trkpt lat="42.4020461" lon="-8.5817236"><ele>325.0</ele><time>2026-05-02T10:13:53.516Z</time></trkpt><trkpt lat="42.4020512" lon="-8.5815652"><ele>325.0</ele><time>2026-05-02T10:13:54.511Z</time></trkpt><trkpt lat="42.4020561" lon="-8.5814183"><ele>325.0</ele><time>2026-05-02T10:13:55.516Z</time></trkpt><trkpt lat="42.4020634" lon="-8.5812742"><ele>325.0</ele><time>2026-05-02T10:13:56.514Z</time></trkpt><trkpt lat="42.4020754" lon="-8.5811386"><ele>325.0</ele><time>2026-05-02T10:13:57.526Z</time></trkpt><trkpt lat="42.4020834" lon="-8.5810077"><ele>325.4</ele><time>2026-05-02T10:13:58.519Z</time></trkpt><trkpt lat="42.4020948" lon="-8.5808803"><ele>325.8</ele><time>2026-05-02T10:13:59.515Z</time></trkpt><trkpt lat="42.4021059" lon="-8.580748"><ele>326.20000000000005</ele><time>2026-05-02T10:14:00.513Z</time></trkpt><trkpt lat="42.4021137" lon="-8.5806107"><ele>326.6</ele><time>2026-05-02T10:14:01.515Z</time></trkpt><trkpt lat="42.4021187" lon="-8.5804724"><ele>327.0</ele><time>2026-05-02T10:14:02.516Z</time></trkpt><trkpt lat="42.4021185" lon="-8.5803423"><ele>327.0</ele><time>2026-05-02T10:14:03.515Z</time></trkpt><trkpt lat="42.4021203" lon="-8.5802243"><ele>327.0</ele><time>2026-05-02T10:14:04.512Z</time></trkpt><trkpt lat="42.4021287" lon="-8.5801223"><ele>327.0</ele><time>2026-05-02T10:14:05.518Z</time></trkpt><trkpt lat="42.4021664" lon="-8.5799896"><ele>327.0</ele><time>2026-05-02T10:14:07.52Z</time></trkpt><trkpt lat="42.4022359" lon="-8.5799505"><ele>327.0</ele><time>2026-05-02T10:14:09.515Z</time></trkpt><trkpt lat="42.4023066" lon="-8.5799152"><ele>327.0</ele><time>2026-05-02T10:14:11.52Z</time></trkpt><trkpt lat="42.4024022" lon="-8.5798797"><ele>325.8</ele><time>2026-05-02T10:14:13.519Z</time></trkpt><trkpt lat="42.4025058" lon="-8.5798681"><ele>324.6</ele><time>2026-05-02T10:14:15.517Z</time></trkpt><trkpt lat="42.4026173" lon="-8.5798813"><ele>323.40000000000003</ele><time>2026-05-02T10:14:17.522Z</time></trkpt><trkpt lat="42.4026804" lon="-8.579883"><ele>322.20000000000005</ele><time>2026-05-02T10:14:18.515Z</time></trkpt><trkpt lat="42.4027964" lon="-8.5799067"><ele>321.0</ele><time>2026-05-02T10:14:20.519Z</time></trkpt><trkpt lat="42.4029237" lon="-8.5798977"><ele>320.6666666666667</ele><time>2026-05-02T10:14:22.514Z</time></trkpt><trkpt lat="42.4029982" lon="-8.5798433"><ele>320.3333333333333</ele><time>2026-05-02T10:14:23.522Z</time></trkpt><trkpt lat="42.403075" lon="-8.5797762"><ele>320.0</ele><time>2026-05-02T10:14:24.514Z</time></trkpt><trkpt lat="42.4031337" lon="-8.5797063"><ele>319.66666666666663</ele><time>2026-05-02T10:14:25.518Z</time></trkpt><trkpt lat="42.4031682" lon="-8.5796302"><ele>319.3333333333333</ele><time>2026-05-02T10:14:26.52Z</time></trkpt><trkpt lat="42.4031865" lon="-8.5795425"><ele>319.0</ele><time>2026-05-02T10:14:27.514Z</time></trkpt><trkpt lat="42.4032035" lon="-8.5794514"><ele>318.5</ele><time>2026-05-02T10:14:28.513Z</time></trkpt><trkpt lat="42.4032202" lon="-8.5793615"><ele>318.0</ele><time>2026-05-02T10:14:29.513Z</time></trkpt><trkpt lat="42.4032375" lon="-8.5792666"><ele>317.5</ele><time>2026-05-02T10:14:30.517Z</time></trkpt><trkpt lat="42.4032502" lon="-8.5791824"><ele>317.0</ele><time>2026-05-02T10:14:31.513Z</time></trkpt><trkpt lat="42.4032651" lon="-8.5790459"><ele>316.5</ele><time>2026-05-02T10:14:33.515Z</time></trkpt><trkpt lat="42.4032811" lon="-8.5789249"><ele>316.0</ele><time>2026-05-02T10:14:35.514Z</time></trkpt><trkpt lat="42.4032976" lon="-8.5787925"><ele>316.0</ele><time>2026-05-02T10:14:37.514Z</time></trkpt><trkpt lat="42.4033358" lon="-8.5786423"><ele>316.0</ele><time>2026-05-02T10:14:39.512Z</time></trkpt><trkpt lat="42.4033836" lon="-8.578554"><ele>316.0</ele><time>2026-05-02T10:14:41.522Z</time></trkpt><trkpt lat="42.4034732" lon="-8.5785143"><ele>316.0</ele><time>2026-05-02T10:14:43.516Z</time></trkpt><trkpt lat="42.4035599" lon="-8.5785128"><ele>316.0</ele><time>2026-05-02T10:14:45.514Z</time></trkpt><trkpt lat="42.4036421" lon="-8.5785564"><ele>316.0</ele><time>2026-05-02T10:14:47.519Z</time></trkpt><trkpt lat="42.4036977" lon="-8.5786354"><ele>316.0</ele><time>2026-05-02T10:14:49.511Z</time></trkpt><trkpt lat="42.4037332" lon="-8.5787205"><ele>316.0</ele><time>2026-05-02T10:14:51.517Z</time></trkpt><trkpt lat="42.4037685" lon="-8.5788047"><ele>316.0</ele><time>2026-05-02T10:14:53.517Z</time></trkpt><trkpt lat="42.4038225" lon="-8.5789135"><ele>316.0</ele><time>2026-05-02T10:14:55.514Z</time></trkpt><trkpt lat="42.4039166" lon="-8.5790229"><ele>316.0</ele><time>2026-05-02T10:14:57.515Z</time></trkpt><trkpt lat="42.4039749" lon="-8.5790869"><ele>316.0</ele><time>2026-05-02T10:14:58.513Z</time></trkpt><trkpt lat="42.404031" lon="-8.579169"><ele>316.0</ele><time>2026-05-02T10:14:59.516Z</time></trkpt><trkpt lat="42.4040784" lon="-8.5792792"><ele>316.0</ele><time>2026-05-02T10:15:00.517Z</time></trkpt><trkpt lat="42.4041242" lon="-8.5794266"><ele>316.0</ele><time>2026-05-02T10:15:01.514Z</time></trkpt><trkpt lat="42.40417" lon="-8.579588"><ele>316.0</ele><time>2026-05-02T10:15:02.514Z</time></trkpt><trkpt lat="42.4042169" lon="-8.5797354"><ele>316.0</ele><time>2026-05-02T10:15:03.522Z</time></trkpt><trkpt lat="42.4042705" lon="-8.5798607"><ele>316.0</ele><time>2026-05-02T10:15:04.509Z</time></trkpt><trkpt lat="42.4043302" lon="-8.5799718"><ele>316.0</ele><time>2026-05-02T10:15:05.512Z</time></trkpt><trkpt lat="42.4044011" lon="-8.5800633"><ele>316.0</ele><time>2026-05-02T10:15:06.515Z</time></trkpt><trkpt lat="42.404477" lon="-8.580148"><ele>316.0</ele><time>2026-05-02T10:15:07.516Z</time></trkpt><trkpt lat="42.4045539" lon="-8.5802145"><ele>316.0</ele><time>2026-05-02T10:15:08.516Z</time></trkpt><trkpt lat="42.4046268" lon="-8.5802647"><ele>316.0</ele><time>2026-05-02T10:15:09.511Z</time></trkpt><trkpt lat="42.4046891" lon="-8.5803067"><ele>316.0</ele><time>2026-05-02T10:15:10.515Z</time></trkpt><trkpt lat="42.4047478" lon="-8.5803413"><ele>316.0</ele><time>2026-05-02T10:15:11.516Z</time></trkpt><trkpt lat="42.4048576" lon="-8.5803392"><ele>316.0</ele><time>2026-05-02T10:15:13.518Z</time></trkpt><trkpt lat="42.4049821" lon="-8.5802975"><ele>314.40000000000003</ele><time>2026-05-02T10:15:15.518Z</time></trkpt><trkpt lat="42.4050454" lon="-8.5802761"><ele>312.8</ele><time>2026-05-02T10:15:16.511Z</time></trkpt><trkpt lat="42.4051532" lon="-8.580214"><ele>311.20000000000005</ele><time>2026-05-02T10:15:18.517Z</time></trkpt><trkpt lat="42.4052141" lon="-8.5801553"><ele>309.6</ele><time>2026-05-02T10:15:19.509Z</time></trkpt><trkpt lat="42.4052832" lon="-8.5800678"><ele>308.0</ele><time>2026-05-02T10:15:20.515Z</time></trkpt><trkpt lat="42.4053467" lon="-8.5799616"><ele>308.0</ele><time>2026-05-02T10:15:21.512Z</time></trkpt><trkpt lat="42.4054039" lon="-8.5798456"><ele>308.0</ele><time>2026-05-02T10:15:22.513Z</time></trkpt><trkpt lat="42.4054469" lon="-8.5797199"><ele>308.0</ele><time>2026-05-02T10:15:23.518Z</time></trkpt><trkpt lat="42.4054759" lon="-8.5795849"><ele>308.0</ele><time>2026-05-02T10:15:24.515Z</time></trkpt><trkpt lat="42.4055101" lon="-8.5794594"><ele>308.0</ele><time>2026-05-02T10:15:25.512Z</time></trkpt><trkpt lat="42.4055526" lon="-8.579342"><ele>308.0</ele><time>2026-05-02T10:15:26.517Z</time></trkpt><trkpt lat="42.4055912" lon="-8.5792396"><ele>308.0</ele><time>2026-05-02T10:15:27.523Z</time></trkpt><trkpt lat="42.4056211" lon="-8.5791465"><ele>308.0</ele><time>2026-05-02T10:15:28.512Z</time></trkpt><trkpt lat="42.4056432" lon="-8.5790592"><ele>308.0</ele><time>2026-05-02T10:15:29.519Z</time></trkpt><trkpt lat="42.4056047" lon="-8.5789006"><ele>308.0</ele><time>2026-05-02T10:15:31.515Z</time></trkpt><trkpt lat="42.4055346" lon="-8.5788506"><ele>308.0</ele><time>2026-05-02T10:15:32.517Z</time></trkpt><trkpt lat="42.4054594" lon="-8.5787919"><ele>307.83333333333337</ele><time>2026-05-02T10:15:33.528Z</time></trkpt><trkpt lat="42.405408" lon="-8.5787024"><ele>307.6666666666667</ele><time>2026-05-02T10:15:34.526Z</time></trkpt><trkpt lat="42.4053679" lon="-8.5786038"><ele>307.5</ele><time>2026-05-02T10:15:35.515Z</time></trkpt><trkpt lat="42.4053299" lon="-8.5785116"><ele>307.3333333333333</ele><time>2026-05-02T10:15:36.512Z</time></trkpt><trkpt lat="42.405298" lon="-8.5784214"><ele>307.16666666666663</ele><time>2026-05-02T10:15:37.517Z</time></trkpt><trkpt lat="42.4052778" lon="-8.5783327"><ele>307.0</ele><time>2026-05-02T10:15:38.515Z</time></trkpt><trkpt lat="42.4052711" lon="-8.5782403"><ele>307.0</ele><time>2026-05-02T10:15:39.509Z</time></trkpt><trkpt lat="42.4052785" lon="-8.5781519"><ele>307.0</ele><time>2026-05-02T10:15:40.515Z</time></trkpt><trkpt lat="42.4053027" lon="-8.577992"><ele>307.0</ele><time>2026-05-02T10:15:42.52Z</time></trkpt><trkpt lat="42.405324" lon="-8.5778571"><ele>307.0</ele><time>2026-05-02T10:15:44.512Z</time></trkpt><trkpt lat="42.4053495" lon="-8.5777597"><ele>307.0</ele><time>2026-05-02T10:15:46.527Z</time></trkpt><trkpt lat="42.4053821" lon="-8.5776792"><ele>307.0</ele><time>2026-05-02T10:15:48.512Z</time></trkpt><trkpt lat="42.4054351" lon="-8.5776024"><ele>309.0</ele><time>2026-05-02T10:15:51.516Z</time></trkpt><trkpt lat="42.4053736" lon="-8.5776284"><ele>309.0</ele><time>2026-05-02T10:35:00.508Z</time></trkpt><trkpt lat="42.4054453" lon="-8.577613"><ele>309.0</ele><time>2026-05-02T10:52:51.504Z</time></trkpt><trkpt lat="42.4053862" lon="-8.5776678"><ele>309.0</ele><time>2026-05-02T11:02:31.509Z</time></trkpt><trkpt lat="42.4054388" lon="-8.5776047"><ele>309.0</ele><time>2026-05-02T11:26:13.481Z</time></trkpt></trkseg><trkseg><trkpt lat="42.405346" lon="-8.5776901"><ele>309.0</ele><time>2026-05-02T11:37:47.478Z</time></trkpt><trkpt lat="42.4054175" lon="-8.5776646"><ele>309.0</ele><time>2026-05-02T11:39:26.482Z</time></trkpt><trkpt lat="42.4054378" lon="-8.5775505"><ele>309.0</ele><time>2026-05-02T11:41:21.48Z</time></trkpt><trkpt lat="42.4054097" lon="-8.5774353"><ele>309.0</ele><time>2026-05-02T11:41:23.481Z</time></trkpt><trkpt lat="42.4054216" lon="-8.5772776"><ele>309.0</ele><time>2026-05-02T11:41:25.48Z</time></trkpt><trkpt lat="42.4054404" lon="-8.5771961"><ele>309.0</ele><time>2026-05-02T11:41:26.476Z</time></trkpt><trkpt lat="42.4054552" lon="-8.5771063"><ele>309.6666666666667</ele><time>2026-05-02T11:41:27.478Z</time></trkpt><trkpt lat="42.4054652" lon="-8.5770174"><ele>310.3333333333333</ele><time>2026-05-02T11:41:28.483Z</time></trkpt><trkpt lat="42.4054808" lon="-8.576865"><ele>311.0</ele><time>2026-05-02T11:41:30.477Z</time></trkpt><trkpt lat="42.4054577" lon="-8.5767556"><ele>311.66666666666663</ele><time>2026-05-02T11:41:33.479Z</time></trkpt><trkpt lat="42.4054056" lon="-8.5766891"><ele>312.3333333333333</ele><time>2026-05-02T11:41:35.481Z</time></trkpt><trkpt lat="42.4053647" lon="-8.5766006"><ele>313.0</ele><time>2026-05-02T11:41:37.48Z</time></trkpt><trkpt lat="42.4053483" lon="-8.5765052"><ele>313.0</ele><time>2026-05-02T11:41:39.482Z</time></trkpt><trkpt lat="42.4053699" lon="-8.576377"><ele>313.0</ele><time>2026-05-02T11:41:41.477Z</time></trkpt><trkpt lat="42.4053925" lon="-8.5762201"><ele>313.0</ele><time>2026-05-02T11:41:43.479Z</time></trkpt><trkpt lat="42.4054072" lon="-8.5761346"><ele>313.0</ele><time>2026-05-02T11:41:44.48Z</time></trkpt><trkpt lat="42.4054229" lon="-8.5760474"><ele>313.0</ele><time>2026-05-02T11:41:45.474Z</time></trkpt><trkpt lat="42.4054419" lon="-8.5759116"><ele>313.0</ele><time>2026-05-02T11:41:47.479Z</time></trkpt><trkpt lat="42.4053954" lon="-8.5758081"><ele>314.0</ele><time>2026-05-02T11:41:49.476Z</time></trkpt><trkpt lat="42.4053297" lon="-8.5757531"><ele>315.0</ele><time>2026-05-02T11:41:50.481Z</time></trkpt><trkpt lat="42.405246" lon="-8.5756989"><ele>316.0</ele><time>2026-05-02T11:41:51.48Z</time></trkpt><trkpt lat="42.4051588" lon="-8.5756414"><ele>317.0</ele><time>2026-05-02T11:41:52.481Z</time></trkpt><trkpt lat="42.4050634" lon="-8.5755844"><ele>318.0</ele><time>2026-05-02T11:41:53.478Z</time></trkpt><trkpt lat="42.4049706" lon="-8.5755308"><ele>318.0</ele><time>2026-05-02T11:41:54.483Z</time></trkpt><trkpt lat="42.4048706" lon="-8.5754569"><ele>318.0</ele><time>2026-05-02T11:41:55.483Z</time></trkpt><trkpt lat="42.4047659" lon="-8.5753881"><ele>318.0</ele><time>2026-05-02T11:41:56.478Z</time></trkpt><trkpt lat="42.404659" lon="-8.5753143"><ele>318.0</ele><time>2026-05-02T11:41:57.481Z</time></trkpt><trkpt lat="42.4045524" lon="-8.5752418"><ele>318.5</ele><time>2026-05-02T11:41:58.48Z</time></trkpt><trkpt lat="42.4044488" lon="-8.5751725"><ele>319.0</ele><time>2026-05-02T11:41:59.482Z</time></trkpt><trkpt lat="42.4043501" lon="-8.5751096"><ele>319.5</ele><time>2026-05-02T11:42:00.473Z</time></trkpt><trkpt lat="42.4042502" lon="-8.5750435"><ele>320.0</ele><time>2026-05-02T11:42:01.474Z</time></trkpt><trkpt lat="42.404148" lon="-8.5749756"><ele>320.0</ele><time>2026-05-02T11:42:02.472Z</time></trkpt><trkpt lat="42.4040472" lon="-8.5749092"><ele>320.0</ele><time>2026-05-02T11:42:03.474Z</time></trkpt><trkpt lat="42.4039408" lon="-8.5748415"><ele>320.0</ele><time>2026-05-02T11:42:04.482Z</time></trkpt><trkpt lat="42.4038321" lon="-8.5747708"><ele>320.0</ele><time>2026-05-02T11:42:05.485Z</time></trkpt><trkpt lat="42.4037298" lon="-8.5747037"><ele>320.4</ele><time>2026-05-02T11:42:06.481Z</time></trkpt><trkpt lat="42.4036312" lon="-8.5746367"><ele>320.8</ele><time>2026-05-02T11:42:07.485Z</time></trkpt><trkpt lat="42.4035368" lon="-8.5745736"><ele>321.20000000000005</ele><time>2026-05-02T11:42:08.477Z</time></trkpt><trkpt lat="42.4034485" lon="-8.5745102"><ele>321.6</ele><time>2026-05-02T11:42:09.476Z</time></trkpt><trkpt lat="42.4033567" lon="-8.5744564"><ele>322.0</ele><time>2026-05-02T11:42:10.477Z</time></trkpt><trkpt lat="42.403272" lon="-8.5744078"><ele>322.5</ele><time>2026-05-02T11:42:11.477Z</time></trkpt><trkpt lat="42.4032002" lon="-8.5743786"><ele>323.0</ele><time>2026-05-02T11:42:12.475Z</time></trkpt><trkpt lat="42.4031334" lon="-8.5743734"><ele>323.5</ele><time>2026-05-02T11:42:13.492Z</time></trkpt><trkpt lat="42.4030369" lon="-8.574333"><ele>324.0</ele><time>2026-05-02T11:42:15.479Z</time></trkpt><trkpt lat="42.4030315" lon="-8.5742307"><ele>324.5</ele><time>2026-05-02T11:42:17.48Z</time></trkpt><trkpt lat="42.403071" lon="-8.5741495"><ele>325.0</ele><time>2026-05-02T11:42:18.479Z</time></trkpt><trkpt lat="42.4031204" lon="-8.5740474"><ele>325.0</ele><time>2026-05-02T11:42:19.475Z</time></trkpt><trkpt lat="42.4031617" lon="-8.5739305"><ele>325.0</ele><time>2026-05-02T11:42:20.48Z</time></trkpt><trkpt lat="42.403197" lon="-8.5738041"><ele>325.0</ele><time>2026-05-02T11:42:21.476Z</time></trkpt><trkpt lat="42.403223" lon="-8.5736682"><ele>325.0</ele><time>2026-05-02T11:42:22.486Z</time></trkpt><trkpt lat="42.403249" lon="-8.5735314"><ele>325.0</ele><time>2026-05-02T11:42:23.478Z</time></trkpt><trkpt lat="42.4032788" lon="-8.5733967"><ele>324.8333333333333</ele><time>2026-05-02T11:42:24.474Z</time></trkpt><trkpt lat="42.4033138" lon="-8.573277"><ele>324.66666666666663</ele><time>2026-05-02T11:42:25.482Z</time></trkpt><trkpt lat="42.4033488" lon="-8.5731752"><ele>324.5</ele><time>2026-05-02T11:42:26.478Z</time></trkpt><trkpt lat="42.4033653" lon="-8.5730885"><ele>324.3333333333333</ele><time>2026-05-02T11:42:27.479Z</time></trkpt><trkpt lat="42.4033539" lon="-8.5729966"><ele>324.1666666666667</ele><time>2026-05-02T11:42:28.471Z</time></trkpt><trkpt lat="42.4033355" lon="-8.5728953"><ele>324.0</ele><time>2026-05-02T11:42:29.477Z</time></trkpt><trkpt lat="42.4033364" lon="-8.572797"><ele>324.4</ele><time>2026-05-02T11:42:30.48Z</time></trkpt><trkpt lat="42.4033509" lon="-8.5726965"><ele>324.79999999999995</ele><time>2026-05-02T11:42:31.482Z</time></trkpt><trkpt lat="42.4033779" lon="-8.5725825"><ele>325.20000000000005</ele><time>2026-05-02T11:42:32.484Z</time></trkpt><trkpt lat="42.4034163" lon="-8.57245"><ele>325.6</ele><time>2026-05-02T11:42:33.475Z</time></trkpt><trkpt lat="42.4034606" lon="-8.5723079"><ele>326.0</ele><time>2026-05-02T11:42:34.479Z</time></trkpt><trkpt lat="42.4035211" lon="-8.5721326"><ele>328.6666666666667</ele><time>2026-05-02T11:42:35.478Z</time></trkpt><trkpt lat="42.4036035" lon="-8.5719318"><ele>331.3333333333333</ele><time>2026-05-02T11:42:36.493Z</time></trkpt><trkpt lat="42.4036833" lon="-8.5717286"><ele>334.0</ele><time>2026-05-02T11:42:37.478Z</time></trkpt><trkpt lat="42.4037572" lon="-8.5715468"><ele>334.0</ele><time>2026-05-02T11:42:38.471Z</time></trkpt><trkpt lat="42.4038244" lon="-8.5713778"><ele>334.0</ele><time>2026-05-02T11:42:39.477Z</time></trkpt><trkpt lat="42.403883" lon="-8.5712532"><ele>334.0</ele><time>2026-05-02T11:42:40.483Z</time></trkpt><trkpt lat="42.403926" lon="-8.5711732"><ele>334.0</ele><time>2026-05-02T11:42:41.486Z</time></trkpt><trkpt lat="42.4039883" lon="-8.5711558"><ele>334.0</ele><time>2026-05-02T11:42:43.477Z</time></trkpt><trkpt lat="42.4040623" lon="-8.5712348"><ele>332.2</ele><time>2026-05-02T11:42:46.478Z</time></trkpt><trkpt lat="42.4041291" lon="-8.5712959"><ele>330.4</ele><time>2026-05-02T11:42:48.473Z</time></trkpt><trkpt lat="42.4042447" lon="-8.5713676"><ele>328.6</ele><time>2026-05-02T11:42:50.483Z</time></trkpt><trkpt lat="42.4043232" lon="-8.5714143"><ele>326.8</ele><time>2026-05-02T11:42:51.484Z</time></trkpt><trkpt lat="42.4044209" lon="-8.5714677"><ele>325.0</ele><time>2026-05-02T11:42:52.48Z</time></trkpt><trkpt lat="42.4045364" lon="-8.5715284"><ele>325.0</ele><time>2026-05-02T11:42:53.481Z</time></trkpt><trkpt lat="42.404649" lon="-8.5715883"><ele>325.0</ele><time>2026-05-02T11:42:54.469Z</time></trkpt><trkpt lat="42.4047529" lon="-8.5716448"><ele>325.0</ele><time>2026-05-02T11:42:55.478Z</time></trkpt><trkpt lat="42.4048414" lon="-8.5716992"><ele>325.0</ele><time>2026-05-02T11:42:56.48Z</time></trkpt><trkpt lat="42.40492" lon="-8.5717427"><ele>325.0</ele><time>2026-05-02T11:42:57.475Z</time></trkpt><trkpt lat="42.4049938" lon="-8.5717746"><ele>325.0</ele><time>2026-05-02T11:42:58.475Z</time></trkpt><trkpt lat="42.4050648" lon="-8.5717864"><ele>325.0</ele><time>2026-05-02T11:42:59.481Z</time></trkpt><trkpt lat="42.4051302" lon="-8.5717652"><ele>325.0</ele><time>2026-05-02T11:43:00.47Z</time></trkpt><trkpt lat="42.4051837" lon="-8.5717171"><ele>325.0</ele><time>2026-05-02T11:43:01.471Z</time></trkpt><trkpt lat="42.4052317" lon="-8.5716578"><ele>325.0</ele><time>2026-05-02T11:43:02.486Z</time></trkpt><trkpt lat="42.4052761" lon="-8.5715881"><ele>325.0</ele><time>2026-05-02T11:43:03.474Z</time></trkpt><trkpt lat="42.405313" lon="-8.571508"><ele>325.0</ele><time>2026-05-02T11:43:04.481Z</time></trkpt><trkpt lat="42.4053424" lon="-8.5714051"><ele>325.0</ele><time>2026-05-02T11:43:05.483Z</time></trkpt><trkpt lat="42.405374" lon="-8.5712672"><ele>325.0</ele><time>2026-05-02T11:43:06.476Z</time></trkpt><trkpt lat="42.4054158" lon="-8.5710963"><ele>325.0</ele><time>2026-05-02T11:43:07.478Z</time></trkpt><trkpt lat="42.4054713" lon="-8.5709181"><ele>325.0</ele><time>2026-05-02T11:43:08.479Z</time></trkpt><trkpt lat="42.4055172" lon="-8.5707656"><ele>327.8</ele><time>2026-05-02T11:43:09.472Z</time></trkpt><trkpt lat="42.4055411" lon="-8.5706487"><ele>330.6</ele><time>2026-05-02T11:43:10.476Z</time></trkpt><trkpt lat="42.4055557" lon="-8.5705336"><ele>333.4</ele><time>2026-05-02T11:43:11.482Z</time></trkpt><trkpt lat="42.405565" lon="-8.5704068"><ele>336.2</ele><time>2026-05-02T11:43:12.48Z</time></trkpt><trkpt lat="42.4055785" lon="-8.5702692"><ele>339.0</ele><time>2026-05-02T11:43:13.476Z</time></trkpt><trkpt lat="42.4056045" lon="-8.5701205"><ele>341.0</ele><time>2026-05-02T11:43:14.475Z</time></trkpt><trkpt lat="42.4056397" lon="-8.5699525"><ele>343.0</ele><time>2026-05-02T11:43:15.474Z</time></trkpt><trkpt lat="42.4056725" lon="-8.5697966"><ele>345.0</ele><time>2026-05-02T11:43:16.486Z</time></trkpt><trkpt lat="42.4056982" lon="-8.5696549"><ele>347.0</ele><time>2026-05-02T11:43:17.487Z</time></trkpt><trkpt lat="42.4057137" lon="-8.569541"><ele>349.0</ele><time>2026-05-02T11:43:18.473Z</time></trkpt><trkpt lat="42.4057579" lon="-8.5694003"><ele>350.4</ele><time>2026-05-02T11:43:20.475Z</time></trkpt><trkpt lat="42.4058065" lon="-8.5692873"><ele>351.79999999999995</ele><time>2026-05-02T11:43:22.481Z</time></trkpt><trkpt lat="42.4058449" lon="-8.5691392"><ele>353.20000000000005</ele><time>2026-05-02T11:43:24.48Z</time></trkpt><trkpt lat="42.405864" lon="-8.5690373"><ele>354.6</ele><time>2026-05-02T11:43:25.476Z</time></trkpt><trkpt lat="42.405881" lon="-8.5689226"><ele>356.0</ele><time>2026-05-02T11:43:26.485Z</time></trkpt><trkpt lat="42.4058976" lon="-8.5688038"><ele>357.0</ele><time>2026-05-02T11:43:27.471Z</time></trkpt><trkpt lat="42.4059183" lon="-8.5686817"><ele>358.0</ele><time>2026-05-02T11:43:28.49Z</time></trkpt><trkpt lat="42.4059437" lon="-8.5685758"><ele>359.0</ele><time>2026-05-02T11:43:29.475Z</time></trkpt><trkpt lat="42.4059644" lon="-8.5684788"><ele>360.0</ele><time>2026-05-02T11:43:30.475Z</time></trkpt><trkpt lat="42.4059873" lon="-8.5683853"><ele>361.0</ele><time>2026-05-02T11:43:31.475Z</time></trkpt><trkpt lat="42.4060139" lon="-8.5682968"><ele>362.0</ele><time>2026-05-02T11:43:32.473Z</time></trkpt><trkpt lat="42.4060416" lon="-8.568213"><ele>362.0</ele><time>2026-05-02T11:43:33.478Z</time></trkpt><trkpt lat="42.4060748" lon="-8.5681253"><ele>362.0</ele><time>2026-05-02T11:43:34.48Z</time></trkpt><trkpt lat="42.4061039" lon="-8.5680309"><ele>362.0</ele><time>2026-05-02T11:43:35.475Z</time></trkpt><trkpt lat="42.4061334" lon="-8.5679301"><ele>362.0</ele><time>2026-05-02T11:43:36.474Z</time></trkpt><trkpt lat="42.4061532" lon="-8.5678271"><ele>362.0</ele><time>2026-05-02T11:43:37.479Z</time></trkpt><trkpt lat="42.4061478" lon="-8.5677293"><ele>362.0</ele><time>2026-05-02T11:43:39.481Z</time></trkpt><trkpt lat="42.4060425" lon="-8.5677455"><ele>362.0</ele><time>2026-05-02T11:43:42.479Z</time></trkpt><trkpt lat="42.4059195" lon="-8.5677946"><ele>362.0</ele><time>2026-05-02T11:43:44.478Z</time></trkpt><trkpt lat="42.4058364" lon="-8.5678063"><ele>362.0</ele><time>2026-05-02T11:43:45.471Z</time></trkpt><trkpt lat="42.4057547" lon="-8.5678223"><ele>362.0</ele><time>2026-05-02T11:43:46.479Z</time></trkpt><trkpt lat="42.4056662" lon="-8.5678496"><ele>362.0</ele><time>2026-05-02T11:43:47.485Z</time></trkpt><trkpt lat="42.4055699" lon="-8.5678745"><ele>363.40000000000003</ele><time>2026-05-02T11:43:48.477Z</time></trkpt><trkpt lat="42.4054751" lon="-8.5678855"><ele>364.8</ele><time>2026-05-02T11:43:49.474Z</time></trkpt><trkpt lat="42.4053674" lon="-8.5678847"><ele>366.2</ele><time>2026-05-02T11:43:50.476Z</time></trkpt><trkpt lat="42.4052526" lon="-8.5678812"><ele>367.6</ele><time>2026-05-02T11:43:51.487Z</time></trkpt><trkpt lat="42.4051436" lon="-8.5678852"><ele>369.0</ele><time>2026-05-02T11:43:52.487Z</time></trkpt><trkpt lat="42.4050401" lon="-8.5678873"><ele>369.0</ele><time>2026-05-02T11:43:53.473Z</time></trkpt><trkpt lat="42.4049495" lon="-8.5678853"><ele>369.0</ele><time>2026-05-02T11:43:54.472Z</time></trkpt><trkpt lat="42.4048654" lon="-8.5678876"><ele>369.0</ele><time>2026-05-02T11:43:55.477Z</time></trkpt><trkpt lat="42.404778" lon="-8.5678989"><ele>369.0</ele><time>2026-05-02T11:43:56.486Z</time></trkpt><trkpt lat="42.4046883" lon="-8.5679121"><ele>369.0</ele><time>2026-05-02T11:43:57.473Z</time></trkpt><trkpt lat="42.404599" lon="-8.5679266"><ele>369.0</ele><time>2026-05-02T11:43:58.479Z</time></trkpt><trkpt lat="42.4045117" lon="-8.5679348"><ele>369.0</ele><time>2026-05-02T11:43:59.489Z</time></trkpt><trkpt lat="42.4044361" lon="-8.5679428"><ele>369.0</ele><time>2026-05-02T11:44:00.481Z</time></trkpt><trkpt lat="42.4043693" lon="-8.5679622"><ele>369.0</ele><time>2026-05-02T11:44:01.478Z</time></trkpt><trkpt lat="42.40431" lon="-8.5679934"><ele>369.0</ele><time>2026-05-02T11:44:02.477Z</time></trkpt><trkpt lat="42.4042513" lon="-8.5680349"><ele>369.0</ele><time>2026-05-02T11:44:03.477Z</time></trkpt><trkpt lat="42.4041906" lon="-8.5680784"><ele>369.0</ele><time>2026-05-02T11:44:04.487Z</time></trkpt><trkpt lat="42.4040872" lon="-8.5681535"><ele>369.0</ele><time>2026-05-02T11:44:06.474Z</time></trkpt><trkpt lat="42.4039737" lon="-8.5682227"><ele>369.0</ele><time>2026-05-02T11:44:08.473Z</time></trkpt><trkpt lat="42.4039156" lon="-8.5682715"><ele>369.0</ele><time>2026-05-02T11:44:09.476Z</time></trkpt><trkpt lat="42.4038586" lon="-8.5683275"><ele>369.0</ele><time>2026-05-02T11:44:10.481Z</time></trkpt><trkpt lat="42.4037989" lon="-8.5683834"><ele>369.0</ele><time>2026-05-02T11:44:11.482Z</time></trkpt><trkpt lat="42.4037297" lon="-8.5684455"><ele>369.0</ele><time>2026-05-02T11:44:12.48Z</time></trkpt><trkpt lat="42.4036541" lon="-8.5685139"><ele>368.4</ele><time>2026-05-02T11:44:13.476Z</time></trkpt><trkpt lat="42.4035767" lon="-8.5685807"><ele>367.79999999999995</ele><time>2026-05-02T11:44:14.472Z</time></trkpt><trkpt lat="42.4034944" lon="-8.5686477"><ele>367.20000000000005</ele><time>2026-05-02T11:44:15.471Z</time></trkpt><trkpt lat="42.4034091" lon="-8.5687117"><ele>366.6</ele><time>2026-05-02T11:44:16.477Z</time></trkpt><trkpt lat="42.4033226" lon="-8.5687782"><ele>366.0</ele><time>2026-05-02T11:44:17.482Z</time></trkpt><trkpt lat="42.4032306" lon="-8.5688397"><ele>364.8333333333333</ele><time>2026-05-02T11:44:18.483Z</time></trkpt><trkpt lat="42.4031399" lon="-8.5688966"><ele>363.6666666666667</ele><time>2026-05-02T11:44:19.482Z</time></trkpt><trkpt lat="42.4030521" lon="-8.5689579"><ele>362.5</ele><time>2026-05-02T11:44:20.472Z</time></trkpt><trkpt lat="42.4029708" lon="-8.5690156"><ele>361.33333333333337</ele><time>2026-05-02T11:44:21.469Z</time></trkpt><trkpt lat="42.4028968" lon="-8.5690685"><ele>360.1666666666667</ele><time>2026-05-02T11:44:22.475Z</time></trkpt><trkpt lat="42.4028313" lon="-8.5691075"><ele>359.0</ele><time>2026-05-02T11:44:23.483Z</time></trkpt><trkpt lat="42.4027752" lon="-8.5691494"><ele>358.6</ele><time>2026-05-02T11:44:24.482Z</time></trkpt><trkpt lat="42.4026659" lon="-8.5692362"><ele>358.2</ele><time>2026-05-02T11:44:26.47Z</time></trkpt><trkpt lat="42.402607" lon="-8.5692772"><ele>357.8</ele><time>2026-05-02T11:44:27.474Z</time></trkpt><trkpt lat="42.4025096" lon="-8.5693549"><ele>357.40000000000003</ele><time>2026-05-02T11:44:29.486Z</time></trkpt><trkpt lat="42.4024188" lon="-8.5694132"><ele>357.0</ele><time>2026-05-02T11:44:31.48Z</time></trkpt><trkpt lat="42.4023073" lon="-8.5694937"><ele>356.3333333333333</ele><time>2026-05-02T11:44:33.483Z</time></trkpt><trkpt lat="42.4022391" lon="-8.5695495"><ele>355.6666666666667</ele><time>2026-05-02T11:44:34.474Z</time></trkpt><trkpt lat="42.4021568" lon="-8.5696127"><ele>355.0</ele><time>2026-05-02T11:44:35.476Z</time></trkpt><trkpt lat="42.4020727" lon="-8.5696761"><ele>354.33333333333337</ele><time>2026-05-02T11:44:36.483Z</time></trkpt><trkpt lat="42.4019971" lon="-8.5697353"><ele>353.6666666666667</ele><time>2026-05-02T11:44:37.478Z</time></trkpt><trkpt lat="42.4019286" lon="-8.5697873"><ele>353.0</ele><time>2026-05-02T11:44:38.487Z</time></trkpt><trkpt lat="42.4018643" lon="-8.5698319"><ele>353.0</ele><time>2026-05-02T11:44:39.479Z</time></trkpt><trkpt lat="42.4017994" lon="-8.569872"><ele>353.0</ele><time>2026-05-02T11:44:40.475Z</time></trkpt><trkpt lat="42.4017356" lon="-8.5699264"><ele>353.0</ele><time>2026-05-02T11:44:41.473Z</time></trkpt><trkpt lat="42.4016669" lon="-8.5699839"><ele>353.0</ele><time>2026-05-02T11:44:42.484Z</time></trkpt><trkpt lat="42.4015926" lon="-8.570038"><ele>353.0</ele><time>2026-05-02T11:44:43.48Z</time></trkpt><trkpt lat="42.40152" lon="-8.5700819"><ele>353.0</ele><time>2026-05-02T11:44:44.473Z</time></trkpt><trkpt lat="42.4014536" lon="-8.5701202"><ele>353.0</ele><time>2026-05-02T11:44:45.474Z</time></trkpt><trkpt lat="42.401383" lon="-8.5701637"><ele>353.0</ele><time>2026-05-02T11:44:46.489Z</time></trkpt><trkpt lat="42.4013179" lon="-8.5702137"><ele>353.0</ele><time>2026-05-02T11:44:47.471Z</time></trkpt><trkpt lat="42.4012579" lon="-8.5702554"><ele>353.0</ele><time>2026-05-02T11:44:48.479Z</time></trkpt><trkpt lat="42.4012018" lon="-8.5703022"><ele>353.0</ele><time>2026-05-02T11:44:49.484Z</time></trkpt><trkpt lat="42.4011425" lon="-8.5703443"><ele>353.0</ele><time>2026-05-02T11:44:50.485Z</time></trkpt><trkpt lat="42.4010871" lon="-8.5703849"><ele>353.0</ele><time>2026-05-02T11:44:51.477Z</time></trkpt><trkpt lat="42.401028" lon="-8.5704204"><ele>352.59999999999997</ele><time>2026-05-02T11:44:52.47Z</time></trkpt><trkpt lat="42.4009123" lon="-8.5704696"><ele>352.2</ele><time>2026-05-02T11:44:54.483Z</time></trkpt><trkpt lat="42.4007879" lon="-8.5704948"><ele>351.8</ele><time>2026-05-02T11:44:56.474Z</time></trkpt><trkpt lat="42.4007162" lon="-8.5704989"><ele>351.4</ele><time>2026-05-02T11:44:57.476Z</time></trkpt><trkpt lat="42.4006401" lon="-8.5705037"><ele>351.0</ele><time>2026-05-02T11:44:58.474Z</time></trkpt><trkpt lat="42.400561" lon="-8.5705035"><ele>350.5</ele><time>2026-05-02T11:44:59.483Z</time></trkpt><trkpt lat="42.4004828" lon="-8.5705067"><ele>350.0</ele><time>2026-05-02T11:45:00.477Z</time></trkpt><trkpt lat="42.4004054" lon="-8.5705112"><ele>349.5</ele><time>2026-05-02T11:45:01.486Z</time></trkpt><trkpt lat="42.4003327" lon="-8.5705188"><ele>349.0</ele><time>2026-05-02T11:45:02.479Z</time></trkpt><trkpt lat="42.400226" lon="-8.5705232"><ele>348.5</ele><time>2026-05-02T11:45:04.475Z</time></trkpt><trkpt lat="42.4001428" lon="-8.5705169"><ele>348.0</ele><time>2026-05-02T11:45:06.474Z</time></trkpt><trkpt lat="42.4000618" lon="-8.5704995"><ele>348.0</ele><time>2026-05-02T11:45:08.473Z</time></trkpt><trkpt lat="42.3999858" lon="-8.5704833"><ele>348.0</ele><time>2026-05-02T11:45:10.474Z</time></trkpt><trkpt lat="42.3999225" lon="-8.5704228"><ele>348.0</ele><time>2026-05-02T11:45:13.476Z</time></trkpt><trkpt lat="42.3999018" lon="-8.5703085"><ele>348.0</ele><time>2026-05-02T11:45:19.478Z</time></trkpt><trkpt lat="42.3998251" lon="-8.5701854"><ele>348.0</ele><time>2026-05-02T11:45:21.472Z</time></trkpt><trkpt lat="42.3997991" lon="-8.5700534"><ele>347.5</ele><time>2026-05-02T11:45:22.476Z</time></trkpt><trkpt lat="42.399775" lon="-8.56989"><ele>347.0</ele><time>2026-05-02T11:45:23.471Z</time></trkpt><trkpt lat="42.3997473" lon="-8.5697285"><ele>346.5</ele><time>2026-05-02T11:45:24.475Z</time></trkpt><trkpt lat="42.3997184" lon="-8.5695696"><ele>346.0</ele><time>2026-05-02T11:45:25.477Z</time></trkpt><trkpt lat="42.3996866" lon="-8.5694187"><ele>345.0</ele><time>2026-05-02T11:45:26.472Z</time></trkpt><trkpt lat="42.3996555" lon="-8.5692896"><ele>344.0</ele><time>2026-05-02T11:45:27.47Z</time></trkpt><trkpt lat="42.399625" lon="-8.5692017"><ele>343.0</ele><time>2026-05-02T11:45:28.472Z</time></trkpt><trkpt lat="42.3995615" lon="-8.5691415"><ele>342.0</ele><time>2026-05-02T11:45:30.475Z</time></trkpt><trkpt lat="42.3994849" lon="-8.5691054"><ele>341.0</ele><time>2026-05-02T11:45:32.472Z</time></trkpt><trkpt lat="42.3994292" lon="-8.5690621"><ele>340.0</ele><time>2026-05-02T11:45:33.487Z</time></trkpt><trkpt lat="42.399358" lon="-8.5689944"><ele>340.0</ele><time>2026-05-02T11:45:34.482Z</time></trkpt><trkpt lat="42.3992732" lon="-8.568917"><ele>340.0</ele><time>2026-05-02T11:45:35.477Z</time></trkpt><trkpt lat="42.3991945" lon="-8.5688451"><ele>340.0</ele><time>2026-05-02T11:45:36.473Z</time></trkpt><trkpt lat="42.3991074" lon="-8.5687698"><ele>340.0</ele><time>2026-05-02T11:45:37.479Z</time></trkpt><trkpt lat="42.3990141" lon="-8.5686907"><ele>340.0</ele><time>2026-05-02T11:45:38.479Z</time></trkpt><trkpt lat="42.3989288" lon="-8.5686242"><ele>338.0</ele><time>2026-05-02T11:45:39.476Z</time></trkpt><trkpt lat="42.3988509" lon="-8.56858"><ele>336.0</ele><time>2026-05-02T11:45:40.473Z</time></trkpt><trkpt lat="42.3987827" lon="-8.5685521"><ele>334.0</ele><time>2026-05-02T11:45:41.478Z</time></trkpt><trkpt lat="42.3986569" lon="-8.5685644"><ele>332.0</ele><time>2026-05-02T11:45:43.472Z</time></trkpt><trkpt lat="42.3985829" lon="-8.5685665"><ele>330.0</ele><time>2026-05-02T11:45:44.474Z</time></trkpt><trkpt lat="42.3984508" lon="-8.5685221"><ele>330.0</ele><time>2026-05-02T11:45:46.479Z</time></trkpt><trkpt lat="42.3983782" lon="-8.568458"><ele>330.0</ele><time>2026-05-02T11:45:47.472Z</time></trkpt><trkpt lat="42.3983007" lon="-8.5683662"><ele>330.0</ele><time>2026-05-02T11:45:48.475Z</time></trkpt><trkpt lat="42.3982345" lon="-8.5682504"><ele>330.0</ele><time>2026-05-02T11:45:49.48Z</time></trkpt><trkpt lat="42.3981592" lon="-8.5681442"><ele>330.0</ele><time>2026-05-02T11:45:50.475Z</time></trkpt><trkpt lat="42.3980653" lon="-8.56806"><ele>328.8</ele><time>2026-05-02T11:45:51.473Z</time></trkpt><trkpt lat="42.3979709" lon="-8.5679819"><ele>327.6</ele><time>2026-05-02T11:45:52.48Z</time></trkpt><trkpt lat="42.3978808" lon="-8.5679159"><ele>326.4</ele><time>2026-05-02T11:45:53.475Z</time></trkpt><trkpt lat="42.3977843" lon="-8.5678607"><ele>325.2</ele><time>2026-05-02T11:45:54.475Z</time></trkpt><trkpt lat="42.3976855" lon="-8.5677978"><ele>324.0</ele><time>2026-05-02T11:45:55.475Z</time></trkpt><trkpt lat="42.3976021" lon="-8.5677276"><ele>324.0</ele><time>2026-05-02T11:45:56.48Z</time></trkpt><trkpt lat="42.3975255" lon="-8.5676603"><ele>324.0</ele><time>2026-05-02T11:45:57.48Z</time></trkpt><trkpt lat="42.3974416" lon="-8.5675863"><ele>324.0</ele><time>2026-05-02T11:45:58.477Z</time></trkpt><trkpt lat="42.3973511" lon="-8.5675115"><ele>324.0</ele><time>2026-05-02T11:45:59.473Z</time></trkpt><trkpt lat="42.3972698" lon="-8.5674535"><ele>324.0</ele><time>2026-05-02T11:46:00.48Z</time></trkpt><trkpt lat="42.3972018" lon="-8.5674018"><ele>323.2</ele><time>2026-05-02T11:46:01.477Z</time></trkpt><trkpt lat="42.3971209" lon="-8.567319"><ele>322.4</ele><time>2026-05-02T11:46:03.478Z</time></trkpt><trkpt lat="42.3970676" lon="-8.5672614"><ele>321.6</ele><time>2026-05-02T11:46:05.475Z</time></trkpt><trkpt lat="42.3970213" lon="-8.567152"><ele>320.8</ele><time>2026-05-02T11:46:08.473Z</time></trkpt><trkpt lat="42.3969783" lon="-8.5670266"><ele>320.0</ele><time>2026-05-02T11:46:10.482Z</time></trkpt><trkpt lat="42.396927" lon="-8.5669012"><ele>320.0</ele><time>2026-05-02T11:46:12.474Z</time></trkpt><trkpt lat="42.3968525" lon="-8.5667837"><ele>320.0</ele><time>2026-05-02T11:46:14.472Z</time></trkpt><trkpt lat="42.3967979" lon="-8.56674"><ele>320.0</ele><time>2026-05-02T11:46:15.472Z</time></trkpt><trkpt lat="42.3967306" lon="-8.5666978"><ele>320.0</ele><time>2026-05-02T11:46:16.475Z</time></trkpt><trkpt lat="42.396659" lon="-8.5666549"><ele>320.0</ele><time>2026-05-02T11:46:17.477Z</time></trkpt><trkpt lat="42.3965808" lon="-8.5666014"><ele>320.0</ele><time>2026-05-02T11:46:18.478Z</time></trkpt><trkpt lat="42.3965038" lon="-8.5665679"><ele>320.0</ele><time>2026-05-02T11:46:19.477Z</time></trkpt><trkpt lat="42.396426" lon="-8.566552"><ele>320.0</ele><time>2026-05-02T11:46:20.478Z</time></trkpt><trkpt lat="42.3963542" lon="-8.566536"><ele>320.0</ele><time>2026-05-02T11:46:21.472Z</time></trkpt><trkpt lat="42.3962879" lon="-8.5665171"><ele>320.0</ele><time>2026-05-02T11:46:22.471Z</time></trkpt><trkpt lat="42.3962261" lon="-8.5664996"><ele>320.0</ele><time>2026-05-02T11:46:23.467Z</time></trkpt><trkpt lat="42.3961609" lon="-8.5664753"><ele>320.0</ele><time>2026-05-02T11:46:24.475Z</time></trkpt><trkpt lat="42.3960971" lon="-8.5664564"><ele>320.0</ele><time>2026-05-02T11:46:25.479Z</time></trkpt><trkpt lat="42.3959831" lon="-8.5664212"><ele>320.6</ele><time>2026-05-02T11:46:27.476Z</time></trkpt><trkpt lat="42.3958929" lon="-8.5664163"><ele>321.2</ele><time>2026-05-02T11:46:29.484Z</time></trkpt><trkpt lat="42.395829" lon="-8.5664238"><ele>321.79999999999995</ele><time>2026-05-02T11:46:31.473Z</time></trkpt><trkpt lat="42.3957415" lon="-8.5664766"><ele>322.4</ele><time>2026-05-02T11:46:34.489Z</time></trkpt><trkpt lat="42.3956475" lon="-8.5665154"><ele>323.0</ele><time>2026-05-02T11:46:36.471Z</time></trkpt><trkpt lat="42.3955373" lon="-8.5665174"><ele>323.33333333333337</ele><time>2026-05-02T11:46:38.472Z</time></trkpt><trkpt lat="42.395445" lon="-8.5665255"><ele>323.6666666666667</ele><time>2026-05-02T11:46:40.475Z</time></trkpt><trkpt lat="42.3953722" lon="-8.5665654"><ele>324.0</ele><time>2026-05-02T11:46:42.484Z</time></trkpt><trkpt lat="42.3953222" lon="-8.5666192"><ele>324.3333333333333</ele><time>2026-05-02T11:46:44.479Z</time></trkpt><trkpt lat="42.3953142" lon="-8.566734"><ele>324.66666666666663</ele><time>2026-05-02T11:46:47.479Z</time></trkpt><trkpt lat="42.3953106" lon="-8.5668241"><ele>325.0</ele><time>2026-05-02T11:46:49.49Z</time></trkpt><trkpt lat="42.3953394" lon="-8.5669444"><ele>326.0</ele><time>2026-05-02T11:46:52.487Z</time></trkpt><trkpt lat="42.3953831" lon="-8.5670391"><ele>327.0</ele><time>2026-05-02T11:46:54.476Z</time></trkpt><trkpt lat="42.3954302" lon="-8.5671603"><ele>328.0</ele><time>2026-05-02T11:46:56.468Z</time></trkpt><trkpt lat="42.3954642" lon="-8.5673094"><ele>329.0</ele><time>2026-05-02T11:46:58.479Z</time></trkpt><trkpt lat="42.3954683" lon="-8.5674168"><ele>330.0</ele><time>2026-05-02T11:47:00.484Z</time></trkpt><trkpt lat="42.3954569" lon="-8.5675346"><ele>330.0</ele><time>2026-05-02T11:47:02.477Z</time></trkpt><trkpt lat="42.395418" lon="-8.5676457"><ele>330.0</ele><time>2026-05-02T11:47:04.474Z</time></trkpt><trkpt lat="42.3953734" lon="-8.5677626"><ele>330.0</ele><time>2026-05-02T11:47:06.473Z</time></trkpt><trkpt lat="42.3953571" lon="-8.5678515"><ele>330.0</ele><time>2026-05-02T11:47:07.469Z</time></trkpt><trkpt lat="42.3953376" lon="-8.5679366"><ele>330.0</ele><time>2026-05-02T11:47:08.472Z</time></trkpt><trkpt lat="42.3952864" lon="-8.5680716"><ele>330.0</ele><time>2026-05-02T11:47:10.475Z</time></trkpt><trkpt lat="42.3952158" lon="-8.5681814"><ele>331.1666666666667</ele><time>2026-05-02T11:47:12.475Z</time></trkpt><trkpt lat="42.3951338" lon="-8.5682711"><ele>332.3333333333333</ele><time>2026-05-02T11:47:14.479Z</time></trkpt><trkpt lat="42.3950251" lon="-8.5683553"><ele>333.5</ele><time>2026-05-02T11:47:16.478Z</time></trkpt><trkpt lat="42.3949665" lon="-8.568396"><ele>334.66666666666663</ele><time>2026-05-02T11:47:17.472Z</time></trkpt><trkpt lat="42.3949048" lon="-8.5684393"><ele>335.8333333333333</ele><time>2026-05-02T11:47:18.474Z</time></trkpt><trkpt lat="42.3948465" lon="-8.5684767"><ele>337.0</ele><time>2026-05-02T11:47:19.475Z</time></trkpt><trkpt lat="42.39479" lon="-8.5685211"><ele>337.00000000000006</ele><time>2026-05-02T11:47:20.476Z</time></trkpt><trkpt lat="42.3947351" lon="-8.5685799"><ele>337.0</ele><time>2026-05-02T11:47:21.478Z</time></trkpt><trkpt lat="42.3946881" lon="-8.5686384"><ele>337.0</ele><time>2026-05-02T11:47:22.471Z</time></trkpt><trkpt lat="42.3946412" lon="-8.5687041"><ele>337.0</ele><time>2026-05-02T11:47:23.475Z</time></trkpt><trkpt lat="42.3945984" lon="-8.5687714"><ele>337.0</ele><time>2026-05-02T11:47:24.476Z</time></trkpt><trkpt lat="42.3945618" lon="-8.5688417"><ele>337.00000000000006</ele><time>2026-05-02T11:47:25.479Z</time></trkpt><trkpt lat="42.3945327" lon="-8.5689322"><ele>337.0</ele><time>2026-05-02T11:47:26.481Z</time></trkpt><trkpt lat="42.3945045" lon="-8.5690211"><ele>336.40000000000003</ele><time>2026-05-02T11:47:27.47Z</time></trkpt><trkpt lat="42.394478" lon="-8.5691034"><ele>335.8</ele><time>2026-05-02T11:47:28.47Z</time></trkpt><trkpt lat="42.3944306" lon="-8.5692525"><ele>335.2</ele><time>2026-05-02T11:47:30.47Z</time></trkpt><trkpt lat="42.3943978" lon="-8.5693763"><ele>334.6</ele><time>2026-05-02T11:47:32.468Z</time></trkpt><trkpt lat="42.394337" lon="-8.5694614"><ele>334.0</ele><time>2026-05-02T11:47:34.472Z</time></trkpt><trkpt lat="42.394236" lon="-8.5695069"><ele>334.0</ele><time>2026-05-02T11:47:36.476Z</time></trkpt><trkpt lat="42.3941681" lon="-8.5695167"><ele>334.0</ele><time>2026-05-02T11:47:37.474Z</time></trkpt><trkpt lat="42.3940942" lon="-8.5694948"><ele>334.0</ele><time>2026-05-02T11:47:38.474Z</time></trkpt><trkpt lat="42.3940139" lon="-8.5694367"><ele>334.0</ele><time>2026-05-02T11:47:39.475Z</time></trkpt><trkpt lat="42.3939424" lon="-8.5693576"><ele>334.0</ele><time>2026-05-02T11:47:40.473Z</time></trkpt><trkpt lat="42.3938876" lon="-8.5692535"><ele>334.0</ele><time>2026-05-02T11:47:41.479Z</time></trkpt><trkpt lat="42.3938481" lon="-8.5691428"><ele>335.5</ele><time>2026-05-02T11:47:42.472Z</time></trkpt><trkpt lat="42.3938159" lon="-8.5690527"><ele>337.0</ele><time>2026-05-02T11:47:43.476Z</time></trkpt><trkpt lat="42.3937558" lon="-8.5689371"><ele>338.5</ele><time>2026-05-02T11:47:45.479Z</time></trkpt><trkpt lat="42.3936823" lon="-8.5689128"><ele>340.0</ele><time>2026-05-02T11:47:48.483Z</time></trkpt><trkpt lat="42.3935862" lon="-8.5689537"><ele>341.5</ele><time>2026-05-02T11:47:50.477Z</time></trkpt><trkpt lat="42.3935059" lon="-8.5690177"><ele>343.0</ele><time>2026-05-02T11:47:51.474Z</time></trkpt><trkpt lat="42.3934191" lon="-8.5690757"><ele>343.0</ele><time>2026-05-02T11:47:52.473Z</time></trkpt><trkpt lat="42.3933461" lon="-8.5691177"><ele>343.0</ele><time>2026-05-02T11:47:53.48Z</time></trkpt><trkpt lat="42.3932782" lon="-8.5691545"><ele>343.0</ele><time>2026-05-02T11:47:54.478Z</time></trkpt><trkpt lat="42.3931745" lon="-8.5691865"><ele>343.0</ele><time>2026-05-02T11:47:56.474Z</time></trkpt><trkpt lat="42.3930988" lon="-8.5691666"><ele>343.0</ele><time>2026-05-02T11:47:58.472Z</time></trkpt><trkpt lat="42.3930534" lon="-8.5691018"><ele>343.0</ele><time>2026-05-02T11:48:04.482Z</time></trkpt><trkpt lat="42.3929955" lon="-8.5690161"><ele>345.59999999999997</ele><time>2026-05-02T11:48:08.476Z</time></trkpt><trkpt lat="42.392904" lon="-8.5689256"><ele>348.2</ele><time>2026-05-02T11:48:10.473Z</time></trkpt><trkpt lat="42.3928024" lon="-8.5688758"><ele>350.8</ele><time>2026-05-02T11:48:12.48Z</time></trkpt><trkpt lat="42.3926836" lon="-8.5688626"><ele>353.4</ele><time>2026-05-02T11:48:14.47Z</time></trkpt><trkpt lat="42.3925945" lon="-8.5688461"><ele>356.0</ele><time>2026-05-02T11:48:15.477Z</time></trkpt><trkpt lat="42.3924928" lon="-8.5688226"><ele>356.0</ele><time>2026-05-02T11:48:16.477Z</time></trkpt><trkpt lat="42.3923973" lon="-8.5688068"><ele>356.0</ele><time>2026-05-02T11:48:17.471Z</time></trkpt><trkpt lat="42.3922966" lon="-8.5687931"><ele>356.0</ele><time>2026-05-02T11:48:18.475Z</time></trkpt><trkpt lat="42.3922127" lon="-8.5687826"><ele>356.0</ele><time>2026-05-02T11:48:19.47Z</time></trkpt><trkpt lat="42.3921461" lon="-8.5687568"><ele>356.0</ele><time>2026-05-02T11:48:20.475Z</time></trkpt><trkpt lat="42.392061" lon="-8.5686813"><ele>356.83333333333337</ele><time>2026-05-02T11:48:22.476Z</time></trkpt><trkpt lat="42.3919682" lon="-8.5686435"><ele>357.6666666666667</ele><time>2026-05-02T11:48:24.472Z</time></trkpt><trkpt lat="42.3918766" lon="-8.5686188"><ele>358.5</ele><time>2026-05-02T11:48:26.474Z</time></trkpt><trkpt lat="42.3918038" lon="-8.5685868"><ele>359.3333333333333</ele><time>2026-05-02T11:48:28.473Z</time></trkpt><trkpt lat="42.3917307" lon="-8.5685515"><ele>360.16666666666663</ele><time>2026-05-02T11:48:30.471Z</time></trkpt><trkpt lat="42.3916328" lon="-8.5685301"><ele>361.0</ele><time>2026-05-02T11:48:32.472Z</time></trkpt><trkpt lat="42.391523" lon="-8.5685639"><ele>361.0</ele><time>2026-05-02T11:48:34.483Z</time></trkpt><trkpt lat="42.391432" lon="-8.5686417"><ele>361.0</ele><time>2026-05-02T11:48:36.474Z</time></trkpt><trkpt lat="42.3913306" lon="-8.5687231"><ele>361.0</ele><time>2026-05-02T11:48:38.48Z</time></trkpt><trkpt lat="42.3912211" lon="-8.5688019"><ele>361.0</ele><time>2026-05-02T11:48:40.476Z</time></trkpt><trkpt lat="42.3911183" lon="-8.5688824"><ele>363.6</ele><time>2026-05-02T11:48:42.478Z</time></trkpt><trkpt lat="42.3910137" lon="-8.5689764"><ele>366.20000000000005</ele><time>2026-05-02T11:48:44.471Z</time></trkpt><trkpt lat="42.3909337" lon="-8.5690654"><ele>368.79999999999995</ele><time>2026-05-02T11:48:46.475Z</time></trkpt><trkpt lat="42.3908651" lon="-8.5691461"><ele>371.4</ele><time>2026-05-02T11:48:48.473Z</time></trkpt><trkpt lat="42.3907816" lon="-8.5691977"><ele>374.0</ele><time>2026-05-02T11:48:50.473Z</time></trkpt><trkpt lat="42.390736" lon="-8.5692584"><ele>374.0</ele><time>2026-05-02T11:48:52.47Z</time></trkpt><trkpt lat="42.3906764" lon="-8.5693559"><ele>374.0</ele><time>2026-05-02T11:48:56.475Z</time></trkpt><trkpt lat="42.3906323" lon="-8.5694204"><ele>374.0</ele><time>2026-05-02T11:48:57.469Z</time></trkpt><trkpt lat="42.390578" lon="-8.5695014"><ele>374.0</ele><time>2026-05-02T11:48:58.474Z</time></trkpt><trkpt lat="42.3905029" lon="-8.5695819"><ele>374.0</ele><time>2026-05-02T11:48:59.471Z</time></trkpt><trkpt lat="42.3904241" lon="-8.5696546"><ele>374.0</ele><time>2026-05-02T11:49:00.473Z</time></trkpt><trkpt lat="42.39036" lon="-8.5697177"><ele>376.33333333333337</ele><time>2026-05-02T11:49:01.485Z</time></trkpt><trkpt lat="42.3903004" lon="-8.5697529"><ele>378.6666666666667</ele><time>2026-05-02T11:49:02.472Z</time></trkpt><trkpt lat="42.3902282" lon="-8.5697766"><ele>381.0</ele><time>2026-05-02T11:49:07.477Z</time></trkpt><trkpt lat="42.3901569" lon="-8.5698281"><ele>383.33333333333337</ele><time>2026-05-02T11:49:09.476Z</time></trkpt><trkpt lat="42.3900921" lon="-8.5698769"><ele>385.6666666666667</ele><time>2026-05-02T11:49:10.485Z</time></trkpt><trkpt lat="42.3900331" lon="-8.5699375"><ele>388.0</ele><time>2026-05-02T11:49:11.474Z</time></trkpt><trkpt lat="42.3899327" lon="-8.570058"><ele>388.0</ele><time>2026-05-02T11:49:12.475Z</time></trkpt><trkpt lat="42.3898584" lon="-8.5701855"><ele>388.0</ele><time>2026-05-02T11:49:13.473Z</time></trkpt><trkpt lat="42.3897694" lon="-8.5702568"><ele>388.0</ele><time>2026-05-02T11:49:14.472Z</time></trkpt><trkpt lat="42.3896827" lon="-8.5702858"><ele>388.0</ele><time>2026-05-02T11:49:15.478Z</time></trkpt><trkpt lat="42.389595" lon="-8.5703456"><ele>388.0</ele><time>2026-05-02T11:49:17.472Z</time></trkpt><trkpt lat="42.3895097" lon="-8.5704356"><ele>391.79999999999995</ele><time>2026-05-02T11:49:19.474Z</time></trkpt><trkpt lat="42.3894265" lon="-8.5705305"><ele>395.6</ele><time>2026-05-02T11:49:20.474Z</time></trkpt><trkpt lat="42.3893296" lon="-8.570645"><ele>399.4</ele><time>2026-05-02T11:49:21.478Z</time></trkpt><trkpt lat="42.3892365" lon="-8.5707461"><ele>403.20000000000005</ele><time>2026-05-02T11:49:22.478Z</time></trkpt><trkpt lat="42.3891602" lon="-8.5708001"><ele>407.0</ele><time>2026-05-02T11:49:23.483Z</time></trkpt><trkpt lat="42.3890698" lon="-8.5708409"><ele>406.99999999999994</ele><time>2026-05-02T11:49:24.474Z</time></trkpt><trkpt lat="42.388992" lon="-8.570884"><ele>407.0</ele><time>2026-05-02T11:49:25.474Z</time></trkpt><trkpt lat="42.3889204" lon="-8.5709198"><ele>407.0</ele><time>2026-05-02T11:49:26.469Z</time></trkpt><trkpt lat="42.3888536" lon="-8.5709392"><ele>407.0</ele><time>2026-05-02T11:49:27.472Z</time></trkpt><trkpt lat="42.388772" lon="-8.5709483"><ele>406.99999999999994</ele><time>2026-05-02T11:49:28.471Z</time></trkpt><trkpt lat="42.3886636" lon="-8.5709498"><ele>407.0</ele><time>2026-05-02T11:49:29.482Z</time></trkpt><trkpt lat="42.3885343" lon="-8.5709443"><ele>409.5</ele><time>2026-05-02T11:49:30.471Z</time></trkpt><trkpt lat="42.3883995" lon="-8.5709396"><ele>412.0</ele><time>2026-05-02T11:49:31.468Z</time></trkpt><trkpt lat="42.3882628" lon="-8.5709443"><ele>414.5</ele><time>2026-05-02T11:49:32.475Z</time></trkpt><trkpt lat="42.3881333" lon="-8.5709595"><ele>417.0</ele><time>2026-05-02T11:49:33.485Z</time></trkpt><trkpt lat="42.3880205" lon="-8.5709721"><ele>417.3333333333333</ele><time>2026-05-02T11:49:34.468Z</time></trkpt><trkpt lat="42.3879256" lon="-8.570976"><ele>417.66666666666663</ele><time>2026-05-02T11:49:35.474Z</time></trkpt><trkpt lat="42.3878572" lon="-8.5709731"><ele>418.0</ele><time>2026-05-02T11:49:36.47Z</time></trkpt><trkpt lat="42.3877619" lon="-8.5709525"><ele>418.3333333333333</ele><time>2026-05-02T11:49:38.472Z</time></trkpt><trkpt lat="42.3876974" lon="-8.5709624"><ele>418.66666666666663</ele><time>2026-05-02T11:49:50.471Z</time></trkpt><trkpt lat="42.3876211" lon="-8.5709517"><ele>419.0</ele><time>2026-05-02T11:49:53.47Z</time></trkpt><trkpt lat="42.3875263" lon="-8.5709511"><ele>419.0</ele><time>2026-05-02T11:49:55.484Z</time></trkpt><trkpt lat="42.3874282" lon="-8.5709324"><ele>419.0</ele><time>2026-05-02T11:49:57.47Z</time></trkpt><trkpt lat="42.3873148" lon="-8.5708934"><ele>419.0</ele><time>2026-05-02T11:49:59.487Z</time></trkpt><trkpt lat="42.387191" lon="-8.570842"><ele>419.0</ele><time>2026-05-02T11:50:01.485Z</time></trkpt><trkpt lat="42.3871266" lon="-8.5708006"><ele>419.0</ele><time>2026-05-02T11:50:02.476Z</time></trkpt><trkpt lat="42.3870656" lon="-8.5707566"><ele>419.49999999999994</ele><time>2026-05-02T11:50:03.472Z</time></trkpt><trkpt lat="42.3870114" lon="-8.5707099"><ele>420.0</ele><time>2026-05-02T11:50:04.473Z</time></trkpt><trkpt lat="42.3869556" lon="-8.5706618"><ele>420.5</ele><time>2026-05-02T11:50:05.479Z</time></trkpt><trkpt lat="42.386901" lon="-8.5706189"><ele>421.0</ele><time>2026-05-02T11:50:06.471Z</time></trkpt><trkpt lat="42.3868083" lon="-8.5705467"><ele>421.49999999999994</ele><time>2026-05-02T11:50:08.471Z</time></trkpt><trkpt lat="42.3867441" lon="-8.5704231"><ele>422.0</ele><time>2026-05-02T11:50:10.473Z</time></trkpt><trkpt lat="42.3867168" lon="-8.5702557"><ele>420.0</ele><time>2026-05-02T11:50:12.485Z</time></trkpt><trkpt lat="42.3867006" lon="-8.5701685"><ele>418.0</ele><time>2026-05-02T11:50:13.478Z</time></trkpt><trkpt lat="42.3866699" lon="-8.5700149"><ele>416.0</ele><time>2026-05-02T11:50:15.473Z</time></trkpt><trkpt lat="42.3866459" lon="-8.5699016"><ele>414.0</ele><time>2026-05-02T11:50:17.469Z</time></trkpt><trkpt lat="42.3865974" lon="-8.569818"><ele>412.0</ele><time>2026-05-02T11:50:19.476Z</time></trkpt><trkpt lat="42.3865134" lon="-8.5697264"><ele>412.00000000000006</ele><time>2026-05-02T11:50:21.476Z</time></trkpt><trkpt lat="42.3864543" lon="-8.5696876"><ele>412.0</ele><time>2026-05-02T11:50:22.475Z</time></trkpt><trkpt lat="42.3863967" lon="-8.5696497"><ele>412.0</ele><time>2026-05-02T11:50:23.472Z</time></trkpt><trkpt lat="42.3862749" lon="-8.5695682"><ele>412.0</ele><time>2026-05-02T11:50:25.477Z</time></trkpt><trkpt lat="42.3862086" lon="-8.5695272"><ele>412.00000000000006</ele><time>2026-05-02T11:50:26.474Z</time></trkpt><trkpt lat="42.3861185" lon="-8.5694774"><ele>412.0</ele><time>2026-05-02T11:50:28.479Z</time></trkpt><trkpt lat="42.3861861" lon="-8.5694106"><ele>411.40000000000003</ele><time>2026-05-02T11:50:34.472Z</time></trkpt><trkpt lat="42.3862638" lon="-8.5693074"><ele>410.8</ele><time>2026-05-02T11:50:36.485Z</time></trkpt><trkpt lat="42.3863119" lon="-8.569212"><ele>410.2</ele><time>2026-05-02T11:50:37.475Z</time></trkpt><trkpt lat="42.386373" lon="-8.5691029"><ele>409.6</ele><time>2026-05-02T11:50:38.472Z</time></trkpt><trkpt lat="42.3864425" lon="-8.5690073"><ele>409.0</ele><time>2026-05-02T11:50:39.48Z</time></trkpt><trkpt lat="42.3865129" lon="-8.5689263"><ele>408.6666666666667</ele><time>2026-05-02T11:50:40.472Z</time></trkpt><trkpt lat="42.3865735" lon="-8.5688794"><ele>408.33333333333337</ele><time>2026-05-02T11:50:41.476Z</time></trkpt><trkpt lat="42.3866823" lon="-8.5688409"><ele>408.0</ele><time>2026-05-02T11:50:43.478Z</time></trkpt><trkpt lat="42.3867475" lon="-8.5688461"><ele>407.66666666666663</ele><time>2026-05-02T11:50:44.465Z</time></trkpt><trkpt lat="42.3868167" lon="-8.5688705"><ele>407.3333333333333</ele><time>2026-05-02T11:50:45.474Z</time></trkpt><trkpt lat="42.3869" lon="-8.5688878"><ele>407.0</ele><time>2026-05-02T11:50:46.469Z</time></trkpt><trkpt lat="42.38697" lon="-8.5689019"><ele>406.99999999999994</ele><time>2026-05-02T11:50:47.472Z</time></trkpt><trkpt lat="42.3870416" lon="-8.5689218"><ele>407.0</ele><time>2026-05-02T11:50:48.478Z</time></trkpt><trkpt lat="42.3871126" lon="-8.5689368"><ele>407.0</ele><time>2026-05-02T11:50:49.474Z</time></trkpt><trkpt lat="42.3872028" lon="-8.5689528"><ele>407.0</ele><time>2026-05-02T11:50:50.48Z</time></trkpt><trkpt lat="42.3873025" lon="-8.5689634"><ele>406.99999999999994</ele><time>2026-05-02T11:50:51.485Z</time></trkpt><trkpt lat="42.3873963" lon="-8.5689687"><ele>407.0</ele><time>2026-05-02T11:50:52.477Z</time></trkpt><trkpt lat="42.3874795" lon="-8.5689563"><ele>405.66666666666663</ele><time>2026-05-02T11:50:53.471Z</time></trkpt><trkpt lat="42.3875572" lon="-8.5689395"><ele>404.3333333333333</ele><time>2026-05-02T11:50:54.469Z</time></trkpt><trkpt lat="42.3876278" lon="-8.5689132"><ele>403.0</ele><time>2026-05-02T11:50:55.467Z</time></trkpt><trkpt lat="42.3877101" lon="-8.5688537"><ele>401.66666666666663</ele><time>2026-05-02T11:51:02.472Z</time></trkpt><trkpt lat="42.3877706" lon="-8.5688241"><ele>400.3333333333333</ele><time>2026-05-02T11:51:03.472Z</time></trkpt><trkpt lat="42.3878469" lon="-8.5687833"><ele>399.0</ele><time>2026-05-02T11:51:04.471Z</time></trkpt><trkpt lat="42.3879216" lon="-8.5687329"><ele>396.6666666666667</ele><time>2026-05-02T11:51:05.471Z</time></trkpt><trkpt lat="42.3879932" lon="-8.568677"><ele>394.33333333333337</ele><time>2026-05-02T11:51:06.467Z</time></trkpt><trkpt lat="42.3880679" lon="-8.5686242"><ele>392.0</ele><time>2026-05-02T11:51:07.477Z</time></trkpt><trkpt lat="42.3881442" lon="-8.5685729"><ele>389.6666666666667</ele><time>2026-05-02T11:51:08.479Z</time></trkpt><trkpt lat="42.3882146" lon="-8.5685086"><ele>387.33333333333337</ele><time>2026-05-02T11:51:09.47Z</time></trkpt><trkpt lat="42.3882719" lon="-8.5684329"><ele>385.0</ele><time>2026-05-02T11:51:10.479Z</time></trkpt><trkpt lat="42.3883243" lon="-8.5683613"><ele>384.83333333333337</ele><time>2026-05-02T11:51:11.476Z</time></trkpt><trkpt lat="42.3883834" lon="-8.5682931"><ele>384.6666666666667</ele><time>2026-05-02T11:51:12.47Z</time></trkpt><trkpt lat="42.3884376" lon="-8.5682285"><ele>384.5</ele><time>2026-05-02T11:51:13.486Z</time></trkpt><trkpt lat="42.3884891" lon="-8.5681724"><ele>384.33333333333337</ele><time>2026-05-02T11:51:14.474Z</time></trkpt><trkpt lat="42.3885428" lon="-8.5681248"><ele>384.1666666666667</ele><time>2026-05-02T11:51:15.467Z</time></trkpt><trkpt lat="42.3885953" lon="-8.5680738"><ele>384.0</ele><time>2026-05-02T11:51:16.475Z</time></trkpt><trkpt lat="42.3886758" lon="-8.5679681"><ele>382.1666666666667</ele><time>2026-05-02T11:51:18.482Z</time></trkpt><trkpt lat="42.3887519" lon="-8.5678303"><ele>380.3333333333333</ele><time>2026-05-02T11:51:20.47Z</time></trkpt><trkpt lat="42.388789" lon="-8.5677568"><ele>378.5</ele><time>2026-05-02T11:51:21.483Z</time></trkpt><trkpt lat="42.3888214" lon="-8.5676835"><ele>376.66666666666663</ele><time>2026-05-02T11:51:22.469Z</time></trkpt><trkpt lat="42.3889105" lon="-8.567588"><ele>374.8333333333333</ele><time>2026-05-02T11:51:24.469Z</time></trkpt><trkpt lat="42.3889685" lon="-8.5675487"><ele>373.0</ele><time>2026-05-02T11:51:25.473Z</time></trkpt><trkpt lat="42.3890206" lon="-8.5674959"><ele>373.0</ele><time>2026-05-02T11:51:26.479Z</time></trkpt><trkpt lat="42.3890748" lon="-8.567438"><ele>373.0</ele><time>2026-05-02T11:51:27.486Z</time></trkpt><trkpt lat="42.3891262" lon="-8.5673857"><ele>373.0</ele><time>2026-05-02T11:51:28.474Z</time></trkpt><trkpt lat="42.3892005" lon="-8.5672847"><ele>373.0</ele><time>2026-05-02T11:51:30.482Z</time></trkpt><trkpt lat="42.389232" lon="-8.567195"><ele>373.0</ele><time>2026-05-02T11:51:32.471Z</time></trkpt><trkpt lat="42.3891894" lon="-8.5670957"><ele>373.0</ele><time>2026-05-02T11:51:35.475Z</time></trkpt><trkpt lat="42.3891146" lon="-8.5670707"><ele>373.0</ele><time>2026-05-02T11:51:37.477Z</time></trkpt><trkpt lat="42.3890489" lon="-8.5670436"><ele>373.0</ele><time>2026-05-02T11:51:39.48Z</time></trkpt><trkpt lat="42.3889506" lon="-8.5670162"><ele>373.0</ele><time>2026-05-02T11:51:41.475Z</time></trkpt><trkpt lat="42.3888414" lon="-8.5670068"><ele>373.0</ele><time>2026-05-02T11:51:43.477Z</time></trkpt><trkpt lat="42.3887242" lon="-8.5670072"><ele>373.0</ele><time>2026-05-02T11:51:45.472Z</time></trkpt><trkpt lat="42.3886128" lon="-8.5670567"><ele>372.3333333333333</ele><time>2026-05-02T11:51:47.473Z</time></trkpt><trkpt lat="42.3885549" lon="-8.5670914"><ele>371.66666666666663</ele><time>2026-05-02T11:51:48.468Z</time></trkpt><trkpt lat="42.3884954" lon="-8.5671395"><ele>371.0</ele><time>2026-05-02T11:51:49.481Z</time></trkpt><trkpt lat="42.3884358" lon="-8.5671915"><ele>370.3333333333333</ele><time>2026-05-02T11:51:50.47Z</time></trkpt><trkpt lat="42.3883675" lon="-8.5672384"><ele>369.6666666666667</ele><time>2026-05-02T11:51:51.474Z</time></trkpt><trkpt lat="42.3882635" lon="-8.5672714"><ele>369.0</ele><time>2026-05-02T11:51:53.48Z</time></trkpt><trkpt lat="42.3881631" lon="-8.5672472"><ele>369.0</ele><time>2026-05-02T11:51:55.473Z</time></trkpt><trkpt lat="42.3880666" lon="-8.56717"><ele>369.0</ele><time>2026-05-02T11:51:57.471Z</time></trkpt><trkpt lat="42.3879819" lon="-8.5670858"><ele>369.0</ele><time>2026-05-02T11:51:59.475Z</time></trkpt><trkpt lat="42.3878846" lon="-8.5670866"><ele>369.0</ele><time>2026-05-02T11:52:01.474Z</time></trkpt><trkpt lat="42.3878175" lon="-8.5671227"><ele>369.0</ele><time>2026-05-02T11:52:02.471Z</time></trkpt><trkpt lat="42.3877535" lon="-8.5671622"><ele>369.5</ele><time>2026-05-02T11:52:03.484Z</time></trkpt><trkpt lat="42.3876818" lon="-8.5671768"><ele>370.0</ele><time>2026-05-02T11:52:04.471Z</time></trkpt><trkpt lat="42.3876013" lon="-8.5671646"><ele>370.5</ele><time>2026-05-02T11:52:05.473Z</time></trkpt><trkpt lat="42.3875296" lon="-8.5671501"><ele>371.0</ele><time>2026-05-02T11:52:06.475Z</time></trkpt><trkpt lat="42.3874592" lon="-8.5671276"><ele>371.5</ele><time>2026-05-02T11:52:07.472Z</time></trkpt><trkpt lat="42.3873444" lon="-8.5670915"><ele>372.0</ele><time>2026-05-02T11:52:09.476Z</time></trkpt><trkpt lat="42.3872695" lon="-8.5670806"><ele>372.0</ele><time>2026-05-02T11:52:11.479Z</time></trkpt><trkpt lat="42.3872118" lon="-8.5671863"><ele>372.0</ele><time>2026-05-02T11:52:14.485Z</time></trkpt><trkpt lat="42.3871933" lon="-8.5672736"><ele>372.0</ele><time>2026-05-02T11:52:16.475Z</time></trkpt><trkpt lat="42.3871906" lon="-8.5673724"><ele>372.0</ele><time>2026-05-02T11:52:18.474Z</time></trkpt><trkpt lat="42.3871829" lon="-8.5674735"><ele>372.0</ele><time>2026-05-02T11:52:24.47Z</time></trkpt><trkpt lat="42.3871563" lon="-8.5675543"><ele>372.0</ele><time>2026-05-02T11:52:28.474Z</time></trkpt><trkpt lat="42.3870758" lon="-8.5675928"><ele>372.00000000000006</ele><time>2026-05-02T11:52:32.476Z</time></trkpt><trkpt lat="42.3870199" lon="-8.5676403"><ele>372.0</ele><time>2026-05-02T11:52:36.487Z</time></trkpt><trkpt lat="42.3870668" lon="-8.5675821"><ele>372.0</ele><time>2026-05-02T11:54:00.477Z</time></trkpt><trkpt lat="42.3871137" lon="-8.5675137"><ele>372.0</ele><time>2026-05-02T11:54:03.464Z</time></trkpt><trkpt lat="42.3871584" lon="-8.5674441"><ele>372.0</ele><time>2026-05-02T11:54:10.476Z</time></trkpt><trkpt lat="42.3872084" lon="-8.5673865"><ele>372.00000000000006</ele><time>2026-05-02T11:55:04.479Z</time></trkpt><trkpt lat="42.3872413" lon="-8.5672914"><ele>372.0</ele><time>2026-05-02T11:55:08.477Z</time></trkpt><trkpt lat="42.3872603" lon="-8.5671791"><ele>372.00000000000006</ele><time>2026-05-02T11:55:11.472Z</time></trkpt><trkpt lat="42.3872792" lon="-8.5670768"><ele>372.0</ele><time>2026-05-02T11:55:14.477Z</time></trkpt><trkpt lat="42.3873433" lon="-8.5670308"><ele>372.0</ele><time>2026-05-02T11:55:17.471Z</time></trkpt><trkpt lat="42.3874069" lon="-8.5670257"><ele>372.0</ele><time>2026-05-02T11:55:20.465Z</time></trkpt><trkpt lat="42.3874216" lon="-8.5669214"><ele>372.0</ele><time>2026-05-02T11:55:26.482Z</time></trkpt><trkpt lat="42.3873921" lon="-8.5668219"><ele>372.00000000000006</ele><time>2026-05-02T11:55:28.474Z</time></trkpt><trkpt lat="42.3873393" lon="-8.5667489"><ele>372.0</ele><time>2026-05-02T11:55:30.471Z</time></trkpt><trkpt lat="42.3872752" lon="-8.5666718"><ele>370.40000000000003</ele><time>2026-05-02T11:55:32.472Z</time></trkpt><trkpt lat="42.3872024" lon="-8.5666007"><ele>368.8</ele><time>2026-05-02T11:55:34.467Z</time></trkpt><trkpt lat="42.3871263" lon="-8.5665105"><ele>367.2</ele><time>2026-05-02T11:55:36.479Z</time></trkpt><trkpt lat="42.3870453" lon="-8.5664256"><ele>365.6</ele><time>2026-05-02T11:55:38.471Z</time></trkpt><trkpt lat="42.3869841" lon="-8.566322"><ele>364.0</ele><time>2026-05-02T11:55:40.483Z</time></trkpt><trkpt lat="42.3869335" lon="-8.5661949"><ele>362.0</ele><time>2026-05-02T11:55:42.469Z</time></trkpt><trkpt lat="42.3868704" lon="-8.5660641"><ele>360.0</ele><time>2026-05-02T11:55:44.476Z</time></trkpt><trkpt lat="42.3868197" lon="-8.5659364"><ele>358.0</ele><time>2026-05-02T11:55:46.465Z</time></trkpt><trkpt lat="42.3867932" lon="-8.5658103"><ele>356.0</ele><time>2026-05-02T11:55:48.473Z</time></trkpt><trkpt lat="42.3868269" lon="-8.56569"><ele>354.0</ele><time>2026-05-02T11:55:50.471Z</time></trkpt><trkpt lat="42.3868852" lon="-8.5655953"><ele>354.0</ele><time>2026-05-02T11:55:52.476Z</time></trkpt><trkpt lat="42.3869221" lon="-8.5654958"><ele>354.0</ele><time>2026-05-02T11:55:54.471Z</time></trkpt><trkpt lat="42.3868786" lon="-8.5654185"><ele>354.0</ele><time>2026-05-02T11:55:57.471Z</time></trkpt><trkpt lat="42.3868049" lon="-8.5653753"><ele>354.0</ele><time>2026-05-02T11:55:59.472Z</time></trkpt><trkpt lat="42.3867051" lon="-8.5653494"><ele>354.0</ele><time>2026-05-02T11:56:01.474Z</time></trkpt><trkpt lat="42.386616" lon="-8.5653073"><ele>354.0</ele><time>2026-05-02T11:56:03.468Z</time></trkpt><trkpt lat="42.3865423" lon="-8.5652492"><ele>353.0</ele><time>2026-05-02T11:56:06.469Z</time></trkpt><trkpt lat="42.386475" lon="-8.5652613"><ele>352.0</ele><time>2026-05-02T11:56:08.47Z</time></trkpt><trkpt lat="42.3863728" lon="-8.5653041"><ele>351.0</ele><time>2026-05-02T11:56:10.469Z</time></trkpt><trkpt lat="42.3862631" lon="-8.5653414"><ele>350.0</ele><time>2026-05-02T11:56:12.471Z</time></trkpt><trkpt lat="42.3861477" lon="-8.5653818"><ele>349.0</ele><time>2026-05-02T11:56:14.469Z</time></trkpt><trkpt lat="42.3860308" lon="-8.5653812"><ele>349.0</ele><time>2026-05-02T11:56:16.476Z</time></trkpt><trkpt lat="42.3859167" lon="-8.5653886"><ele>349.0</ele><time>2026-05-02T11:56:18.474Z</time></trkpt><trkpt lat="42.3857892" lon="-8.565365"><ele>349.0</ele><time>2026-05-02T11:56:20.472Z</time></trkpt><trkpt lat="42.3856781" lon="-8.5653055"><ele>349.0</ele><time>2026-05-02T11:56:22.472Z</time></trkpt><trkpt lat="42.3855899" lon="-8.5652366"><ele>346.0</ele><time>2026-05-02T11:56:24.47Z</time></trkpt><trkpt lat="42.3854922" lon="-8.5651628"><ele>343.0</ele><time>2026-05-02T11:56:26.464Z</time></trkpt><trkpt lat="42.3854094" lon="-8.5651016"><ele>340.0</ele><time>2026-05-02T11:56:28.482Z</time></trkpt><trkpt lat="42.3853454" lon="-8.5650709"><ele>337.0</ele><time>2026-05-02T11:56:30.463Z</time></trkpt><trkpt lat="42.3852525" lon="-8.5650951"><ele>334.0</ele><time>2026-05-02T11:56:32.476Z</time></trkpt><trkpt lat="42.3851296" lon="-8.5650951"><ele>334.0</ele><time>2026-05-02T11:56:34.473Z</time></trkpt><trkpt lat="42.385017" lon="-8.5650645"><ele>334.0</ele><time>2026-05-02T11:56:36.468Z</time></trkpt><trkpt lat="42.3849275" lon="-8.5650586"><ele>334.0</ele><time>2026-05-02T11:56:38.471Z</time></trkpt><trkpt lat="42.3848343" lon="-8.5650503"><ele>334.0</ele><time>2026-05-02T11:56:40.466Z</time></trkpt><trkpt lat="42.3847553" lon="-8.5650409"><ele>334.0</ele><time>2026-05-02T11:56:42.481Z</time></trkpt><trkpt lat="42.3846933" lon="-8.5650161"><ele>334.0</ele><time>2026-05-02T11:56:44.466Z</time></trkpt><trkpt lat="42.3846231" lon="-8.5650107"><ele>336.8333333333333</ele><time>2026-05-02T11:56:47.468Z</time></trkpt><trkpt lat="42.3845257" lon="-8.5650184"><ele>339.66666666666663</ele><time>2026-05-02T11:56:50.47Z</time></trkpt><trkpt lat="42.3844333" lon="-8.5650301"><ele>342.5</ele><time>2026-05-02T11:56:52.471Z</time></trkpt><trkpt lat="42.3843484" lon="-8.565039"><ele>345.3333333333333</ele><time>2026-05-02T11:56:54.477Z</time></trkpt><trkpt lat="42.3842649" lon="-8.564995"><ele>348.1666666666667</ele><time>2026-05-02T11:56:57.478Z</time></trkpt><trkpt lat="42.3842222" lon="-8.564907"><ele>351.0</ele><time>2026-05-02T11:56:59.482Z</time></trkpt><trkpt lat="42.3841904" lon="-8.5647801"><ele>351.0</ele><time>2026-05-02T11:57:01.474Z</time></trkpt><trkpt lat="42.3841312" lon="-8.5646387"><ele>351.0</ele><time>2026-05-02T11:57:03.48Z</time></trkpt><trkpt lat="42.3840934" lon="-8.5645434"><ele>351.0</ele><time>2026-05-02T11:57:04.472Z</time></trkpt><trkpt lat="42.3840588" lon="-8.564458"><ele>351.0</ele><time>2026-05-02T11:57:05.472Z</time></trkpt><trkpt lat="42.38403" lon="-8.5643795"><ele>351.0</ele><time>2026-05-02T11:57:06.473Z</time></trkpt><trkpt lat="42.384" lon="-8.5642859"><ele>351.0</ele><time>2026-05-02T11:57:07.473Z</time></trkpt><trkpt lat="42.383968" lon="-8.5641904"><ele>351.0</ele><time>2026-05-02T11:57:08.47Z</time></trkpt><trkpt lat="42.3839384" lon="-8.564092"><ele>351.0</ele><time>2026-05-02T11:57:09.48Z</time></trkpt><trkpt lat="42.3839048" lon="-8.5639892"><ele>351.0</ele><time>2026-05-02T11:57:10.476Z</time></trkpt><trkpt lat="42.3838644" lon="-8.5638967"><ele>351.0</ele><time>2026-05-02T11:57:11.472Z</time></trkpt><trkpt lat="42.3838184" lon="-8.5638109"><ele>351.0</ele><time>2026-05-02T11:57:12.475Z</time></trkpt><trkpt lat="42.3837779" lon="-8.563738"><ele>351.0</ele><time>2026-05-02T11:57:13.476Z</time></trkpt><trkpt lat="42.3837335" lon="-8.5636671"><ele>351.0</ele><time>2026-05-02T11:57:14.469Z</time></trkpt><trkpt lat="42.383683" lon="-8.5635917"><ele>351.0</ele><time>2026-05-02T11:57:15.471Z</time></trkpt><trkpt lat="42.3836233" lon="-8.5635209"><ele>351.0</ele><time>2026-05-02T11:57:16.474Z</time></trkpt><trkpt lat="42.383556" lon="-8.5634622"><ele>351.0</ele><time>2026-05-02T11:57:17.473Z</time></trkpt><trkpt lat="42.3835017" lon="-8.5634076"><ele>351.0</ele><time>2026-05-02T11:57:18.469Z</time></trkpt><trkpt lat="42.3834141" lon="-8.5633344"><ele>351.0</ele><time>2026-05-02T11:57:20.469Z</time></trkpt><trkpt lat="42.3833055" lon="-8.5633046"><ele>351.0</ele><time>2026-05-02T11:57:22.469Z</time></trkpt><trkpt lat="42.383183" lon="-8.5632805"><ele>351.0</ele><time>2026-05-02T11:57:24.467Z</time></trkpt><trkpt lat="42.3831133" lon="-8.5632764"><ele>351.0</ele><time>2026-05-02T11:57:25.474Z</time></trkpt><trkpt lat="42.3830371" lon="-8.5632712"><ele>351.0</ele><time>2026-05-02T11:57:26.475Z</time></trkpt><trkpt lat="42.3829621" lon="-8.5632744"><ele>351.0</ele><time>2026-05-02T11:57:27.477Z</time></trkpt><trkpt lat="42.3828886" lon="-8.5632852"><ele>351.0</ele><time>2026-05-02T11:57:28.475Z</time></trkpt><trkpt lat="42.3828136" lon="-8.5632981"><ele>351.6666666666667</ele><time>2026-05-02T11:57:29.461Z</time></trkpt><trkpt lat="42.3827442" lon="-8.5633098"><ele>352.3333333333333</ele><time>2026-05-02T11:57:30.469Z</time></trkpt><trkpt lat="42.3826775" lon="-8.5633238"><ele>353.0</ele><time>2026-05-02T11:57:31.469Z</time></trkpt><trkpt lat="42.382579" lon="-8.5633435"><ele>353.66666666666663</ele><time>2026-05-02T11:57:33.467Z</time></trkpt><trkpt lat="42.3825132" lon="-8.5633596"><ele>354.3333333333333</ele><time>2026-05-02T11:57:36.464Z</time></trkpt><trkpt lat="42.3825602" lon="-8.5634552"><ele>355.0</ele><time>2026-05-02T11:57:53.475Z</time></trkpt><trkpt lat="42.3825019" lon="-8.5635148"><ele>355.0</ele><time>2026-05-02T11:58:00.466Z</time></trkpt><trkpt lat="42.3824268" lon="-8.5635604"><ele>355.0</ele><time>2026-05-02T11:58:03.465Z</time></trkpt><trkpt lat="42.3823583" lon="-8.5636159"><ele>355.0</ele><time>2026-05-02T11:58:06.485Z</time></trkpt><trkpt lat="42.3822953" lon="-8.563678"><ele>355.0</ele><time>2026-05-02T11:58:09.464Z</time></trkpt><trkpt lat="42.3822235" lon="-8.5637306"><ele>355.0</ele><time>2026-05-02T11:58:12.474Z</time></trkpt><trkpt lat="42.3821668" lon="-8.5637711"><ele>355.0</ele><time>2026-05-02T11:58:14.478Z</time></trkpt><trkpt lat="42.3820791" lon="-8.5637819"><ele>357.2857142857143</ele><time>2026-05-02T11:58:17.471Z</time></trkpt><trkpt lat="42.3820083" lon="-8.5638553"><ele>359.57142857142856</ele><time>2026-05-02T11:58:19.473Z</time></trkpt><trkpt lat="42.3819833" lon="-8.5639564"><ele>361.8571428571429</ele><time>2026-05-02T11:58:21.472Z</time></trkpt><trkpt lat="42.3819292" lon="-8.5640058"><ele>364.1428571428571</ele><time>2026-05-02T11:58:23.474Z</time></trkpt><trkpt lat="42.3818608" lon="-8.5640046"><ele>366.42857142857144</ele><time>2026-05-02T11:58:26.474Z</time></trkpt><trkpt lat="42.3819104" lon="-8.5640579"><ele>368.7142857142857</ele><time>2026-05-02T12:00:45.465Z</time></trkpt><trkpt lat="42.3819275" lon="-8.5641589"><ele>371.0</ele><time>2026-05-02T12:00:56.466Z</time></trkpt><trkpt lat="42.3818905" lon="-8.5642467"><ele>371.0</ele><time>2026-05-02T12:01:08.465Z</time></trkpt><trkpt lat="42.3818352" lon="-8.5643046"><ele>371.0</ele><time>2026-05-02T12:01:20.47Z</time></trkpt><trkpt lat="42.3818164" lon="-8.5642128"><ele>371.0</ele><time>2026-05-02T12:01:27.463Z</time></trkpt><trkpt lat="42.3818213" lon="-8.5641219"><ele>371.0</ele><time>2026-05-02T12:01:34.469Z</time></trkpt><trkpt lat="42.3818414" lon="-8.5640375"><ele>371.0</ele><time>2026-05-02T12:03:45.465Z</time></trkpt><trkpt lat="42.3818947" lon="-8.5639853"><ele>371.0</ele><time>2026-05-02T12:03:49.464Z</time></trkpt><trkpt lat="42.3819499" lon="-8.5639394"><ele>371.0</ele><time>2026-05-02T12:03:57.462Z</time></trkpt><trkpt lat="42.3819059" lon="-8.5640168"><ele>371.0</ele><time>2026-05-02T12:04:06.465Z</time></trkpt><trkpt lat="42.3818333" lon="-8.5640744"><ele>371.0</ele><time>2026-05-02T12:04:10.473Z</time></trkpt><trkpt lat="42.3817616" lon="-8.5641345"><ele>371.0</ele><time>2026-05-02T12:04:13.465Z</time></trkpt><trkpt lat="42.3817021" lon="-8.5641737"><ele>371.0</ele><time>2026-05-02T12:04:15.468Z</time></trkpt><trkpt lat="42.3816462" lon="-8.5642339"><ele>371.0</ele><time>2026-05-02T12:04:17.464Z</time></trkpt><trkpt lat="42.3815868" lon="-8.5642822"><ele>371.0</ele><time>2026-05-02T12:04:19.464Z</time></trkpt><trkpt lat="42.3815176" lon="-8.5642548"><ele>371.0</ele><time>2026-05-02T12:04:21.462Z</time></trkpt><trkpt lat="42.3814603" lon="-8.564216"><ele>371.0</ele><time>2026-05-02T12:04:22.467Z</time></trkpt><trkpt lat="42.381391" lon="-8.5641567"><ele>371.0</ele><time>2026-05-02T12:04:23.468Z</time></trkpt><trkpt lat="42.381307" lon="-8.5640813"><ele>371.0</ele><time>2026-05-02T12:04:24.469Z</time></trkpt><trkpt lat="42.3812285" lon="-8.5640092"><ele>371.0</ele><time>2026-05-02T12:04:25.466Z</time></trkpt><trkpt lat="42.3811593" lon="-8.5639466"><ele>371.0</ele><time>2026-05-02T12:04:26.472Z</time></trkpt><trkpt lat="42.3811011" lon="-8.5638937"><ele>371.0</ele><time>2026-05-02T12:04:27.468Z</time></trkpt><trkpt lat="42.3810044" lon="-8.5638212"><ele>369.6</ele><time>2026-05-02T12:04:29.467Z</time></trkpt><trkpt lat="42.3809156" lon="-8.5638505"><ele>368.20000000000005</ele><time>2026-05-02T12:04:31.468Z</time></trkpt><trkpt lat="42.3808269" lon="-8.5639054"><ele>366.79999999999995</ele><time>2026-05-02T12:04:33.47Z</time></trkpt><trkpt lat="42.3807617" lon="-8.5640099"><ele>365.4</ele><time>2026-05-02T12:04:35.47Z</time></trkpt><trkpt lat="42.3807285" lon="-8.5641302"><ele>364.0</ele><time>2026-05-02T12:04:37.464Z</time></trkpt><trkpt lat="42.3807352" lon="-8.5642446"><ele>364.0</ele><time>2026-05-02T12:04:39.472Z</time></trkpt><trkpt lat="42.3807472" lon="-8.564333"><ele>364.0</ele><time>2026-05-02T12:04:41.467Z</time></trkpt><trkpt lat="42.3807445" lon="-8.564436"><ele>364.0</ele><time>2026-05-02T12:04:44.473Z</time></trkpt><trkpt lat="42.3807262" lon="-8.5645399"><ele>364.0</ele><time>2026-05-02T12:04:47.467Z</time></trkpt><trkpt lat="42.3806748" lon="-8.5646275"><ele>364.0</ele><time>2026-05-02T12:04:50.464Z</time></trkpt><trkpt lat="42.380625" lon="-8.5647187"><ele>364.0</ele><time>2026-05-02T12:04:53.472Z</time></trkpt><trkpt lat="42.3805577" lon="-8.5647861"><ele>364.16666666666663</ele><time>2026-05-02T12:04:56.465Z</time></trkpt><trkpt lat="42.3805208" lon="-8.5648642"><ele>364.3333333333333</ele><time>2026-05-02T12:04:58.465Z</time></trkpt><trkpt lat="42.3804832" lon="-8.5649513"><ele>364.5</ele><time>2026-05-02T12:05:00.47Z</time></trkpt><trkpt lat="42.380478" lon="-8.5650388"><ele>364.6666666666667</ele><time>2026-05-02T12:05:05.473Z</time></trkpt><trkpt lat="42.3805512" lon="-8.5651168"><ele>364.83333333333337</ele><time>2026-05-02T12:05:07.462Z</time></trkpt><trkpt lat="42.3806604" lon="-8.5652017"><ele>365.0</ele><time>2026-05-02T12:05:09.46Z</time></trkpt><trkpt lat="42.3807307" lon="-8.5652392"><ele>365.0</ele><time>2026-05-02T12:05:10.462Z</time></trkpt><trkpt lat="42.3808132" lon="-8.5652879"><ele>365.0</ele><time>2026-05-02T12:05:11.484Z</time></trkpt><trkpt lat="42.380898" lon="-8.5653418"><ele>365.0</ele><time>2026-05-02T12:05:12.467Z</time></trkpt><trkpt lat="42.3809765" lon="-8.5653927"><ele>365.0</ele><time>2026-05-02T12:05:13.469Z</time></trkpt><trkpt lat="42.3810398" lon="-8.5654307"><ele>365.0</ele><time>2026-05-02T12:05:14.477Z</time></trkpt><trkpt lat="42.3811437" lon="-8.5655144"><ele>364.83333333333337</ele><time>2026-05-02T12:05:16.47Z</time></trkpt><trkpt lat="42.3811973" lon="-8.5655669"><ele>364.6666666666667</ele><time>2026-05-02T12:05:17.469Z</time></trkpt><trkpt lat="42.3812593" lon="-8.5656104"><ele>364.5</ele><time>2026-05-02T12:05:18.473Z</time></trkpt><trkpt lat="42.3813301" lon="-8.5656474"><ele>364.3333333333333</ele><time>2026-05-02T12:05:19.471Z</time></trkpt><trkpt lat="42.3814058" lon="-8.5656781"><ele>364.16666666666663</ele><time>2026-05-02T12:05:20.462Z</time></trkpt><trkpt lat="42.3814845" lon="-8.5657027"><ele>364.0</ele><time>2026-05-02T12:05:21.471Z</time></trkpt><trkpt lat="42.3815633" lon="-8.5657254"><ele>365.66666666666663</ele><time>2026-05-02T12:05:22.468Z</time></trkpt><trkpt lat="42.3816434" lon="-8.5657444"><ele>367.3333333333333</ele><time>2026-05-02T12:05:23.475Z</time></trkpt><trkpt lat="42.3817229" lon="-8.565771"><ele>369.0</ele><time>2026-05-02T12:05:24.479Z</time></trkpt><trkpt lat="42.3817928" lon="-8.5658077"><ele>370.6666666666667</ele><time>2026-05-02T12:05:25.474Z</time></trkpt><trkpt lat="42.3818632" lon="-8.5658488"><ele>372.33333333333337</ele><time>2026-05-02T12:05:26.463Z</time></trkpt><trkpt lat="42.3819337" lon="-8.565883"><ele>374.0</ele><time>2026-05-02T12:05:27.476Z</time></trkpt><trkpt lat="42.3820016" lon="-8.565903"><ele>374.0</ele><time>2026-05-02T12:05:28.472Z</time></trkpt><trkpt lat="42.3821142" lon="-8.565917"><ele>374.0</ele><time>2026-05-02T12:05:30.465Z</time></trkpt><trkpt lat="42.3821919" lon="-8.5659733"><ele>374.0</ele><time>2026-05-02T12:05:32.473Z</time></trkpt><trkpt lat="42.382247" lon="-8.5661073"><ele>374.0</ele><time>2026-05-02T12:05:34.478Z</time></trkpt><trkpt lat="42.3822682" lon="-8.566198"><ele>374.0</ele><time>2026-05-02T12:05:35.461Z</time></trkpt><trkpt lat="42.382285" lon="-8.566296"><ele>375.4285714285714</ele><time>2026-05-02T12:05:36.463Z</time></trkpt><trkpt lat="42.3823022" lon="-8.5663951"><ele>376.8571428571429</ele><time>2026-05-02T12:05:37.465Z</time></trkpt><trkpt lat="42.3823194" lon="-8.5664955"><ele>378.2857142857143</ele><time>2026-05-02T12:05:38.472Z</time></trkpt><trkpt lat="42.3823284" lon="-8.5665886"><ele>379.71428571428567</ele><time>2026-05-02T12:05:39.47Z</time></trkpt><trkpt lat="42.3823367" lon="-8.5666785"><ele>381.1428571428571</ele><time>2026-05-02T12:05:40.47Z</time></trkpt><trkpt lat="42.3823512" lon="-8.5667678"><ele>382.57142857142856</ele><time>2026-05-02T12:05:41.467Z</time></trkpt><trkpt lat="42.3823697" lon="-8.5668511"><ele>384.0</ele><time>2026-05-02T12:05:42.485Z</time></trkpt><trkpt lat="42.3823936" lon="-8.5669867"><ele>384.6</ele><time>2026-05-02T12:05:44.469Z</time></trkpt><trkpt lat="42.3823757" lon="-8.5671278"><ele>385.2</ele><time>2026-05-02T12:05:46.467Z</time></trkpt><trkpt lat="42.3823386" lon="-8.5672583"><ele>385.8</ele><time>2026-05-02T12:05:48.467Z</time></trkpt><trkpt lat="42.3823224" lon="-8.567356"><ele>386.40000000000003</ele><time>2026-05-02T12:05:50.473Z</time></trkpt><trkpt lat="42.382343" lon="-8.5674654"><ele>387.0</ele><time>2026-05-02T12:05:52.465Z</time></trkpt><trkpt lat="42.3823657" lon="-8.5675926"><ele>387.0</ele><time>2026-05-02T12:05:54.463Z</time></trkpt><trkpt lat="42.3823786" lon="-8.5677073"><ele>387.0</ele><time>2026-05-02T12:05:56.465Z</time></trkpt><trkpt lat="42.3824011" lon="-8.5678083"><ele>387.0</ele><time>2026-05-02T12:05:58.464Z</time></trkpt><trkpt lat="42.3824229" lon="-8.5678995"><ele>387.0</ele><time>2026-05-02T12:06:00.467Z</time></trkpt><trkpt lat="42.3824529" lon="-8.5679893"><ele>387.0</ele><time>2026-05-02T12:06:02.468Z</time></trkpt><trkpt lat="42.3824901" lon="-8.5680913"><ele>387.0</ele><time>2026-05-02T12:06:04.468Z</time></trkpt><trkpt lat="42.3825389" lon="-8.5682147"><ele>387.20000000000005</ele><time>2026-05-02T12:06:06.476Z</time></trkpt><trkpt lat="42.3825867" lon="-8.5683438"><ele>387.4</ele><time>2026-05-02T12:06:08.464Z</time></trkpt><trkpt lat="42.3826272" lon="-8.5684483"><ele>387.6</ele><time>2026-05-02T12:06:10.467Z</time></trkpt><trkpt lat="42.3826767" lon="-8.5685563"><ele>387.79999999999995</ele><time>2026-05-02T12:06:12.463Z</time></trkpt><trkpt lat="42.3827199" lon="-8.5686975"><ele>388.0</ele><time>2026-05-02T12:06:14.461Z</time></trkpt><trkpt lat="42.3827758" lon="-8.5688555"><ele>388.4285714285714</ele><time>2026-05-02T12:06:16.473Z</time></trkpt><trkpt lat="42.3828024" lon="-8.5689404"><ele>388.8571428571429</ele><time>2026-05-02T12:06:17.471Z</time></trkpt><trkpt lat="42.3828273" lon="-8.5690272"><ele>389.2857142857143</ele><time>2026-05-02T12:06:18.473Z</time></trkpt><trkpt lat="42.3828513" lon="-8.5691177"><ele>389.71428571428567</ele><time>2026-05-02T12:06:19.466Z</time></trkpt><trkpt lat="42.3828749" lon="-8.5692116"><ele>390.1428571428571</ele><time>2026-05-02T12:06:20.465Z</time></trkpt><trkpt lat="42.3828932" lon="-8.5693025"><ele>390.57142857142856</ele><time>2026-05-02T12:06:21.467Z</time></trkpt><trkpt lat="42.382908" lon="-8.569389"><ele>391.0</ele><time>2026-05-02T12:06:22.468Z</time></trkpt><trkpt lat="42.3829225" lon="-8.569481"><ele>391.1428571428571</ele><time>2026-05-02T12:06:23.466Z</time></trkpt><trkpt lat="42.3829342" lon="-8.5695832"><ele>391.2857142857143</ele><time>2026-05-02T12:06:24.471Z</time></trkpt><trkpt lat="42.3829427" lon="-8.5696895"><ele>391.42857142857144</ele><time>2026-05-02T12:06:25.468Z</time></trkpt><trkpt lat="42.3829524" lon="-8.5697906"><ele>391.57142857142856</ele><time>2026-05-02T12:06:26.467Z</time></trkpt><trkpt lat="42.3829636" lon="-8.5698822"><ele>391.7142857142857</ele><time>2026-05-02T12:06:27.472Z</time></trkpt><trkpt lat="42.3829843" lon="-8.5699701"><ele>391.85714285714283</ele><time>2026-05-02T12:06:28.464Z</time></trkpt><trkpt lat="42.3830108" lon="-8.570057"><ele>392.0</ele><time>2026-05-02T12:06:29.461Z</time></trkpt><trkpt lat="42.3830377" lon="-8.5701399"><ele>392.0</ele><time>2026-05-02T12:06:30.466Z</time></trkpt><trkpt lat="42.383069" lon="-8.5702211"><ele>392.0</ele><time>2026-05-02T12:06:31.469Z</time></trkpt><trkpt lat="42.3831017" lon="-8.5703051"><ele>392.0</ele><time>2026-05-02T12:06:32.468Z</time></trkpt><trkpt lat="42.3831318" lon="-8.5703942"><ele>392.0</ele><time>2026-05-02T12:06:33.465Z</time></trkpt><trkpt lat="42.3831606" lon="-8.5704872"><ele>392.0</ele><time>2026-05-02T12:06:34.477Z</time></trkpt><trkpt lat="42.3831852" lon="-8.5705814"><ele>392.0</ele><time>2026-05-02T12:06:35.461Z</time></trkpt><trkpt lat="42.3832137" lon="-8.5706775"><ele>392.0</ele><time>2026-05-02T12:06:36.466Z</time></trkpt><trkpt lat="42.3832465" lon="-8.570762"><ele>392.40000000000003</ele><time>2026-05-02T12:06:37.466Z</time></trkpt><trkpt lat="42.38327" lon="-8.5708453"><ele>392.8</ele><time>2026-05-02T12:06:38.475Z</time></trkpt><trkpt lat="42.3833187" lon="-8.5709808"><ele>393.2</ele><time>2026-05-02T12:06:40.465Z</time></trkpt><trkpt lat="42.3833655" lon="-8.5711117"><ele>393.6</ele><time>2026-05-02T12:06:42.477Z</time></trkpt><trkpt lat="42.383416" lon="-8.5712397"><ele>394.0</ele><time>2026-05-02T12:06:44.47Z</time></trkpt><trkpt lat="42.383474" lon="-8.5713533"><ele>394.0</ele><time>2026-05-02T12:06:46.466Z</time></trkpt><trkpt lat="42.3835087" lon="-8.5714612"><ele>394.0</ele><time>2026-05-02T12:06:48.47Z</time></trkpt><trkpt lat="42.3835512" lon="-8.5715447"><ele>394.0</ele><time>2026-05-02T12:06:50.464Z</time></trkpt><trkpt lat="42.3836269" lon="-8.5715582"><ele>394.0</ele><time>2026-05-02T12:06:52.475Z</time></trkpt><trkpt lat="42.3837236" lon="-8.5715482"><ele>394.0</ele><time>2026-05-02T12:06:54.468Z</time></trkpt><trkpt lat="42.3838505" lon="-8.5715686"><ele>394.2</ele><time>2026-05-02T12:06:56.467Z</time></trkpt><trkpt lat="42.3839232" lon="-8.5715784"><ele>394.4</ele><time>2026-05-02T12:06:57.466Z</time></trkpt><trkpt lat="42.3839946" lon="-8.5715926"><ele>394.6</ele><time>2026-05-02T12:06:58.466Z</time></trkpt><trkpt lat="42.3841122" lon="-8.5716035"><ele>394.8</ele><time>2026-05-02T12:07:00.467Z</time></trkpt><trkpt lat="42.384209" lon="-8.5715428"><ele>395.0</ele><time>2026-05-02T12:07:02.467Z</time></trkpt><trkpt lat="42.3842833" lon="-8.5714497"><ele>395.0</ele><time>2026-05-02T12:07:04.469Z</time></trkpt><trkpt lat="42.384324" lon="-8.5713183"><ele>395.0</ele><time>2026-05-02T12:07:06.465Z</time></trkpt><trkpt lat="42.3843663" lon="-8.5711658"><ele>395.0</ele><time>2026-05-02T12:07:08.466Z</time></trkpt><trkpt lat="42.3844115" lon="-8.5710427"><ele>395.0</ele><time>2026-05-02T12:07:10.47Z</time></trkpt><trkpt lat="42.384461" lon="-8.5709472"><ele>395.0</ele><time>2026-05-02T12:07:12.474Z</time></trkpt><trkpt lat="42.3845145" lon="-8.5708772"><ele>394.99999999999994</ele><time>2026-05-02T12:07:14.466Z</time></trkpt><trkpt lat="42.3845534" lon="-8.5709475"><ele>395.0</ele><time>2026-05-02T12:07:26.467Z</time></trkpt><trkpt lat="42.3845814" lon="-8.5710322"><ele>395.0</ele><time>2026-05-02T12:07:28.466Z</time></trkpt><trkpt lat="42.38463" lon="-8.5711175"><ele>395.0</ele><time>2026-05-02T12:07:30.471Z</time></trkpt><trkpt lat="42.3846695" lon="-8.5712103"><ele>394.99999999999994</ele><time>2026-05-02T12:07:32.467Z</time></trkpt><trkpt lat="42.3847037" lon="-8.5713006"><ele>395.0</ele><time>2026-05-02T12:07:34.461Z</time></trkpt><trkpt lat="42.3847491" lon="-8.5713951"><ele>396.8333333333333</ele><time>2026-05-02T12:07:37.463Z</time></trkpt><trkpt lat="42.3847903" lon="-8.5714781"><ele>398.66666666666663</ele><time>2026-05-02T12:07:40.467Z</time></trkpt><trkpt lat="42.3847972" lon="-8.5716173"><ele>400.5</ele><time>2026-05-02T12:07:43.466Z</time></trkpt><trkpt lat="42.3848122" lon="-8.5717397"><ele>402.33333333333337</ele><time>2026-05-02T12:07:45.462Z</time></trkpt><trkpt lat="42.3848382" lon="-8.5718509"><ele>404.1666666666667</ele><time>2026-05-02T12:07:47.471Z</time></trkpt><trkpt lat="42.3848399" lon="-8.5719633"><ele>406.0</ele><time>2026-05-02T12:07:49.459Z</time></trkpt><trkpt lat="42.384847" lon="-8.5720677"><ele>407.0</ele><time>2026-05-02T12:07:51.466Z</time></trkpt><trkpt lat="42.3848849" lon="-8.5721524"><ele>408.0</ele><time>2026-05-02T12:07:53.467Z</time></trkpt><trkpt lat="42.3849344" lon="-8.5722519"><ele>409.0</ele><time>2026-05-02T12:07:55.465Z</time></trkpt><trkpt lat="42.3849828" lon="-8.5723954"><ele>410.0</ele><time>2026-05-02T12:07:57.471Z</time></trkpt><trkpt lat="42.3850232" lon="-8.572538"><ele>411.0</ele><time>2026-05-02T12:07:59.464Z</time></trkpt><trkpt lat="42.3850603" lon="-8.5726518"><ele>411.0</ele><time>2026-05-02T12:08:01.472Z</time></trkpt><trkpt lat="42.3851082" lon="-8.5727242"><ele>411.0</ele><time>2026-05-02T12:08:05.465Z</time></trkpt><trkpt lat="42.3851804" lon="-8.5727136"><ele>411.0</ele><time>2026-05-02T12:08:08.473Z</time></trkpt><trkpt lat="42.3851825" lon="-8.5728185"><ele>411.0</ele><time>2026-05-02T12:08:14.466Z</time></trkpt><trkpt lat="42.3851437" lon="-8.5728994"><ele>411.0</ele><time>2026-05-02T12:08:17.464Z</time></trkpt><trkpt lat="42.3851403" lon="-8.5729911"><ele>411.0</ele><time>2026-05-02T12:08:20.472Z</time></trkpt><trkpt lat="42.3851981" lon="-8.5730977"><ele>411.0</ele><time>2026-05-02T12:08:23.482Z</time></trkpt><trkpt lat="42.3853018" lon="-8.573165"><ele>411.0</ele><time>2026-05-02T12:08:25.466Z</time></trkpt><trkpt lat="42.3853713" lon="-8.5732012"><ele>411.0</ele><time>2026-05-02T12:08:26.468Z</time></trkpt><trkpt lat="42.3854424" lon="-8.5732215"><ele>411.0</ele><time>2026-05-02T12:08:27.469Z</time></trkpt><trkpt lat="42.3855197" lon="-8.5732428"><ele>411.0</ele><time>2026-05-02T12:08:28.474Z</time></trkpt><trkpt lat="42.3855923" lon="-8.5732584"><ele>411.0</ele><time>2026-05-02T12:08:29.46Z</time></trkpt><trkpt lat="42.3856743" lon="-8.5732324"><ele>411.0</ele><time>2026-05-02T12:08:30.459Z</time></trkpt><trkpt lat="42.3857657" lon="-8.5732043"><ele>411.0</ele><time>2026-05-02T12:08:31.474Z</time></trkpt><trkpt lat="42.3858439" lon="-8.5731895"><ele>411.0</ele><time>2026-05-02T12:08:32.469Z</time></trkpt><trkpt lat="42.3859194" lon="-8.5731847"><ele>411.0</ele><time>2026-05-02T12:08:33.467Z</time></trkpt><trkpt lat="42.3859904" lon="-8.5731796"><ele>411.0</ele><time>2026-05-02T12:08:34.47Z</time></trkpt><trkpt lat="42.3860606" lon="-8.5731888"><ele>411.0</ele><time>2026-05-02T12:08:35.465Z</time></trkpt><trkpt lat="42.3861707" lon="-8.573266"><ele>411.0</ele><time>2026-05-02T12:08:37.464Z</time></trkpt><trkpt lat="42.3862784" lon="-8.5733607"><ele>411.0</ele><time>2026-05-02T12:08:39.469Z</time></trkpt><trkpt lat="42.3863399" lon="-8.5734155"><ele>411.0</ele><time>2026-05-02T12:08:40.463Z</time></trkpt><trkpt lat="42.3864082" lon="-8.5734739"><ele>411.0</ele><time>2026-05-02T12:08:41.465Z</time></trkpt><trkpt lat="42.386474" lon="-8.5735244"><ele>411.0</ele><time>2026-05-02T12:08:42.469Z</time></trkpt><trkpt lat="42.3865377" lon="-8.5735712"><ele>411.0</ele><time>2026-05-02T12:08:43.463Z</time></trkpt><trkpt lat="42.3865968" lon="-8.5736247"><ele>411.5</ele><time>2026-05-02T12:08:44.466Z</time></trkpt><trkpt lat="42.3866518" lon="-8.5736911"><ele>412.0</ele><time>2026-05-02T12:08:45.481Z</time></trkpt><trkpt lat="42.3866918" lon="-8.5737753"><ele>412.5</ele><time>2026-05-02T12:08:46.465Z</time></trkpt><trkpt lat="42.3867258" lon="-8.5738653"><ele>413.0</ele><time>2026-05-02T12:08:47.473Z</time></trkpt><trkpt lat="42.3867524" lon="-8.5739652"><ele>413.5</ele><time>2026-05-02T12:08:48.463Z</time></trkpt><trkpt lat="42.386781" lon="-8.574079"><ele>414.0</ele><time>2026-05-02T12:08:49.472Z</time></trkpt><trkpt lat="42.3868115" lon="-8.5741765"><ele>414.0</ele><time>2026-05-02T12:08:50.466Z</time></trkpt><trkpt lat="42.3868372" lon="-8.5742545"><ele>414.0</ele><time>2026-05-02T12:08:51.467Z</time></trkpt><trkpt lat="42.3868983" lon="-8.5743958"><ele>414.0</ele><time>2026-05-02T12:08:53.472Z</time></trkpt><trkpt lat="42.3869427" lon="-8.5744671"><ele>414.0</ele><time>2026-05-02T12:08:54.467Z</time></trkpt><trkpt lat="42.3870073" lon="-8.5745399"><ele>414.0</ele><time>2026-05-02T12:08:55.461Z</time></trkpt><trkpt lat="42.3870883" lon="-8.574624"><ele>414.0</ele><time>2026-05-02T12:08:56.465Z</time></trkpt><trkpt lat="42.3871741" lon="-8.5747269"><ele>413.5</ele><time>2026-05-02T12:08:57.462Z</time></trkpt><trkpt lat="42.3872651" lon="-8.5748379"><ele>413.0</ele><time>2026-05-02T12:08:58.467Z</time></trkpt><trkpt lat="42.3873515" lon="-8.5749524"><ele>412.5</ele><time>2026-05-02T12:08:59.466Z</time></trkpt><trkpt lat="42.3874498" lon="-8.575075"><ele>412.0</ele><time>2026-05-02T12:09:00.467Z</time></trkpt><trkpt lat="42.3875518" lon="-8.5751898"><ele>412.0</ele><time>2026-05-02T12:09:01.464Z</time></trkpt><trkpt lat="42.3876577" lon="-8.5752941"><ele>412.0</ele><time>2026-05-02T12:09:02.469Z</time></trkpt><trkpt lat="42.3877694" lon="-8.5753799"><ele>412.0</ele><time>2026-05-02T12:09:03.464Z</time></trkpt><trkpt lat="42.3878926" lon="-8.5754543"><ele>412.0</ele><time>2026-05-02T12:09:04.468Z</time></trkpt><trkpt lat="42.3880196" lon="-8.5755246"><ele>412.8</ele><time>2026-05-02T12:09:05.463Z</time></trkpt><trkpt lat="42.3881338" lon="-8.5755936"><ele>413.6</ele><time>2026-05-02T12:09:06.472Z</time></trkpt><trkpt lat="42.3882239" lon="-8.5756741"><ele>414.40000000000003</ele><time>2026-05-02T12:09:07.473Z</time></trkpt><trkpt lat="42.3882892" lon="-8.5757653"><ele>415.20000000000005</ele><time>2026-05-02T12:09:08.465Z</time></trkpt><trkpt lat="42.3883346" lon="-8.5758723"><ele>416.0</ele><time>2026-05-02T12:09:09.464Z</time></trkpt><trkpt lat="42.3883705" lon="-8.5760069"><ele>416.0</ele><time>2026-05-02T12:09:10.48Z</time></trkpt><trkpt lat="42.3883905" lon="-8.5761581"><ele>416.0</ele><time>2026-05-02T12:09:11.459Z</time></trkpt><trkpt lat="42.3883962" lon="-8.5763131"><ele>416.0</ele><time>2026-05-02T12:09:12.461Z</time></trkpt><trkpt lat="42.3884078" lon="-8.5764616"><ele>416.0</ele><time>2026-05-02T12:09:13.47Z</time></trkpt><trkpt lat="42.388426" lon="-8.5765964"><ele>416.0</ele><time>2026-05-02T12:09:14.473Z</time></trkpt><trkpt lat="42.3884503" lon="-8.5767103"><ele>417.20000000000005</ele><time>2026-05-02T12:09:15.465Z</time></trkpt><trkpt lat="42.3884891" lon="-8.5768008"><ele>418.40000000000003</ele><time>2026-05-02T12:09:16.461Z</time></trkpt><trkpt lat="42.3885575" lon="-8.5768606"><ele>419.6</ele><time>2026-05-02T12:09:17.466Z</time></trkpt><trkpt lat="42.3886431" lon="-8.576885"><ele>420.8</ele><time>2026-05-02T12:09:18.457Z</time></trkpt><trkpt lat="42.3887451" lon="-8.5768761"><ele>422.0</ele><time>2026-05-02T12:09:19.465Z</time></trkpt><trkpt lat="42.3888654" lon="-8.5768414"><ele>422.0</ele><time>2026-05-02T12:09:20.47Z</time></trkpt><trkpt lat="42.3889951" lon="-8.5768062"><ele>422.0</ele><time>2026-05-02T12:09:21.475Z</time></trkpt><trkpt lat="42.3891222" lon="-8.5767933"><ele>422.0</ele><time>2026-05-02T12:09:22.459Z</time></trkpt><trkpt lat="42.3892456" lon="-8.5768095"><ele>422.0</ele><time>2026-05-02T12:09:23.474Z</time></trkpt><trkpt lat="42.3893654" lon="-8.5768505"><ele>422.0</ele><time>2026-05-02T12:09:24.471Z</time></trkpt><trkpt lat="42.3894817" lon="-8.5769159"><ele>422.0</ele><time>2026-05-02T12:09:25.462Z</time></trkpt><trkpt lat="42.3895957" lon="-8.5769964"><ele>422.0</ele><time>2026-05-02T12:09:26.467Z</time></trkpt><trkpt lat="42.3896981" lon="-8.5770893"><ele>422.0</ele><time>2026-05-02T12:09:27.467Z</time></trkpt><trkpt lat="42.3898036" lon="-8.577181"><ele>427.25</ele><time>2026-05-02T12:09:28.463Z</time></trkpt><trkpt lat="42.3899135" lon="-8.5772678"><ele>432.5</ele><time>2026-05-02T12:09:29.465Z</time></trkpt><trkpt lat="42.3900238" lon="-8.5773611"><ele>437.75</ele><time>2026-05-02T12:09:30.465Z</time></trkpt><trkpt lat="42.3901227" lon="-8.577449"><ele>443.0</ele><time>2026-05-02T12:09:31.462Z</time></trkpt><trkpt lat="42.3902206" lon="-8.5775324"><ele>443.0</ele><time>2026-05-02T12:09:32.469Z</time></trkpt><trkpt lat="42.390313" lon="-8.5775924"><ele>442.99999999999994</ele><time>2026-05-02T12:09:33.462Z</time></trkpt><trkpt lat="42.3904081" lon="-8.5776213"><ele>442.99999999999994</ele><time>2026-05-02T12:09:34.472Z</time></trkpt><trkpt lat="42.3905019" lon="-8.5776257"><ele>443.0</ele><time>2026-05-02T12:09:35.467Z</time></trkpt><trkpt lat="42.3905969" lon="-8.5776367"><ele>443.0</ele><time>2026-05-02T12:09:36.478Z</time></trkpt><trkpt lat="42.3906876" lon="-8.5776666"><ele>442.0</ele><time>2026-05-02T12:09:37.465Z</time></trkpt><trkpt lat="42.3907648" lon="-8.5777182"><ele>440.99999999999994</ele><time>2026-05-02T12:09:38.458Z</time></trkpt><trkpt lat="42.3908443" lon="-8.577808"><ele>439.99999999999994</ele><time>2026-05-02T12:09:39.477Z</time></trkpt><trkpt lat="42.3909211" lon="-8.5779238"><ele>439.0</ele><time>2026-05-02T12:09:40.466Z</time></trkpt><trkpt lat="42.3910027" lon="-8.5780349"><ele>438.0</ele><time>2026-05-02T12:09:41.469Z</time></trkpt><trkpt lat="42.3910922" lon="-8.5781196"><ele>439.25</ele><time>2026-05-02T12:09:42.462Z</time></trkpt><trkpt lat="42.3912024" lon="-8.5781748"><ele>440.5</ele><time>2026-05-02T12:09:43.477Z</time></trkpt><trkpt lat="42.3913138" lon="-8.5782256"><ele>441.75</ele><time>2026-05-02T12:09:44.472Z</time></trkpt><trkpt lat="42.3914202" lon="-8.5782887"><ele>443.0</ele><time>2026-05-02T12:09:45.464Z</time></trkpt><trkpt lat="42.3915146" lon="-8.5783742"><ele>443.0</ele><time>2026-05-02T12:09:46.465Z</time></trkpt><trkpt lat="42.3916076" lon="-8.5784845"><ele>443.0</ele><time>2026-05-02T12:09:47.469Z</time></trkpt><trkpt lat="42.3917017" lon="-8.5785839"><ele>443.0</ele><time>2026-05-02T12:09:48.465Z</time></trkpt><trkpt lat="42.3918086" lon="-8.5786681"><ele>443.0</ele><time>2026-05-02T12:09:49.467Z</time></trkpt><trkpt lat="42.3919238" lon="-8.5787245"><ele>446.0</ele><time>2026-05-02T12:09:50.458Z</time></trkpt><trkpt lat="42.3920444" lon="-8.5787608"><ele>449.0</ele><time>2026-05-02T12:09:51.461Z</time></trkpt><trkpt lat="42.3921624" lon="-8.5787889"><ele>452.0</ele><time>2026-05-02T12:09:52.464Z</time></trkpt><trkpt lat="42.3922782" lon="-8.5788073"><ele>455.0</ele><time>2026-05-02T12:09:53.468Z</time></trkpt><trkpt lat="42.3923939" lon="-8.5788095"><ele>455.0</ele><time>2026-05-02T12:09:54.47Z</time></trkpt><trkpt lat="42.3925056" lon="-8.5788095"><ele>455.0</ele><time>2026-05-02T12:09:55.463Z</time></trkpt><trkpt lat="42.3926148" lon="-8.5788203"><ele>455.0</ele><time>2026-05-02T12:09:56.468Z</time></trkpt><trkpt lat="42.3927241" lon="-8.5788455"><ele>455.0</ele><time>2026-05-02T12:09:57.468Z</time></trkpt><trkpt lat="42.3928249" lon="-8.5788816"><ele>455.0</ele><time>2026-05-02T12:09:58.474Z</time></trkpt><trkpt lat="42.3929183" lon="-8.5789365"><ele>455.0</ele><time>2026-05-02T12:09:59.46Z</time></trkpt><trkpt lat="42.3930019" lon="-8.5790204"><ele>455.0</ele><time>2026-05-02T12:10:00.464Z</time></trkpt><trkpt lat="42.3930662" lon="-8.5791215"><ele>455.0</ele><time>2026-05-02T12:10:01.461Z</time></trkpt><trkpt lat="42.3931184" lon="-8.5792347"><ele>455.0</ele><time>2026-05-02T12:10:02.458Z</time></trkpt><trkpt lat="42.393154" lon="-8.5793525"><ele>455.0</ele><time>2026-05-02T12:10:03.467Z</time></trkpt><trkpt lat="42.3931663" lon="-8.5794741"><ele>455.49999999999994</ele><time>2026-05-02T12:10:04.467Z</time></trkpt><trkpt lat="42.3931683" lon="-8.5795933"><ele>456.0</ele><time>2026-05-02T12:10:05.48Z</time></trkpt><trkpt lat="42.3931642" lon="-8.5797028"><ele>456.5</ele><time>2026-05-02T12:10:06.458Z</time></trkpt><trkpt lat="42.3931571" lon="-8.5798086"><ele>457.0</ele><time>2026-05-02T12:10:07.46Z</time></trkpt><trkpt lat="42.3931443" lon="-8.5799011"><ele>457.49999999999994</ele><time>2026-05-02T12:10:08.466Z</time></trkpt><trkpt lat="42.3931097" lon="-8.5800304"><ele>458.0</ele><time>2026-05-02T12:10:10.473Z</time></trkpt><trkpt lat="42.393066" lon="-8.5801317"><ele>458.0</ele><time>2026-05-02T12:10:13.461Z</time></trkpt><trkpt lat="42.3930509" lon="-8.5802204"><ele>458.0</ele><time>2026-05-02T12:10:15.463Z</time></trkpt><trkpt lat="42.393037" lon="-8.5803205"><ele>458.0</ele><time>2026-05-02T12:10:17.458Z</time></trkpt><trkpt lat="42.3930231" lon="-8.5804241"><ele>458.0</ele><time>2026-05-02T12:10:19.463Z</time></trkpt><trkpt lat="42.3930333" lon="-8.580526"><ele>458.0</ele><time>2026-05-02T12:10:22.46Z</time></trkpt><trkpt lat="42.3930801" lon="-8.5806062"><ele>458.0</ele><time>2026-05-02T12:10:24.464Z</time></trkpt><trkpt lat="42.3931249" lon="-8.5806809"><ele>458.0</ele><time>2026-05-02T12:10:26.461Z</time></trkpt><trkpt lat="42.3931618" lon="-8.5807518"><ele>461.4</ele><time>2026-05-02T12:10:28.477Z</time></trkpt><trkpt lat="42.3932065" lon="-8.5808525"><ele>464.79999999999995</ele><time>2026-05-02T12:10:31.466Z</time></trkpt><trkpt lat="42.3932758" lon="-8.5808849"><ele>468.2</ele><time>2026-05-02T12:10:33.468Z</time></trkpt><trkpt lat="42.3933768" lon="-8.5808801"><ele>471.6</ele><time>2026-05-02T12:10:35.469Z</time></trkpt><trkpt lat="42.3934644" lon="-8.5809223"><ele>475.0</ele><time>2026-05-02T12:10:37.468Z</time></trkpt><trkpt lat="42.3935415" lon="-8.5810201"><ele>475.00000000000006</ele><time>2026-05-02T12:10:39.465Z</time></trkpt><trkpt lat="42.3936044" lon="-8.5811306"><ele>475.0</ele><time>2026-05-02T12:10:41.462Z</time></trkpt><trkpt lat="42.3936664" lon="-8.5812021"><ele>475.0</ele><time>2026-05-02T12:10:43.474Z</time></trkpt><trkpt lat="42.3937241" lon="-8.5812522"><ele>475.0</ele><time>2026-05-02T12:10:45.463Z</time></trkpt><trkpt lat="42.3937771" lon="-8.5813013"><ele>475.00000000000006</ele><time>2026-05-02T12:10:47.46Z</time></trkpt><trkpt lat="42.3938374" lon="-8.5813616"><ele>475.0</ele><time>2026-05-02T12:10:49.469Z</time></trkpt><trkpt lat="42.3939055" lon="-8.5814305"><ele>472.8571428571429</ele><time>2026-05-02T12:10:51.462Z</time></trkpt><trkpt lat="42.3939557" lon="-8.5814943"><ele>470.7142857142858</ele><time>2026-05-02T12:10:53.476Z</time></trkpt><trkpt lat="42.3940058" lon="-8.5816021"><ele>468.57142857142856</ele><time>2026-05-02T12:10:56.466Z</time></trkpt><trkpt lat="42.394058" lon="-8.5816736"><ele>466.42857142857144</ele><time>2026-05-02T12:10:58.468Z</time></trkpt><trkpt lat="42.3941111" lon="-8.5817315"><ele>464.2857142857143</ele><time>2026-05-02T12:11:00.463Z</time></trkpt><trkpt lat="42.3940508" lon="-8.5816951"><ele>462.1428571428571</ele><time>2026-05-02T12:17:47.467Z</time></trkpt><trkpt lat="42.3939845" lon="-8.5817111"><ele>459.99999999999994</ele><time>2026-05-02T12:17:50.458Z</time></trkpt><trkpt lat="42.39393" lon="-8.5817765"><ele>460.00000000000006</ele><time>2026-05-02T12:17:53.463Z</time></trkpt><trkpt lat="42.3938752" lon="-8.5818284"><ele>460.0</ele><time>2026-05-02T12:17:55.459Z</time></trkpt><trkpt lat="42.3938211" lon="-8.5818854"><ele>460.0</ele><time>2026-05-02T12:17:57.469Z</time></trkpt><trkpt lat="42.3937769" lon="-8.5819525"><ele>460.0</ele><time>2026-05-02T12:17:59.455Z</time></trkpt><trkpt lat="42.3937186" lon="-8.5820631"><ele>460.00000000000006</ele><time>2026-05-02T12:18:02.46Z</time></trkpt><trkpt lat="42.393664" lon="-8.5821838"><ele>460.0</ele><time>2026-05-02T12:18:04.461Z</time></trkpt><trkpt lat="42.3935746" lon="-8.5823081"><ele>460.2</ele><time>2026-05-02T12:18:06.46Z</time></trkpt><trkpt lat="42.3935122" lon="-8.5824268"><ele>460.4</ele><time>2026-05-02T12:18:08.463Z</time></trkpt><trkpt lat="42.3935013" lon="-8.5825607"><ele>460.6</ele><time>2026-05-02T12:18:10.468Z</time></trkpt><trkpt lat="42.3935398" lon="-8.5827368"><ele>460.8</ele><time>2026-05-02T12:18:12.46Z</time></trkpt><trkpt lat="42.3935565" lon="-8.5828303"><ele>461.0</ele><time>2026-05-02T12:18:13.462Z</time></trkpt><trkpt lat="42.393586" lon="-8.5829911"><ele>458.8333333333333</ele><time>2026-05-02T12:18:15.461Z</time></trkpt><trkpt lat="42.393637" lon="-8.5831331"><ele>456.66666666666663</ele><time>2026-05-02T12:18:17.461Z</time></trkpt><trkpt lat="42.3936741" lon="-8.5832072"><ele>454.5</ele><time>2026-05-02T12:18:18.467Z</time></trkpt><trkpt lat="42.3937185" lon="-8.5832822"><ele>452.33333333333337</ele><time>2026-05-02T12:18:19.456Z</time></trkpt><trkpt lat="42.3937738" lon="-8.5833587"><ele>450.1666666666667</ele><time>2026-05-02T12:18:20.458Z</time></trkpt><trkpt lat="42.3938261" lon="-8.5834372"><ele>448.0</ele><time>2026-05-02T12:18:21.457Z</time></trkpt><trkpt lat="42.3938704" lon="-8.5835129"><ele>444.50000000000006</ele><time>2026-05-02T12:18:22.455Z</time></trkpt><trkpt lat="42.3939044" lon="-8.5835876"><ele>441.0</ele><time>2026-05-02T12:18:23.464Z</time></trkpt><trkpt lat="42.3939325" lon="-8.5836674"><ele>437.5</ele><time>2026-05-02T12:18:24.472Z</time></trkpt><trkpt lat="42.3939663" lon="-8.5838186"><ele>434.0</ele><time>2026-05-02T12:18:26.461Z</time></trkpt><trkpt lat="42.3939816" lon="-8.5839406"><ele>430.50000000000006</ele><time>2026-05-02T12:18:28.457Z</time></trkpt><trkpt lat="42.3939947" lon="-8.5840611"><ele>427.0</ele><time>2026-05-02T12:18:30.465Z</time></trkpt><trkpt lat="42.3940339" lon="-8.5841762"><ele>426.50000000000006</ele><time>2026-05-02T12:18:32.459Z</time></trkpt><trkpt lat="42.3940916" lon="-8.5842645"><ele>426.0</ele><time>2026-05-02T12:18:34.463Z</time></trkpt><trkpt lat="42.3941465" lon="-8.5843259"><ele>425.5</ele><time>2026-05-02T12:18:37.464Z</time></trkpt><trkpt lat="42.3941597" lon="-8.5844341"><ele>425.0</ele><time>2026-05-02T12:18:41.457Z</time></trkpt><trkpt lat="42.3942186" lon="-8.5844832"><ele>424.50000000000006</ele><time>2026-05-02T12:18:43.46Z</time></trkpt><trkpt lat="42.3942905" lon="-8.5845601"><ele>424.0</ele><time>2026-05-02T12:18:44.456Z</time></trkpt><trkpt lat="42.3943813" lon="-8.584677"><ele>423.50000000000006</ele><time>2026-05-02T12:18:45.457Z</time></trkpt><trkpt lat="42.3944531" lon="-8.5848037"><ele>423.0</ele><time>2026-05-02T12:18:46.46Z</time></trkpt><trkpt lat="42.394516" lon="-8.584912"><ele>422.5</ele><time>2026-05-02T12:18:47.464Z</time></trkpt><trkpt lat="42.3945758" lon="-8.5849945"><ele>422.0</ele><time>2026-05-02T12:18:48.458Z</time></trkpt><trkpt lat="42.3946345" lon="-8.5850492"><ele>421.50000000000006</ele><time>2026-05-02T12:18:49.461Z</time></trkpt><trkpt lat="42.3947005" lon="-8.5850846"><ele>421.0</ele><time>2026-05-02T12:18:50.456Z</time></trkpt><trkpt lat="42.3947741" lon="-8.5851265"><ele>421.00000000000006</ele><time>2026-05-02T12:18:51.459Z</time></trkpt><trkpt lat="42.3948496" lon="-8.5851847"><ele>421.0</ele><time>2026-05-02T12:18:52.457Z</time></trkpt><trkpt lat="42.3949239" lon="-8.5852499"><ele>421.0</ele><time>2026-05-02T12:18:53.46Z</time></trkpt><trkpt lat="42.3950017" lon="-8.5853184"><ele>421.0</ele><time>2026-05-02T12:18:54.468Z</time></trkpt><trkpt lat="42.3950661" lon="-8.5853922"><ele>421.00000000000006</ele><time>2026-05-02T12:18:55.464Z</time></trkpt><trkpt lat="42.39511" lon="-8.5854739"><ele>421.0</ele><time>2026-05-02T12:18:56.466Z</time></trkpt><trkpt lat="42.3951393" lon="-8.5855608"><ele>424.20000000000005</ele><time>2026-05-02T12:18:57.471Z</time></trkpt><trkpt lat="42.395195" lon="-8.5856892"><ele>427.40000000000003</ele><time>2026-05-02T12:18:59.455Z</time></trkpt><trkpt lat="42.3952842" lon="-8.5857975"><ele>430.6</ele><time>2026-05-02T12:19:01.461Z</time></trkpt><trkpt lat="42.3953371" lon="-8.5858653"><ele>433.8</ele><time>2026-05-02T12:19:02.462Z</time></trkpt><trkpt lat="42.3953951" lon="-8.5859457"><ele>437.0</ele><time>2026-05-02T12:19:03.453Z</time></trkpt><trkpt lat="42.3954511" lon="-8.5860203"><ele>436.16666666666663</ele><time>2026-05-02T12:19:04.459Z</time></trkpt><trkpt lat="42.3955126" lon="-8.5860811"><ele>435.3333333333333</ele><time>2026-05-02T12:19:05.469Z</time></trkpt><trkpt lat="42.3955816" lon="-8.5861267"><ele>434.5</ele><time>2026-05-02T12:19:06.459Z</time></trkpt><trkpt lat="42.3956583" lon="-8.5861646"><ele>433.66666666666663</ele><time>2026-05-02T12:19:07.458Z</time></trkpt><trkpt lat="42.3957416" lon="-8.586201"><ele>432.8333333333333</ele><time>2026-05-02T12:19:08.46Z</time></trkpt><trkpt lat="42.395824" lon="-8.5862408"><ele>432.0</ele><time>2026-05-02T12:19:09.472Z</time></trkpt><trkpt lat="42.395907" lon="-8.586277"><ele>432.0</ele><time>2026-05-02T12:19:10.459Z</time></trkpt><trkpt lat="42.395989" lon="-8.5863192"><ele>432.00000000000006</ele><time>2026-05-02T12:19:11.463Z</time></trkpt><trkpt lat="42.3960659" lon="-8.5863607"><ele>432.00000000000006</ele><time>2026-05-02T12:19:12.462Z</time></trkpt><trkpt lat="42.3961321" lon="-8.5863928"><ele>432.0</ele><time>2026-05-02T12:19:13.467Z</time></trkpt><trkpt lat="42.3962384" lon="-8.5864246"><ele>432.0</ele><time>2026-05-02T12:19:15.458Z</time></trkpt><trkpt lat="42.3963415" lon="-8.5864422"><ele>427.6</ele><time>2026-05-02T12:19:17.458Z</time></trkpt><trkpt lat="42.3964526" lon="-8.5864559"><ele>423.20000000000005</ele><time>2026-05-02T12:19:19.464Z</time></trkpt><trkpt lat="42.3965774" lon="-8.5864544"><ele>418.8</ele><time>2026-05-02T12:19:21.457Z</time></trkpt><trkpt lat="42.3966865" lon="-8.586445"><ele>414.4</ele><time>2026-05-02T12:19:23.465Z</time></trkpt><trkpt lat="42.3967794" lon="-8.5864018"><ele>410.0</ele><time>2026-05-02T12:19:25.462Z</time></trkpt><trkpt lat="42.3968676" lon="-8.5863468"><ele>410.0</ele><time>2026-05-02T12:19:27.465Z</time></trkpt><trkpt lat="42.3969598" lon="-8.5863119"><ele>410.0</ele><time>2026-05-02T12:19:29.463Z</time></trkpt><trkpt lat="42.3970409" lon="-8.5862887"><ele>410.0</ele><time>2026-05-02T12:19:31.456Z</time></trkpt><trkpt lat="42.397121" lon="-8.5863371"><ele>410.0</ele><time>2026-05-02T12:19:33.463Z</time></trkpt><trkpt lat="42.3971982" lon="-8.5864582"><ele>410.0</ele><time>2026-05-02T12:19:35.461Z</time></trkpt><trkpt lat="42.397235" lon="-8.5865479"><ele>406.3333333333333</ele><time>2026-05-02T12:19:36.469Z</time></trkpt><trkpt lat="42.3972741" lon="-8.5866435"><ele>402.66666666666663</ele><time>2026-05-02T12:19:37.463Z</time></trkpt><trkpt lat="42.3973172" lon="-8.5867288"><ele>399.0</ele><time>2026-05-02T12:19:38.466Z</time></trkpt><trkpt lat="42.3973614" lon="-8.5868009"><ele>395.33333333333337</ele><time>2026-05-02T12:19:39.454Z</time></trkpt><trkpt lat="42.3974188" lon="-8.5868642"><ele>391.6666666666667</ele><time>2026-05-02T12:19:40.46Z</time></trkpt><trkpt lat="42.3974821" lon="-8.5869153"><ele>388.0</ele><time>2026-05-02T12:19:41.46Z</time></trkpt><trkpt lat="42.3975534" lon="-8.5869566"><ele>388.00000000000006</ele><time>2026-05-02T12:19:42.457Z</time></trkpt><trkpt lat="42.3976247" lon="-8.5870047"><ele>388.0</ele><time>2026-05-02T12:19:43.468Z</time></trkpt><trkpt lat="42.3976963" lon="-8.5870622"><ele>388.0</ele><time>2026-05-02T12:19:44.462Z</time></trkpt><trkpt lat="42.3977627" lon="-8.5871329"><ele>388.0</ele><time>2026-05-02T12:19:45.461Z</time></trkpt><trkpt lat="42.3978165" lon="-8.5872073"><ele>388.00000000000006</ele><time>2026-05-02T12:19:46.46Z</time></trkpt><trkpt lat="42.39786" lon="-8.5872841"><ele>388.0</ele><time>2026-05-02T12:19:47.464Z</time></trkpt><trkpt lat="42.3979006" lon="-8.5873572"><ele>388.2857142857143</ele><time>2026-05-02T12:19:48.469Z</time></trkpt><trkpt lat="42.3979413" lon="-8.587428"><ele>388.5714285714286</ele><time>2026-05-02T12:19:49.467Z</time></trkpt><trkpt lat="42.397985" lon="-8.5874995"><ele>388.8571428571429</ele><time>2026-05-02T12:19:50.468Z</time></trkpt><trkpt lat="42.398032" lon="-8.5875717"><ele>389.1428571428571</ele><time>2026-05-02T12:19:51.466Z</time></trkpt><trkpt lat="42.3980806" lon="-8.5876451"><ele>389.42857142857144</ele><time>2026-05-02T12:19:52.474Z</time></trkpt><trkpt lat="42.3981293" lon="-8.5877267"><ele>389.7142857142857</ele><time>2026-05-02T12:19:53.468Z</time></trkpt><trkpt lat="42.3981778" lon="-8.5878151"><ele>390.0</ele><time>2026-05-02T12:19:54.456Z</time></trkpt><trkpt lat="42.3982233" lon="-8.5878958"><ele>390.0</ele><time>2026-05-02T12:19:55.462Z</time></trkpt><trkpt lat="42.3982691" lon="-8.5879762"><ele>390.0</ele><time>2026-05-02T12:19:56.455Z</time></trkpt><trkpt lat="42.3983176" lon="-8.5880527"><ele>390.0</ele><time>2026-05-02T12:19:57.469Z</time></trkpt><trkpt lat="42.3983636" lon="-8.5881199"><ele>390.0</ele><time>2026-05-02T12:19:58.463Z</time></trkpt><trkpt lat="42.398462" lon="-8.5882219"><ele>390.0</ele><time>2026-05-02T12:20:00.454Z</time></trkpt><trkpt lat="42.3985251" lon="-8.5882605"><ele>390.0</ele><time>2026-05-02T12:20:01.463Z</time></trkpt><trkpt lat="42.3985939" lon="-8.5883145"><ele>390.0</ele><time>2026-05-02T12:20:02.459Z</time></trkpt><trkpt lat="42.3986697" lon="-8.5883809"><ele>390.0</ele><time>2026-05-02T12:20:03.457Z</time></trkpt><trkpt lat="42.3987478" lon="-8.5884505"><ele>390.0</ele><time>2026-05-02T12:20:04.457Z</time></trkpt><trkpt lat="42.3988289" lon="-8.5885139"><ele>390.0</ele><time>2026-05-02T12:20:05.457Z</time></trkpt><trkpt lat="42.3989182" lon="-8.5885669"><ele>390.0</ele><time>2026-05-02T12:20:06.47Z</time></trkpt><trkpt lat="42.3990138" lon="-8.5886147"><ele>389.0</ele><time>2026-05-02T12:20:07.474Z</time></trkpt><trkpt lat="42.3991099" lon="-8.5886612"><ele>388.0</ele><time>2026-05-02T12:20:08.461Z</time></trkpt><trkpt lat="42.3991952" lon="-8.5886994"><ele>387.0</ele><time>2026-05-02T12:20:09.46Z</time></trkpt><trkpt lat="42.3992717" lon="-8.5887349"><ele>386.0</ele><time>2026-05-02T12:20:10.467Z</time></trkpt><trkpt lat="42.3993472" lon="-8.5887645"><ele>385.0</ele><time>2026-05-02T12:20:11.458Z</time></trkpt><trkpt lat="42.399424" lon="-8.5887851"><ele>384.0</ele><time>2026-05-02T12:20:12.465Z</time></trkpt><trkpt lat="42.3995027" lon="-8.58878"><ele>384.0</ele><time>2026-05-02T12:20:13.462Z</time></trkpt><trkpt lat="42.3995751" lon="-8.5887437"><ele>384.0</ele><time>2026-05-02T12:20:14.466Z</time></trkpt><trkpt lat="42.3996313" lon="-8.5886622"><ele>384.0</ele><time>2026-05-02T12:20:15.455Z</time></trkpt><trkpt lat="42.3996713" lon="-8.5885543"><ele>384.0</ele><time>2026-05-02T12:20:16.46Z</time></trkpt><trkpt lat="42.3996823" lon="-8.5884278"><ele>384.0</ele><time>2026-05-02T12:20:17.461Z</time></trkpt><trkpt lat="42.399657" lon="-8.5883034"><ele>384.0</ele><time>2026-05-02T12:20:18.458Z</time></trkpt><trkpt lat="42.3996296" lon="-8.5881922"><ele>381.0</ele><time>2026-05-02T12:20:19.466Z</time></trkpt><trkpt lat="42.3996214" lon="-8.5880861"><ele>378.0</ele><time>2026-05-02T12:20:20.453Z</time></trkpt><trkpt lat="42.399636" lon="-8.5879883"><ele>375.0</ele><time>2026-05-02T12:20:21.458Z</time></trkpt><trkpt lat="42.3996707" lon="-8.5878954"><ele>372.0</ele><time>2026-05-02T12:20:22.466Z</time></trkpt><trkpt lat="42.3997216" lon="-8.5878046"><ele>369.0</ele><time>2026-05-02T12:20:23.458Z</time></trkpt><trkpt lat="42.3997814" lon="-8.5877147"><ele>366.0</ele><time>2026-05-02T12:20:24.464Z</time></trkpt><trkpt lat="42.3998392" lon="-8.5876297"><ele>363.1666666666667</ele><time>2026-05-02T12:20:25.46Z</time></trkpt><trkpt lat="42.3998995" lon="-8.5875476"><ele>360.3333333333333</ele><time>2026-05-02T12:20:26.458Z</time></trkpt><trkpt lat="42.3999621" lon="-8.5874684"><ele>357.5</ele><time>2026-05-02T12:20:27.459Z</time></trkpt><trkpt lat="42.4000274" lon="-8.5873994"><ele>354.66666666666663</ele><time>2026-05-02T12:20:28.462Z</time></trkpt><trkpt lat="42.4000929" lon="-8.587326"><ele>351.8333333333333</ele><time>2026-05-02T12:20:29.458Z</time></trkpt><trkpt lat="42.4001629" lon="-8.5872443"><ele>349.0</ele><time>2026-05-02T12:20:30.458Z</time></trkpt><trkpt lat="42.4002335" lon="-8.5871615"><ele>349.0</ele><time>2026-05-02T12:20:31.461Z</time></trkpt><trkpt lat="42.400303" lon="-8.5870766"><ele>349.0</ele><time>2026-05-02T12:20:32.459Z</time></trkpt><trkpt lat="42.400371" lon="-8.5869857"><ele>349.0</ele><time>2026-05-02T12:20:33.461Z</time></trkpt><trkpt lat="42.4004375" lon="-8.5868946"><ele>349.0</ele><time>2026-05-02T12:20:34.464Z</time></trkpt><trkpt lat="42.4005065" lon="-8.5868032"><ele>349.0</ele><time>2026-05-02T12:20:35.457Z</time></trkpt><trkpt lat="42.4005753" lon="-8.586717"><ele>348.0</ele><time>2026-05-02T12:20:36.463Z</time></trkpt><trkpt lat="42.4006434" lon="-8.5866377"><ele>347.0</ele><time>2026-05-02T12:20:37.458Z</time></trkpt><trkpt lat="42.4007083" lon="-8.5865553"><ele>346.0</ele><time>2026-05-02T12:20:38.462Z</time></trkpt><trkpt lat="42.4007693" lon="-8.5864766"><ele>345.0</ele><time>2026-05-02T12:20:39.46Z</time></trkpt><trkpt lat="42.4008366" lon="-8.5864051"><ele>344.0</ele><time>2026-05-02T12:20:40.458Z</time></trkpt><trkpt lat="42.4009085" lon="-8.5863314"><ele>343.0</ele><time>2026-05-02T12:20:41.468Z</time></trkpt><trkpt lat="42.4009858" lon="-8.5862805"><ele>343.0</ele><time>2026-05-02T12:20:42.457Z</time></trkpt><trkpt lat="42.401069" lon="-8.5862673"><ele>343.0</ele><time>2026-05-02T12:20:43.469Z</time></trkpt><trkpt lat="42.4011497" lon="-8.586264"><ele>343.0</ele><time>2026-05-02T12:20:44.466Z</time></trkpt><trkpt lat="42.4012332" lon="-8.5862625"><ele>343.0</ele><time>2026-05-02T12:20:45.468Z</time></trkpt><trkpt lat="42.4013168" lon="-8.5862577"><ele>343.0</ele><time>2026-05-02T12:20:46.458Z</time></trkpt><trkpt lat="42.4014024" lon="-8.5862538"><ele>343.0</ele><time>2026-05-02T12:20:47.464Z</time></trkpt><trkpt lat="42.4014894" lon="-8.58625"><ele>342.8333333333333</ele><time>2026-05-02T12:20:48.452Z</time></trkpt><trkpt lat="42.4015721" lon="-8.5862436"><ele>342.66666666666663</ele><time>2026-05-02T12:20:49.452Z</time></trkpt><trkpt lat="42.4016527" lon="-8.586232"><ele>342.5</ele><time>2026-05-02T12:20:50.454Z</time></trkpt><trkpt lat="42.4017305" lon="-8.5862227"><ele>342.3333333333333</ele><time>2026-05-02T12:20:51.458Z</time></trkpt><trkpt lat="42.4018036" lon="-8.5862095"><ele>342.1666666666667</ele><time>2026-05-02T12:20:52.457Z</time></trkpt><trkpt lat="42.4018773" lon="-8.5861958"><ele>342.0</ele><time>2026-05-02T12:20:53.473Z</time></trkpt><trkpt lat="42.4019506" lon="-8.5861699"><ele>341.20000000000005</ele><time>2026-05-02T12:20:54.459Z</time></trkpt><trkpt lat="42.4020297" lon="-8.5861389"><ele>340.4</ele><time>2026-05-02T12:20:55.458Z</time></trkpt><trkpt lat="42.4021144" lon="-8.5861057"><ele>339.6</ele><time>2026-05-02T12:20:56.455Z</time></trkpt><trkpt lat="42.4022049" lon="-8.586066"><ele>338.79999999999995</ele><time>2026-05-02T12:20:57.457Z</time></trkpt><trkpt lat="42.402301" lon="-8.5860246"><ele>338.0</ele><time>2026-05-02T12:20:58.475Z</time></trkpt><trkpt lat="42.4023997" lon="-8.5859893"><ele>338.0</ele><time>2026-05-02T12:20:59.458Z</time></trkpt><trkpt lat="42.4025029" lon="-8.5859543"><ele>338.0</ele><time>2026-05-02T12:21:00.456Z</time></trkpt><trkpt lat="42.4026078" lon="-8.5859236"><ele>338.0</ele><time>2026-05-02T12:21:01.464Z</time></trkpt><trkpt lat="42.4027119" lon="-8.5858925"><ele>338.0</ele><time>2026-05-02T12:21:02.458Z</time></trkpt><trkpt lat="42.4028183" lon="-8.5858601"><ele>338.0</ele><time>2026-05-02T12:21:03.461Z</time></trkpt><trkpt lat="42.4029279" lon="-8.5858253"><ele>337.2</ele><time>2026-05-02T12:21:04.45Z</time></trkpt><trkpt lat="42.4030404" lon="-8.5857887"><ele>336.4</ele><time>2026-05-02T12:21:05.457Z</time></trkpt><trkpt lat="42.4031482" lon="-8.5857527"><ele>335.59999999999997</ele><time>2026-05-02T12:21:06.461Z</time></trkpt><trkpt lat="42.4032521" lon="-8.5857195"><ele>334.79999999999995</ele><time>2026-05-02T12:21:07.458Z</time></trkpt><trkpt lat="42.4033418" lon="-8.585693"><ele>334.0</ele><time>2026-05-02T12:21:08.459Z</time></trkpt><trkpt lat="42.4034044" lon="-8.585672"><ele>334.0</ele><time>2026-05-02T12:21:09.459Z</time></trkpt><trkpt lat="42.4034798" lon="-8.5856433"><ele>334.0</ele><time>2026-05-02T12:21:11.462Z</time></trkpt><trkpt lat="42.4035463" lon="-8.5856166"><ele>334.0</ele><time>2026-05-02T12:21:13.458Z</time></trkpt><trkpt lat="42.4036114" lon="-8.5856036"><ele>334.0</ele><time>2026-05-02T12:21:15.46Z</time></trkpt><trkpt lat="42.4036965" lon="-8.5856156"><ele>334.0</ele><time>2026-05-02T12:21:18.467Z</time></trkpt><trkpt lat="42.4037738" lon="-8.585624"><ele>334.0</ele><time>2026-05-02T12:21:21.464Z</time></trkpt><trkpt lat="42.4038507" lon="-8.5855711"><ele>333.79999999999995</ele><time>2026-05-02T12:21:23.463Z</time></trkpt><trkpt lat="42.4039741" lon="-8.5855067"><ele>333.59999999999997</ele><time>2026-05-02T12:21:25.459Z</time></trkpt><trkpt lat="42.4040463" lon="-8.5854673"><ele>333.4</ele><time>2026-05-02T12:21:26.457Z</time></trkpt><trkpt lat="42.404142" lon="-8.5854275"><ele>333.2</ele><time>2026-05-02T12:21:27.466Z</time></trkpt><trkpt lat="42.404248" lon="-8.5853941"><ele>333.0</ele><time>2026-05-02T12:21:28.465Z</time></trkpt><trkpt lat="42.4043579" lon="-8.5853558"><ele>333.0</ele><time>2026-05-02T12:21:29.467Z</time></trkpt><trkpt lat="42.4044634" lon="-8.5853135"><ele>333.0</ele><time>2026-05-02T12:21:30.463Z</time></trkpt><trkpt lat="42.4045676" lon="-8.5852709"><ele>333.0</ele><time>2026-05-02T12:21:31.457Z</time></trkpt><trkpt lat="42.4046739" lon="-8.5852304"><ele>333.0</ele><time>2026-05-02T12:21:32.456Z</time></trkpt><trkpt lat="42.4047792" lon="-8.5851948"><ele>333.0</ele><time>2026-05-02T12:21:33.467Z</time></trkpt><trkpt lat="42.404886" lon="-8.5851583"><ele>333.4</ele><time>2026-05-02T12:21:34.457Z</time></trkpt><trkpt lat="42.4049921" lon="-8.5851235"><ele>333.79999999999995</ele><time>2026-05-02T12:21:35.456Z</time></trkpt><trkpt lat="42.4051001" lon="-8.5850913"><ele>334.2</ele><time>2026-05-02T12:21:36.453Z</time></trkpt><trkpt lat="42.4052025" lon="-8.5850574"><ele>334.6</ele><time>2026-05-02T12:21:37.46Z</time></trkpt><trkpt lat="42.4053045" lon="-8.5850188"><ele>335.0</ele><time>2026-05-02T12:21:38.463Z</time></trkpt><trkpt lat="42.4053968" lon="-8.5849866"><ele>335.0</ele><time>2026-05-02T12:21:39.456Z</time></trkpt><trkpt lat="42.4054807" lon="-8.5849585"><ele>335.0</ele><time>2026-05-02T12:21:40.457Z</time></trkpt><trkpt lat="42.4055702" lon="-8.5849203"><ele>335.0</ele><time>2026-05-02T12:21:41.468Z</time></trkpt><trkpt lat="42.4056537" lon="-8.584886"><ele>335.0</ele><time>2026-05-02T12:21:42.457Z</time></trkpt><trkpt lat="42.4057385" lon="-8.5848559"><ele>335.0</ele><time>2026-05-02T12:21:43.454Z</time></trkpt><trkpt lat="42.4058169" lon="-8.5848307"><ele>335.0</ele><time>2026-05-02T12:21:44.454Z</time></trkpt><trkpt lat="42.4058933" lon="-8.5848015"><ele>335.6666666666667</ele><time>2026-05-02T12:21:45.459Z</time></trkpt><trkpt lat="42.4059658" lon="-8.5847617"><ele>336.33333333333337</ele><time>2026-05-02T12:21:46.455Z</time></trkpt><trkpt lat="42.406041" lon="-8.5847278"><ele>337.0</ele><time>2026-05-02T12:21:47.462Z</time></trkpt><trkpt lat="42.4061191" lon="-8.5846894"><ele>337.6666666666667</ele><time>2026-05-02T12:21:48.462Z</time></trkpt><trkpt lat="42.4062026" lon="-8.5846595"><ele>338.3333333333333</ele><time>2026-05-02T12:21:49.457Z</time></trkpt><trkpt lat="42.4062838" lon="-8.5846425"><ele>339.0</ele><time>2026-05-02T12:21:50.456Z</time></trkpt><trkpt lat="42.4063634" lon="-8.5846306"><ele>339.4</ele><time>2026-05-02T12:21:51.459Z</time></trkpt><trkpt lat="42.4064352" lon="-8.5846112"><ele>339.79999999999995</ele><time>2026-05-02T12:21:52.459Z</time></trkpt><trkpt lat="42.4064956" lon="-8.584584"><ele>340.20000000000005</ele><time>2026-05-02T12:21:53.458Z</time></trkpt><trkpt lat="42.4065804" lon="-8.5844928"><ele>340.6</ele><time>2026-05-02T12:21:55.457Z</time></trkpt><trkpt lat="42.4066486" lon="-8.5843351"><ele>341.0</ele><time>2026-05-02T12:21:57.457Z</time></trkpt><trkpt lat="42.4067058" lon="-8.5842595"><ele>341.0</ele><time>2026-05-02T12:21:58.466Z</time></trkpt><trkpt lat="42.406766" lon="-8.5841909"><ele>341.0</ele><time>2026-05-02T12:21:59.454Z</time></trkpt><trkpt lat="42.4068184" lon="-8.5841195"><ele>341.0</ele><time>2026-05-02T12:22:00.456Z</time></trkpt><trkpt lat="42.4068636" lon="-8.5840506"><ele>341.0</ele><time>2026-05-02T12:22:01.456Z</time></trkpt><trkpt lat="42.4068891" lon="-8.5838936"><ele>341.0</ele><time>2026-05-02T12:22:03.457Z</time></trkpt><trkpt lat="42.4068688" lon="-8.5838024"><ele>341.0</ele><time>2026-05-02T12:22:04.462Z</time></trkpt><trkpt lat="42.4068372" lon="-8.5837124"><ele>340.4</ele><time>2026-05-02T12:22:05.469Z</time></trkpt><trkpt lat="42.4068126" lon="-8.5836181"><ele>339.8</ele><time>2026-05-02T12:22:06.46Z</time></trkpt><trkpt lat="42.4067927" lon="-8.5835297"><ele>339.2</ele><time>2026-05-02T12:22:07.458Z</time></trkpt><trkpt lat="42.4067916" lon="-8.5833794"><ele>338.59999999999997</ele><time>2026-05-02T12:22:09.462Z</time></trkpt><trkpt lat="42.4069104" lon="-8.5833185"><ele>338.0</ele><time>2026-05-02T12:22:11.466Z</time></trkpt><trkpt lat="42.406994" lon="-8.5833055"><ele>338.0</ele><time>2026-05-02T12:22:12.458Z</time></trkpt><trkpt lat="42.4070885" lon="-8.5832918"><ele>338.0</ele><time>2026-05-02T12:22:13.472Z</time></trkpt><trkpt lat="42.4071777" lon="-8.5832691"><ele>338.0</ele><time>2026-05-02T12:22:14.467Z</time></trkpt><trkpt lat="42.4072679" lon="-8.5832457"><ele>338.0</ele><time>2026-05-02T12:22:15.458Z</time></trkpt><trkpt lat="42.4073632" lon="-8.5832276"><ele>338.0</ele><time>2026-05-02T12:22:16.464Z</time></trkpt><trkpt lat="42.4074632" lon="-8.583212"><ele>338.0</ele><time>2026-05-02T12:22:17.458Z</time></trkpt><trkpt lat="42.4075635" lon="-8.5832039"><ele>338.0</ele><time>2026-05-02T12:22:18.454Z</time></trkpt><trkpt lat="42.4076626" lon="-8.5832058"><ele>338.0</ele><time>2026-05-02T12:22:19.459Z</time></trkpt><trkpt lat="42.40776" lon="-8.5832047"><ele>338.0</ele><time>2026-05-02T12:22:20.468Z</time></trkpt><trkpt lat="42.4078528" lon="-8.5831952"><ele>338.0</ele><time>2026-05-02T12:22:21.453Z</time></trkpt><trkpt lat="42.4079381" lon="-8.5831823"><ele>338.33333333333337</ele><time>2026-05-02T12:22:22.455Z</time></trkpt><trkpt lat="42.408012" lon="-8.583166"><ele>338.6666666666667</ele><time>2026-05-02T12:22:23.454Z</time></trkpt><trkpt lat="42.4080799" lon="-8.5831514"><ele>339.0</ele><time>2026-05-02T12:22:24.462Z</time></trkpt><trkpt lat="42.4081451" lon="-8.5831213"><ele>339.3333333333333</ele><time>2026-05-02T12:22:25.47Z</time></trkpt><trkpt lat="42.4081904" lon="-8.5830023"><ele>339.66666666666663</ele><time>2026-05-02T12:22:27.454Z</time></trkpt><trkpt lat="42.4081765" lon="-8.5829005"><ele>340.0</ele><time>2026-05-02T12:22:29.458Z</time></trkpt><trkpt lat="42.4081323" lon="-8.5830276"><ele>340.0</ele><time>2026-05-02T12:22:37.457Z</time></trkpt><trkpt lat="42.4081106" lon="-8.5831308"><ele>340.0</ele><time>2026-05-02T12:22:39.468Z</time></trkpt><trkpt lat="42.4082111" lon="-8.5831782"><ele>340.0</ele><time>2026-05-02T12:22:42.454Z</time></trkpt><trkpt lat="42.4082973" lon="-8.5831798"><ele>340.0</ele><time>2026-05-02T12:22:43.452Z</time></trkpt><trkpt lat="42.4083872" lon="-8.5831717"><ele>340.0</ele><time>2026-05-02T12:22:44.456Z</time></trkpt><trkpt lat="42.4084934" lon="-8.5831471"><ele>340.0</ele><time>2026-05-02T12:22:45.466Z</time></trkpt><trkpt lat="42.4086037" lon="-8.5831154"><ele>340.0</ele><time>2026-05-02T12:22:46.458Z</time></trkpt><trkpt lat="42.4087185" lon="-8.5830773"><ele>340.0</ele><time>2026-05-02T12:22:47.467Z</time></trkpt><trkpt lat="42.4088391" lon="-8.5830293"><ele>340.0</ele><time>2026-05-02T12:22:48.46Z</time></trkpt><trkpt lat="42.4089597" lon="-8.5829866"><ele>341.4</ele><time>2026-05-02T12:22:49.459Z</time></trkpt><trkpt lat="42.4090558" lon="-8.5829587"><ele>342.8</ele><time>2026-05-02T12:22:50.452Z</time></trkpt><trkpt lat="42.4091376" lon="-8.5829655"><ele>344.20000000000005</ele><time>2026-05-02T12:22:51.456Z</time></trkpt><trkpt lat="42.4092185" lon="-8.5829901"><ele>345.6</ele><time>2026-05-02T12:22:52.453Z</time></trkpt><trkpt lat="42.4093191" lon="-8.5830137"><ele>347.0</ele><time>2026-05-02T12:22:53.465Z</time></trkpt><trkpt lat="42.4094192" lon="-8.5830273"><ele>347.0</ele><time>2026-05-02T12:22:54.464Z</time></trkpt><trkpt lat="42.4095196" lon="-8.5830488"><ele>347.0</ele><time>2026-05-02T12:22:55.458Z</time></trkpt><trkpt lat="42.4096074" lon="-8.5830771"><ele>347.0</ele><time>2026-05-02T12:22:56.455Z</time></trkpt><trkpt lat="42.4096839" lon="-8.5831033"><ele>347.0</ele><time>2026-05-02T12:22:57.467Z</time></trkpt><trkpt lat="42.4097609" lon="-8.5831283"><ele>347.0</ele><time>2026-05-02T12:22:58.455Z</time></trkpt><trkpt lat="42.4098382" lon="-8.5831554"><ele>347.0</ele><time>2026-05-02T12:22:59.455Z</time></trkpt><trkpt lat="42.4099138" lon="-8.5831831"><ele>345.8571428571429</ele><time>2026-05-02T12:23:00.453Z</time></trkpt><trkpt lat="42.4099883" lon="-8.5832138"><ele>344.71428571428567</ele><time>2026-05-02T12:23:01.465Z</time></trkpt><trkpt lat="42.4100577" lon="-8.5832372"><ele>343.57142857142856</ele><time>2026-05-02T12:23:02.451Z</time></trkpt><trkpt lat="42.410128" lon="-8.5832566"><ele>342.42857142857144</ele><time>2026-05-02T12:23:03.459Z</time></trkpt><trkpt lat="42.4101961" lon="-8.5832792"><ele>341.28571428571433</ele><time>2026-05-02T12:23:04.452Z</time></trkpt><trkpt lat="42.410262" lon="-8.5832927"><ele>340.1428571428571</ele><time>2026-05-02T12:23:05.459Z</time></trkpt><trkpt lat="42.4103286" lon="-8.5832897"><ele>339.0</ele><time>2026-05-02T12:23:06.47Z</time></trkpt><trkpt lat="42.4103949" lon="-8.583278"><ele>339.0</ele><time>2026-05-02T12:23:07.462Z</time></trkpt><trkpt lat="42.4104662" lon="-8.5832445"><ele>339.0</ele><time>2026-05-02T12:23:08.452Z</time></trkpt><trkpt lat="42.4105342" lon="-8.5831975"><ele>339.0</ele><time>2026-05-02T12:23:09.455Z</time></trkpt><trkpt lat="42.4105934" lon="-8.5831443"><ele>339.0</ele><time>2026-05-02T12:23:10.464Z</time></trkpt><trkpt lat="42.4106471" lon="-8.5830955"><ele>339.0</ele><time>2026-05-02T12:23:11.466Z</time></trkpt><trkpt lat="42.4107498" lon="-8.5830586"><ele>339.0</ele><time>2026-05-02T12:23:13.462Z</time></trkpt><trkpt lat="42.4108502" lon="-8.5831549"><ele>337.2</ele><time>2026-05-02T12:23:15.466Z</time></trkpt><trkpt lat="42.4109043" lon="-8.5832401"><ele>335.4</ele><time>2026-05-02T12:23:16.463Z</time></trkpt><trkpt lat="42.4109595" lon="-8.5833478"><ele>333.6</ele><time>2026-05-02T12:23:17.461Z</time></trkpt><trkpt lat="42.4110214" lon="-8.5834626"><ele>331.8</ele><time>2026-05-02T12:23:18.459Z</time></trkpt><trkpt lat="42.4110784" lon="-8.5835721"><ele>330.0</ele><time>2026-05-02T12:23:19.459Z</time></trkpt><trkpt lat="42.4111389" lon="-8.5836677"><ele>330.4</ele><time>2026-05-02T12:23:20.462Z</time></trkpt><trkpt lat="42.4112057" lon="-8.5837457"><ele>330.8</ele><time>2026-05-02T12:23:21.459Z</time></trkpt><trkpt lat="42.4112797" lon="-8.5838132"><ele>331.20000000000005</ele><time>2026-05-02T12:23:22.462Z</time></trkpt><trkpt lat="42.4113596" lon="-8.5838771"><ele>331.6</ele><time>2026-05-02T12:23:23.456Z</time></trkpt><trkpt lat="42.4114416" lon="-8.5839395"><ele>332.0</ele><time>2026-05-02T12:23:24.453Z</time></trkpt><trkpt lat="42.4115196" lon="-8.5840021"><ele>328.6666666666667</ele><time>2026-05-02T12:23:25.457Z</time></trkpt><trkpt lat="42.4115941" lon="-8.5840604"><ele>325.33333333333337</ele><time>2026-05-02T12:23:26.47Z</time></trkpt><trkpt lat="42.4116642" lon="-8.5841158"><ele>322.0</ele><time>2026-05-02T12:23:27.464Z</time></trkpt><trkpt lat="42.4117296" lon="-8.5841705"><ele>318.6666666666667</ele><time>2026-05-02T12:23:28.462Z</time></trkpt><trkpt lat="42.4117893" lon="-8.5842199"><ele>315.3333333333333</ele><time>2026-05-02T12:23:29.461Z</time></trkpt><trkpt lat="42.4118668" lon="-8.584276"><ele>312.0</ele><time>2026-05-02T12:23:31.461Z</time></trkpt><trkpt lat="42.4119374" lon="-8.584335"><ele>312.0</ele><time>2026-05-02T12:23:34.453Z</time></trkpt><trkpt lat="42.411969" lon="-8.5844309"><ele>312.0</ele><time>2026-05-02T12:23:36.461Z</time></trkpt><trkpt lat="42.4119822" lon="-8.5845886"><ele>312.0</ele><time>2026-05-02T12:23:38.458Z</time></trkpt><trkpt lat="42.4119849" lon="-8.584679"><ele>312.0</ele><time>2026-05-02T12:23:39.457Z</time></trkpt><trkpt lat="42.4119924" lon="-8.5847718"><ele>312.0</ele><time>2026-05-02T12:23:40.468Z</time></trkpt><trkpt lat="42.4120005" lon="-8.5848668"><ele>312.0</ele><time>2026-05-02T12:23:41.458Z</time></trkpt><trkpt lat="42.4120171" lon="-8.5849634"><ele>312.2857142857143</ele><time>2026-05-02T12:23:42.464Z</time></trkpt><trkpt lat="42.4120422" lon="-8.5850522"><ele>312.57142857142856</ele><time>2026-05-02T12:23:43.45Z</time></trkpt><trkpt lat="42.4120792" lon="-8.5851358"><ele>312.85714285714283</ele><time>2026-05-02T12:23:44.461Z</time></trkpt><trkpt lat="42.4121214" lon="-8.5852117"><ele>313.1428571428571</ele><time>2026-05-02T12:23:45.46Z</time></trkpt><trkpt lat="42.4121673" lon="-8.5852915"><ele>313.42857142857144</ele><time>2026-05-02T12:23:46.461Z</time></trkpt><trkpt lat="42.4122104" lon="-8.5853632"><ele>313.71428571428567</ele><time>2026-05-02T12:23:47.457Z</time></trkpt><trkpt lat="42.412254" lon="-8.5854386"><ele>314.0</ele><time>2026-05-02T12:23:48.454Z</time></trkpt><trkpt lat="42.4122976" lon="-8.585517"><ele>312.5</ele><time>2026-05-02T12:23:49.458Z</time></trkpt><trkpt lat="42.4123333" lon="-8.5855927"><ele>311.0</ele><time>2026-05-02T12:23:50.462Z</time></trkpt><trkpt lat="42.4123364" lon="-8.5857595"><ele>309.5</ele><time>2026-05-02T12:23:52.464Z</time></trkpt><trkpt lat="42.4123331" lon="-8.5858462"><ele>308.0</ele><time>2026-05-02T12:23:53.457Z</time></trkpt><trkpt lat="42.4123391" lon="-8.585933"><ele>306.5</ele><time>2026-05-02T12:23:54.466Z</time></trkpt><trkpt lat="42.4123462" lon="-8.5860195"><ele>305.0</ele><time>2026-05-02T12:23:55.459Z</time></trkpt><trkpt lat="42.4123636" lon="-8.5861825"><ele>303.83333333333337</ele><time>2026-05-02T12:23:57.458Z</time></trkpt><trkpt lat="42.4123829" lon="-8.5862653"><ele>302.6666666666667</ele><time>2026-05-02T12:23:58.459Z</time></trkpt><trkpt lat="42.4124044" lon="-8.5863607"><ele>301.5</ele><time>2026-05-02T12:23:59.465Z</time></trkpt><trkpt lat="42.4124346" lon="-8.5864613"><ele>300.3333333333333</ele><time>2026-05-02T12:24:00.464Z</time></trkpt><trkpt lat="42.4124714" lon="-8.5865613"><ele>299.16666666666663</ele><time>2026-05-02T12:24:01.463Z</time></trkpt><trkpt lat="42.4125183" lon="-8.5866636"><ele>298.0</ele><time>2026-05-02T12:24:02.464Z</time></trkpt><trkpt lat="42.4125753" lon="-8.5867701"><ele>298.0</ele><time>2026-05-02T12:24:03.46Z</time></trkpt><trkpt lat="42.4126415" lon="-8.5868839"><ele>298.0</ele><time>2026-05-02T12:24:04.46Z</time></trkpt><trkpt lat="42.4127201" lon="-8.587002"><ele>298.0</ele><time>2026-05-02T12:24:05.465Z</time></trkpt><trkpt lat="42.4127908" lon="-8.5871188"><ele>298.0</ele><time>2026-05-02T12:24:06.463Z</time></trkpt><trkpt lat="42.4128639" lon="-8.587233"><ele>298.0</ele><time>2026-05-02T12:24:07.467Z</time></trkpt><trkpt lat="42.4129369" lon="-8.5873515"><ele>298.0</ele><time>2026-05-02T12:24:08.46Z</time></trkpt><trkpt lat="42.4130097" lon="-8.5874675"><ele>298.0</ele><time>2026-05-02T12:24:09.452Z</time></trkpt><trkpt lat="42.4130779" lon="-8.5875805"><ele>298.0</ele><time>2026-05-02T12:24:10.467Z</time></trkpt><trkpt lat="42.4131549" lon="-8.5876848"><ele>298.0</ele><time>2026-05-02T12:24:11.453Z</time></trkpt><trkpt lat="42.4132305" lon="-8.5877742"><ele>298.0</ele><time>2026-05-02T12:24:12.456Z</time></trkpt><trkpt lat="42.41331" lon="-8.5878529"><ele>298.0</ele><time>2026-05-02T12:24:13.454Z</time></trkpt><trkpt lat="42.4134018" lon="-8.5879312"><ele>298.0</ele><time>2026-05-02T12:24:14.462Z</time></trkpt><trkpt lat="42.4134995" lon="-8.5880031"><ele>298.0</ele><time>2026-05-02T12:24:15.465Z</time></trkpt><trkpt lat="42.4136123" lon="-8.5880582"><ele>298.0</ele><time>2026-05-02T12:24:16.454Z</time></trkpt><trkpt lat="42.4137289" lon="-8.5881106"><ele>297.0</ele><time>2026-05-02T12:24:17.455Z</time></trkpt><trkpt lat="42.4138442" lon="-8.5881541"><ele>296.0</ele><time>2026-05-02T12:24:18.456Z</time></trkpt><trkpt lat="42.4139569" lon="-8.588185"><ele>295.0</ele><time>2026-05-02T12:24:19.461Z</time></trkpt><trkpt lat="42.4140616" lon="-8.5881935"><ele>294.0</ele><time>2026-05-02T12:24:20.462Z</time></trkpt><trkpt lat="42.4141479" lon="-8.5881627"><ele>293.0</ele><time>2026-05-02T12:24:21.458Z</time></trkpt><trkpt lat="42.414238" lon="-8.5880899"><ele>293.0</ele><time>2026-05-02T12:24:22.452Z</time></trkpt><trkpt lat="42.4143268" lon="-8.5880048"><ele>293.0</ele><time>2026-05-02T12:24:23.449Z</time></trkpt><trkpt lat="42.414402" lon="-8.5879153"><ele>293.0</ele><time>2026-05-02T12:24:24.463Z</time></trkpt><trkpt lat="42.414478" lon="-8.5878439"><ele>293.0</ele><time>2026-05-02T12:24:25.462Z</time></trkpt><trkpt lat="42.4145605" lon="-8.5877826"><ele>293.0</ele><time>2026-05-02T12:24:26.455Z</time></trkpt><trkpt lat="42.414648" lon="-8.5877163"><ele>291.4</ele><time>2026-05-02T12:24:27.463Z</time></trkpt><trkpt lat="42.4147419" lon="-8.5876445"><ele>289.8</ele><time>2026-05-02T12:24:28.466Z</time></trkpt><trkpt lat="42.4148361" lon="-8.5875636"><ele>288.2</ele><time>2026-05-02T12:24:29.465Z</time></trkpt><trkpt lat="42.414931" lon="-8.5874835"><ele>286.6</ele><time>2026-05-02T12:24:30.458Z</time></trkpt><trkpt lat="42.4150265" lon="-8.5874112"><ele>285.0</ele><time>2026-05-02T12:24:31.454Z</time></trkpt><trkpt lat="42.4151206" lon="-8.5873425"><ele>285.0</ele><time>2026-05-02T12:24:32.463Z</time></trkpt><trkpt lat="42.4152153" lon="-8.5872704"><ele>285.0</ele><time>2026-05-02T12:24:33.471Z</time></trkpt><trkpt lat="42.415309" lon="-8.5871908"><ele>285.0</ele><time>2026-05-02T12:24:34.458Z</time></trkpt><trkpt lat="42.4154068" lon="-8.5871116"><ele>285.0</ele><time>2026-05-02T12:24:35.465Z</time></trkpt><trkpt lat="42.4155058" lon="-8.5870299"><ele>285.0</ele><time>2026-05-02T12:24:36.453Z</time></trkpt><trkpt lat="42.4156098" lon="-8.5869521"><ele>285.0</ele><time>2026-05-02T12:24:37.456Z</time></trkpt><trkpt lat="42.4157027" lon="-8.5868817"><ele>285.0</ele><time>2026-05-02T12:24:38.457Z</time></trkpt><trkpt lat="42.4157826" lon="-8.5868207"><ele>285.0</ele><time>2026-05-02T12:24:39.455Z</time></trkpt><trkpt lat="42.4158503" lon="-8.5867691"><ele>285.0</ele><time>2026-05-02T12:24:40.462Z</time></trkpt><trkpt lat="42.4159121" lon="-8.5867194"><ele>285.0</ele><time>2026-05-02T12:24:41.455Z</time></trkpt><trkpt lat="42.4159741" lon="-8.5866796"><ele>285.0</ele><time>2026-05-02T12:24:42.471Z</time></trkpt><trkpt lat="42.4160474" lon="-8.586653"><ele>285.0</ele><time>2026-05-02T12:24:43.463Z</time></trkpt><trkpt lat="42.4161342" lon="-8.5866518"><ele>285.0</ele><time>2026-05-02T12:24:44.453Z</time></trkpt><trkpt lat="42.416233" lon="-8.5866604"><ele>285.0</ele><time>2026-05-02T12:24:45.456Z</time></trkpt><trkpt lat="42.4163362" lon="-8.5866745"><ele>285.0</ele><time>2026-05-02T12:24:46.462Z</time></trkpt><trkpt lat="42.416437" lon="-8.5866904"><ele>285.0</ele><time>2026-05-02T12:24:47.462Z</time></trkpt><trkpt lat="42.4165369" lon="-8.5867036"><ele>284.6</ele><time>2026-05-02T12:24:48.46Z</time></trkpt><trkpt lat="42.4166326" lon="-8.5867227"><ele>284.2</ele><time>2026-05-02T12:24:49.461Z</time></trkpt><trkpt lat="42.4167354" lon="-8.5867474"><ele>283.8</ele><time>2026-05-02T12:24:50.455Z</time></trkpt><trkpt lat="42.4168494" lon="-8.5867808"><ele>283.4</ele><time>2026-05-02T12:24:51.452Z</time></trkpt><trkpt lat="42.4169758" lon="-8.586815"><ele>283.0</ele><time>2026-05-02T12:24:52.459Z</time></trkpt><trkpt lat="42.4171111" lon="-8.5868448"><ele>283.75</ele><time>2026-05-02T12:24:53.466Z</time></trkpt><trkpt lat="42.4172504" lon="-8.5868741"><ele>284.5</ele><time>2026-05-02T12:24:54.452Z</time></trkpt><trkpt lat="42.4173857" lon="-8.5868903"><ele>285.25</ele><time>2026-05-02T12:24:55.456Z</time></trkpt><trkpt lat="42.4175214" lon="-8.5869073"><ele>286.0</ele><time>2026-05-02T12:24:56.461Z</time></trkpt><trkpt lat="42.4176501" lon="-8.5869267"><ele>286.0</ele><time>2026-05-02T12:24:57.47Z</time></trkpt><trkpt lat="42.4177698" lon="-8.5869532"><ele>286.0</ele><time>2026-05-02T12:24:58.469Z</time></trkpt><trkpt lat="42.4178877" lon="-8.5869793"><ele>286.0</ele><time>2026-05-02T12:24:59.457Z</time></trkpt><trkpt lat="42.4180057" lon="-8.5870052"><ele>286.0</ele><time>2026-05-02T12:25:00.459Z</time></trkpt><trkpt lat="42.4181143" lon="-8.5870172"><ele>286.0</ele><time>2026-05-02T12:25:01.455Z</time></trkpt><trkpt lat="42.4182106" lon="-8.5870127"><ele>286.0</ele><time>2026-05-02T12:25:02.459Z</time></trkpt><trkpt lat="42.4182996" lon="-8.586983"><ele>286.0</ele><time>2026-05-02T12:25:03.46Z</time></trkpt><trkpt lat="42.418392" lon="-8.5869364"><ele>286.0</ele><time>2026-05-02T12:25:04.464Z</time></trkpt><trkpt lat="42.4184881" lon="-8.5868901"><ele>286.0</ele><time>2026-05-02T12:25:05.45Z</time></trkpt><trkpt lat="42.4185796" lon="-8.5868459"><ele>286.6</ele><time>2026-05-02T12:25:06.457Z</time></trkpt><trkpt lat="42.4186652" lon="-8.5868005"><ele>287.20000000000005</ele><time>2026-05-02T12:25:07.463Z</time></trkpt><trkpt lat="42.4187514" lon="-8.5867463"><ele>287.79999999999995</ele><time>2026-05-02T12:25:08.465Z</time></trkpt><trkpt lat="42.4188348" lon="-8.5866868"><ele>288.4</ele><time>2026-05-02T12:25:09.466Z</time></trkpt><trkpt lat="42.4189108" lon="-8.5866286"><ele>289.0</ele><time>2026-05-02T12:25:10.469Z</time></trkpt><trkpt lat="42.4189827" lon="-8.5865759"><ele>287.0</ele><time>2026-05-02T12:25:11.465Z</time></trkpt><trkpt lat="42.4190545" lon="-8.5865364"><ele>285.0</ele><time>2026-05-02T12:25:12.455Z</time></trkpt><trkpt lat="42.4191283" lon="-8.5865063"><ele>283.0</ele><time>2026-05-02T12:25:13.453Z</time></trkpt><trkpt lat="42.4192026" lon="-8.5864844"><ele>281.0</ele><time>2026-05-02T12:25:14.465Z</time></trkpt><trkpt lat="42.4192802" lon="-8.5864696"><ele>279.0</ele><time>2026-05-02T12:25:15.459Z</time></trkpt><trkpt lat="42.4193536" lon="-8.5864609"><ele>277.0</ele><time>2026-05-02T12:25:16.456Z</time></trkpt><trkpt lat="42.4194635" lon="-8.5864347"><ele>277.0</ele><time>2026-05-02T12:25:18.462Z</time></trkpt><trkpt lat="42.4195512" lon="-8.5864198"><ele>277.0</ele><time>2026-05-02T12:25:20.454Z</time></trkpt><trkpt lat="42.4196392" lon="-8.5863983"><ele>277.0</ele><time>2026-05-02T12:25:22.456Z</time></trkpt><trkpt lat="42.4197121" lon="-8.5863996"><ele>277.0</ele><time>2026-05-02T12:25:24.455Z</time></trkpt><trkpt lat="42.4197939" lon="-8.5863759"><ele>277.0</ele><time>2026-05-02T12:25:27.461Z</time></trkpt><trkpt lat="42.419859" lon="-8.5863636"><ele>277.0</ele><time>2026-05-02T12:25:31.459Z</time></trkpt><trkpt lat="42.4197939" lon="-8.586346"><ele>273.85714285714283</ele><time>2026-05-02T12:25:37.456Z</time></trkpt><trkpt lat="42.4198447" lon="-8.5862939"><ele>270.71428571428567</ele><time>2026-05-02T12:31:07.459Z</time></trkpt><trkpt lat="42.4199098" lon="-8.5862855"><ele>267.57142857142856</ele><time>2026-05-02T12:31:10.452Z</time></trkpt><trkpt lat="42.4199906" lon="-8.5862757"><ele>264.42857142857144</ele><time>2026-05-02T12:31:14.451Z</time></trkpt><trkpt lat="42.4200574" lon="-8.586263"><ele>261.28571428571433</ele><time>2026-05-02T12:31:19.47Z</time></trkpt><trkpt lat="42.420121" lon="-8.5862564"><ele>258.14285714285717</ele><time>2026-05-02T12:31:24.46Z</time></trkpt><trkpt lat="42.420191" lon="-8.5862435"><ele>255.0</ele><time>2026-05-02T12:31:36.452Z</time></trkpt><trkpt lat="42.4201968" lon="-8.586125"><ele>255.0</ele><time>2026-05-02T12:31:43.448Z</time></trkpt><trkpt lat="42.4201944" lon="-8.5860084"><ele>255.0</ele><time>2026-05-02T12:31:45.453Z</time></trkpt><trkpt lat="42.4202041" lon="-8.5859129"><ele>255.0</ele><time>2026-05-02T12:31:47.461Z</time></trkpt><trkpt lat="42.4201999" lon="-8.5857252"><ele>255.0</ele><time>2026-05-02T12:31:49.454Z</time></trkpt><trkpt lat="42.4201843" lon="-8.5856127"><ele>255.0</ele><time>2026-05-02T12:31:50.458Z</time></trkpt><trkpt lat="42.4201649" lon="-8.5855042"><ele>255.0</ele><time>2026-05-02T12:31:51.453Z</time></trkpt><trkpt lat="42.4201599" lon="-8.5853717"><ele>255.0</ele><time>2026-05-02T12:31:53.46Z</time></trkpt><trkpt lat="42.4202065" lon="-8.5853062"><ele>255.0</ele><time>2026-05-02T12:32:01.467Z</time></trkpt><trkpt lat="42.4202865" lon="-8.585386"><ele>255.0</ele><time>2026-05-02T12:32:03.451Z</time></trkpt><trkpt lat="42.4203304" lon="-8.5855111"><ele>255.0</ele><time>2026-05-02T12:32:04.454Z</time></trkpt><trkpt lat="42.4203797" lon="-8.5856808"><ele>255.0</ele><time>2026-05-02T12:32:05.454Z</time></trkpt><trkpt lat="42.4204315" lon="-8.5858817"><ele>255.0</ele><time>2026-05-02T12:32:06.455Z</time></trkpt><trkpt lat="42.4204842" lon="-8.5861062"><ele>255.0</ele><time>2026-05-02T12:32:07.453Z</time></trkpt><trkpt lat="42.4205134" lon="-8.5862867"><ele>249.16666666666666</ele><time>2026-05-02T12:32:08.46Z</time></trkpt><trkpt lat="42.4205357" lon="-8.5864413"><ele>243.33333333333331</ele><time>2026-05-02T12:32:09.457Z</time></trkpt><trkpt lat="42.420549" lon="-8.5865755"><ele>237.5</ele><time>2026-05-02T12:32:10.454Z</time></trkpt><trkpt lat="42.4205413" lon="-8.5866994"><ele>231.66666666666666</ele><time>2026-05-02T12:32:11.459Z</time></trkpt><trkpt lat="42.4205033" lon="-8.5867688"><ele>225.83333333333331</ele><time>2026-05-02T12:32:12.449Z</time></trkpt><trkpt lat="42.4205208" lon="-8.586677"><ele>220.0</ele><time>2026-05-02T12:32:20.454Z</time></trkpt><trkpt lat="42.4205346" lon="-8.5865463"><ele>219.99999999999997</ele><time>2026-05-02T12:32:22.451Z</time></trkpt><trkpt lat="42.4205523" lon="-8.5864578"><ele>220.0</ele><time>2026-05-02T12:32:24.455Z</time></trkpt><trkpt lat="42.4205677" lon="-8.5863536"><ele>220.0</ele><time>2026-05-02T12:32:26.451Z</time></trkpt><trkpt lat="42.4205905" lon="-8.586252"><ele>220.0</ele><time>2026-05-02T12:32:29.466Z</time></trkpt><trkpt lat="42.420663" lon="-8.5862175"><ele>219.99999999999997</ele><time>2026-05-02T12:32:32.455Z</time></trkpt><trkpt lat="42.4207426" lon="-8.586203"><ele>220.0</ele><time>2026-05-02T12:32:34.452Z</time></trkpt><trkpt lat="42.4208369" lon="-8.5862488"><ele>220.0</ele><time>2026-05-02T12:32:36.456Z</time></trkpt><trkpt lat="42.4209285" lon="-8.5862912"><ele>220.0</ele><time>2026-05-02T12:32:38.452Z</time></trkpt><trkpt lat="42.4210106" lon="-8.5863497"><ele>220.0</ele><time>2026-05-02T12:32:40.454Z</time></trkpt><trkpt lat="42.4210999" lon="-8.5863919"><ele>220.0</ele><time>2026-05-02T12:32:42.452Z</time></trkpt><trkpt lat="42.421203" lon="-8.5864522"><ele>220.0</ele><time>2026-05-02T12:32:44.462Z</time></trkpt><trkpt lat="42.4212629" lon="-8.5864887"><ele>216.99999999999997</ele><time>2026-05-02T12:32:45.456Z</time></trkpt><trkpt lat="42.4213292" lon="-8.5865274"><ele>214.0</ele><time>2026-05-02T12:32:46.448Z</time></trkpt><trkpt lat="42.4213963" lon="-8.5865622"><ele>211.0</ele><time>2026-05-02T12:32:47.451Z</time></trkpt><trkpt lat="42.4214578" lon="-8.5865933"><ele>208.0</ele><time>2026-05-02T12:32:48.455Z</time></trkpt><trkpt lat="42.4215185" lon="-8.5866287"><ele>205.0</ele><time>2026-05-02T12:32:49.45Z</time></trkpt><trkpt lat="42.4215841" lon="-8.5866626"><ele>201.99999999999997</ele><time>2026-05-02T12:32:50.46Z</time></trkpt><trkpt lat="42.4216543" lon="-8.5866957"><ele>199.0</ele><time>2026-05-02T12:32:51.455Z</time></trkpt><trkpt lat="42.4217301" lon="-8.5867286"><ele>198.99999999999997</ele><time>2026-05-02T12:32:52.459Z</time></trkpt><trkpt lat="42.4218037" lon="-8.5867565"><ele>199.0</ele><time>2026-05-02T12:32:53.452Z</time></trkpt><trkpt lat="42.4218975" lon="-8.5868289"><ele>199.0</ele><time>2026-05-02T12:32:55.452Z</time></trkpt><trkpt lat="42.4218966" lon="-8.586955"><ele>199.0</ele><time>2026-05-02T12:32:57.457Z</time></trkpt><trkpt lat="42.4218726" lon="-8.5870348"><ele>198.99999999999997</ele><time>2026-05-02T12:32:58.458Z</time></trkpt><trkpt lat="42.4218526" lon="-8.5871191"><ele>199.0</ele><time>2026-05-02T12:32:59.467Z</time></trkpt><trkpt lat="42.4218491" lon="-8.5872965"><ele>198.39999999999998</ele><time>2026-05-02T12:33:01.455Z</time></trkpt><trkpt lat="42.4218587" lon="-8.5873924"><ele>197.8</ele><time>2026-05-02T12:33:02.452Z</time></trkpt><trkpt lat="42.4219375" lon="-8.5875136"><ele>197.2</ele><time>2026-05-02T12:33:04.459Z</time></trkpt><trkpt lat="42.422031" lon="-8.5875959"><ele>196.60000000000002</ele><time>2026-05-02T12:33:06.457Z</time></trkpt><trkpt lat="42.422096" lon="-8.5877219"><ele>196.0</ele><time>2026-05-02T12:33:08.45Z</time></trkpt><trkpt lat="42.42204" lon="-8.5878748"><ele>195.49999999999997</ele><time>2026-05-02T12:33:10.461Z</time></trkpt><trkpt lat="42.4219688" lon="-8.5879434"><ele>195.0</ele><time>2026-05-02T12:33:11.463Z</time></trkpt><trkpt lat="42.4218855" lon="-8.5880116"><ele>194.5</ele><time>2026-05-02T12:33:12.46Z</time></trkpt><trkpt lat="42.4218002" lon="-8.588083"><ele>194.0</ele><time>2026-05-02T12:33:13.458Z</time></trkpt><trkpt lat="42.4217338" lon="-8.5881514"><ele>193.49999999999997</ele><time>2026-05-02T12:33:14.448Z</time></trkpt><trkpt lat="42.4216776" lon="-8.5882233"><ele>193.0</ele><time>2026-05-02T12:33:15.455Z</time></trkpt><trkpt lat="42.421629" lon="-8.5882989"><ele>193.00000000000003</ele><time>2026-05-02T12:33:16.454Z</time></trkpt><trkpt lat="42.4215879" lon="-8.5883839"><ele>193.0</ele><time>2026-05-02T12:33:17.455Z</time></trkpt><trkpt lat="42.4215491" lon="-8.5884739"><ele>193.0</ele><time>2026-05-02T12:33:18.463Z</time></trkpt><trkpt lat="42.4215119" lon="-8.5885643"><ele>193.0</ele><time>2026-05-02T12:33:19.449Z</time></trkpt><trkpt lat="42.4214673" lon="-8.5886452"><ele>193.0</ele><time>2026-05-02T12:33:20.464Z</time></trkpt><trkpt lat="42.4214205" lon="-8.5887106"><ele>193.00000000000003</ele><time>2026-05-02T12:33:21.449Z</time></trkpt><trkpt lat="42.4213675" lon="-8.5887864"><ele>193.0</ele><time>2026-05-02T12:33:22.465Z</time></trkpt><trkpt lat="42.4213135" lon="-8.5888675"><ele>193.49999999999997</ele><time>2026-05-02T12:33:23.46Z</time></trkpt><trkpt lat="42.4212623" lon="-8.5889502"><ele>194.0</ele><time>2026-05-02T12:33:24.455Z</time></trkpt><trkpt lat="42.4212138" lon="-8.5890402"><ele>194.5</ele><time>2026-05-02T12:33:25.463Z</time></trkpt><trkpt lat="42.4211641" lon="-8.5891355"><ele>195.0</ele><time>2026-05-02T12:33:26.453Z</time></trkpt><trkpt lat="42.421108" lon="-8.5892352"><ele>195.49999999999997</ele><time>2026-05-02T12:33:27.45Z</time></trkpt><trkpt lat="42.4210518" lon="-8.5893359"><ele>196.0</ele><time>2026-05-02T12:33:28.457Z</time></trkpt><trkpt lat="42.4209962" lon="-8.5894224"><ele>195.99999999999997</ele><time>2026-05-02T12:33:29.452Z</time></trkpt><trkpt lat="42.4209413" lon="-8.5894957"><ele>196.0</ele><time>2026-05-02T12:33:30.458Z</time></trkpt><trkpt lat="42.4208882" lon="-8.5895746"><ele>196.0</ele><time>2026-05-02T12:33:31.455Z</time></trkpt><trkpt lat="42.4208399" lon="-8.5896617"><ele>196.0</ele><time>2026-05-02T12:33:32.452Z</time></trkpt><trkpt lat="42.4208003" lon="-8.5897661"><ele>195.99999999999997</ele><time>2026-05-02T12:33:33.456Z</time></trkpt><trkpt lat="42.4207666" lon="-8.5898757"><ele>196.0</ele><time>2026-05-02T12:33:34.45Z</time></trkpt><trkpt lat="42.420729" lon="-8.5899806"><ele>196.66666666666666</ele><time>2026-05-02T12:33:35.455Z</time></trkpt><trkpt lat="42.42069" lon="-8.5900881"><ele>197.33333333333331</ele><time>2026-05-02T12:33:36.461Z</time></trkpt><trkpt lat="42.4206456" lon="-8.5901815"><ele>198.0</ele><time>2026-05-02T12:33:37.467Z</time></trkpt><trkpt lat="42.4206011" lon="-8.59026"><ele>198.66666666666669</ele><time>2026-05-02T12:33:38.456Z</time></trkpt><trkpt lat="42.4205608" lon="-8.590336"><ele>199.33333333333334</ele><time>2026-05-02T12:33:39.456Z</time></trkpt><trkpt lat="42.4205244" lon="-8.5904165"><ele>200.0</ele><time>2026-05-02T12:33:40.458Z</time></trkpt><trkpt lat="42.4204575" lon="-8.5905435"><ele>200.00000000000003</ele><time>2026-05-02T12:33:42.456Z</time></trkpt><trkpt lat="42.4204191" lon="-8.590658"><ele>200.0</ele><time>2026-05-02T12:33:44.45Z</time></trkpt><trkpt lat="42.4204763" lon="-8.590701"><ele>200.0</ele><time>2026-05-02T12:33:53.459Z</time></trkpt><trkpt lat="42.4204948" lon="-8.590841"><ele>200.0</ele><time>2026-05-02T12:33:55.453Z</time></trkpt><trkpt lat="42.4205126" lon="-8.5909583"><ele>200.00000000000003</ele><time>2026-05-02T12:33:56.459Z</time></trkpt><trkpt lat="42.4205291" lon="-8.5910757"><ele>200.0</ele><time>2026-05-02T12:33:57.45Z</time></trkpt><trkpt lat="42.4205451" lon="-8.5911999"><ele>198.6</ele><time>2026-05-02T12:33:58.465Z</time></trkpt><trkpt lat="42.4205555" lon="-8.5913328"><ele>197.2</ele><time>2026-05-02T12:33:59.447Z</time></trkpt><trkpt lat="42.4205595" lon="-8.5914744"><ele>195.8</ele><time>2026-05-02T12:34:00.456Z</time></trkpt><trkpt lat="42.4205516" lon="-8.5916188"><ele>194.4</ele><time>2026-05-02T12:34:01.454Z</time></trkpt><trkpt lat="42.4205234" lon="-8.591755"><ele>193.0</ele><time>2026-05-02T12:34:02.455Z</time></trkpt><trkpt lat="42.4204713" lon="-8.5918755"><ele>193.0</ele><time>2026-05-02T12:34:03.457Z</time></trkpt><trkpt lat="42.4204117" lon="-8.5919829"><ele>193.0</ele><time>2026-05-02T12:34:04.454Z</time></trkpt><trkpt lat="42.4203589" lon="-8.5920789"><ele>193.0</ele><time>2026-05-02T12:34:05.452Z</time></trkpt><trkpt lat="42.4203204" lon="-8.5921617"><ele>193.0</ele><time>2026-05-02T12:34:06.456Z</time></trkpt><trkpt lat="42.4203202" lon="-8.5923091"><ele>193.0</ele><time>2026-05-02T12:34:08.451Z</time></trkpt><trkpt lat="42.4203549" lon="-8.5924757"><ele>190.60000000000002</ele><time>2026-05-02T12:34:10.453Z</time></trkpt><trkpt lat="42.4203704" lon="-8.5926165"><ele>188.20000000000002</ele><time>2026-05-02T12:34:12.447Z</time></trkpt><trkpt lat="42.4203323" lon="-8.5926951"><ele>185.8</ele><time>2026-05-02T12:34:13.457Z</time></trkpt><trkpt lat="42.4202638" lon="-8.592791"><ele>183.4</ele><time>2026-05-02T12:34:14.449Z</time></trkpt><trkpt lat="42.4201916" lon="-8.592878"><ele>181.0</ele><time>2026-05-02T12:34:15.458Z</time></trkpt><trkpt lat="42.4201324" lon="-8.5929593"><ele>180.33333333333334</ele><time>2026-05-02T12:34:16.461Z</time></trkpt><trkpt lat="42.4200822" lon="-8.5930321"><ele>179.66666666666669</ele><time>2026-05-02T12:34:17.461Z</time></trkpt><trkpt lat="42.4200326" lon="-8.5931005"><ele>179.0</ele><time>2026-05-02T12:34:18.455Z</time></trkpt><trkpt lat="42.4199871" lon="-8.5931881"><ele>178.33333333333334</ele><time>2026-05-02T12:34:19.451Z</time></trkpt><trkpt lat="42.4199386" lon="-8.593297"><ele>177.66666666666666</ele><time>2026-05-02T12:34:20.462Z</time></trkpt><trkpt lat="42.4198785" lon="-8.5934111"><ele>177.0</ele><time>2026-05-02T12:34:21.448Z</time></trkpt><trkpt lat="42.4198118" lon="-8.5935286"><ele>177.0</ele><time>2026-05-02T12:34:22.457Z</time></trkpt><trkpt lat="42.4197588" lon="-8.5936335"><ele>177.0</ele><time>2026-05-02T12:34:23.451Z</time></trkpt><trkpt lat="42.4197173" lon="-8.5937328"><ele>177.0</ele><time>2026-05-02T12:34:24.452Z</time></trkpt><trkpt lat="42.4196782" lon="-8.5938372"><ele>177.0</ele><time>2026-05-02T12:34:25.454Z</time></trkpt><trkpt lat="42.4196428" lon="-8.5939498"><ele>177.0</ele><time>2026-05-02T12:34:26.454Z</time></trkpt><trkpt lat="42.419618" lon="-8.5940811"><ele>177.39999999999998</ele><time>2026-05-02T12:34:27.45Z</time></trkpt><trkpt lat="42.4196073" lon="-8.5942247"><ele>177.79999999999998</ele><time>2026-05-02T12:34:28.453Z</time></trkpt><trkpt lat="42.4196086" lon="-8.5943637"><ele>178.2</ele><time>2026-05-02T12:34:29.458Z</time></trkpt><trkpt lat="42.4196138" lon="-8.5944965"><ele>178.6</ele><time>2026-05-02T12:34:30.458Z</time></trkpt><trkpt lat="42.4196229" lon="-8.5946277"><ele>179.0</ele><time>2026-05-02T12:34:31.453Z</time></trkpt><trkpt lat="42.4196321" lon="-8.5947563"><ele>179.0</ele><time>2026-05-02T12:34:32.449Z</time></trkpt><trkpt lat="42.4196502" lon="-8.5948756"><ele>179.0</ele><time>2026-05-02T12:34:33.45Z</time></trkpt><trkpt lat="42.4196805" lon="-8.5949935"><ele>179.0</ele><time>2026-05-02T12:34:34.46Z</time></trkpt><trkpt lat="42.4197292" lon="-8.5950992"><ele>179.0</ele><time>2026-05-02T12:34:35.452Z</time></trkpt><trkpt lat="42.4197745" lon="-8.5951982"><ele>179.0</ele><time>2026-05-02T12:34:36.448Z</time></trkpt><trkpt lat="42.4198165" lon="-8.5952908"><ele>179.0</ele><time>2026-05-02T12:34:37.448Z</time></trkpt><trkpt lat="42.419866" lon="-8.5953827"><ele>177.57142857142858</ele><time>2026-05-02T12:34:38.455Z</time></trkpt><trkpt lat="42.4199141" lon="-8.5954551"><ele>176.14285714285714</ele><time>2026-05-02T12:34:39.46Z</time></trkpt><trkpt lat="42.4199664" lon="-8.5955158"><ele>174.71428571428572</ele><time>2026-05-02T12:34:40.447Z</time></trkpt><trkpt lat="42.4200199" lon="-8.5955751"><ele>173.28571428571428</ele><time>2026-05-02T12:34:41.448Z</time></trkpt><trkpt lat="42.4200789" lon="-8.5956259"><ele>171.85714285714286</ele><time>2026-05-02T12:34:42.453Z</time></trkpt><trkpt lat="42.4201363" lon="-8.5956811"><ele>170.42857142857144</ele><time>2026-05-02T12:34:43.457Z</time></trkpt><trkpt lat="42.4201971" lon="-8.5957311"><ele>169.0</ele><time>2026-05-02T12:34:44.454Z</time></trkpt><trkpt lat="42.4202962" lon="-8.5957859"><ele>169.0</ele><time>2026-05-02T12:34:46.453Z</time></trkpt><trkpt lat="42.4204134" lon="-8.5958147"><ele>169.0</ele><time>2026-05-02T12:34:48.448Z</time></trkpt><trkpt lat="42.4204733" lon="-8.5958528"><ele>169.0</ele><time>2026-05-02T12:34:49.449Z</time></trkpt><trkpt lat="42.4205245" lon="-8.5959221"><ele>169.0</ele><time>2026-05-02T12:34:50.46Z</time></trkpt><trkpt lat="42.4205764" lon="-8.5960057"><ele>169.0</ele><time>2026-05-02T12:34:51.451Z</time></trkpt><trkpt lat="42.4206359" lon="-8.5961068"><ele>169.0</ele><time>2026-05-02T12:34:52.45Z</time></trkpt><trkpt lat="42.420692" lon="-8.5962144"><ele>167.33333333333334</ele><time>2026-05-02T12:34:53.452Z</time></trkpt><trkpt lat="42.4207343" lon="-8.5963242"><ele>165.66666666666669</ele><time>2026-05-02T12:34:54.454Z</time></trkpt><trkpt lat="42.4207792" lon="-8.5964301"><ele>164.0</ele><time>2026-05-02T12:34:55.458Z</time></trkpt><trkpt lat="42.420824" lon="-8.5965356"><ele>162.33333333333334</ele><time>2026-05-02T12:34:56.459Z</time></trkpt><trkpt lat="42.4208658" lon="-8.5966437"><ele>160.66666666666666</ele><time>2026-05-02T12:34:57.45Z</time></trkpt><trkpt lat="42.4209039" lon="-8.5967477"><ele>159.0</ele><time>2026-05-02T12:34:58.451Z</time></trkpt><trkpt lat="42.4209336" lon="-8.5968608"><ele>159.0</ele><time>2026-05-02T12:34:59.461Z</time></trkpt><trkpt lat="42.4209606" lon="-8.5969721"><ele>159.0</ele><time>2026-05-02T12:35:00.455Z</time></trkpt><trkpt lat="42.4209878" lon="-8.5970913"><ele>159.0</ele><time>2026-05-02T12:35:01.451Z</time></trkpt><trkpt lat="42.421002" lon="-8.5972057"><ele>159.0</ele><time>2026-05-02T12:35:02.454Z</time></trkpt><trkpt lat="42.421007" lon="-8.5973231"><ele>159.0</ele><time>2026-05-02T12:35:03.453Z</time></trkpt><trkpt lat="42.4209961" lon="-8.597456"><ele>159.2</ele><time>2026-05-02T12:35:04.452Z</time></trkpt><trkpt lat="42.4209822" lon="-8.5976023"><ele>159.4</ele><time>2026-05-02T12:35:05.452Z</time></trkpt><trkpt lat="42.4209812" lon="-8.5977453"><ele>159.6</ele><time>2026-05-02T12:35:06.465Z</time></trkpt><trkpt lat="42.4209934" lon="-8.5978756"><ele>159.8</ele><time>2026-05-02T12:35:07.452Z</time></trkpt><trkpt lat="42.4210126" lon="-8.5980004"><ele>160.0</ele><time>2026-05-02T12:35:08.452Z</time></trkpt><trkpt lat="42.4210393" lon="-8.5981203"><ele>160.14285714285714</ele><time>2026-05-02T12:35:09.448Z</time></trkpt><trkpt lat="42.4210712" lon="-8.5982237"><ele>160.28571428571428</ele><time>2026-05-02T12:35:10.452Z</time></trkpt><trkpt lat="42.4211044" lon="-8.5983041"><ele>160.42857142857144</ele><time>2026-05-02T12:35:11.459Z</time></trkpt><trkpt lat="42.4211374" lon="-8.5983796"><ele>160.57142857142856</ele><time>2026-05-02T12:35:12.458Z</time></trkpt><trkpt lat="42.4211665" lon="-8.5984568"><ele>160.71428571428572</ele><time>2026-05-02T12:35:13.474Z</time></trkpt><trkpt lat="42.4211906" lon="-8.598536"><ele>160.85714285714286</ele><time>2026-05-02T12:35:14.451Z</time></trkpt><trkpt lat="42.4212138" lon="-8.5986221"><ele>161.0</ele><time>2026-05-02T12:35:15.452Z</time></trkpt><trkpt lat="42.4212355" lon="-8.5987183"><ele>161.0</ele><time>2026-05-02T12:35:16.457Z</time></trkpt><trkpt lat="42.4212498" lon="-8.5988251"><ele>161.0</ele><time>2026-05-02T12:35:17.454Z</time></trkpt><trkpt lat="42.4212555" lon="-8.5989434"><ele>161.0</ele><time>2026-05-02T12:35:18.459Z</time></trkpt><trkpt lat="42.4212486" lon="-8.5990707"><ele>161.0</ele><time>2026-05-02T12:35:19.454Z</time></trkpt><trkpt lat="42.4212289" lon="-8.5991928"><ele>161.0</ele><time>2026-05-02T12:35:20.454Z</time></trkpt><trkpt lat="42.4212115" lon="-8.5993218"><ele>161.0</ele><time>2026-05-02T12:35:21.46Z</time></trkpt><trkpt lat="42.4211905" lon="-8.5994457"><ele>161.0</ele><time>2026-05-02T12:35:22.451Z</time></trkpt><trkpt lat="42.4211707" lon="-8.599566"><ele>161.0</ele><time>2026-05-02T12:35:23.461Z</time></trkpt><trkpt lat="42.4211583" lon="-8.5996733"><ele>161.0</ele><time>2026-05-02T12:35:24.456Z</time></trkpt><trkpt lat="42.4211652" lon="-8.5997771"><ele>161.0</ele><time>2026-05-02T12:35:25.449Z</time></trkpt><trkpt lat="42.4211916" lon="-8.5998906"><ele>161.0</ele><time>2026-05-02T12:35:26.46Z</time></trkpt><trkpt lat="42.4212348" lon="-8.6000051"><ele>161.0</ele><time>2026-05-02T12:35:27.447Z</time></trkpt><trkpt lat="42.4212896" lon="-8.6001248"><ele>161.0</ele><time>2026-05-02T12:35:28.457Z</time></trkpt><trkpt lat="42.4213475" lon="-8.6002462"><ele>161.0</ele><time>2026-05-02T12:35:29.46Z</time></trkpt><trkpt lat="42.4214032" lon="-8.6003586"><ele>161.0</ele><time>2026-05-02T12:35:30.452Z</time></trkpt><trkpt lat="42.4214641" lon="-8.6004685"><ele>161.0</ele><time>2026-05-02T12:35:31.447Z</time></trkpt><trkpt lat="42.4215175" lon="-8.6005641"><ele>160.60000000000002</ele><time>2026-05-02T12:35:32.458Z</time></trkpt><trkpt lat="42.4215629" lon="-8.600636"><ele>160.20000000000002</ele><time>2026-05-02T12:35:33.449Z</time></trkpt><trkpt lat="42.4216374" lon="-8.6007334"><ele>159.8</ele><time>2026-05-02T12:35:35.445Z</time></trkpt><trkpt lat="42.4216918" lon="-8.6007986"><ele>159.4</ele><time>2026-05-02T12:35:38.45Z</time></trkpt><trkpt lat="42.4217985" lon="-8.6008794"><ele>159.0</ele><time>2026-05-02T12:35:40.472Z</time></trkpt><trkpt lat="42.4218803" lon="-8.6009327"><ele>159.0</ele><time>2026-05-02T12:35:41.451Z</time></trkpt><trkpt lat="42.421983" lon="-8.601007"><ele>159.0</ele><time>2026-05-02T12:35:42.452Z</time></trkpt><trkpt lat="42.4220897" lon="-8.6010909"><ele>159.0</ele><time>2026-05-02T12:35:43.452Z</time></trkpt><trkpt lat="42.4222006" lon="-8.6011798"><ele>159.0</ele><time>2026-05-02T12:35:44.457Z</time></trkpt><trkpt lat="42.4223112" lon="-8.60127"><ele>160.6</ele><time>2026-05-02T12:35:45.454Z</time></trkpt><trkpt lat="42.4224173" lon="-8.601359"><ele>162.2</ele><time>2026-05-02T12:35:46.46Z</time></trkpt><trkpt lat="42.422513" lon="-8.6014385"><ele>163.79999999999998</ele><time>2026-05-02T12:35:47.463Z</time></trkpt><trkpt lat="42.4226009" lon="-8.6015086"><ele>165.4</ele><time>2026-05-02T12:35:48.456Z</time></trkpt><trkpt lat="42.4226802" lon="-8.6015479"><ele>167.0</ele><time>2026-05-02T12:35:49.454Z</time></trkpt><trkpt lat="42.4227532" lon="-8.6015299"><ele>167.0</ele><time>2026-05-02T12:35:50.451Z</time></trkpt><trkpt lat="42.4228276" lon="-8.6014907"><ele>167.0</ele><time>2026-05-02T12:35:51.456Z</time></trkpt><trkpt lat="42.4228965" lon="-8.60149"><ele>167.0</ele><time>2026-05-02T12:35:52.449Z</time></trkpt><trkpt lat="42.4229623" lon="-8.6015419"><ele>167.0</ele><time>2026-05-02T12:35:53.454Z</time></trkpt><trkpt lat="42.4230265" lon="-8.6016043"><ele>167.0</ele><time>2026-05-02T12:35:54.451Z</time></trkpt><trkpt lat="42.4230909" lon="-8.6016628"><ele>167.0</ele><time>2026-05-02T12:35:55.453Z</time></trkpt><trkpt lat="42.4231544" lon="-8.6017106"><ele>168.6</ele><time>2026-05-02T12:35:56.45Z</time></trkpt><trkpt lat="42.423267" lon="-8.601755"><ele>170.2</ele><time>2026-05-02T12:35:58.458Z</time></trkpt><trkpt lat="42.4233127" lon="-8.6019017"><ele>171.8</ele><time>2026-05-02T12:36:00.449Z</time></trkpt><trkpt lat="42.4232994" lon="-8.6020073"><ele>173.4</ele><time>2026-05-02T12:36:01.454Z</time></trkpt><trkpt lat="42.4232728" lon="-8.6021161"><ele>175.0</ele><time>2026-05-02T12:36:02.451Z</time></trkpt><trkpt lat="42.4232408" lon="-8.6022199"><ele>175.57142857142858</ele><time>2026-05-02T12:36:03.45Z</time></trkpt><trkpt lat="42.4232178" lon="-8.6023184"><ele>176.14285714285714</ele><time>2026-05-02T12:36:04.454Z</time></trkpt><trkpt lat="42.4232073" lon="-8.6024154"><ele>176.71428571428572</ele><time>2026-05-02T12:36:05.455Z</time></trkpt><trkpt lat="42.42322" lon="-8.6025078"><ele>177.28571428571428</ele><time>2026-05-02T12:36:06.447Z</time></trkpt><trkpt lat="42.423246" lon="-8.6025948"><ele>177.85714285714286</ele><time>2026-05-02T12:36:07.455Z</time></trkpt><trkpt lat="42.4232748" lon="-8.6026901"><ele>178.42857142857144</ele><time>2026-05-02T12:36:08.451Z</time></trkpt><trkpt lat="42.4232961" lon="-8.6027869"><ele>179.0</ele><time>2026-05-02T12:36:09.455Z</time></trkpt><trkpt lat="42.4233091" lon="-8.6028744"><ele>179.0</ele><time>2026-05-02T12:36:10.452Z</time></trkpt><trkpt lat="42.4233521" lon="-8.6029962"><ele>179.0</ele><time>2026-05-02T12:36:12.465Z</time></trkpt><trkpt lat="42.4234459" lon="-8.6030424"><ele>179.0</ele><time>2026-05-02T12:36:14.451Z</time></trkpt><trkpt lat="42.4235635" lon="-8.6030131"><ele>179.0</ele><time>2026-05-02T12:36:16.464Z</time></trkpt><trkpt lat="42.4236608" lon="-8.6029048"><ele>179.0</ele><time>2026-05-02T12:36:18.452Z</time></trkpt><trkpt lat="42.4237207" lon="-8.6028274"><ele>179.33333333333331</ele><time>2026-05-02T12:36:19.458Z</time></trkpt><trkpt lat="42.4237941" lon="-8.6027529"><ele>179.66666666666666</ele><time>2026-05-02T12:36:20.451Z</time></trkpt><trkpt lat="42.4238729" lon="-8.6026861"><ele>180.0</ele><time>2026-05-02T12:36:21.449Z</time></trkpt><trkpt lat="42.4239457" lon="-8.602628"><ele>180.33333333333334</ele><time>2026-05-02T12:36:22.457Z</time></trkpt><trkpt lat="42.424016" lon="-8.602582"><ele>180.66666666666669</ele><time>2026-05-02T12:36:23.452Z</time></trkpt><trkpt lat="42.4240845" lon="-8.6025275"><ele>181.0</ele><time>2026-05-02T12:36:24.451Z</time></trkpt><trkpt lat="42.4241455" lon="-8.6024688"><ele>183.5</ele><time>2026-05-02T12:36:25.45Z</time></trkpt><trkpt lat="42.4241989" lon="-8.6024009"><ele>186.0</ele><time>2026-05-02T12:36:26.459Z</time></trkpt><trkpt lat="42.4242541" lon="-8.6023285"><ele>188.5</ele><time>2026-05-02T12:36:27.453Z</time></trkpt><trkpt lat="42.4243233" lon="-8.6022572"><ele>191.0</ele><time>2026-05-02T12:36:28.455Z</time></trkpt><trkpt lat="42.4244077" lon="-8.602194"><ele>193.49999999999997</ele><time>2026-05-02T12:36:29.447Z</time></trkpt><trkpt lat="42.4244979" lon="-8.6021272"><ele>196.0</ele><time>2026-05-02T12:36:30.449Z</time></trkpt><trkpt lat="42.4245864" lon="-8.6020604"><ele>196.16666666666666</ele><time>2026-05-02T12:36:31.457Z</time></trkpt><trkpt lat="42.4246753" lon="-8.6020017"><ele>196.33333333333331</ele><time>2026-05-02T12:36:32.45Z</time></trkpt><trkpt lat="42.4247617" lon="-8.6019563"><ele>196.5</ele><time>2026-05-02T12:36:33.46Z</time></trkpt><trkpt lat="42.4248571" lon="-8.6019291"><ele>196.66666666666669</ele><time>2026-05-02T12:36:34.456Z</time></trkpt><trkpt lat="42.4249392" lon="-8.6019159"><ele>196.83333333333334</ele><time>2026-05-02T12:36:35.454Z</time></trkpt><trkpt lat="42.4250149" lon="-8.6019109"><ele>197.0</ele><time>2026-05-02T12:36:36.446Z</time></trkpt><trkpt lat="42.4250931" lon="-8.6019132"><ele>197.00000000000003</ele><time>2026-05-02T12:36:37.457Z</time></trkpt><trkpt lat="42.4251704" lon="-8.6019173"><ele>197.0</ele><time>2026-05-02T12:36:38.451Z</time></trkpt><trkpt lat="42.4252552" lon="-8.6019159"><ele>197.0</ele><time>2026-05-02T12:36:39.457Z</time></trkpt><trkpt lat="42.42534" lon="-8.6019058"><ele>197.0</ele><time>2026-05-02T12:36:40.456Z</time></trkpt><trkpt lat="42.4254311" lon="-8.6018996"><ele>197.00000000000003</ele><time>2026-05-02T12:36:41.449Z</time></trkpt><trkpt lat="42.4255174" lon="-8.6018865"><ele>197.0</ele><time>2026-05-02T12:36:42.464Z</time></trkpt><trkpt lat="42.4255984" lon="-8.6018683"><ele>200.00000000000003</ele><time>2026-05-02T12:36:43.448Z</time></trkpt><trkpt lat="42.4256785" lon="-8.6018401"><ele>203.0</ele><time>2026-05-02T12:36:44.449Z</time></trkpt><trkpt lat="42.4257544" lon="-8.6018125"><ele>206.0</ele><time>2026-05-02T12:36:45.451Z</time></trkpt><trkpt lat="42.4258195" lon="-8.6017879"><ele>209.0</ele><time>2026-05-02T12:36:46.45Z</time></trkpt><trkpt lat="42.4259422" lon="-8.6017478"><ele>212.00000000000003</ele><time>2026-05-02T12:36:48.452Z</time></trkpt><trkpt lat="42.4260142" lon="-8.6017467"><ele>215.0</ele><time>2026-05-02T12:36:49.454Z</time></trkpt><trkpt lat="42.4260966" lon="-8.6017599"><ele>215.0</ele><time>2026-05-02T12:36:50.458Z</time></trkpt><trkpt lat="42.426192" lon="-8.6017748"><ele>215.0</ele><time>2026-05-02T12:36:51.459Z</time></trkpt><trkpt lat="42.4262871" lon="-8.6017911"><ele>215.0</ele><time>2026-05-02T12:36:52.461Z</time></trkpt><trkpt lat="42.4263832" lon="-8.6018041"><ele>215.0</ele><time>2026-05-02T12:36:53.452Z</time></trkpt><trkpt lat="42.4264784" lon="-8.6018124"><ele>215.0</ele><time>2026-05-02T12:36:54.453Z</time></trkpt><trkpt lat="42.4265816" lon="-8.6018176"><ele>216.2</ele><time>2026-05-02T12:36:55.459Z</time></trkpt><trkpt lat="42.426688" lon="-8.6018272"><ele>217.4</ele><time>2026-05-02T12:36:56.445Z</time></trkpt><trkpt lat="42.4267954" lon="-8.6018468"><ele>218.60000000000002</ele><time>2026-05-02T12:36:57.451Z</time></trkpt><trkpt lat="42.4269018" lon="-8.6018713"><ele>219.8</ele><time>2026-05-02T12:36:58.446Z</time></trkpt><trkpt lat="42.4270063" lon="-8.601889"><ele>221.0</ele><time>2026-05-02T12:36:59.446Z</time></trkpt><trkpt lat="42.4270869" lon="-8.6018983"><ele>222.20000000000002</ele><time>2026-05-02T12:37:00.446Z</time></trkpt><trkpt lat="42.4271781" lon="-8.6018499"><ele>223.40000000000003</ele><time>2026-05-02T12:37:02.448Z</time></trkpt><trkpt lat="42.4272335" lon="-8.6017289"><ele>224.6</ele><time>2026-05-02T12:37:04.46Z</time></trkpt><trkpt lat="42.427301" lon="-8.6015962"><ele>225.8</ele><time>2026-05-02T12:37:06.45Z</time></trkpt><trkpt lat="42.4273762" lon="-8.6014724"><ele>227.0</ele><time>2026-05-02T12:37:08.448Z</time></trkpt><trkpt lat="42.4274818" lon="-8.6013626"><ele>227.00000000000003</ele><time>2026-05-02T12:37:10.448Z</time></trkpt><trkpt lat="42.4275459" lon="-8.6013145"><ele>227.0</ele><time>2026-05-02T12:37:11.453Z</time></trkpt><trkpt lat="42.4276028" lon="-8.6012644"><ele>227.0</ele><time>2026-05-02T12:37:12.455Z</time></trkpt><trkpt lat="42.4276617" lon="-8.6011985"><ele>227.0</ele><time>2026-05-02T12:37:13.445Z</time></trkpt><trkpt lat="42.4277192" lon="-8.6011332"><ele>227.00000000000003</ele><time>2026-05-02T12:37:14.455Z</time></trkpt><trkpt lat="42.4277706" lon="-8.6010471"><ele>227.0</ele><time>2026-05-02T12:37:15.459Z</time></trkpt><trkpt lat="42.4278162" lon="-8.6009431"><ele>226.2</ele><time>2026-05-02T12:37:16.448Z</time></trkpt><trkpt lat="42.4278477" lon="-8.6008443"><ele>225.39999999999998</ele><time>2026-05-02T12:37:17.449Z</time></trkpt><trkpt lat="42.4278708" lon="-8.6007338"><ele>224.60000000000002</ele><time>2026-05-02T12:37:18.457Z</time></trkpt><trkpt lat="42.427898" lon="-8.6006153"><ele>223.8</ele><time>2026-05-02T12:37:19.456Z</time></trkpt><trkpt lat="42.4279326" lon="-8.6004905"><ele>223.0</ele><time>2026-05-02T12:37:20.449Z</time></trkpt><trkpt lat="42.4279681" lon="-8.6003637"><ele>222.83333333333331</ele><time>2026-05-02T12:37:21.448Z</time></trkpt><trkpt lat="42.4279985" lon="-8.6002315"><ele>222.66666666666666</ele><time>2026-05-02T12:37:22.448Z</time></trkpt><trkpt lat="42.4280211" lon="-8.6001033"><ele>222.5</ele><time>2026-05-02T12:37:23.449Z</time></trkpt><trkpt lat="42.4280434" lon="-8.5999808"><ele>222.33333333333331</ele><time>2026-05-02T12:37:24.447Z</time></trkpt><trkpt lat="42.4280659" lon="-8.5998712"><ele>222.16666666666666</ele><time>2026-05-02T12:37:25.449Z</time></trkpt><trkpt lat="42.4280961" lon="-8.599783"><ele>222.0</ele><time>2026-05-02T12:37:26.466Z</time></trkpt><trkpt lat="42.42813" lon="-8.5997025"><ele>222.0</ele><time>2026-05-02T12:37:27.458Z</time></trkpt><trkpt lat="42.4282156" lon="-8.5995914"><ele>222.0</ele><time>2026-05-02T12:37:29.455Z</time></trkpt><trkpt lat="42.4283283" lon="-8.5995742"><ele>222.0</ele><time>2026-05-02T12:37:31.447Z</time></trkpt><trkpt lat="42.4283944" lon="-8.5996019"><ele>222.0</ele><time>2026-05-02T12:37:32.452Z</time></trkpt><trkpt lat="42.4284652" lon="-8.5996547"><ele>222.0</ele><time>2026-05-02T12:37:33.459Z</time></trkpt><trkpt lat="42.4285364" lon="-8.5997151"><ele>222.0</ele><time>2026-05-02T12:37:34.448Z</time></trkpt><trkpt lat="42.4286045" lon="-8.5997682"><ele>222.0</ele><time>2026-05-02T12:37:35.455Z</time></trkpt><trkpt lat="42.4286778" lon="-8.5998181"><ele>222.0</ele><time>2026-05-02T12:37:36.457Z</time></trkpt><trkpt lat="42.4287546" lon="-8.5998647"><ele>222.0</ele><time>2026-05-02T12:37:37.445Z</time></trkpt><trkpt lat="42.4288323" lon="-8.5999019"><ele>222.0</ele><time>2026-05-02T12:37:38.45Z</time></trkpt><trkpt lat="42.4288996" lon="-8.5999406"><ele>222.0</ele><time>2026-05-02T12:37:39.448Z</time></trkpt><trkpt lat="42.4289724" lon="-8.5999924"><ele>221.66666666666666</ele><time>2026-05-02T12:37:40.459Z</time></trkpt><trkpt lat="42.4290531" lon="-8.6000525"><ele>221.33333333333331</ele><time>2026-05-02T12:37:41.45Z</time></trkpt><trkpt lat="42.4291386" lon="-8.6001157"><ele>221.0</ele><time>2026-05-02T12:37:42.459Z</time></trkpt><trkpt lat="42.4292101" lon="-8.60016"><ele>220.66666666666666</ele><time>2026-05-02T12:37:43.453Z</time></trkpt><trkpt lat="42.4292838" lon="-8.600208"><ele>220.33333333333331</ele><time>2026-05-02T12:37:44.452Z</time></trkpt><trkpt lat="42.429369" lon="-8.6002648"><ele>220.0</ele><time>2026-05-02T12:37:45.448Z</time></trkpt><trkpt lat="42.4294504" lon="-8.6003108"><ele>220.49999999999997</ele><time>2026-05-02T12:37:46.448Z</time></trkpt><trkpt lat="42.4295318" lon="-8.6003381"><ele>221.0</ele><time>2026-05-02T12:37:47.457Z</time></trkpt><trkpt lat="42.4296048" lon="-8.6003541"><ele>221.5</ele><time>2026-05-02T12:37:48.455Z</time></trkpt><trkpt lat="42.4296786" lon="-8.6003707"><ele>222.0</ele><time>2026-05-02T12:37:49.459Z</time></trkpt><trkpt lat="42.4297517" lon="-8.600385"><ele>222.49999999999997</ele><time>2026-05-02T12:37:50.452Z</time></trkpt><trkpt lat="42.4298276" lon="-8.6004033"><ele>223.0</ele><time>2026-05-02T12:37:51.456Z</time></trkpt><trkpt lat="42.4299004" lon="-8.6004176"><ele>222.99999999999997</ele><time>2026-05-02T12:37:52.451Z</time></trkpt><trkpt lat="42.429981" lon="-8.6004402"><ele>223.0</ele><time>2026-05-02T12:37:53.451Z</time></trkpt><trkpt lat="42.430063" lon="-8.6004537"><ele>223.0</ele><time>2026-05-02T12:37:54.452Z</time></trkpt><trkpt lat="42.4301433" lon="-8.6004579"><ele>223.0</ele><time>2026-05-02T12:37:55.451Z</time></trkpt><trkpt lat="42.4302158" lon="-8.6004523"><ele>222.99999999999997</ele><time>2026-05-02T12:37:56.454Z</time></trkpt><trkpt lat="42.4302896" lon="-8.6004502"><ele>223.0</ele><time>2026-05-02T12:37:57.448Z</time></trkpt><trkpt lat="42.4303605" lon="-8.6004575"><ele>222.99999999999997</ele><time>2026-05-02T12:37:58.449Z</time></trkpt><trkpt lat="42.4304671" lon="-8.6004865"><ele>223.0</ele><time>2026-05-02T12:38:00.462Z</time></trkpt><trkpt lat="42.4305933" lon="-8.6004961"><ele>223.0</ele><time>2026-05-02T12:38:02.452Z</time></trkpt><trkpt lat="42.4306565" lon="-8.6004913"><ele>223.0</ele><time>2026-05-02T12:38:03.444Z</time></trkpt><trkpt lat="42.4307238" lon="-8.6004888"><ele>222.99999999999997</ele><time>2026-05-02T12:38:04.456Z</time></trkpt><trkpt lat="42.4307947" lon="-8.6005065"><ele>223.0</ele><time>2026-05-02T12:38:05.455Z</time></trkpt><trkpt lat="42.4308697" lon="-8.60054"><ele>222.16666666666666</ele><time>2026-05-02T12:38:06.449Z</time></trkpt><trkpt lat="42.4309525" lon="-8.6005685"><ele>221.33333333333331</ele><time>2026-05-02T12:38:07.45Z</time></trkpt><trkpt lat="42.4310348" lon="-8.6005931"><ele>220.5</ele><time>2026-05-02T12:38:08.45Z</time></trkpt><trkpt lat="42.4311151" lon="-8.6006094"><ele>219.66666666666669</ele><time>2026-05-02T12:38:09.454Z</time></trkpt><trkpt lat="42.4312062" lon="-8.6006241"><ele>218.83333333333334</ele><time>2026-05-02T12:38:10.458Z</time></trkpt><trkpt lat="42.4312995" lon="-8.6006365"><ele>218.0</ele><time>2026-05-02T12:38:11.451Z</time></trkpt><trkpt lat="42.4313882" lon="-8.6006494"><ele>217.33333333333334</ele><time>2026-05-02T12:38:12.45Z</time></trkpt><trkpt lat="42.4314689" lon="-8.6006629"><ele>216.66666666666669</ele><time>2026-05-02T12:38:13.452Z</time></trkpt><trkpt lat="42.4315505" lon="-8.6006776"><ele>216.0</ele><time>2026-05-02T12:38:14.456Z</time></trkpt><trkpt lat="42.4316265" lon="-8.6006979"><ele>215.33333333333331</ele><time>2026-05-02T12:38:15.448Z</time></trkpt><trkpt lat="42.4317076" lon="-8.6007129"><ele>214.66666666666666</ele><time>2026-05-02T12:38:16.454Z</time></trkpt><trkpt lat="42.4317799" lon="-8.6007113"><ele>214.0</ele><time>2026-05-02T12:38:17.46Z</time></trkpt><trkpt lat="42.4318478" lon="-8.6007068"><ele>213.99999999999997</ele><time>2026-05-02T12:38:18.451Z</time></trkpt><trkpt lat="42.4319166" lon="-8.6007091"><ele>214.0</ele><time>2026-05-02T12:38:19.449Z</time></trkpt><trkpt lat="42.4319882" lon="-8.600712"><ele>214.0</ele><time>2026-05-02T12:38:20.452Z</time></trkpt><trkpt lat="42.4320617" lon="-8.6007226"><ele>214.0</ele><time>2026-05-02T12:38:21.453Z</time></trkpt><trkpt lat="42.4321487" lon="-8.6007366"><ele>213.99999999999997</ele><time>2026-05-02T12:38:22.448Z</time></trkpt><trkpt lat="42.4322392" lon="-8.6007578"><ele>214.0</ele><time>2026-05-02T12:38:23.452Z</time></trkpt><trkpt lat="42.4323309" lon="-8.6007792"><ele>212.99999999999997</ele><time>2026-05-02T12:38:24.457Z</time></trkpt><trkpt lat="42.4324212" lon="-8.6007966"><ele>212.0</ele><time>2026-05-02T12:38:25.447Z</time></trkpt><trkpt lat="42.4325029" lon="-8.6008063"><ele>211.0</ele><time>2026-05-02T12:38:26.449Z</time></trkpt><trkpt lat="42.4325817" lon="-8.6008252"><ele>210.0</ele><time>2026-05-02T12:38:27.452Z</time></trkpt><trkpt lat="42.4326572" lon="-8.6008428"><ele>208.99999999999997</ele><time>2026-05-02T12:38:28.449Z</time></trkpt><trkpt lat="42.4327278" lon="-8.6008777"><ele>208.0</ele><time>2026-05-02T12:38:29.449Z</time></trkpt><trkpt lat="42.432804" lon="-8.6009484"><ele>207.99999999999997</ele><time>2026-05-02T12:38:30.452Z</time></trkpt><trkpt lat="42.4328768" lon="-8.6010417"><ele>208.0</ele><time>2026-05-02T12:38:31.448Z</time></trkpt><trkpt lat="42.4329596" lon="-8.6011258"><ele>208.0</ele><time>2026-05-02T12:38:32.45Z</time></trkpt><trkpt lat="42.4330307" lon="-8.6012018"><ele>208.0</ele><time>2026-05-02T12:38:33.458Z</time></trkpt><trkpt lat="42.4330976" lon="-8.601249"><ele>207.99999999999997</ele><time>2026-05-02T12:38:34.458Z</time></trkpt><trkpt lat="42.4331652" lon="-8.6012863"><ele>208.0</ele><time>2026-05-02T12:38:35.448Z</time></trkpt><trkpt lat="42.4332491" lon="-8.6013122"><ele>208.60000000000002</ele><time>2026-05-02T12:38:36.467Z</time></trkpt><trkpt lat="42.4333437" lon="-8.6013552"><ele>209.20000000000002</ele><time>2026-05-02T12:38:37.45Z</time></trkpt><trkpt lat="42.4334274" lon="-8.6014161"><ele>209.8</ele><time>2026-05-02T12:38:38.45Z</time></trkpt><trkpt lat="42.4335227" lon="-8.6014799"><ele>210.4</ele><time>2026-05-02T12:38:39.449Z</time></trkpt><trkpt lat="42.4336168" lon="-8.6015608"><ele>211.0</ele><time>2026-05-02T12:38:40.456Z</time></trkpt><trkpt lat="42.4336954" lon="-8.6016496"><ele>210.99999999999997</ele><time>2026-05-02T12:38:41.449Z</time></trkpt><trkpt lat="42.4337617" lon="-8.601738"><ele>211.0</ele><time>2026-05-02T12:38:42.455Z</time></trkpt><trkpt lat="42.4338206" lon="-8.6018165"><ele>211.0</ele><time>2026-05-02T12:38:43.443Z</time></trkpt><trkpt lat="42.4338809" lon="-8.6018863"><ele>211.0</ele><time>2026-05-02T12:38:44.453Z</time></trkpt><trkpt lat="42.4339417" lon="-8.6019469"><ele>210.99999999999997</ele><time>2026-05-02T12:38:45.445Z</time></trkpt><trkpt lat="42.434006" lon="-8.6019974"><ele>211.0</ele><time>2026-05-02T12:38:46.446Z</time></trkpt><trkpt lat="42.4340708" lon="-8.6020405"><ele>209.99999999999997</ele><time>2026-05-02T12:38:47.451Z</time></trkpt><trkpt lat="42.4341408" lon="-8.6020776"><ele>209.0</ele><time>2026-05-02T12:38:48.451Z</time></trkpt><trkpt lat="42.4342135" lon="-8.6020991"><ele>208.0</ele><time>2026-05-02T12:38:49.453Z</time></trkpt><trkpt lat="42.4342923" lon="-8.6021157"><ele>207.0</ele><time>2026-05-02T12:38:50.46Z</time></trkpt><trkpt lat="42.4343666" lon="-8.6021277"><ele>205.99999999999997</ele><time>2026-05-02T12:38:51.45Z</time></trkpt><trkpt lat="42.4344375" lon="-8.602136"><ele>205.0</ele><time>2026-05-02T12:38:52.449Z</time></trkpt><trkpt lat="42.4345166" lon="-8.6021312"><ele>204.99999999999997</ele><time>2026-05-02T12:38:53.455Z</time></trkpt><trkpt lat="42.4346076" lon="-8.6020898"><ele>205.0</ele><time>2026-05-02T12:38:54.452Z</time></trkpt><trkpt lat="42.4346965" lon="-8.6020303"><ele>205.0</ele><time>2026-05-02T12:38:55.45Z</time></trkpt><trkpt lat="42.4347778" lon="-8.601984"><ele>205.0</ele><time>2026-05-02T12:38:56.451Z</time></trkpt><trkpt lat="42.4348577" lon="-8.601957"><ele>204.99999999999997</ele><time>2026-05-02T12:38:57.456Z</time></trkpt><trkpt lat="42.4349236" lon="-8.6019472"><ele>205.0</ele><time>2026-05-02T12:38:58.452Z</time></trkpt><trkpt lat="42.4349898" lon="-8.6019499"><ele>203.83333333333331</ele><time>2026-05-02T12:38:59.454Z</time></trkpt><trkpt lat="42.4350612" lon="-8.6019781"><ele>202.66666666666666</ele><time>2026-05-02T12:39:00.454Z</time></trkpt><trkpt lat="42.435128" lon="-8.6020207"><ele>201.5</ele><time>2026-05-02T12:39:01.445Z</time></trkpt><trkpt lat="42.4351969" lon="-8.6020688"><ele>200.33333333333331</ele><time>2026-05-02T12:39:02.468Z</time></trkpt><trkpt lat="42.4352754" lon="-8.6021253"><ele>199.16666666666666</ele><time>2026-05-02T12:39:03.453Z</time></trkpt><trkpt lat="42.4353568" lon="-8.6021777"><ele>198.0</ele><time>2026-05-02T12:39:04.456Z</time></trkpt><trkpt lat="42.4354464" lon="-8.6022375"><ele>196.8</ele><time>2026-05-02T12:39:05.454Z</time></trkpt><trkpt lat="42.4355382" lon="-8.6023025"><ele>195.60000000000002</ele><time>2026-05-02T12:39:06.444Z</time></trkpt><trkpt lat="42.4356245" lon="-8.6023623"><ele>194.39999999999998</ele><time>2026-05-02T12:39:07.449Z</time></trkpt><trkpt lat="42.4357076" lon="-8.602419"><ele>193.2</ele><time>2026-05-02T12:39:08.459Z</time></trkpt><trkpt lat="42.4357918" lon="-8.6024666"><ele>192.0</ele><time>2026-05-02T12:39:09.444Z</time></trkpt><trkpt lat="42.4358845" lon="-8.602498"><ele>192.0</ele><time>2026-05-02T12:39:10.445Z</time></trkpt><trkpt lat="42.4359803" lon="-8.6025154"><ele>192.0</ele><time>2026-05-02T12:39:11.457Z</time></trkpt><trkpt lat="42.4360735" lon="-8.6025297"><ele>192.0</ele><time>2026-05-02T12:39:12.449Z</time></trkpt><trkpt lat="42.4361645" lon="-8.6025539"><ele>192.0</ele><time>2026-05-02T12:39:13.456Z</time></trkpt><trkpt lat="42.4362538" lon="-8.6025855"><ele>192.0</ele><time>2026-05-02T12:39:14.455Z</time></trkpt><trkpt lat="42.4363247" lon="-8.6026337"><ele>191.33333333333334</ele><time>2026-05-02T12:39:15.454Z</time></trkpt><trkpt lat="42.436379" lon="-8.6027141"><ele>190.66666666666666</ele><time>2026-05-02T12:39:16.454Z</time></trkpt><trkpt lat="42.4364224" lon="-8.6028005"><ele>190.0</ele><time>2026-05-02T12:39:17.463Z</time></trkpt><trkpt lat="42.4364615" lon="-8.6028852"><ele>189.33333333333331</ele><time>2026-05-02T12:39:18.447Z</time></trkpt><trkpt lat="42.4365048" lon="-8.6029716"><ele>188.66666666666666</ele><time>2026-05-02T12:39:19.448Z</time></trkpt><trkpt lat="42.4365412" lon="-8.6030448"><ele>188.0</ele><time>2026-05-02T12:39:20.453Z</time></trkpt><trkpt lat="42.4365939" lon="-8.603188"><ele>187.60000000000002</ele><time>2026-05-02T12:39:22.45Z</time></trkpt><trkpt lat="42.4366492" lon="-8.6033328"><ele>187.20000000000002</ele><time>2026-05-02T12:39:24.454Z</time></trkpt><trkpt lat="42.436719" lon="-8.6034298"><ele>186.8</ele><time>2026-05-02T12:39:26.455Z</time></trkpt><trkpt lat="42.4368093" lon="-8.6034131"><ele>186.4</ele><time>2026-05-02T12:39:28.453Z</time></trkpt><trkpt lat="42.4368719" lon="-8.6033336"><ele>186.0</ele><time>2026-05-02T12:39:29.447Z</time></trkpt><trkpt lat="42.4369477" lon="-8.6032502"><ele>186.0</ele><time>2026-05-02T12:39:30.449Z</time></trkpt><trkpt lat="42.437035" lon="-8.6031821"><ele>186.0</ele><time>2026-05-02T12:39:31.459Z</time></trkpt><trkpt lat="42.4371286" lon="-8.6031221"><ele>186.0</ele><time>2026-05-02T12:39:32.464Z</time></trkpt><trkpt lat="42.4372395" lon="-8.6030557"><ele>186.0</ele><time>2026-05-02T12:39:33.45Z</time></trkpt><trkpt lat="42.437361" lon="-8.6030135"><ele>184.75</ele><time>2026-05-02T12:39:34.459Z</time></trkpt><trkpt lat="42.4374959" lon="-8.6030005"><ele>183.5</ele><time>2026-05-02T12:39:35.456Z</time></trkpt><trkpt lat="42.4376286" lon="-8.6029806"><ele>182.25</ele><time>2026-05-02T12:39:36.448Z</time></trkpt><trkpt lat="42.4377573" lon="-8.6029436"><ele>181.0</ele><time>2026-05-02T12:39:37.454Z</time></trkpt><trkpt lat="42.4378829" lon="-8.6028952"><ele>180.20000000000002</ele><time>2026-05-02T12:39:38.454Z</time></trkpt><trkpt lat="42.4379892" lon="-8.6028284"><ele>179.4</ele><time>2026-05-02T12:39:39.465Z</time></trkpt><trkpt lat="42.4380807" lon="-8.6027249"><ele>178.6</ele><time>2026-05-02T12:39:40.459Z</time></trkpt><trkpt lat="42.4381562" lon="-8.602623"><ele>177.8</ele><time>2026-05-02T12:39:41.448Z</time></trkpt><trkpt lat="42.4382358" lon="-8.6025529"><ele>177.0</ele><time>2026-05-02T12:39:42.45Z</time></trkpt><trkpt lat="42.4383206" lon="-8.6025015"><ele>177.0</ele><time>2026-05-02T12:39:43.447Z</time></trkpt><trkpt lat="42.4384112" lon="-8.6024599"><ele>177.0</ele><time>2026-05-02T12:39:44.45Z</time></trkpt><trkpt lat="42.4385077" lon="-8.6024363"><ele>177.0</ele><time>2026-05-02T12:39:45.446Z</time></trkpt><trkpt lat="42.4386166" lon="-8.6024386"><ele>177.0</ele><time>2026-05-02T12:39:46.446Z</time></trkpt><trkpt lat="42.4387305" lon="-8.6024636"><ele>177.0</ele><time>2026-05-02T12:39:47.449Z</time></trkpt><trkpt lat="42.4388555" lon="-8.6024982"><ele>175.25</ele><time>2026-05-02T12:39:48.461Z</time></trkpt><trkpt lat="42.4389751" lon="-8.6025329"><ele>173.5</ele><time>2026-05-02T12:39:49.457Z</time></trkpt><trkpt lat="42.4391" lon="-8.602564"><ele>171.75</ele><time>2026-05-02T12:39:50.453Z</time></trkpt><trkpt lat="42.4392337" lon="-8.602596"><ele>170.0</ele><time>2026-05-02T12:39:51.458Z</time></trkpt><trkpt lat="42.4393614" lon="-8.6026054"><ele>170.0</ele><time>2026-05-02T12:39:52.461Z</time></trkpt><trkpt lat="42.4394688" lon="-8.6025905"><ele>170.0</ele><time>2026-05-02T12:39:53.444Z</time></trkpt><trkpt lat="42.4395739" lon="-8.6025698"><ele>170.0</ele><time>2026-05-02T12:39:54.449Z</time></trkpt><trkpt lat="42.4396696" lon="-8.6025546"><ele>170.0</ele><time>2026-05-02T12:39:55.451Z</time></trkpt><trkpt lat="42.4397583" lon="-8.6025477"><ele>170.0</ele><time>2026-05-02T12:39:56.449Z</time></trkpt><trkpt lat="42.4398432" lon="-8.6025233"><ele>168.66666666666666</ele><time>2026-05-02T12:39:57.452Z</time></trkpt><trkpt lat="42.4399335" lon="-8.6024935"><ele>167.33333333333331</ele><time>2026-05-02T12:39:58.454Z</time></trkpt><trkpt lat="42.4400093" lon="-8.6024503"><ele>166.0</ele><time>2026-05-02T12:39:59.453Z</time></trkpt><trkpt lat="42.4400755" lon="-8.6023969"><ele>164.66666666666666</ele><time>2026-05-02T12:40:00.453Z</time></trkpt><trkpt lat="42.4401369" lon="-8.6023362"><ele>163.33333333333334</ele><time>2026-05-02T12:40:01.456Z</time></trkpt><trkpt lat="42.4402009" lon="-8.6022629"><ele>162.0</ele><time>2026-05-02T12:40:02.457Z</time></trkpt><trkpt lat="42.4402613" lon="-8.602181"><ele>162.0</ele><time>2026-05-02T12:40:03.446Z</time></trkpt><trkpt lat="42.4403204" lon="-8.6021078"><ele>162.0</ele><time>2026-05-02T12:40:04.45Z</time></trkpt><trkpt lat="42.4403829" lon="-8.6020477"><ele>162.0</ele><time>2026-05-02T12:40:05.446Z</time></trkpt><trkpt lat="42.4404468" lon="-8.6019998"><ele>162.0</ele><time>2026-05-02T12:40:06.449Z</time></trkpt><trkpt lat="42.4405255" lon="-8.601961"><ele>162.0</ele><time>2026-05-02T12:40:07.446Z</time></trkpt><trkpt lat="42.4406183" lon="-8.6019229"><ele>162.0</ele><time>2026-05-02T12:40:08.453Z</time></trkpt><trkpt lat="42.4407132" lon="-8.6018867"><ele>158.0</ele><time>2026-05-02T12:40:09.453Z</time></trkpt><trkpt lat="42.4408088" lon="-8.6018529"><ele>154.0</ele><time>2026-05-02T12:40:10.455Z</time></trkpt><trkpt lat="42.4409036" lon="-8.6018225"><ele>150.0</ele><time>2026-05-02T12:40:11.454Z</time></trkpt><trkpt lat="42.4410122" lon="-8.6018069"><ele>146.0</ele><time>2026-05-02T12:40:12.45Z</time></trkpt><trkpt lat="42.4411206" lon="-8.6018031"><ele>142.0</ele><time>2026-05-02T12:40:13.453Z</time></trkpt><trkpt lat="42.4412214" lon="-8.6017984"><ele>138.4</ele><time>2026-05-02T12:40:14.447Z</time></trkpt><trkpt lat="42.4413166" lon="-8.6017902"><ele>134.79999999999998</ele><time>2026-05-02T12:40:15.45Z</time></trkpt><trkpt lat="42.4414109" lon="-8.6017772"><ele>131.2</ele><time>2026-05-02T12:40:16.453Z</time></trkpt><trkpt lat="42.4415043" lon="-8.601765"><ele>127.6</ele><time>2026-05-02T12:40:17.446Z</time></trkpt><trkpt lat="42.4415903" lon="-8.6017447"><ele>124.0</ele><time>2026-05-02T12:40:18.447Z</time></trkpt><trkpt lat="42.4416693" lon="-8.601714"><ele>124.00000000000001</ele><time>2026-05-02T12:40:19.457Z</time></trkpt><trkpt lat="42.4417419" lon="-8.6016763"><ele>124.0</ele><time>2026-05-02T12:40:20.445Z</time></trkpt><trkpt lat="42.4418137" lon="-8.6016375"><ele>124.0</ele><time>2026-05-02T12:40:21.456Z</time></trkpt><trkpt lat="42.4418726" lon="-8.6015895"><ele>124.0</ele><time>2026-05-02T12:40:22.443Z</time></trkpt><trkpt lat="42.4419128" lon="-8.6014316"><ele>124.00000000000001</ele><time>2026-05-02T12:40:24.454Z</time></trkpt><trkpt lat="42.4419064" lon="-8.601344"><ele>124.0</ele><time>2026-05-02T12:40:25.454Z</time></trkpt><trkpt lat="42.4418917" lon="-8.6012571"><ele>121.80000000000001</ele><time>2026-05-02T12:40:26.452Z</time></trkpt><trkpt lat="42.441845" lon="-8.6011291"><ele>119.60000000000001</ele><time>2026-05-02T12:40:28.449Z</time></trkpt><trkpt lat="42.4417667" lon="-8.6010843"><ele>117.4</ele><time>2026-05-02T12:40:30.453Z</time></trkpt><trkpt lat="42.4416802" lon="-8.6010361"><ele>115.2</ele><time>2026-05-02T12:40:32.453Z</time></trkpt><trkpt lat="42.4416731" lon="-8.6009294"><ele>113.0</ele><time>2026-05-02T12:40:34.452Z</time></trkpt><trkpt lat="42.4417572" lon="-8.6008295"><ele>112.99999999999999</ele><time>2026-05-02T12:40:36.45Z</time></trkpt><trkpt lat="42.4418074" lon="-8.6007772"><ele>113.0</ele><time>2026-05-02T12:40:37.444Z</time></trkpt><trkpt lat="42.4419205" lon="-8.6007356"><ele>113.0</ele><time>2026-05-02T12:40:39.45Z</time></trkpt><trkpt lat="42.4419925" lon="-8.6007324"><ele>113.0</ele><time>2026-05-02T12:40:40.451Z</time></trkpt><trkpt lat="42.4420549" lon="-8.6007194"><ele>112.99999999999999</ele><time>2026-05-02T12:40:41.449Z</time></trkpt><trkpt lat="42.4421389" lon="-8.6006831"><ele>113.0</ele><time>2026-05-02T12:40:43.447Z</time></trkpt><trkpt lat="42.4422141" lon="-8.6006635"><ele>108.60000000000001</ele><time>2026-05-02T12:40:45.453Z</time></trkpt><trkpt lat="42.4423015" lon="-8.6007848"><ele>104.20000000000002</ele><time>2026-05-02T12:40:47.448Z</time></trkpt><trkpt lat="42.4423454" lon="-8.6008796"><ele>99.8</ele><time>2026-05-02T12:40:48.452Z</time></trkpt><trkpt lat="42.4423867" lon="-8.6009859"><ele>95.4</ele><time>2026-05-02T12:40:49.455Z</time></trkpt><trkpt lat="42.4424156" lon="-8.6010988"><ele>91.0</ele><time>2026-05-02T12:40:50.449Z</time></trkpt><trkpt lat="42.4424287" lon="-8.6012165"><ele>91.0</ele><time>2026-05-02T12:40:51.458Z</time></trkpt><trkpt lat="42.4424307" lon="-8.6013303"><ele>91.0</ele><time>2026-05-02T12:40:52.453Z</time></trkpt><trkpt lat="42.442427" lon="-8.6014379"><ele>91.0</ele><time>2026-05-02T12:40:53.448Z</time></trkpt><trkpt lat="42.4424219" lon="-8.6015355"><ele>91.0</ele><time>2026-05-02T12:40:54.446Z</time></trkpt><trkpt lat="42.4424224" lon="-8.6016276"><ele>91.0</ele><time>2026-05-02T12:40:55.446Z</time></trkpt><trkpt lat="42.4424428" lon="-8.6017858"><ele>91.0</ele><time>2026-05-02T12:40:57.455Z</time></trkpt><trkpt lat="42.4425295" lon="-8.6018322"><ele>91.0</ele><time>2026-05-02T12:40:59.454Z</time></trkpt><trkpt lat="42.4426021" lon="-8.6018592"><ele>91.0</ele><time>2026-05-02T12:41:01.45Z</time></trkpt><trkpt lat="42.442638" lon="-8.6019357"><ele>91.0</ele><time>2026-05-02T12:41:03.457Z</time></trkpt><trkpt lat="42.4426616" lon="-8.6021133"><ele>91.0</ele><time>2026-05-02T12:41:05.449Z</time></trkpt><trkpt lat="42.442665" lon="-8.6022432"><ele>91.0</ele><time>2026-05-02T12:41:06.456Z</time></trkpt><trkpt lat="42.4426526" lon="-8.6023837"><ele>92.0</ele><time>2026-05-02T12:41:07.462Z</time></trkpt><trkpt lat="42.4426338" lon="-8.6025432"><ele>93.0</ele><time>2026-05-02T12:41:08.451Z</time></trkpt><trkpt lat="42.4426165" lon="-8.6027166"><ele>94.0</ele><time>2026-05-02T12:41:09.45Z</time></trkpt><trkpt lat="42.4426003" lon="-8.6028842"><ele>95.0</ele><time>2026-05-02T12:41:10.448Z</time></trkpt><trkpt lat="42.4425762" lon="-8.6030276"><ele>95.6</ele><time>2026-05-02T12:41:11.454Z</time></trkpt><trkpt lat="42.442551" lon="-8.6031559"><ele>96.2</ele><time>2026-05-02T12:41:12.458Z</time></trkpt><trkpt lat="42.4425213" lon="-8.6032816"><ele>96.80000000000001</ele><time>2026-05-02T12:41:13.443Z</time></trkpt><trkpt lat="42.4424833" lon="-8.6034032"><ele>97.4</ele><time>2026-05-02T12:41:14.454Z</time></trkpt><trkpt lat="42.4424383" lon="-8.6035126"><ele>98.0</ele><time>2026-05-02T12:41:15.449Z</time></trkpt><trkpt lat="42.4423882" lon="-8.6036153"><ele>98.0</ele><time>2026-05-02T12:41:16.449Z</time></trkpt><trkpt lat="42.4423378" lon="-8.6037013"><ele>98.0</ele><time>2026-05-02T12:41:17.451Z</time></trkpt><trkpt lat="42.4422838" lon="-8.6037693"><ele>98.0</ele><time>2026-05-02T12:41:18.455Z</time></trkpt><trkpt lat="42.4421845" lon="-8.6038468"><ele>98.0</ele><time>2026-05-02T12:41:20.45Z</time></trkpt><trkpt lat="42.4420788" lon="-8.6039015"><ele>98.0</ele><time>2026-05-02T12:41:22.446Z</time></trkpt><trkpt lat="42.4419799" lon="-8.6040022"><ele>103.0</ele><time>2026-05-02T12:41:24.451Z</time></trkpt><trkpt lat="42.441907" lon="-8.6041222"><ele>108.0</ele><time>2026-05-02T12:41:26.454Z</time></trkpt><trkpt lat="42.441826" lon="-8.6042331"><ele>113.00000000000001</ele><time>2026-05-02T12:41:28.453Z</time></trkpt><trkpt lat="42.4417319" lon="-8.6043418"><ele>118.0</ele><time>2026-05-02T12:41:30.449Z</time></trkpt><trkpt lat="42.4416837" lon="-8.604398"><ele>123.0</ele><time>2026-05-02T12:41:31.45Z</time></trkpt><trkpt lat="42.4415941" lon="-8.6044954"><ele>120.83333333333333</ele><time>2026-05-02T12:41:33.454Z</time></trkpt><trkpt lat="42.4415158" lon="-8.6046022"><ele>118.66666666666666</ele><time>2026-05-02T12:41:35.449Z</time></trkpt><trkpt lat="42.441476" lon="-8.6046806"><ele>116.5</ele><time>2026-05-02T12:41:36.445Z</time></trkpt><trkpt lat="42.4414465" lon="-8.6047561"><ele>114.33333333333333</ele><time>2026-05-02T12:41:37.448Z</time></trkpt><trkpt lat="42.4414179" lon="-8.604837"><ele>112.16666666666666</ele><time>2026-05-02T12:41:38.455Z</time></trkpt><trkpt lat="42.4413529" lon="-8.6049961"><ele>110.0</ele><time>2026-05-02T12:41:40.45Z</time></trkpt><trkpt lat="42.4413234" lon="-8.605079"><ele>112.4</ele><time>2026-05-02T12:41:41.457Z</time></trkpt><trkpt lat="42.4412779" lon="-8.6051913"><ele>114.8</ele><time>2026-05-02T12:41:43.447Z</time></trkpt><trkpt lat="42.4412228" lon="-8.6052502"><ele>117.19999999999999</ele><time>2026-05-02T12:41:45.453Z</time></trkpt><trkpt lat="42.4411655" lon="-8.6053281"><ele>119.6</ele><time>2026-05-02T12:41:47.456Z</time></trkpt><trkpt lat="42.4410891" lon="-8.6054354"><ele>122.0</ele><time>2026-05-02T12:41:49.453Z</time></trkpt><trkpt lat="42.4410147" lon="-8.6055622"><ele>121.99999999999999</ele><time>2026-05-02T12:41:51.458Z</time></trkpt><trkpt lat="42.4409354" lon="-8.6056758"><ele>122.0</ele><time>2026-05-02T12:41:53.452Z</time></trkpt><trkpt lat="42.4408865" lon="-8.6057324"><ele>122.0</ele><time>2026-05-02T12:41:54.45Z</time></trkpt><trkpt lat="42.4408396" lon="-8.6057991"><ele>122.0</ele><time>2026-05-02T12:41:55.444Z</time></trkpt><trkpt lat="42.4407902" lon="-8.6058591"><ele>121.99999999999999</ele><time>2026-05-02T12:41:56.446Z</time></trkpt><trkpt lat="42.4407383" lon="-8.605929"><ele>122.0</ele><time>2026-05-02T12:41:57.446Z</time></trkpt><trkpt lat="42.44069" lon="-8.606001"><ele>121.99999999999999</ele><time>2026-05-02T12:41:58.447Z</time></trkpt><trkpt lat="42.4406105" lon="-8.6060928"><ele>122.0</ele><time>2026-05-02T12:42:00.445Z</time></trkpt><trkpt lat="42.440572" lon="-8.6061774"><ele>122.0</ele><time>2026-05-02T12:42:03.455Z</time></trkpt><trkpt lat="42.4405216" lon="-8.6062728"><ele>122.0</ele><time>2026-05-02T12:42:06.455Z</time></trkpt><trkpt lat="42.4404677" lon="-8.6063819"><ele>121.99999999999999</ele><time>2026-05-02T12:42:09.45Z</time></trkpt><trkpt lat="42.4404314" lon="-8.6064635"><ele>122.0</ele><time>2026-05-02T12:42:11.45Z</time></trkpt><trkpt lat="42.4404018" lon="-8.6065601"><ele>121.99999999999999</ele><time>2026-05-02T12:42:13.445Z</time></trkpt><trkpt lat="42.4403497" lon="-8.6066556"><ele>122.0</ele><time>2026-05-02T12:42:16.45Z</time></trkpt><trkpt lat="42.4402905" lon="-8.606703"><ele>122.0</ele><time>2026-05-02T12:42:18.447Z</time></trkpt><trkpt lat="42.4402917" lon="-8.6068193"><ele>122.0</ele><time>2026-05-02T12:42:21.45Z</time></trkpt><trkpt lat="42.4403364" lon="-8.6069133"><ele>121.99999999999999</ele><time>2026-05-02T12:42:24.445Z</time></trkpt><trkpt lat="42.4404068" lon="-8.6070381"><ele>122.0</ele><time>2026-05-02T12:42:26.462Z</time></trkpt><trkpt lat="42.4404525" lon="-8.6071443"><ele>122.49999999999999</ele><time>2026-05-02T12:42:28.441Z</time></trkpt><trkpt lat="42.4404945" lon="-8.6072777"><ele>123.0</ele><time>2026-05-02T12:42:30.457Z</time></trkpt><trkpt lat="42.4405098" lon="-8.6073801"><ele>123.5</ele><time>2026-05-02T12:42:31.457Z</time></trkpt><trkpt lat="42.4405313" lon="-8.6074986"><ele>124.0</ele><time>2026-05-02T12:42:32.456Z</time></trkpt><trkpt lat="42.4405459" lon="-8.6076066"><ele>124.49999999999999</ele><time>2026-05-02T12:42:33.444Z</time></trkpt><trkpt lat="42.4405534" lon="-8.6076922"><ele>125.0</ele><time>2026-05-02T12:42:34.451Z</time></trkpt><trkpt lat="42.4405871" lon="-8.6078237"><ele>126.49999999999999</ele><time>2026-05-02T12:42:36.444Z</time></trkpt><trkpt lat="42.4406523" lon="-8.6079427"><ele>128.0</ele><time>2026-05-02T12:42:38.451Z</time></trkpt><trkpt lat="42.440706" lon="-8.6079958"><ele>129.5</ele><time>2026-05-02T12:42:39.454Z</time></trkpt><trkpt lat="42.4407751" lon="-8.60805"><ele>131.0</ele><time>2026-05-02T12:42:40.451Z</time></trkpt><trkpt lat="42.4408496" lon="-8.6081076"><ele>132.5</ele><time>2026-05-02T12:42:41.453Z</time></trkpt><trkpt lat="42.4409336" lon="-8.6081542"><ele>134.0</ele><time>2026-05-02T12:42:42.446Z</time></trkpt><trkpt lat="42.4410246" lon="-8.6081879"><ele>134.0</ele><time>2026-05-02T12:42:43.447Z</time></trkpt><trkpt lat="42.4411162" lon="-8.6082179"><ele>134.0</ele><time>2026-05-02T12:42:44.448Z</time></trkpt><trkpt lat="42.4412092" lon="-8.6082474"><ele>134.0</ele><time>2026-05-02T12:42:45.449Z</time></trkpt><trkpt lat="42.4412996" lon="-8.6082815"><ele>134.0</ele><time>2026-05-02T12:42:46.456Z</time></trkpt><trkpt lat="42.4413768" lon="-8.6083246"><ele>134.0</ele><time>2026-05-02T12:42:47.45Z</time></trkpt><trkpt lat="42.4414331" lon="-8.6083907"><ele>134.0</ele><time>2026-05-02T12:42:48.449Z</time></trkpt><trkpt lat="42.4414577" lon="-8.6084765"><ele>133.6</ele><time>2026-05-02T12:42:49.458Z</time></trkpt><trkpt lat="42.4414446" lon="-8.6085833"><ele>133.2</ele><time>2026-05-02T12:42:50.45Z</time></trkpt><trkpt lat="42.4414008" lon="-8.6086888"><ele>132.79999999999998</ele><time>2026-05-02T12:42:51.454Z</time></trkpt><trkpt lat="42.4413452" lon="-8.6087982"><ele>132.4</ele><time>2026-05-02T12:42:53.446Z</time></trkpt><trkpt lat="42.4413014" lon="-8.6088767"><ele>132.0</ele><time>2026-05-02T12:42:55.452Z</time></trkpt><trkpt lat="42.4412306" lon="-8.6090134"><ele>132.0</ele><time>2026-05-02T12:42:57.46Z</time></trkpt><trkpt lat="42.4411854" lon="-8.6091063"><ele>132.0</ele><time>2026-05-02T12:42:58.449Z</time></trkpt><trkpt lat="42.441134" lon="-8.6092126"><ele>132.0</ele><time>2026-05-02T12:42:59.453Z</time></trkpt><trkpt lat="42.441082" lon="-8.60932"><ele>132.0</ele><time>2026-05-02T12:43:00.465Z</time></trkpt><trkpt lat="42.4410285" lon="-8.609429"><ele>132.0</ele><time>2026-05-02T12:43:01.449Z</time></trkpt><trkpt lat="42.4409797" lon="-8.6095413"><ele>130.5</ele><time>2026-05-02T12:43:02.454Z</time></trkpt><trkpt lat="42.440931" lon="-8.6096521"><ele>129.0</ele><time>2026-05-02T12:43:03.456Z</time></trkpt><trkpt lat="42.4408809" lon="-8.6097654"><ele>127.5</ele><time>2026-05-02T12:43:04.45Z</time></trkpt><trkpt lat="42.4408341" lon="-8.6098781"><ele>126.0</ele><time>2026-05-02T12:43:05.45Z</time></trkpt><trkpt lat="42.4407977" lon="-8.6099659"><ele>124.5</ele><time>2026-05-02T12:43:06.448Z</time></trkpt><trkpt lat="42.4407739" lon="-8.610045"><ele>123.0</ele><time>2026-05-02T12:43:07.448Z</time></trkpt><trkpt lat="42.4407729" lon="-8.6101327"><ele>123.0</ele><time>2026-05-02T12:43:08.452Z</time></trkpt><trkpt lat="42.4407943" lon="-8.6102313"><ele>123.00000000000001</ele><time>2026-05-02T12:43:09.443Z</time></trkpt><trkpt lat="42.440823" lon="-8.6103465"><ele>123.00000000000001</ele><time>2026-05-02T12:43:10.458Z</time></trkpt><trkpt lat="42.4408476" lon="-8.6104786"><ele>123.0</ele><time>2026-05-02T12:43:11.444Z</time></trkpt><trkpt lat="42.4408775" lon="-8.6106139"><ele>123.0</ele><time>2026-05-02T12:43:12.455Z</time></trkpt><trkpt lat="42.4409119" lon="-8.6107599"><ele>122.0</ele><time>2026-05-02T12:43:13.453Z</time></trkpt><trkpt lat="42.4409458" lon="-8.6109035"><ele>121.00000000000001</ele><time>2026-05-02T12:43:14.447Z</time></trkpt><trkpt lat="42.4409734" lon="-8.6110384"><ele>120.00000000000001</ele><time>2026-05-02T12:43:15.451Z</time></trkpt><trkpt lat="42.4409961" lon="-8.6111687"><ele>119.0</ele><time>2026-05-02T12:43:16.449Z</time></trkpt><trkpt lat="42.4410236" lon="-8.611296"><ele>118.0</ele><time>2026-05-02T12:43:17.458Z</time></trkpt><trkpt lat="42.4410473" lon="-8.6114121"><ele>117.00000000000001</ele><time>2026-05-02T12:43:18.458Z</time></trkpt><trkpt lat="42.4410757" lon="-8.6115266"><ele>116.0</ele><time>2026-05-02T12:43:19.448Z</time></trkpt><trkpt lat="42.441106" lon="-8.6116374"><ele>115.0</ele><time>2026-05-02T12:43:20.448Z</time></trkpt><trkpt lat="42.441136" lon="-8.6117364"><ele>114.0</ele><time>2026-05-02T12:43:21.454Z</time></trkpt><trkpt lat="42.4411665" lon="-8.6118329"><ele>113.00000000000001</ele><time>2026-05-02T12:43:22.45Z</time></trkpt><trkpt lat="42.4411838" lon="-8.6119316"><ele>112.0</ele><time>2026-05-02T12:43:23.449Z</time></trkpt><trkpt lat="42.4411821" lon="-8.6120452"><ele>111.83333333333334</ele><time>2026-05-02T12:43:24.452Z</time></trkpt><trkpt lat="42.4411686" lon="-8.6121628"><ele>111.66666666666667</ele><time>2026-05-02T12:43:25.455Z</time></trkpt><trkpt lat="42.441145" lon="-8.6122772"><ele>111.5</ele><time>2026-05-02T12:43:26.451Z</time></trkpt><trkpt lat="42.4411192" lon="-8.6123906"><ele>111.33333333333334</ele><time>2026-05-02T12:43:27.454Z</time></trkpt><trkpt lat="42.4410898" lon="-8.6125036"><ele>111.16666666666667</ele><time>2026-05-02T12:43:28.461Z</time></trkpt><trkpt lat="42.4410577" lon="-8.6126193"><ele>111.0</ele><time>2026-05-02T12:43:29.445Z</time></trkpt><trkpt lat="42.4410286" lon="-8.6127424"><ele>109.83333333333333</ele><time>2026-05-02T12:43:30.447Z</time></trkpt><trkpt lat="42.4410142" lon="-8.6128642"><ele>108.66666666666666</ele><time>2026-05-02T12:43:31.456Z</time></trkpt><trkpt lat="42.4410188" lon="-8.612973"><ele>107.5</ele><time>2026-05-02T12:43:32.454Z</time></trkpt><trkpt lat="42.4410357" lon="-8.6130729"><ele>106.33333333333333</ele><time>2026-05-02T12:43:33.448Z</time></trkpt><trkpt lat="42.4410494" lon="-8.6131717"><ele>105.16666666666666</ele><time>2026-05-02T12:43:34.447Z</time></trkpt><trkpt lat="42.4410466" lon="-8.6132755"><ele>104.0</ele><time>2026-05-02T12:43:35.446Z</time></trkpt><trkpt lat="42.441036" lon="-8.6133816"><ele>103.99999999999999</ele><time>2026-05-02T12:43:36.443Z</time></trkpt><trkpt lat="42.441016" lon="-8.613489"><ele>104.0</ele><time>2026-05-02T12:43:37.45Z</time></trkpt><trkpt lat="42.4409912" lon="-8.6136043"><ele>104.0</ele><time>2026-05-02T12:43:38.448Z</time></trkpt><trkpt lat="42.4409671" lon="-8.6137249"><ele>104.0</ele><time>2026-05-02T12:43:39.462Z</time></trkpt><trkpt lat="42.4409533" lon="-8.6138493"><ele>103.99999999999999</ele><time>2026-05-02T12:43:40.45Z</time></trkpt><trkpt lat="42.440954" lon="-8.6139726"><ele>104.0</ele><time>2026-05-02T12:43:41.447Z</time></trkpt><trkpt lat="42.4409689" lon="-8.6140897"><ele>103.6</ele><time>2026-05-02T12:43:42.455Z</time></trkpt><trkpt lat="42.441005" lon="-8.6141936"><ele>103.2</ele><time>2026-05-02T12:43:43.447Z</time></trkpt><trkpt lat="42.4410677" lon="-8.6142781"><ele>102.8</ele><time>2026-05-02T12:43:44.449Z</time></trkpt><trkpt lat="42.4411361" lon="-8.6143637"><ele>102.39999999999999</ele><time>2026-05-02T12:43:45.451Z</time></trkpt><trkpt lat="42.4412024" lon="-8.6144573"><ele>102.0</ele><time>2026-05-02T12:43:46.447Z</time></trkpt><trkpt lat="42.4412624" lon="-8.6145672"><ele>100.83333333333333</ele><time>2026-05-02T12:43:47.452Z</time></trkpt><trkpt lat="42.4413201" lon="-8.6146701"><ele>99.66666666666667</ele><time>2026-05-02T12:43:48.447Z</time></trkpt><trkpt lat="42.4413781" lon="-8.6147654"><ele>98.5</ele><time>2026-05-02T12:43:49.452Z</time></trkpt><trkpt lat="42.441435" lon="-8.6148502"><ele>97.33333333333334</ele><time>2026-05-02T12:43:50.445Z</time></trkpt><trkpt lat="42.4414853" lon="-8.6149392"><ele>96.16666666666667</ele><time>2026-05-02T12:43:51.451Z</time></trkpt><trkpt lat="42.4415119" lon="-8.6150297"><ele>95.0</ele><time>2026-05-02T12:43:52.455Z</time></trkpt><trkpt lat="42.4415203" lon="-8.6151282"><ele>95.0</ele><time>2026-05-02T12:43:53.46Z</time></trkpt><trkpt lat="42.4415229" lon="-8.6152276"><ele>95.0</ele><time>2026-05-02T12:43:54.45Z</time></trkpt><trkpt lat="42.441525" lon="-8.6153241"><ele>95.0</ele><time>2026-05-02T12:43:55.453Z</time></trkpt><trkpt lat="42.4415216" lon="-8.6154107"><ele>95.0</ele><time>2026-05-02T12:43:56.447Z</time></trkpt><trkpt lat="42.4414991" lon="-8.6155672"><ele>95.0</ele><time>2026-05-02T12:43:58.46Z</time></trkpt><trkpt lat="42.4414936" lon="-8.6156619"><ele>95.0</ele><time>2026-05-02T12:44:00.443Z</time></trkpt><trkpt lat="42.4415666" lon="-8.6157192"><ele>94.16666666666667</ele><time>2026-05-02T12:44:03.454Z</time></trkpt><trkpt lat="42.4416178" lon="-8.6157738"><ele>93.33333333333334</ele><time>2026-05-02T12:44:05.447Z</time></trkpt><trkpt lat="42.4415965" lon="-8.6158897"><ele>92.5</ele><time>2026-05-02T12:44:07.451Z</time></trkpt><trkpt lat="42.4415111" lon="-8.6160318"><ele>91.66666666666667</ele><time>2026-05-02T12:44:09.46Z</time></trkpt><trkpt lat="42.4414709" lon="-8.6161169"><ele>90.83333333333333</ele><time>2026-05-02T12:44:10.449Z</time></trkpt><trkpt lat="42.4414298" lon="-8.6162039"><ele>90.0</ele><time>2026-05-02T12:44:11.448Z</time></trkpt><trkpt lat="42.441389" lon="-8.6162968"><ele>90.6</ele><time>2026-05-02T12:44:12.45Z</time></trkpt><trkpt lat="42.4413389" lon="-8.6164075"><ele>91.2</ele><time>2026-05-02T12:44:13.453Z</time></trkpt><trkpt lat="42.4412857" lon="-8.6165285"><ele>91.80000000000001</ele><time>2026-05-02T12:44:14.454Z</time></trkpt><trkpt lat="42.4412343" lon="-8.6166479"><ele>92.4</ele><time>2026-05-02T12:44:15.447Z</time></trkpt><trkpt lat="42.4411811" lon="-8.6167733"><ele>93.0</ele><time>2026-05-02T12:44:16.447Z</time></trkpt><trkpt lat="42.441122" lon="-8.6169023"><ele>92.5</ele><time>2026-05-02T12:44:17.442Z</time></trkpt><trkpt lat="42.441063" lon="-8.6170379"><ele>92.0</ele><time>2026-05-02T12:44:18.453Z</time></trkpt><trkpt lat="42.4410034" lon="-8.6171685"><ele>91.5</ele><time>2026-05-02T12:44:19.446Z</time></trkpt><trkpt lat="42.4409375" lon="-8.6173004"><ele>91.0</ele><time>2026-05-02T12:44:20.451Z</time></trkpt><trkpt lat="42.4408725" lon="-8.6174245"><ele>91.0</ele><time>2026-05-02T12:44:21.452Z</time></trkpt><trkpt lat="42.4408142" lon="-8.6175258"><ele>91.0</ele><time>2026-05-02T12:44:22.453Z</time></trkpt><trkpt lat="42.4407766" lon="-8.6176138"><ele>91.0</ele><time>2026-05-02T12:44:23.447Z</time></trkpt><trkpt lat="42.4407793" lon="-8.617732"><ele>91.0</ele><time>2026-05-02T12:44:25.455Z</time></trkpt><trkpt lat="42.4408318" lon="-8.6178362"><ele>91.0</ele><time>2026-05-02T12:44:27.448Z</time></trkpt><trkpt lat="42.4408729" lon="-8.6179078"><ele>91.0</ele><time>2026-05-02T12:44:28.442Z</time></trkpt><trkpt lat="42.4409119" lon="-8.6180075"><ele>90.19999999999999</ele><time>2026-05-02T12:44:29.45Z</time></trkpt><trkpt lat="42.4409512" lon="-8.6181294"><ele>89.39999999999999</ele><time>2026-05-02T12:44:30.45Z</time></trkpt><trkpt lat="42.4409918" lon="-8.6182586"><ele>88.6</ele><time>2026-05-02T12:44:31.455Z</time></trkpt><trkpt lat="42.4410313" lon="-8.618381"><ele>87.8</ele><time>2026-05-02T12:44:32.453Z</time></trkpt><trkpt lat="42.4410698" lon="-8.6184962"><ele>87.0</ele><time>2026-05-02T12:44:33.443Z</time></trkpt><trkpt lat="42.4411022" lon="-8.6186087"><ele>86.19999999999999</ele><time>2026-05-02T12:44:34.454Z</time></trkpt><trkpt lat="42.4411324" lon="-8.6187207"><ele>85.4</ele><time>2026-05-02T12:44:35.445Z</time></trkpt><trkpt lat="42.4411648" lon="-8.618837"><ele>84.6</ele><time>2026-05-02T12:44:36.453Z</time></trkpt><trkpt lat="42.4412028" lon="-8.6189478"><ele>83.80000000000001</ele><time>2026-05-02T12:44:37.444Z</time></trkpt><trkpt lat="42.4412564" lon="-8.619051"><ele>83.0</ele><time>2026-05-02T12:44:38.467Z</time></trkpt><trkpt lat="42.4413278" lon="-8.6191354"><ele>82.0</ele><time>2026-05-02T12:44:39.452Z</time></trkpt><trkpt lat="42.4414093" lon="-8.6192101"><ele>81.0</ele><time>2026-05-02T12:44:40.443Z</time></trkpt><trkpt lat="42.441486" lon="-8.6192872"><ele>80.0</ele><time>2026-05-02T12:44:41.448Z</time></trkpt><trkpt lat="42.4415577" lon="-8.6193848"><ele>79.0</ele><time>2026-05-02T12:44:42.444Z</time></trkpt><trkpt lat="42.4416173" lon="-8.6194938"><ele>78.0</ele><time>2026-05-02T12:44:43.445Z</time></trkpt><trkpt lat="42.4416715" lon="-8.6196185"><ele>78.0</ele><time>2026-05-02T12:44:44.45Z</time></trkpt><trkpt lat="42.4417173" lon="-8.6197486"><ele>78.0</ele><time>2026-05-02T12:44:45.445Z</time></trkpt><trkpt lat="42.4417605" lon="-8.6198803"><ele>78.0</ele><time>2026-05-02T12:44:46.456Z</time></trkpt><trkpt lat="42.4418045" lon="-8.6200146"><ele>78.0</ele><time>2026-05-02T12:44:47.444Z</time></trkpt><trkpt lat="42.441847" lon="-8.620149"><ele>78.0</ele><time>2026-05-02T12:44:48.445Z</time></trkpt><trkpt lat="42.4418908" lon="-8.6202754"><ele>78.2</ele><time>2026-05-02T12:44:49.445Z</time></trkpt><trkpt lat="42.4419417" lon="-8.6203938"><ele>78.4</ele><time>2026-05-02T12:44:50.45Z</time></trkpt><trkpt lat="42.4419898" lon="-8.6205142"><ele>78.60000000000001</ele><time>2026-05-02T12:44:51.459Z</time></trkpt><trkpt lat="42.4420433" lon="-8.6206313"><ele>78.8</ele><time>2026-05-02T12:44:52.451Z</time></trkpt><trkpt lat="42.4420935" lon="-8.6207515"><ele>79.0</ele><time>2026-05-02T12:44:53.447Z</time></trkpt><trkpt lat="42.4421436" lon="-8.6208575"><ele>78.66666666666666</ele><time>2026-05-02T12:44:54.451Z</time></trkpt><trkpt lat="42.442196" lon="-8.620964"><ele>78.33333333333333</ele><time>2026-05-02T12:44:55.444Z</time></trkpt><trkpt lat="42.4422539" lon="-8.6210565"><ele>78.0</ele><time>2026-05-02T12:44:56.446Z</time></trkpt><trkpt lat="42.4423136" lon="-8.6211407"><ele>77.66666666666667</ele><time>2026-05-02T12:44:57.456Z</time></trkpt><trkpt lat="42.442366" lon="-8.6212288"><ele>77.33333333333334</ele><time>2026-05-02T12:44:58.459Z</time></trkpt><trkpt lat="42.4424199" lon="-8.6213236"><ele>77.0</ele><time>2026-05-02T12:44:59.447Z</time></trkpt><trkpt lat="42.442465" lon="-8.6214108"><ele>76.33333333333334</ele><time>2026-05-02T12:45:00.452Z</time></trkpt><trkpt lat="42.4425128" lon="-8.6214871"><ele>75.66666666666667</ele><time>2026-05-02T12:45:01.444Z</time></trkpt><trkpt lat="42.442562" lon="-8.6215536"><ele>75.0</ele><time>2026-05-02T12:45:02.448Z</time></trkpt><trkpt lat="42.4426233" lon="-8.6216152"><ele>74.33333333333333</ele><time>2026-05-02T12:45:03.448Z</time></trkpt><trkpt lat="42.4427059" lon="-8.6216518"><ele>73.66666666666666</ele><time>2026-05-02T12:45:04.459Z</time></trkpt><trkpt lat="42.4428016" lon="-8.6216892"><ele>73.0</ele><time>2026-05-02T12:45:05.443Z</time></trkpt><trkpt lat="42.4429063" lon="-8.6217388"><ele>73.0</ele><time>2026-05-02T12:45:06.449Z</time></trkpt><trkpt lat="42.4430061" lon="-8.621799"><ele>73.0</ele><time>2026-05-02T12:45:07.443Z</time></trkpt><trkpt lat="42.4431135" lon="-8.6218586"><ele>73.0</ele><time>2026-05-02T12:45:08.447Z</time></trkpt><trkpt lat="42.4432183" lon="-8.6219308"><ele>73.0</ele><time>2026-05-02T12:45:09.458Z</time></trkpt><trkpt lat="42.4433147" lon="-8.6220033"><ele>72.0</ele><time>2026-05-02T12:45:10.452Z</time></trkpt><trkpt lat="42.4433973" lon="-8.622061"><ele>71.0</ele><time>2026-05-02T12:45:11.447Z</time></trkpt><trkpt lat="42.4434708" lon="-8.6221188"><ele>70.0</ele><time>2026-05-02T12:45:12.447Z</time></trkpt><trkpt lat="42.4435482" lon="-8.6221754"><ele>69.0</ele><time>2026-05-02T12:45:13.456Z</time></trkpt><trkpt lat="42.4436199" lon="-8.6222402"><ele>68.0</ele><time>2026-05-02T12:45:14.461Z</time></trkpt><trkpt lat="42.4436779" lon="-8.6223044"><ele>67.0</ele><time>2026-05-02T12:45:15.452Z</time></trkpt><trkpt lat="42.4437204" lon="-8.622389"><ele>67.0</ele><time>2026-05-02T12:45:16.451Z</time></trkpt><trkpt lat="42.4437663" lon="-8.6224808"><ele>67.0</ele><time>2026-05-02T12:45:17.458Z</time></trkpt><trkpt lat="42.4438141" lon="-8.6225736"><ele>67.0</ele><time>2026-05-02T12:45:18.445Z</time></trkpt><trkpt lat="42.4438609" lon="-8.6226588"><ele>67.0</ele><time>2026-05-02T12:45:19.448Z</time></trkpt><trkpt lat="42.4439025" lon="-8.622762"><ele>67.0</ele><time>2026-05-02T12:45:20.448Z</time></trkpt><trkpt lat="42.4439493" lon="-8.6228414"><ele>67.0</ele><time>2026-05-02T12:45:21.451Z</time></trkpt><trkpt lat="42.4440353" lon="-8.6229439"><ele>66.5</ele><time>2026-05-02T12:45:23.447Z</time></trkpt><trkpt lat="42.4440707" lon="-8.6230466"><ele>66.0</ele><time>2026-05-02T12:45:25.457Z</time></trkpt><trkpt lat="42.4441577" lon="-8.6230677"><ele>65.5</ele><time>2026-05-02T12:45:27.449Z</time></trkpt><trkpt lat="42.4442337" lon="-8.6231114"><ele>65.0</ele><time>2026-05-02T12:45:29.446Z</time></trkpt><trkpt lat="42.444337" lon="-8.6231981"><ele>64.5</ele><time>2026-05-02T12:45:31.451Z</time></trkpt><trkpt lat="42.4443985" lon="-8.62325"><ele>64.0</ele><time>2026-05-02T12:45:32.442Z</time></trkpt><trkpt lat="42.4444542" lon="-8.623308"><ele>63.99999999999999</ele><time>2026-05-02T12:45:33.45Z</time></trkpt><trkpt lat="42.4444992" lon="-8.6233698"><ele>64.0</ele><time>2026-05-02T12:45:34.451Z</time></trkpt><trkpt lat="42.4445444" lon="-8.6234352"><ele>64.0</ele><time>2026-05-02T12:45:35.451Z</time></trkpt><trkpt lat="42.4446159" lon="-8.6235592"><ele>64.0</ele><time>2026-05-02T12:45:37.452Z</time></trkpt><trkpt lat="42.4446813" lon="-8.6236206"><ele>63.99999999999999</ele><time>2026-05-02T12:45:39.446Z</time></trkpt><trkpt lat="42.444774" lon="-8.6236439"><ele>64.0</ele><time>2026-05-02T12:45:41.446Z</time></trkpt><trkpt lat="42.4448841" lon="-8.6237718"><ele>62.400000000000006</ele><time>2026-05-02T12:45:43.458Z</time></trkpt><trkpt lat="42.4449321" lon="-8.6238856"><ele>60.800000000000004</ele><time>2026-05-02T12:45:44.449Z</time></trkpt><trkpt lat="42.4449792" lon="-8.6240084"><ele>59.199999999999996</ele><time>2026-05-02T12:45:45.441Z</time></trkpt><trkpt lat="42.4450185" lon="-8.6241364"><ele>57.599999999999994</ele><time>2026-05-02T12:45:46.451Z</time></trkpt><trkpt lat="42.4450377" lon="-8.6242826"><ele>56.0</ele><time>2026-05-02T12:45:47.445Z</time></trkpt><trkpt lat="42.4450538" lon="-8.6244425"><ele>54.75</ele><time>2026-05-02T12:45:48.451Z</time></trkpt><trkpt lat="42.4450655" lon="-8.6246129"><ele>53.5</ele><time>2026-05-02T12:45:49.45Z</time></trkpt><trkpt lat="42.4450819" lon="-8.6247757"><ele>52.25</ele><time>2026-05-02T12:45:50.459Z</time></trkpt><trkpt lat="42.4451036" lon="-8.6249274"><ele>51.0</ele><time>2026-05-02T12:45:51.446Z</time></trkpt><trkpt lat="42.445151" lon="-8.6250958"><ele>51.0</ele><time>2026-05-02T12:45:52.451Z</time></trkpt><trkpt lat="42.4452019" lon="-8.6252554"><ele>51.0</ele><time>2026-05-02T12:45:53.448Z</time></trkpt><trkpt lat="42.4452587" lon="-8.6254143"><ele>51.0</ele><time>2026-05-02T12:45:54.445Z</time></trkpt><trkpt lat="42.445315" lon="-8.6255774"><ele>51.0</ele><time>2026-05-02T12:45:55.444Z</time></trkpt><trkpt lat="42.4453765" lon="-8.625734"><ele>50.0</ele><time>2026-05-02T12:45:56.453Z</time></trkpt><trkpt lat="42.445438" lon="-8.6258874"><ele>49.0</ele><time>2026-05-02T12:45:57.46Z</time></trkpt><trkpt lat="42.4454958" lon="-8.6260388"><ele>48.0</ele><time>2026-05-02T12:45:58.448Z</time></trkpt><trkpt lat="42.4455486" lon="-8.6261869"><ele>47.0</ele><time>2026-05-02T12:45:59.447Z</time></trkpt><trkpt lat="42.4456075" lon="-8.6263424"><ele>44.0</ele><time>2026-05-02T12:46:00.448Z</time></trkpt><trkpt lat="42.4456667" lon="-8.6265016"><ele>41.0</ele><time>2026-05-02T12:46:01.449Z</time></trkpt><trkpt lat="42.445721" lon="-8.626653"><ele>38.0</ele><time>2026-05-02T12:46:02.448Z</time></trkpt><trkpt lat="42.4457779" lon="-8.626781"><ele>35.0</ele><time>2026-05-02T12:46:03.451Z</time></trkpt><trkpt lat="42.4458442" lon="-8.626894"><ele>35.0</ele><time>2026-05-02T12:46:04.449Z</time></trkpt><trkpt lat="42.445927" lon="-8.6269956"><ele>35.0</ele><time>2026-05-02T12:46:05.444Z</time></trkpt><trkpt lat="42.4460125" lon="-8.6270895"><ele>35.0</ele><time>2026-05-02T12:46:06.448Z</time></trkpt><trkpt lat="42.4461049" lon="-8.6271858"><ele>35.0</ele><time>2026-05-02T12:46:07.448Z</time></trkpt><trkpt lat="42.4462075" lon="-8.6272751"><ele>31.25</ele><time>2026-05-02T12:46:08.447Z</time></trkpt><trkpt lat="42.446333" lon="-8.6273387"><ele>27.5</ele><time>2026-05-02T12:46:09.458Z</time></trkpt><trkpt lat="42.4464656" lon="-8.6273973"><ele>23.75</ele><time>2026-05-02T12:46:10.453Z</time></trkpt><trkpt lat="42.4466006" lon="-8.6274581"><ele>20.0</ele><time>2026-05-02T12:46:11.45Z</time></trkpt><trkpt lat="42.4467297" lon="-8.6275153"><ele>20.0</ele><time>2026-05-02T12:46:12.451Z</time></trkpt><trkpt lat="42.4468588" lon="-8.6275739"><ele>20.0</ele><time>2026-05-02T12:46:13.443Z</time></trkpt><trkpt lat="42.4469928" lon="-8.6276353"><ele>20.0</ele><time>2026-05-02T12:46:14.445Z</time></trkpt><trkpt lat="42.447134" lon="-8.627694"><ele>20.0</ele><time>2026-05-02T12:46:15.453Z</time></trkpt><trkpt lat="42.447288" lon="-8.6277643"><ele>20.333333333333336</ele><time>2026-05-02T12:46:16.449Z</time></trkpt><trkpt lat="42.4474466" lon="-8.6278511"><ele>20.666666666666668</ele><time>2026-05-02T12:46:17.46Z</time></trkpt><trkpt lat="42.4475949" lon="-8.6279302"><ele>21.0</ele><time>2026-05-02T12:46:18.445Z</time></trkpt><trkpt lat="42.4477336" lon="-8.6279932"><ele>21.0</ele><time>2026-05-02T12:46:19.445Z</time></trkpt><trkpt lat="42.4478425" lon="-8.6280504"><ele>21.0</ele><time>2026-05-02T12:46:20.454Z</time></trkpt><trkpt lat="42.4479476" lon="-8.6281097"><ele>21.0</ele><time>2026-05-02T12:46:21.455Z</time></trkpt><trkpt lat="42.4480707" lon="-8.6281626"><ele>21.0</ele><time>2026-05-02T12:46:22.452Z</time></trkpt><trkpt lat="42.448208" lon="-8.6282154"><ele>27.0</ele><time>2026-05-02T12:46:23.452Z</time></trkpt><trkpt lat="42.4483571" lon="-8.6282692"><ele>33.0</ele><time>2026-05-02T12:46:24.448Z</time></trkpt><trkpt lat="42.4485054" lon="-8.6283327"><ele>39.0</ele><time>2026-05-02T12:46:25.445Z</time></trkpt><trkpt lat="42.4486504" lon="-8.6284045"><ele>39.0</ele><time>2026-05-02T12:46:26.459Z</time></trkpt><trkpt lat="42.4487844" lon="-8.6284808"><ele>39.0</ele><time>2026-05-02T12:46:27.447Z</time></trkpt><trkpt lat="42.4489251" lon="-8.6285641"><ele>39.0</ele><time>2026-05-02T12:46:28.446Z</time></trkpt><trkpt lat="42.4490522" lon="-8.6286534"><ele>39.0</ele><time>2026-05-02T12:46:29.447Z</time></trkpt><trkpt lat="42.4491712" lon="-8.6287337"><ele>40.5</ele><time>2026-05-02T12:46:30.445Z</time></trkpt><trkpt lat="42.4492985" lon="-8.6288141"><ele>42.0</ele><time>2026-05-02T12:46:31.453Z</time></trkpt><trkpt lat="42.4494205" lon="-8.6289122"><ele>43.5</ele><time>2026-05-02T12:46:32.447Z</time></trkpt><trkpt lat="42.449529" lon="-8.6290252"><ele>45.0</ele><time>2026-05-02T12:46:33.445Z</time></trkpt><trkpt lat="42.4496262" lon="-8.6291728"><ele>45.0</ele><time>2026-05-02T12:46:34.444Z</time></trkpt><trkpt lat="42.4497285" lon="-8.6293343"><ele>45.0</ele><time>2026-05-02T12:46:35.449Z</time></trkpt><trkpt lat="42.4498147" lon="-8.6294987"><ele>45.0</ele><time>2026-05-02T12:46:36.454Z</time></trkpt><trkpt lat="42.4498718" lon="-8.6296671"><ele>45.0</ele><time>2026-05-02T12:46:37.455Z</time></trkpt><trkpt lat="42.4499" lon="-8.6298286"><ele>44.4</ele><time>2026-05-02T12:46:38.449Z</time></trkpt><trkpt lat="42.449944" lon="-8.629971"><ele>43.8</ele><time>2026-05-02T12:46:39.452Z</time></trkpt><trkpt lat="42.4499732" lon="-8.630108"><ele>43.2</ele><time>2026-05-02T12:46:40.452Z</time></trkpt><trkpt lat="42.449995" lon="-8.630224"><ele>42.6</ele><time>2026-05-02T12:46:41.451Z</time></trkpt><trkpt lat="42.450021" lon="-8.630342"><ele>42.0</ele><time>2026-05-02T12:46:42.453Z</time></trkpt><trkpt lat="42.450037" lon="-8.6304516"><ele>42.0</ele><time>2026-05-02T12:46:43.454Z</time></trkpt><trkpt lat="42.4500454" lon="-8.6305702"><ele>42.0</ele><time>2026-05-02T12:46:44.456Z</time></trkpt><trkpt lat="42.4500566" lon="-8.6306858"><ele>42.0</ele><time>2026-05-02T12:46:45.449Z</time></trkpt><trkpt lat="42.4500628" lon="-8.6307841"><ele>42.0</ele><time>2026-05-02T12:46:46.45Z</time></trkpt><trkpt lat="42.4500632" lon="-8.6308783"><ele>42.0</ele><time>2026-05-02T12:46:47.444Z</time></trkpt><trkpt lat="42.4500696" lon="-8.6309768"><ele>42.0</ele><time>2026-05-02T12:46:48.454Z</time></trkpt><trkpt lat="42.4500693" lon="-8.6310704"><ele>42.5</ele><time>2026-05-02T12:46:49.453Z</time></trkpt><trkpt lat="42.450073" lon="-8.6311643"><ele>43.0</ele><time>2026-05-02T12:46:50.446Z</time></trkpt><trkpt lat="42.4500813" lon="-8.6312634"><ele>43.5</ele><time>2026-05-02T12:46:51.457Z</time></trkpt><trkpt lat="42.4500961" lon="-8.6313619"><ele>44.0</ele><time>2026-05-02T12:46:52.454Z</time></trkpt><trkpt lat="42.4501177" lon="-8.6314492"><ele>44.5</ele><time>2026-05-02T12:46:53.447Z</time></trkpt><trkpt lat="42.4501904" lon="-8.6315704"><ele>45.0</ele><time>2026-05-02T12:46:55.462Z</time></trkpt><trkpt lat="42.4502886" lon="-8.6315427"><ele>45.0</ele><time>2026-05-02T12:46:57.452Z</time></trkpt><trkpt lat="42.450339" lon="-8.6314618"><ele>45.0</ele><time>2026-05-02T12:46:58.455Z</time></trkpt><trkpt lat="42.4503916" lon="-8.631358"><ele>45.0</ele><time>2026-05-02T12:46:59.446Z</time></trkpt><trkpt lat="42.4504313" lon="-8.6312126"><ele>45.0</ele><time>2026-05-02T12:47:00.445Z</time></trkpt><trkpt lat="42.45048" lon="-8.6310298"><ele>45.0</ele><time>2026-05-02T12:47:01.446Z</time></trkpt><trkpt lat="42.4505318" lon="-8.6308374"><ele>46.33333333333333</ele><time>2026-05-02T12:47:02.449Z</time></trkpt><trkpt lat="42.4505867" lon="-8.6306434"><ele>47.666666666666664</ele><time>2026-05-02T12:47:03.452Z</time></trkpt><trkpt lat="42.450643" lon="-8.6304538"><ele>49.0</ele><time>2026-05-02T12:47:04.45Z</time></trkpt><trkpt lat="42.4506975" lon="-8.6302664"><ele>49.0</ele><time>2026-05-02T12:47:05.447Z</time></trkpt><trkpt lat="42.4507505" lon="-8.6300825"><ele>49.0</ele><time>2026-05-02T12:47:06.449Z</time></trkpt><trkpt lat="42.4508" lon="-8.6299007"><ele>49.0</ele><time>2026-05-02T12:47:07.45Z</time></trkpt><trkpt lat="42.4508405" lon="-8.6297355"><ele>49.0</ele><time>2026-05-02T12:47:08.447Z</time></trkpt><trkpt lat="42.4508855" lon="-8.6295835"><ele>49.0</ele><time>2026-05-02T12:47:09.443Z</time></trkpt><trkpt lat="42.450919" lon="-8.629432"><ele>49.0</ele><time>2026-05-02T12:47:10.45Z</time></trkpt><trkpt lat="42.4509469" lon="-8.6292954"><ele>49.0</ele><time>2026-05-02T12:47:11.452Z</time></trkpt><trkpt lat="42.4509916" lon="-8.6291818"><ele>49.0</ele><time>2026-05-02T12:47:12.456Z</time></trkpt><trkpt lat="42.4510662" lon="-8.629085"><ele>49.0</ele><time>2026-05-02T12:47:13.445Z</time></trkpt><trkpt lat="42.4511601" lon="-8.6289889"><ele>49.0</ele><time>2026-05-02T12:47:14.465Z</time></trkpt><trkpt lat="42.4512607" lon="-8.6288897"><ele>49.0</ele><time>2026-05-02T12:47:15.452Z</time></trkpt><trkpt lat="42.4513557" lon="-8.6287894"><ele>49.0</ele><time>2026-05-02T12:47:16.448Z</time></trkpt><trkpt lat="42.4514501" lon="-8.6286901"><ele>49.0</ele><time>2026-05-02T12:47:17.452Z</time></trkpt><trkpt lat="42.451539" lon="-8.6285868"><ele>49.25</ele><time>2026-05-02T12:47:18.454Z</time></trkpt><trkpt lat="42.4516188" lon="-8.6284818"><ele>49.5</ele><time>2026-05-02T12:47:19.445Z</time></trkpt><trkpt lat="42.4516976" lon="-8.628366"><ele>49.75</ele><time>2026-05-02T12:47:20.455Z</time></trkpt><trkpt lat="42.4517736" lon="-8.6282477"><ele>50.0</ele><time>2026-05-02T12:47:21.449Z</time></trkpt><trkpt lat="42.4518549" lon="-8.628129"><ele>50.0</ele><time>2026-05-02T12:47:22.453Z</time></trkpt><trkpt lat="42.4519389" lon="-8.6280132"><ele>50.0</ele><time>2026-05-02T12:47:23.447Z</time></trkpt><trkpt lat="42.452022" lon="-8.627901"><ele>50.0</ele><time>2026-05-02T12:47:24.452Z</time></trkpt><trkpt lat="42.4520898" lon="-8.6278095"><ele>50.0</ele><time>2026-05-02T12:47:25.45Z</time></trkpt><trkpt lat="42.4521589" lon="-8.627719"><ele>50.0</ele><time>2026-05-02T12:47:26.452Z</time></trkpt><trkpt lat="42.4522143" lon="-8.6276437"><ele>49.85714285714286</ele><time>2026-05-02T12:47:27.458Z</time></trkpt><trkpt lat="42.4522681" lon="-8.6275774"><ele>49.714285714285715</ele><time>2026-05-02T12:47:29.447Z</time></trkpt><trkpt lat="42.4522234" lon="-8.6276444"><ele>49.57142857142857</ele><time>2026-05-02T12:48:11.444Z</time></trkpt><trkpt lat="42.4521568" lon="-8.6276406"><ele>49.42857142857143</ele><time>2026-05-02T12:48:57.449Z</time></trkpt><trkpt lat="42.4521257" lon="-8.6277293"><ele>49.285714285714285</ele><time>2026-05-02T12:49:13.448Z</time></trkpt><trkpt lat="42.4520589" lon="-8.6277432"><ele>49.142857142857146</ele><time>2026-05-02T12:49:27.447Z</time></trkpt><trkpt lat="42.4521259" lon="-8.6277221"><ele>49.0</ele><time>2026-05-02T12:49:38.449Z</time></trkpt><trkpt lat="42.4521828" lon="-8.6276855"><ele>49.0</ele><time>2026-05-02T12:49:42.445Z</time></trkpt><trkpt lat="42.4521149" lon="-8.6276954"><ele>49.0</ele><time>2026-05-02T12:50:28.447Z</time></trkpt><trkpt lat="42.4520994" lon="-8.6275963"><ele>49.0</ele><time>2026-05-02T12:52:20.448Z</time></trkpt><trkpt lat="42.4521096" lon="-8.6275119"><ele>49.0</ele><time>2026-05-02T12:52:37.442Z</time></trkpt><trkpt lat="42.4520822" lon="-8.627409"><ele>49.0</ele><time>2026-05-02T12:52:54.45Z</time></trkpt></trkseg></trk></gpx>